GFSGL_prec_precacc_009.txt.gz
Total_Precipitation_Accumulation
0.00 0.00 0.00 0.00 0.00 0.00 0.00 0.00 0.00 0.00 0.00 0.00 0.00 0.00 0.00 0.00 0.00 0.01 0.00 0.00 0.00 0.00 0.00 0.00 0.00 0.00 0.00 0.00 0.00 0.00 0.00 0.00 0.00 0.00 0.00 0.00 0.00 0.00 0.00 0.00 0.00 0.01 0.02
0.00 0.00 0.00 0.00 0.00 0.00 0.00 0.00 0.00 0.00 0.00 0.00 0.00 0.00 0.00 0.00 0.00 0.00 0.00 0.00 0.00 0.00 0.00 0.00 0.00 0.00 0.00 0.00 0.00 0.00 0.00 0.00 0.00 0.00 0.00 0.00 0.00 0.00 0.00 0.01 0.01 0.01 0.03
0.00 0.00 0.00 0.00 0.00 0.00 0.00 0.00 0.00 0.00 0.00 0.00 0.00 0.00 0.00 0.00 0.00 0.00 0.00 0.00 0.00 0.00 0.00 0.00 0.00 0.00 0.00 0.00 0.00 0.00 0.00 0.01 0.01 0.03 0.01 0.00 0.00 0.00 0.00 0.00 0.01 0.02 0.02
0.00 0.00 0.00 0.00 0.00 0.00 0.00 0.00 0.00 0.00 0.00 0.00 0.00 0.00 0.00 0.00 0.00 0.00 0.00 0.00 0.00 0.00 0.00 0.00 0.00 0.00 0.00 0.00 0.01 0.01 0.01 0.01 0.01 0.01 0.01 0.01 0.00 0.00 0.01 0.03 0.05 0.04 0.03
0.00 0.00 0.00 0.00 0.00 0.00 0.00 0.00 0.00 0.00 0.00 0.00 0.00 0.00 0.00 0.00 0.00 0.00 0.00 0.00 0.00 0.00 0.00 0.00 0.00 0.00 0.00 0.00 0.01 0.01 0.01 0.01 0.02 0.02 0.02 0.01 0.01 0.02 0.05 0.04 0.04 0.03 0.04
0.00 0.00 0.00 0.00 0.00 0.00 0.00 0.00 0.00 0.00 0.00 0.00 0.00 0.01 0.01 0.00 0.00 0.00 0.00 0.00 0.00 0.00 0.00 0.00 0.00 0.00 0.00 0.00 0.00 0.00 0.00 0.02 0.04 0.04 0.03 0.03 0.02 0.02 0.07 0.11 0.09 0.05 0.03
0.00 0.00 0.00 0.00 0.00 0.00 0.00 0.00 0.00 0.00 0.00 0.00 0.01 0.01 0.01 0.02 0.00 0.00 0.00 0.00 0.00 0.00 0.00 0.00 0.00 0.00 0.00 0.00 0.00 0.00 0.01 0.01 0.03 0.04 0.05 0.04 0.04 0.04 0.06 0.09 0.09 0.07 0.04
0.00 0.00 0.00 0.00 0.00 0.00 0.00 0.00 0.00 0.00 0.00 0.00 0.00 0.00 0.00 0.00 0.00 0.00 0.00 0.00 0.00 0.00 0.00 0.00 0.00 0.00 0.00 0.00 0.01 0.02 0.01 0.00 0.00 0.01 0.03 0.03 0.03 0.04 0.05 0.05 0.04 0.03 0.01
0.00 0.00 0.00 0.00 0.00 0.00 0.00 0.00 0.00 0.00 0.00 0.00 0.00 0.00 0.00 0.00 0.00 0.00 0.00 0.00 0.00 0.00 0.00 0.00 0.00 0.00 0.00 0.01 0.01 0.01 0.00 0.00 0.01 0.01 0.01 0.01 0.00 0.00 0.01 0.05 0.05 0.06 0.05
0.00 0.00 0.00 0.00 0.00 0.00 0.00 0.00 0.00 0.00 0.00 0.00 0.00 0.00 0.00 0.00 0.00 0.00 0.00 0.00 0.00 0.00 0.00 0.00 0.00 0.00 0.00 0.00 0.01 0.01 0.01 0.02 0.01 0.01 0.01 0.01 0.01 0.01 0.00 0.02 0.02 0.08 0.09
0.00 0.00 0.00 0.00 0.00 0.00 0.00 0.00 0.00 0.00 0.00 0.00 0.00 0.00 0.00 0.00 0.00 0.00 0.00 0.00 0.00 0.00 0.00 0.00 0.00 0.00 0.00 0.00 0.00 0.01 0.04 0.01 0.00 0.01 0.01 0.01 0.01 0.02 0.02 0.03 0.03 0.03 0.03
0.00 0.00 0.00 0.00 0.00 0.00 0.00 0.00 0.00 0.00 0.00 0.00 0.00 0.00 0.00 0.00 0.00 0.00 0.00 0.00 0.00 0.00 0.00 0.00 0.00 0.00 0.00 0.00 0.00 0.00 0.00 0.00 0.01 0.02 0.02 0.02 0.02 0.02 0.02 0.03 0.04 0.04 0.02
0.00 0.00 0.00 0.00 0.00 0.00 0.00 0.00 0.00 0.00 0.00 0.00 0.00 0.00 0.00 0.00 0.00 0.00 0.00 0.00 0.00 0.00 0.00 0.00 0.00 0.00 0.00 0.00 0.00 0.00 0.00 0.00 0.01 0.01 0.02 0.02 0.02 0.02 0.03 0.06 0.07 0.03 0.02
0.00 0.00 0.00 0.00 0.00 0.00 0.00 0.00 0.00 0.00 0.00 0.00 0.00 0.00 0.00 0.00 0.00 0.00 0.00 0.00 0.00 0.00 0.00 0.00 0.00 0.00 0.00 0.00 0.00 0.00 0.00 0.00 0.01 0.02 0.02 0.02 0.03 0.04 0.07 0.13 0.14 0.15 0.09
0.00 0.00 0.00 0.00 0.00 0.00 0.00 0.00 0.00 0.00 0.00 0.00 0.00 0.00 0.00 0.00 0.00 0.00 0.00 0.00 0.00 0.00 0.00 0.00 0.00 0.00 0.00 0.00 0.00 0.00 0.00 0.00 0.00 0.00 0.01 0.02 0.02 0.03 0.04 0.06 0.08 0.14 0.24
0.00 0.00 0.00 0.00 0.00 0.00 0.00 0.00 0.00 0.00 0.00 0.00 0.00 0.00 0.00 0.00 0.00 0.00 0.00 0.00 0.00 0.00 0.00 0.00 0.01 0.01 0.00 0.00 0.00 0.00 0.00 0.00 0.00 0.00 0.01 0.01 0.02 0.02 0.02 0.03 0.04 0.07 0.15
0.00 0.00 0.00 0.00 0.00 0.01 0.01 0.00 0.00 0.00 0.00 0.00 0.00 0.00 0.00 0.00 0.00 0.00 0.00 0.00 0.00 0.00 0.00 0.00 0.01 0.01 0.01 0.00 0.00 0.00 0.00 0.00 0.00 0.00 0.00 0.01 0.01 0.01 0.02 0.02 0.02 0.02 0.03
0.00 0.00 0.00 0.00 0.00 0.01 0.01 0.01 0.01 0.02 0.02 0.01 0.01 0.00 0.00 0.00 0.00 0.00 0.00 0.00 0.00 0.00 0.01 0.01 0.01 0.01 0.01 0.00 0.00 0.00 0.00 0.00 0.00 0.00 0.00 0.01 0.01 0.01 0.02 0.02 0.02 0.02 0.01
0.00 0.00 0.00 0.00 0.00 0.00 0.01 0.01 0.00 0.01 0.01 0.01 0.01 0.00 0.00 0.00 0.00 0.00 0.00 0.01 0.01 0.00 0.01 0.01 0.01 0.01 0.01 0.00 0.01 0.01 0.00 0.00 0.00 0.00 0.00 0.00 0.00 0.00 0.01 0.01 0.02 0.01 0.01
0.00 0.00 0.00 0.00 0.00 0.00 0.01 0.01 0.01 0.01 0.01 0.01 0.01 0.00 0.00 0.00 0.01 0.01 0.02 0.02 0.01 0.01 0.01 0.00 0.00 0.00 0.00 0.00 0.01 0.01 0.01 0.00 0.00 0.00 0.00 0.00 0.00 0.00 0.00 0.00 0.01 0.01 0.00
0.00 0.00 0.00 0.01 0.01 0.01 0.02 0.02 0.02 0.02 0.02 0.02 0.02 0.01 0.00 0.00 0.01 0.01 0.02 0.03 0.02 0.01 0.01 0.01 0.01 0.01 0.01 0.01 0.01 0.01 0.01 0.00 0.00 0.00 0.00 0.00 0.00 0.00 0.00 0.00 0.00 0.00 0.00
0.00 0.01 0.00 0.01 0.01 0.02 0.02 0.02 0.03 0.03 0.02 0.02 0.02 0.01 0.00 0.00 0.00 0.01 0.01 0.01 0.01 0.01 0.01 0.01 0.01 0.01 0.01 0.01 0.01 0.01 0.01 0.00 0.00 0.00 0.00 0.00 0.00 0.00 0.00 0.00 0.00 0.00 0.00
0.00 0.00 0.01 0.01 0.02 0.03 0.03 0.02 0.03 0.03 0.03 0.03 0.02 0.02 0.02 0.03 0.01 0.00 0.00 0.00 0.01 0.01 0.01 0.01 0.01 0.00 0.00 0.00 0.00 0.00 0.00 0.00 0.00 0.00 0.00 0.00 0.00 0.00 0.00 0.00 0.00 0.00 0.00
0.01 0.01 0.01 0.02 0.03 0.04 0.04 0.02 0.02 0.02 0.02 0.03 0.03 0.03 0.02 0.03 0.03 0.02 0.01 0.01 0.01 0.02 0.02 0.02 0.01 0.00 0.00 0.00 0.00 0.00 0.00 0.00 0.00 0.00 0.00 0.00 0.00 0.00 0.00 0.00 0.00 0.00 0.00
0.02 0.02 0.03 0.03 0.04 0.05 0.05 0.04 0.05 0.05 0.05 0.07 0.07 0.08 0.06 0.06 0.06 0.04 0.02 0.03 0.04 0.04 0.04 0.03 0.03 0.03 0.01 0.01 0.00 0.00 0.00 0.00 0.00 0.00 0.00 0.00 0.00 0.00 0.00 0.00 0.00 0.00 0.00
0.04 0.07 0.09 0.10 0.10 0.09 0.08 0.09 0.09 0.09 0.09 0.08 0.08 0.07 0.06 0.05 0.04 0.03 0.02 0.03 0.03 0.04 0.03 0.04 0.04 0.02 0.02 0.02 0.01 0.00 0.00 0.00 0.00 0.00 0.00 0.00 0.00 0.00 0.00 0.00 0.00 0.00 0.00

GFSGL_prec_precacc_015.txt.gz
Total_Precipitation_Accumulation
0.00 0.00 0.00 0.00 0.00 0.00 0.00 0.00 0.00 0.00 0.00 0.00 0.00 0.00 0.00 0.00 0.00 0.01 0.00 0.00 0.00 0.00 0.00 0.00 0.00 0.00 0.00 0.00 0.00 0.00 0.00 0.00 0.00 0.00 0.00 0.00 0.00 0.00 0.00 0.00 0.00 0.01 0.02
0.00 0.00 0.00 0.00 0.00 0.00 0.00 0.00 0.00 0.00 0.00 0.00 0.00 0.00 0.00 0.00 0.00 0.00 0.00 0.00 0.00 0.00 0.01 0.00 0.00 0.00 0.00 0.00 0.00 0.00 0.00 0.00 0.00 0.00 0.00 0.00 0.00 0.00 0.00 0.01 0.01 0.01 0.03
0.00 0.00 0.00 0.00 0.00 0.00 0.00 0.00 0.00 0.00 0.00 0.00 0.00 0.00 0.00 0.00 0.00 0.00 0.00 0.00 0.00 0.01 0.00 0.00 0.00 0.00 0.00 0.00 0.00 0.00 0.00 0.01 0.01 0.03 0.01 0.00 0.00 0.00 0.00 0.00 0.01 0.02 0.03
0.00 0.00 0.00 0.00 0.00 0.00 0.00 0.00 0.00 0.00 0.00 0.00 0.00 0.00 0.00 0.00 0.00 0.00 0.00 0.00 0.00 0.00 0.00 0.00 0.00 0.00 0.00 0.00 0.01 0.01 0.01 0.01 0.01 0.01 0.01 0.01 0.00 0.00 0.01 0.03 0.05 0.04 0.03
0.00 0.00 0.00 0.00 0.00 0.00 0.00 0.00 0.00 0.00 0.00 0.00 0.00 0.00 0.00 0.00 0.00 0.00 0.00 0.00 0.00 0.00 0.00 0.00 0.00 0.00 0.00 0.00 0.01 0.01 0.01 0.01 0.02 0.02 0.02 0.02 0.01 0.03 0.05 0.05 0.04 0.03 0.04
0.00 0.00 0.00 0.00 0.00 0.00 0.00 0.00 0.00 0.00 0.00 0.00 0.00 0.01 0.01 0.01 0.00 0.00 0.00 0.00 0.00 0.00 0.00 0.00 0.00 0.00 0.00 0.00 0.00 0.00 0.00 0.02 0.04 0.04 0.03 0.03 0.02 0.03 0.08 0.12 0.10 0.06 0.03
0.00 0.00 0.00 0.00 0.00 0.00 0.00 0.00 0.00 0.00 0.00 0.00 0.01 0.01 0.01 0.02 0.00 0.00 0.00 0.00 0.00 0.00 0.00 0.00 0.00 0.00 0.00 0.00 0.00 0.00 0.01 0.01 0.03 0.04 0.06 0.05 0.06 0.06 0.07 0.09 0.10 0.08 0.04
0.00 0.00 0.00 0.00 0.00 0.00 0.00 0.00 0.00 0.00 0.00 0.00 0.00 0.00 0.00 0.00 0.00 0.00 0.00 0.00 0.00 0.00 0.00 0.00 0.00 0.00 0.00 0.00 0.01 0.02 0.01 0.00 0.00 0.01 0.03 0.03 0.03 0.04 0.05 0.05 0.04 0.03 0.01
0.00 0.00 0.00 0.00 0.00 0.00 0.00 0.00 0.00 0.00 0.00 0.00 0.00 0.00 0.00 0.00 0.00 0.00 0.00 0.00 0.00 0.00 0.00 0.00 0.00 0.00 0.00 0.01 0.01 0.01 0.00 0.00 0.01 0.01 0.01 0.01 0.00 0.00 0.01 0.06 0.06 0.08 0.05
0.00 0.00 0.00 0.00 0.01 0.00 0.00 0.00 0.00 0.00 0.00 0.00 0.00 0.00 0.00 0.00 0.00 0.00 0.00 0.00 0.00 0.00 0.00 0.00 0.00 0.00 0.00 0.00 0.01 0.01 0.01 0.02 0.01 0.01 0.01 0.01 0.01 0.01 0.01 0.04 0.06 0.11 0.11
0.00 0.00 0.02 0.02 0.01 0.01 0.00 0.00 0.00 0.00 0.00 0.00 0.00 0.00 0.00 0.00 0.00 0.00 0.00 0.00 0.00 0.00 0.00 0.00 0.00 0.00 0.00 0.00 0.00 0.01 0.04 0.01 0.00 0.01 0.01 0.01 0.02 0.02 0.03 0.04 0.05 0.07 0.11
0.03 0.04 0.03 0.02 0.00 0.00 0.00 0.00 0.00 0.00 0.00 0.00 0.00 0.00 0.00 0.00 0.00 0.00 0.00 0.00 0.00 0.00 0.00 0.00 0.00 0.00 0.00 0.00 0.00 0.00 0.00 0.00 0.01 0.02 0.02 0.02 0.02 0.02 0.03 0.03 0.04 0.06 0.07
0.05 0.03 0.01 0.00 0.00 0.00 0.00 0.00 0.00 0.00 0.00 0.00 0.00 0.00 0.00 0.01 0.01 0.00 0.00 0.00 0.00 0.00 0.00 0.00 0.00 0.00 0.00 0.00 0.00 0.00 0.00 0.00 0.01 0.01 0.02 0.02 0.02 0.02 0.03 0.06 0.09 0.07 0.03
0.01 0.01 0.00 0.00 0.00 0.00 0.00 0.00 0.00 0.00 0.00 0.00 0.00 0.00 0.01 0.01 0.00 0.00 0.00 0.00 0.00 0.00 0.00 0.00 0.00 0.00 0.00 0.00 0.00 0.00 0.00 0.00 0.01 0.02 0.02 0.02 0.03 0.04 0.07 0.13 0.14 0.17 0.15
0.00 0.00 0.00 0.00 0.00 0.00 0.00 0.00 0.00 0.00 0.00 0.00 0.01 0.01 0.01 0.00 0.00 0.00 0.00 0.00 0.00 0.00 0.00 0.00 0.00 0.00 0.00 0.00 0.00 0.00 0.00 0.00 0.00 0.00 0.01 0.02 0.02 0.03 0.04 0.06 0.09 0.14 0.29
0.00 0.00 0.00 0.00 0.00 0.00 0.00 0.00 0.00 0.00 0.00 0.00 0.00 0.00 0.00 0.00 0.00 0.00 0.00 0.00 0.00 0.00 0.00 0.00 0.01 0.01 0.01 0.01 0.00 0.00 0.00 0.00 0.00 0.00 0.01 0.01 0.02 0.02 0.02 0.03 0.04 0.07 0.15
0.00 0.00 0.00 0.00 0.00 0.01 0.01 0.00 0.00 0.00 0.00 0.00 0.00 0.00 0.00 0.00 0.00 0.00 0.00 0.00 0.00 0.00 0.00 0.01 0.01 0.01 0.01 0.01 0.00 0.00 0.00 0.00 0.00 0.00 0.00 0.01 0.01 0.01 0.02 0.03 0.02 0.02 0.03
0.00 0.00 0.00 0.00 0.00 0.01 0.01 0.01 0.01 0.02 0.03 0.02 0.01 0.00 0.00 0.00 0.00 0.00 0.00 0.00 0.01 0.01 0.01 0.01 0.01 0.01 0.01 0.00 0.00 0.00 0.00 0.00 0.00 0.00 0.00 0.01 0.01 0.01 0.02 0.02 0.02 0.02 0.01
0.00 0.00 0.00 0.00 0.01 0.00 0.01 0.01 0.01 0.02 0.02 0.01 0.01 0.00 0.00 0.00 0.00 0.00 0.00 0.03 0.01 0.01 0.01 0.01 0.01 0.01 0.01 0.01 0.01 0.01 0.01 0.00 0.00 0.00 0.00 0.00 0.01 0.01 0.01 0.01 0.02 0.01 0.01
0.00 0.00 0.00 0.00 0.00 0.01 0.01 0.01 0.02 0.02 0.02 0.02 0.02 0.01 0.01 0.02 0.04 0.02 0.03 0.04 0.02 0.01 0.01 0.00 0.00 0.01 0.01 0.01 0.01 0.01 0.01 0.01 0.01 0.01 0.00 0.00 0.00 0.00 0.00 0.00 0.01 0.01 0.00
0.00 0.00 0.01 0.01 0.02 0.02 0.03 0.03 0.03 0.03 0.03 0.03 0.03 0.02 0.02 0.05 0.07 0.06 0.04 0.04 0.03 0.01 0.02 0.01 0.01 0.01 0.01 0.01 0.01 0.01 0.01 0.01 0.00 0.00 0.00 0.00 0.00 0.00 0.00 0.00 0.00 0.00 0.00
0.00 0.01 0.01 0.02 0.02 0.03 0.04 0.06 0.06 0.05 0.04 0.04 0.03 0.02 0.01 0.02 0.02 0.03 0.05 0.05 0.03 0.02 0.03 0.04 0.03 0.01 0.01 0.01 0.01 0.01 0.01 0.01 0.00 0.00 0.00 0.00 0.00 0.00 0.00 0.00 0.00 0.00 0.00
0.01 0.01 0.01 0.02 0.03 0.05 0.06 0.06 0.08 0.11 0.11 0.06 0.04 0.04 0.04 0.05 0.04 0.03 0.03 0.03 0.06 0.09 0.07 0.09 0.08 0.03 0.01 0.01 0.01 0.00 0.01 0.00 0.00 0.00 0.00 0.00 0.00 0.00 0.00 0.00 0.00 0.00 0.00
0.02 0.03 0.04 0.04 0.06 0.07 0.08 0.07 0.07 0.08 0.12 0.16 0.16 0.11 0.06 0.05 0.08 0.08 0.09 0.10 0.14 0.13 0.13 0.14 0.09 0.06 0.05 0.05 0.04 0.02 0.01 0.00 0.00 0.00 0.00 0.00 0.00 0.00 0.00 0.00 0.00 0.00 0.00
0.03 0.04 0.05 0.07 0.10 0.12 0.14 0.15 0.16 0.16 0.16 0.16 0.14 0.13 0.13 0.13 0.14 0.14 0.13 0.12 0.15 0.15 0.13 0.12 0.10 0.07 0.05 0.04 0.05 0.04 0.02 0.01 0.01 0.01 0.00 0.00 0.00 0.00 0.00 0.00 0.00 0.00 0.00
0.06 0.09 0.11 0.13 0.16 0.17 0.21 0.24 0.27 0.27 0.27 0.26 0.26 0.24 0.19 0.13 0.09 0.06 0.04 0.04 0.04 0.04 0.04 0.05 0.05 0.04 0.04 0.03 0.04 0.06 0.05 0.04 0.04 0.02 0.01 0.00 0.00 0.00 0.00 0.00 0.00 0.00 0.00

GFSGL_prec_precacc_021.txt.gz
Total_Precipitation_Accumulation
0.03 0.03 0.02 0.01 0.00 0.00 0.00 0.00 0.00 0.00 0.00 0.00 0.00 0.00 0.00 0.00 0.00 0.01 0.00 0.00 0.00 0.00 0.00 0.00 0.00 0.00 0.00 0.00 0.00 0.00 0.00 0.00 0.00 0.00 0.00 0.00 0.00 0.00 0.00 0.00 0.00 0.01 0.02
0.02 0.02 0.01 0.01 0.00 0.00 0.00 0.00 0.00 0.00 0.00 0.00 0.00 0.00 0.00 0.00 0.00 0.00 0.00 0.00 0.00 0.00 0.01 0.00 0.00 0.00 0.00 0.00 0.00 0.00 0.00 0.00 0.00 0.00 0.00 0.00 0.00 0.00 0.00 0.01 0.01 0.01 0.03
0.05 0.05 0.01 0.00 0.00 0.00 0.00 0.00 0.00 0.00 0.00 0.00 0.00 0.00 0.00 0.00 0.00 0.00 0.00 0.00 0.00 0.01 0.00 0.00 0.00 0.00 0.00 0.00 0.00 0.00 0.00 0.01 0.01 0.03 0.01 0.00 0.00 0.00 0.00 0.00 0.01 0.02 0.03
0.05 0.03 0.01 0.00 0.00 0.00 0.00 0.00 0.00 0.00 0.00 0.00 0.00 0.00 0.00 0.00 0.00 0.00 0.00 0.00 0.00 0.00 0.00 0.00 0.00 0.00 0.00 0.00 0.01 0.01 0.01 0.01 0.01 0.01 0.01 0.01 0.00 0.00 0.01 0.03 0.05 0.04 0.03
0.03 0.01 0.00 0.00 0.00 0.00 0.00 0.00 0.00 0.00 0.00 0.00 0.00 0.00 0.00 0.00 0.00 0.00 0.00 0.00 0.00 0.00 0.00 0.00 0.00 0.00 0.00 0.00 0.01 0.01 0.01 0.01 0.02 0.02 0.02 0.02 0.01 0.03 0.05 0.05 0.04 0.03 0.04
0.00 0.00 0.00 0.00 0.00 0.00 0.00 0.00 0.00 0.00 0.00 0.00 0.01 0.01 0.01 0.01 0.00 0.00 0.00 0.00 0.00 0.00 0.00 0.00 0.00 0.00 0.00 0.00 0.00 0.00 0.00 0.02 0.04 0.04 0.03 0.03 0.02 0.03 0.08 0.13 0.10 0.06 0.04
0.00 0.00 0.00 0.00 0.00 0.00 0.00 0.00 0.00 0.00 0.01 0.01 0.01 0.01 0.01 0.02 0.00 0.00 0.00 0.00 0.00 0.00 0.00 0.00 0.00 0.00 0.00 0.00 0.00 0.00 0.01 0.01 0.03 0.04 0.06 0.05 0.06 0.06 0.07 0.09 0.10 0.08 0.05
0.00 0.00 0.00 0.00 0.00 0.00 0.00 0.01 0.02 0.03 0.03 0.02 0.00 0.00 0.00 0.00 0.00 0.00 0.00 0.00 0.00 0.00 0.00 0.00 0.00 0.00 0.00 0.00 0.01 0.02 0.01 0.00 0.00 0.01 0.03 0.03 0.03 0.04 0.05 0.06 0.07 0.05 0.01
0.00 0.00 0.00 0.00 0.00 0.01 0.03 0.05 0.08 0.06 0.02 0.00 0.00 0.00 0.00 0.00 0.00 0.00 0.00 0.00 0.00 0.00 0.00 0.00 0.00 0.00 0.00 0.01 0.01 0.01 0.00 0.00 0.01 0.01 0.01 0.01 0.00 0.00 0.02 0.07 0.07 0.09 0.06
0.00 0.00 0.00 0.01 0.03 0.08 0.14 0.12 0.05 0.01 0.00 0.00 0.00 0.00 0.00 0.00 0.00 0.00 0.00 0.00 0.00 0.00 0.00 0.00 0.00 0.00 0.00 0.00 0.01 0.01 0.01 0.02 0.01 0.01 0.01 0.01 0.01 0.01 0.01 0.04 0.06 0.13 0.13
0.00 0.01 0.03 0.08 0.13 0.13 0.09 0.03 0.01 0.00 0.00 0.00 0.00 0.00 0.00 0.00 0.00 0.00 0.00 0.00 0.00 0.00 0.00 0.00 0.00 0.00 0.00 0.00 0.00 0.01 0.04 0.01 0.00 0.01 0.01 0.01 0.02 0.02 0.03 0.04 0.05 0.08 0.12
0.03 0.07 0.12 0.14 0.10 0.05 0.01 0.00 0.00 0.00 0.00 0.00 0.00 0.00 0.00 0.00 0.00 0.00 0.00 0.00 0.00 0.00 0.00 0.00 0.00 0.00 0.00 0.00 0.00 0.00 0.00 0.00 0.01 0.02 0.02 0.02 0.02 0.02 0.03 0.03 0.04 0.06 0.08
0.06 0.08 0.08 0.04 0.01 0.00 0.00 0.00 0.00 0.00 0.00 0.00 0.00 0.00 0.00 0.01 0.01 0.00 0.00 0.00 0.00 0.00 0.00 0.00 0.00 0.00 0.00 0.00 0.00 0.00 0.00 0.00 0.01 0.01 0.02 0.02 0.02 0.02 0.03 0.06 0.09 0.07 0.03
0.02 0.01 0.00 0.00 0.00 0.00 0.00 0.00 0.00 0.00 0.00 0.00 0.00 0.00 0.01 0.01 0.00 0.00 0.00 0.00 0.00 0.00 0.00 0.00 0.00 0.00 0.00 0.00 0.00 0.00 0.00 0.00 0.01 0.02 0.02 0.02 0.03 0.04 0.07 0.13 0.14 0.17 0.15
0.00 0.00 0.00 0.00 0.00 0.00 0.00 0.00 0.00 0.00 0.00 0.00 0.01 0.01 0.01 0.00 0.00 0.00 0.00 0.00 0.00 0.00 0.00 0.01 0.01 0.01 0.00 0.00 0.00 0.00 0.00 0.00 0.00 0.00 0.01 0.02 0.02 0.03 0.04 0.06 0.09 0.14 0.29
0.00 0.00 0.00 0.00 0.00 0.00 0.00 0.00 0.00 0.00 0.00 0.00 0.00 0.00 0.00 0.00 0.00 0.00 0.00 0.00 0.00 0.00 0.02 0.03 0.02 0.02 0.01 0.01 0.00 0.00 0.00 0.00 0.00 0.00 0.01 0.01 0.02 0.02 0.02 0.03 0.04 0.07 0.15
0.00 0.00 0.00 0.00 0.00 0.01 0.01 0.00 0.00 0.00 0.00 0.00 0.00 0.00 0.00 0.00 0.00 0.00 0.00 0.00 0.00 0.02 0.06 0.01 0.01 0.02 0.02 0.01 0.01 0.00 0.00 0.00 0.00 0.00 0.00 0.01 0.01 0.01 0.02 0.03 0.02 0.02 0.03
0.00 0.00 0.00 0.00 0.00 0.01 0.01 0.01 0.01 0.02 0.03 0.02 0.01 0.00 0.00 0.00 0.00 0.00 0.01 0.03 0.07 0.05 0.03 0.01 0.01 0.01 0.01 0.01 0.01 0.00 0.00 0.00 0.00 0.00 0.00 0.01 0.01 0.01 0.02 0.02 0.02 0.02 0.01
0.00 0.00 0.00 0.00 0.01 0.00 0.01 0.01 0.01 0.02 0.02 0.02 0.01 0.01 0.01 0.02 0.01 0.01 0.03 0.13 0.09 0.02 0.02 0.02 0.02 0.02 0.02 0.02 0.01 0.01 0.01 0.00 0.00 0.00 0.00 0.00 0.01 0.01 0.01 0.01 0.02 0.01 0.01
0.00 0.00 0.00 0.00 0.00 0.01 0.01 0.02 0.03 0.04 0.04 0.04 0.04 0.02 0.02 0.06 0.08 0.05 0.07 0.10 0.09 0.06 0.03 0.02 0.02 0.03 0.04 0.04 0.02 0.01 0.01 0.01 0.01 0.01 0.00 0.00 0.00 0.00 0.00 0.00 0.01 0.01 0.00
0.00 0.00 0.01 0.02 0.02 0.02 0.04 0.04 0.04 0.05 0.06 0.07 0.07 0.05 0.04 0.08 0.11 0.08 0.06 0.08 0.08 0.06 0.04 0.04 0.04 0.05 0.05 0.05 0.05 0.03 0.02 0.01 0.00 0.00 0.00 0.00 0.00 0.01 0.00 0.00 0.00 0.00 0.00
0.00 0.01 0.02 0.02 0.02 0.04 0.05 0.06 0.08 0.08 0.06 0.06 0.06 0.05 0.05 0.08 0.09 0.10 0.10 0.09 0.05 0.02 0.03 0.06 0.07 0.05 0.04 0.04 0.05 0.05 0.03 0.01 0.00 0.00 0.00 0.00 0.00 0.01 0.01 0.00 0.00 0.00 0.00
0.01 0.01 0.02 0.02 0.03 0.05 0.06 0.07 0.09 0.12 0.14 0.14 0.14 0.12 0.09 0.09 0.08 0.07 0.08 0.10 0.13 0.17 0.14 0.13 0.14 0.12 0.08 0.08 0.08 0.08 0.06 0.01 0.00 0.01 0.01 0.00 0.00 0.01 0.01 0.01 0.00 0.00 0.00
0.02 0.03 0.04 0.05 0.06 0.07 0.08 0.08 0.08 0.10 0.14 0.18 0.20 0.20 0.19 0.20 0.21 0.23 0.27 0.32 0.33 0.30 0.25 0.26 0.26 0.24 0.22 0.19 0.15 0.10 0.05 0.02 0.02 0.02 0.03 0.04 0.02 0.01 0.01 0.01 0.00 0.00 0.00
0.04 0.04 0.05 0.07 0.10 0.12 0.15 0.16 0.17 0.18 0.19 0.20 0.19 0.20 0.20 0.24 0.29 0.31 0.30 0.26 0.24 0.21 0.19 0.18 0.20 0.21 0.21 0.24 0.23 0.18 0.13 0.09 0.06 0.02 0.04 0.05 0.03 0.02 0.01 0.00 0.00 0.00 0.00
0.06 0.09 0.11 0.14 0.16 0.17 0.22 0.25 0.27 0.28 0.29 0.29 0.32 0.33 0.30 0.26 0.21 0.17 0.15 0.14 0.12 0.11 0.08 0.08 0.06 0.04 0.04 0.04 0.05 0.07 0.08 0.08 0.10 0.07 0.05 0.06 0.04 0.04 0.03 0.01 0.00 0.00 0.00

GFSGL_prec_precacc_024.txt.gz
Total_Precipitation_Accumulation
0.13 0.13 0.09 0.06 0.04 0.03 0.02 0.00 0.00 0.00 0.00 0.00 0.00 0.00 0.00 0.00 0.00 0.01 0.00 0.00 0.00 0.00 0.00 0.00 0.00 0.00 0.00 0.00 0.00 0.00 0.00 0.00 0.00 0.00 0.00 0.00 0.00 0.00 0.00 0.00 0.00 0.01 0.02
0.08 0.07 0.07 0.05 0.02 0.01 0.01 0.00 0.00 0.00 0.00 0.00 0.00 0.00 0.00 0.00 0.00 0.00 0.00 0.00 0.00 0.00 0.01 0.00 0.00 0.00 0.00 0.00 0.00 0.00 0.00 0.00 0.00 0.00 0.00 0.00 0.00 0.00 0.00 0.01 0.01 0.01 0.03
0.10 0.10 0.07 0.04 0.02 0.01 0.00 0.00 0.00 0.00 0.00 0.00 0.00 0.00 0.00 0.00 0.00 0.00 0.00 0.00 0.00 0.01 0.00 0.00 0.00 0.00 0.00 0.00 0.00 0.00 0.00 0.01 0.01 0.03 0.01 0.00 0.00 0.00 0.00 0.00 0.01 0.02 0.03
0.11 0.09 0.07 0.04 0.01 0.00 0.00 0.00 0.00 0.00 0.00 0.00 0.00 0.00 0.00 0.00 0.00 0.00 0.00 0.00 0.00 0.00 0.00 0.00 0.00 0.00 0.00 0.00 0.01 0.01 0.01 0.01 0.01 0.01 0.01 0.01 0.00 0.00 0.01 0.03 0.05 0.04 0.03
0.05 0.03 0.02 0.01 0.00 0.00 0.00 0.00 0.00 0.00 0.00 0.00 0.00 0.00 0.01 0.02 0.00 0.00 0.00 0.00 0.00 0.00 0.00 0.00 0.00 0.00 0.00 0.00 0.01 0.01 0.01 0.01 0.02 0.02 0.02 0.02 0.01 0.03 0.05 0.05 0.04 0.03 0.04
0.01 0.01 0.00 0.00 0.00 0.00 0.00 0.00 0.00 0.00 0.00 0.00 0.01 0.03 0.04 0.02 0.00 0.00 0.00 0.00 0.00 0.00 0.00 0.00 0.00 0.00 0.00 0.00 0.00 0.00 0.00 0.02 0.04 0.04 0.03 0.03 0.02 0.03 0.08 0.13 0.10 0.06 0.04
0.00 0.00 0.00 0.00 0.00 0.00 0.00 0.00 0.00 0.00 0.01 0.02 0.05 0.05 0.01 0.02 0.00 0.00 0.00 0.00 0.00 0.00 0.00 0.00 0.00 0.00 0.00 0.00 0.00 0.00 0.01 0.01 0.03 0.04 0.06 0.05 0.06 0.06 0.07 0.09 0.10 0.09 0.06
0.00 0.00 0.00 0.00 0.00 0.01 0.00 0.01 0.02 0.04 0.07 0.09 0.06 0.01 0.00 0.00 0.00 0.00 0.00 0.00 0.00 0.00 0.00 0.00 0.00 0.00 0.00 0.00 0.01 0.02 0.01 0.00 0.00 0.01 0.03 0.03 0.03 0.04 0.05 0.06 0.07 0.06 0.02
0.00 0.00 0.00 0.01 0.01 0.01 0.03 0.08 0.14 0.17 0.10 0.03 0.01 0.00 0.00 0.00 0.00 0.00 0.00 0.00 0.00 0.00 0.00 0.00 0.00 0.00 0.00 0.01 0.01 0.01 0.00 0.00 0.01 0.01 0.01 0.01 0.00 0.00 0.02 0.07 0.07 0.09 0.06
0.00 0.00 0.00 0.01 0.03 0.09 0.17 0.20 0.13 0.06 0.02 0.01 0.00 0.00 0.00 0.00 0.00 0.00 0.00 0.00 0.00 0.00 0.00 0.00 0.00 0.00 0.00 0.00 0.01 0.01 0.01 0.02 0.01 0.01 0.01 0.01 0.01 0.01 0.01 0.04 0.06 0.13 0.13
0.00 0.01 0.03 0.08 0.14 0.16 0.13 0.06 0.02 0.01 0.01 0.00 0.00 0.00 0.00 0.00 0.00 0.00 0.00 0.00 0.00 0.00 0.00 0.00 0.00 0.00 0.00 0.00 0.00 0.01 0.04 0.01 0.00 0.01 0.01 0.01 0.02 0.02 0.03 0.04 0.05 0.08 0.12
0.03 0.07 0.12 0.15 0.12 0.07 0.02 0.00 0.00 0.00 0.00 0.00 0.00 0.00 0.00 0.00 0.00 0.00 0.00 0.00 0.00 0.00 0.00 0.00 0.00 0.00 0.00 0.00 0.00 0.00 0.00 0.00 0.01 0.02 0.02 0.02 0.02 0.02 0.03 0.03 0.04 0.06 0.08
0.06 0.08 0.08 0.04 0.01 0.00 0.00 0.00 0.00 0.00 0.00 0.00 0.00 0.00 0.00 0.01 0.01 0.00 0.00 0.00 0.00 0.00 0.00 0.00 0.00 0.00 0.00 0.00 0.00 0.00 0.00 0.00 0.01 0.01 0.02 0.02 0.02 0.02 0.03 0.06 0.09 0.07 0.03
0.02 0.01 0.00 0.00 0.00 0.00 0.00 0.00 0.00 0.00 0.00 0.00 0.00 0.00 0.01 0.01 0.00 0.00 0.00 0.00 0.00 0.00 0.00 0.00 0.00 0.00 0.00 0.00 0.00 0.00 0.00 0.00 0.01 0.02 0.02 0.02 0.03 0.04 0.07 0.13 0.14 0.17 0.15
0.00 0.00 0.00 0.00 0.00 0.00 0.00 0.00 0.00 0.00 0.00 0.00 0.01 0.01 0.01 0.00 0.00 0.00 0.00 0.00 0.00 0.00 0.00 0.01 0.02 0.02 0.02 0.01 0.01 0.00 0.00 0.00 0.00 0.00 0.01 0.02 0.02 0.03 0.04 0.06 0.09 0.14 0.29
0.00 0.00 0.00 0.00 0.00 0.00 0.00 0.00 0.00 0.00 0.00 0.00 0.00 0.00 0.00 0.00 0.00 0.00 0.00 0.00 0.00 0.00 0.04 0.04 0.02 0.02 0.03 0.01 0.01 0.01 0.02 0.02 0.00 0.00 0.01 0.01 0.02 0.02 0.02 0.03 0.04 0.07 0.15
0.00 0.00 0.00 0.00 0.00 0.01 0.01 0.00 0.00 0.00 0.00 0.00 0.00 0.00 0.00 0.00 0.00 0.00 0.00 0.00 0.02 0.08 0.19 0.08 0.03 0.02 0.02 0.02 0.03 0.02 0.02 0.01 0.01 0.00 0.00 0.01 0.01 0.01 0.02 0.03 0.02 0.02 0.03
0.00 0.00 0.00 0.00 0.00 0.01 0.01 0.01 0.01 0.02 0.03 0.02 0.01 0.00 0.00 0.00 0.00 0.01 0.02 0.06 0.15 0.14 0.13 0.07 0.04 0.03 0.02 0.02 0.03 0.03 0.02 0.02 0.01 0.00 0.00 0.01 0.01 0.01 0.02 0.02 0.02 0.02 0.01
0.00 0.00 0.00 0.00 0.01 0.00 0.01 0.01 0.01 0.02 0.02 0.02 0.01 0.01 0.01 0.02 0.02 0.02 0.04 0.15 0.14 0.09 0.07 0.06 0.04 0.04 0.04 0.04 0.05 0.06 0.06 0.03 0.01 0.00 0.00 0.00 0.01 0.01 0.01 0.01 0.02 0.01 0.01
0.00 0.00 0.00 0.00 0.00 0.01 0.01 0.02 0.03 0.04 0.04 0.04 0.04 0.03 0.03 0.07 0.08 0.05 0.07 0.11 0.11 0.08 0.07 0.06 0.05 0.05 0.05 0.05 0.05 0.05 0.06 0.04 0.02 0.01 0.00 0.00 0.00 0.00 0.00 0.00 0.01 0.01 0.00
0.00 0.00 0.01 0.02 0.02 0.02 0.04 0.04 0.04 0.05 0.06 0.07 0.07 0.05 0.04 0.09 0.12 0.09 0.07 0.09 0.10 0.09 0.09 0.08 0.06 0.07 0.06 0.05 0.05 0.05 0.03 0.02 0.01 0.01 0.00 0.00 0.00 0.01 0.00 0.00 0.00 0.00 0.00
0.00 0.01 0.02 0.02 0.02 0.04 0.05 0.06 0.08 0.08 0.06 0.06 0.06 0.06 0.05 0.08 0.10 0.10 0.11 0.11 0.08 0.07 0.09 0.14 0.14 0.09 0.06 0.05 0.05 0.07 0.05 0.03 0.02 0.01 0.01 0.00 0.00 0.01 0.01 0.01 0.00 0.00 0.00
0.01 0.01 0.02 0.02 0.03 0.05 0.06 0.07 0.09 0.12 0.14 0.14 0.14 0.12 0.09 0.09 0.08 0.08 0.09 0.12 0.18 0.25 0.25 0.26 0.28 0.22 0.14 0.10 0.09 0.11 0.10 0.04 0.02 0.03 0.02 0.01 0.00 0.01 0.02 0.01 0.00 0.00 0.00
0.02 0.03 0.04 0.05 0.06 0.07 0.08 0.08 0.08 0.10 0.14 0.18 0.20 0.20 0.19 0.20 0.21 0.23 0.28 0.34 0.39 0.39 0.37 0.37 0.34 0.30 0.25 0.22 0.20 0.15 0.10 0.06 0.07 0.08 0.08 0.07 0.04 0.02 0.02 0.02 0.00 0.00 0.00
0.04 0.05 0.05 0.07 0.10 0.12 0.15 0.16 0.17 0.18 0.19 0.20 0.20 0.20 0.20 0.25 0.30 0.31 0.31 0.27 0.26 0.26 0.26 0.27 0.28 0.27 0.26 0.27 0.29 0.26 0.21 0.18 0.16 0.11 0.11 0.09 0.05 0.04 0.03 0.02 0.01 0.00 0.00
0.06 0.09 0.11 0.14 0.16 0.17 0.22 0.25 0.28 0.28 0.29 0.29 0.32 0.33 0.30 0.26 0.21 0.17 0.15 0.14 0.14 0.14 0.14 0.15 0.14 0.12 0.09 0.07 0.07 0.10 0.11 0.12 0.16 0.14 0.10 0.09 0.06 0.06 0.05 0.03 0.02 0.01 0.00

GFSGL_prec_precacc_030.txt.gz
Total_Precipitation_Accumulation
0.14 0.24 0.24 0.29 0.25 0.18 0.15 0.11 0.06 0.02 0.02 0.05 0.09 0.10 0.04 0.00 0.00 0.01 0.00 0.00 0.00 0.00 0.00 0.00 0.00 0.00 0.00 0.00 0.00 0.00 0.00 0.00 0.00 0.00 0.00 0.00 0.00 0.00 0.00 0.00 0.00 0.01 0.02
0.10 0.13 0.18 0.19 0.17 0.14 0.12 0.09 0.06 0.04 0.04 0.03 0.01 0.00 0.00 0.00 0.00 0.00 0.00 0.00 0.01 0.01 0.01 0.00 0.00 0.00 0.00 0.00 0.00 0.00 0.00 0.00 0.00 0.00 0.00 0.00 0.00 0.00 0.00 0.01 0.01 0.01 0.03
0.14 0.13 0.11 0.11 0.11 0.09 0.07 0.04 0.02 0.02 0.02 0.01 0.00 0.00 0.00 0.00 0.00 0.00 0.00 0.05 0.05 0.01 0.00 0.00 0.00 0.00 0.00 0.00 0.00 0.00 0.00 0.01 0.01 0.03 0.01 0.00 0.00 0.00 0.00 0.00 0.01 0.02 0.03
0.14 0.12 0.11 0.11 0.07 0.06 0.03 0.01 0.00 0.00 0.00 0.00 0.00 0.00 0.00 0.00 0.01 0.06 0.09 0.04 0.00 0.00 0.00 0.00 0.00 0.00 0.00 0.00 0.01 0.01 0.01 0.01 0.01 0.01 0.01 0.01 0.00 0.00 0.01 0.03 0.05 0.04 0.03
0.06 0.04 0.03 0.02 0.01 0.00 0.00 0.00 0.00 0.00 0.00 0.00 0.00 0.00 0.02 0.05 0.10 0.10 0.04 0.01 0.00 0.00 0.00 0.00 0.00 0.00 0.00 0.00 0.01 0.01 0.01 0.01 0.02 0.02 0.02 0.02 0.01 0.03 0.05 0.05 0.04 0.03 0.04
0.01 0.01 0.00 0.00 0.00 0.00 0.00 0.00 0.00 0.00 0.00 0.00 0.02 0.05 0.09 0.12 0.11 0.09 0.02 0.00 0.00 0.00 0.00 0.00 0.00 0.00 0.00 0.00 0.00 0.00 0.00 0.02 0.04 0.04 0.03 0.03 0.02 0.03 0.08 0.13 0.10 0.06 0.04
0.00 0.00 0.00 0.00 0.00 0.00 0.00 0.00 0.00 0.00 0.01 0.03 0.07 0.13 0.15 0.12 0.05 0.02 0.00 0.00 0.00 0.00 0.00 0.00 0.00 0.00 0.00 0.00 0.00 0.00 0.01 0.01 0.03 0.04 0.06 0.05 0.06 0.06 0.07 0.09 0.10 0.09 0.06
0.00 0.00 0.00 0.00 0.00 0.01 0.01 0.01 0.02 0.05 0.11 0.15 0.17 0.13 0.06 0.01 0.02 0.04 0.02 0.00 0.00 0.00 0.00 0.00 0.00 0.00 0.00 0.00 0.01 0.02 0.01 0.00 0.00 0.01 0.03 0.03 0.03 0.04 0.05 0.06 0.07 0.06 0.02
0.00 0.00 0.00 0.01 0.01 0.01 0.03 0.09 0.17 0.21 0.18 0.12 0.04 0.01 0.02 0.02 0.04 0.02 0.01 0.00 0.00 0.00 0.00 0.00 0.00 0.00 0.00 0.01 0.01 0.01 0.00 0.00 0.01 0.01 0.01 0.01 0.00 0.00 0.02 0.07 0.07 0.09 0.06
0.00 0.00 0.00 0.01 0.03 0.09 0.18 0.21 0.15 0.07 0.03 0.03 0.04 0.04 0.04 0.01 0.00 0.00 0.00 0.00 0.00 0.00 0.00 0.00 0.00 0.00 0.00 0.00 0.01 0.01 0.01 0.02 0.01 0.01 0.01 0.01 0.01 0.01 0.01 0.04 0.06 0.14 0.13
0.00 0.01 0.03 0.08 0.14 0.16 0.13 0.06 0.03 0.02 0.02 0.01 0.00 0.00 0.00 0.00 0.00 0.00 0.00 0.00 0.00 0.00 0.00 0.00 0.00 0.00 0.00 0.00 0.00 0.01 0.04 0.01 0.00 0.01 0.01 0.01 0.02 0.02 0.03 0.04 0.05 0.08 0.12
0.03 0.07 0.12 0.15 0.12 0.07 0.02 0.00 0.00 0.00 0.00 0.00 0.00 0.00 0.00 0.00 0.00 0.00 0.00 0.00 0.00 0.00 0.00 0.00 0.00 0.00 0.00 0.00 0.00 0.00 0.00 0.00 0.01 0.02 0.02 0.02 0.02 0.02 0.03 0.03 0.04 0.06 0.08
0.06 0.08 0.08 0.04 0.01 0.00 0.00 0.00 0.00 0.00 0.00 0.00 0.00 0.00 0.00 0.01 0.01 0.00 0.00 0.00 0.00 0.00 0.00 0.00 0.00 0.00 0.00 0.00 0.00 0.00 0.00 0.00 0.01 0.02 0.02 0.02 0.02 0.02 0.03 0.06 0.09 0.07 0.03
0.02 0.01 0.00 0.00 0.00 0.00 0.00 0.00 0.00 0.00 0.00 0.00 0.00 0.00 0.01 0.01 0.00 0.00 0.00 0.00 0.00 0.00 0.00 0.00 0.00 0.00 0.00 0.01 0.00 0.00 0.00 0.00 0.01 0.02 0.02 0.02 0.03 0.04 0.07 0.13 0.14 0.17 0.15
0.00 0.00 0.00 0.00 0.00 0.00 0.00 0.00 0.00 0.00 0.00 0.00 0.01 0.01 0.01 0.00 0.00 0.00 0.01 0.01 0.01 0.01 0.02 0.04 0.04 0.04 0.05 0.04 0.04 0.04 0.05 0.04 0.03 0.02 0.03 0.04 0.05 0.04 0.05 0.06 0.09 0.14 0.29
0.00 0.00 0.00 0.00 0.00 0.00 0.00 0.00 0.00 0.00 0.00 0.00 0.00 0.00 0.00 0.00 0.00 0.00 0.00 0.00 0.00 0.01 0.10 0.12 0.08 0.07 0.08 0.07 0.08 0.08 0.11 0.14 0.11 0.10 0.10 0.07 0.07 0.05 0.03 0.03 0.04 0.08 0.16
0.00 0.00 0.00 0.00 0.00 0.01 0.01 0.00 0.00 0.00 0.00 0.00 0.00 0.00 0.00 0.00 0.00 0.00 0.00 0.00 0.02 0.08 0.24 0.17 0.14 0.12 0.11 0.11 0.13 0.14 0.13 0.09 0.11 0.17 0.13 0.07 0.06 0.06 0.04 0.04 0.02 0.03 0.03
0.00 0.00 0.00 0.00 0.00 0.01 0.01 0.01 0.01 0.02 0.03 0.02 0.01 0.00 0.00 0.00 0.00 0.01 0.02 0.06 0.15 0.15 0.16 0.12 0.10 0.08 0.07 0.08 0.09 0.10 0.08 0.08 0.11 0.10 0.09 0.05 0.05 0.04 0.04 0.02 0.02 0.02 0.01
0.00 0.00 0.00 0.00 0.01 0.00 0.01 0.01 0.01 0.02 0.02 0.02 0.01 0.01 0.01 0.02 0.02 0.02 0.04 0.15 0.15 0.10 0.08 0.08 0.06 0.06 0.08 0.09 0.11 0.13 0.15 0.15 0.13 0.11 0.07 0.04 0.03 0.03 0.03 0.02 0.02 0.02 0.01
0.00 0.00 0.00 0.00 0.00 0.01 0.01 0.02 0.03 0.04 0.04 0.04 0.04 0.03 0.03 0.07 0.09 0.06 0.07 0.11 0.12 0.09 0.08 0.08 0.06 0.07 0.08 0.10 0.10 0.11 0.12 0.11 0.10 0.09 0.05 0.03 0.02 0.01 0.01 0.01 0.01 0.01 0.01
0.00 0.00 0.01 0.02 0.02 0.02 0.04 0.04 0.04 0.05 0.06 0.07 0.07 0.05 0.04 0.09 0.13 0.10 0.08 0.10 0.10 0.10 0.10 0.11 0.09 0.11 0.11 0.12 0.13 0.14 0.13 0.11 0.06 0.04 0.03 0.02 0.03 0.03 0.02 0.01 0.01 0.00 0.01
0.00 0.01 0.02 0.02 0.02 0.04 0.05 0.06 0.08 0.08 0.06 0.06 0.06 0.06 0.05 0.09 0.10 0.11 0.12 0.11 0.08 0.08 0.11 0.17 0.19 0.16 0.16 0.18 0.19 0.20 0.18 0.15 0.12 0.07 0.05 0.04 0.04 0.04 0.04 0.02 0.01 0.00 0.00
0.01 0.01 0.02 0.02 0.03 0.05 0.06 0.07 0.09 0.12 0.14 0.14 0.14 0.12 0.09 0.09 0.08 0.08 0.09 0.12 0.18 0.26 0.26 0.28 0.31 0.28 0.23 0.24 0.26 0.27 0.24 0.15 0.12 0.14 0.12 0.07 0.05 0.06 0.06 0.02 0.01 0.00 0.00
0.02 0.03 0.04 0.05 0.06 0.07 0.08 0.08 0.08 0.10 0.14 0.18 0.20 0.20 0.20 0.21 0.22 0.24 0.28 0.34 0.39 0.39 0.38 0.40 0.39 0.37 0.34 0.32 0.31 0.26 0.21 0.15 0.15 0.16 0.15 0.14 0.09 0.07 0.07 0.03 0.01 0.00 0.00
0.04 0.05 0.05 0.07 0.10 0.12 0.15 0.16 0.17 0.18 0.19 0.20 0.20 0.21 0.20 0.25 0.30 0.31 0.31 0.27 0.26 0.26 0.27 0.29 0.33 0.34 0.35 0.39 0.41 0.39 0.33 0.28 0.26 0.24 0.25 0.19 0.12 0.11 0.09 0.05 0.02 0.01 0.01
0.06 0.09 0.11 0.14 0.16 0.17 0.22 0.25 0.28 0.28 0.29 0.29 0.32 0.33 0.30 0.26 0.21 0.17 0.16 0.14 0.14 0.14 0.14 0.16 0.16 0.16 0.17 0.17 0.19 0.22 0.23 0.24 0.28 0.28 0.25 0.22 0.18 0.17 0.14 0.09 0.05 0.03 0.02

GFSGL_prec_precacc_033.txt.gz
Total_Precipitation_Accumulation
0.14 0.24 0.24 0.30 0.31 0.26 0.19 0.12 0.08 0.04 0.03 0.05 0.10 0.12 0.10 0.05 0.02 0.01 0.00 0.00 0.00 0.00 0.01 0.01 0.00 0.00 0.00 0.00 0.00 0.00 0.00 0.00 0.00 0.00 0.00 0.00 0.00 0.00 0.00 0.00 0.00 0.01 0.02
0.10 0.13 0.19 0.22 0.21 0.21 0.19 0.12 0.09 0.06 0.04 0.03 0.01 0.01 0.00 0.00 0.01 0.00 0.01 0.00 0.01 0.05 0.05 0.01 0.00 0.00 0.00 0.00 0.00 0.00 0.00 0.00 0.00 0.00 0.00 0.00 0.00 0.00 0.00 0.01 0.01 0.01 0.03
0.14 0.13 0.11 0.12 0.13 0.12 0.10 0.08 0.05 0.03 0.02 0.01 0.01 0.02 0.02 0.01 0.01 0.01 0.01 0.05 0.08 0.04 0.01 0.00 0.00 0.00 0.00 0.00 0.00 0.00 0.00 0.01 0.01 0.03 0.01 0.00 0.00 0.00 0.00 0.00 0.01 0.02 0.03
0.14 0.14 0.12 0.14 0.08 0.07 0.04 0.01 0.00 0.00 0.00 0.00 0.00 0.01 0.01 0.00 0.01 0.06 0.09 0.07 0.06 0.04 0.01 0.00 0.00 0.00 0.00 0.00 0.01 0.01 0.02 0.02 0.01 0.01 0.01 0.01 0.00 0.00 0.01 0.03 0.05 0.04 0.03
0.09 0.07 0.05 0.03 0.01 0.00 0.00 0.00 0.00 0.00 0.00 0.00 0.00 0.00 0.02 0.06 0.11 0.11 0.12 0.12 0.03 0.01 0.00 0.00 0.00 0.00 0.00 0.00 0.01 0.01 0.02 0.02 0.02 0.02 0.02 0.02 0.01 0.03 0.05 0.05 0.04 0.03 0.04
0.02 0.01 0.01 0.00 0.00 0.00 0.00 0.00 0.00 0.00 0.00 0.00 0.02 0.05 0.09 0.13 0.13 0.12 0.05 0.01 0.00 0.00 0.00 0.00 0.00 0.00 0.00 0.00 0.00 0.00 0.01 0.02 0.05 0.05 0.03 0.03 0.02 0.03 0.08 0.13 0.10 0.06 0.04
0.00 0.00 0.00 0.00 0.00 0.00 0.00 0.00 0.00 0.00 0.01 0.03 0.07 0.13 0.15 0.12 0.06 0.02 0.01 0.00 0.01 0.00 0.00 0.00 0.00 0.00 0.00 0.00 0.00 0.00 0.01 0.01 0.03 0.05 0.06 0.05 0.06 0.06 0.07 0.09 0.10 0.09 0.06
0.00 0.00 0.00 0.00 0.00 0.01 0.01 0.01 0.02 0.05 0.11 0.15 0.17 0.13 0.06 0.01 0.02 0.04 0.03 0.01 0.01 0.00 0.00 0.00 0.00 0.00 0.00 0.00 0.01 0.02 0.01 0.00 0.00 0.01 0.03 0.03 0.03 0.04 0.05 0.06 0.07 0.06 0.02
0.00 0.00 0.00 0.01 0.01 0.01 0.03 0.09 0.17 0.21 0.18 0.12 0.04 0.01 0.02 0.02 0.04 0.03 0.02 0.00 0.00 0.00 0.00 0.00 0.00 0.00 0.00 0.01 0.01 0.01 0.00 0.00 0.01 0.01 0.01 0.01 0.00 0.00 0.02 0.07 0.07 0.09 0.06
0.00 0.00 0.00 0.01 0.03 0.09 0.18 0.21 0.15 0.07 0.03 0.03 0.04 0.04 0.05 0.02 0.01 0.00 0.00 0.00 0.00 0.00 0.00 0.00 0.00 0.00 0.00 0.00 0.01 0.01 0.01 0.02 0.02 0.01 0.01 0.01 0.01 0.01 0.01 0.04 0.06 0.14 0.13
0.00 0.01 0.03 0.08 0.14 0.16 0.13 0.06 0.03 0.02 0.02 0.01 0.00 0.00 0.00 0.00 0.00 0.00 0.00 0.00 0.00 0.00 0.00 0.00 0.00 0.00 0.00 0.00 0.00 0.01 0.04 0.02 0.03 0.03 0.03 0.02 0.02 0.02 0.03 0.04 0.05 0.08 0.12
0.03 0.07 0.12 0.15 0.12 0.07 0.02 0.00 0.00 0.00 0.00 0.00 0.00 0.00 0.00 0.00 0.00 0.00 0.00 0.00 0.00 0.00 0.00 0.00 0.00 0.00 0.00 0.00 0.00 0.00 0.00 0.00 0.02 0.05 0.05 0.03 0.03 0.02 0.03 0.03 0.04 0.06 0.08
0.06 0.08 0.08 0.04 0.01 0.00 0.00 0.00 0.00 0.00 0.00 0.00 0.00 0.00 0.00 0.01 0.01 0.00 0.00 0.00 0.00 0.00 0.00 0.00 0.00 0.00 0.00 0.00 0.00 0.00 0.00 0.02 0.04 0.06 0.05 0.03 0.02 0.02 0.03 0.06 0.09 0.07 0.03
0.02 0.01 0.00 0.00 0.00 0.00 0.00 0.00 0.00 0.00 0.00 0.00 0.00 0.00 0.01 0.01 0.00 0.00 0.00 0.00 0.00 0.00 0.00 0.00 0.00 0.00 0.00 0.01 0.01 0.02 0.02 0.02 0.05 0.06 0.04 0.03 0.04 0.05 0.07 0.13 0.14 0.17 0.15
0.00 0.00 0.00 0.00 0.00 0.00 0.00 0.00 0.00 0.00 0.00 0.00 0.01 0.01 0.01 0.00 0.00 0.00 0.01 0.01 0.01 0.01 0.02 0.04 0.04 0.05 0.05 0.05 0.05 0.05 0.09 0.12 0.12 0.11 0.12 0.12 0.10 0.07 0.06 0.06 0.09 0.14 0.29
0.00 0.00 0.00 0.00 0.00 0.00 0.00 0.00 0.00 0.00 0.00 0.00 0.00 0.00 0.00 0.00 0.00 0.00 0.00 0.00 0.00 0.01 0.10 0.12 0.08 0.09 0.10 0.08 0.10 0.10 0.14 0.18 0.17 0.16 0.19 0.20 0.21 0.16 0.09 0.07 0.06 0.09 0.16
0.00 0.00 0.00 0.00 0.00 0.01 0.01 0.00 0.00 0.00 0.00 0.00 0.00 0.00 0.00 0.00 0.00 0.00 0.00 0.00 0.02 0.08 0.24 0.17 0.14 0.13 0.12 0.11 0.14 0.15 0.16 0.14 0.18 0.28 0.22 0.18 0.18 0.18 0.14 0.10 0.05 0.04 0.03
0.00 0.00 0.00 0.00 0.00 0.01 0.01 0.01 0.01 0.02 0.03 0.02 0.01 0.00 0.00 0.00 0.00 0.01 0.02 0.06 0.15 0.15 0.16 0.12 0.10 0.08 0.08 0.09 0.09 0.11 0.12 0.14 0.19 0.18 0.16 0.13 0.12 0.11 0.11 0.06 0.04 0.04 0.02
0.00 0.00 0.00 0.00 0.01 0.00 0.01 0.01 0.01 0.02 0.02 0.02 0.01 0.01 0.01 0.02 0.02 0.02 0.04 0.16 0.16 0.10 0.08 0.08 0.06 0.07 0.09 0.10 0.12 0.14 0.16 0.17 0.16 0.16 0.13 0.10 0.10 0.10 0.08 0.04 0.03 0.03 0.01
0.00 0.00 0.00 0.00 0.00 0.01 0.01 0.02 0.03 0.04 0.04 0.04 0.04 0.03 0.03 0.07 0.09 0.06 0.07 0.12 0.12 0.10 0.08 0.08 0.07 0.07 0.09 0.11 0.11 0.12 0.13 0.12 0.12 0.12 0.10 0.09 0.07 0.06 0.05 0.03 0.02 0.02 0.01
0.00 0.00 0.01 0.02 0.02 0.02 0.04 0.04 0.04 0.05 0.06 0.07 0.07 0.05 0.04 0.09 0.13 0.10 0.08 0.10 0.11 0.10 0.11 0.11 0.10 0.11 0.11 0.13 0.14 0.15 0.15 0.13 0.13 0.13 0.12 0.08 0.06 0.06 0.04 0.05 0.03 0.01 0.01
0.00 0.01 0.02 0.02 0.02 0.04 0.05 0.06 0.08 0.08 0.06 0.06 0.06 0.06 0.05 0.09 0.10 0.11 0.12 0.12 0.08 0.08 0.11 0.18 0.20 0.16 0.17 0.19 0.21 0.22 0.19 0.18 0.20 0.20 0.19 0.16 0.10 0.07 0.08 0.08 0.05 0.02 0.01
0.01 0.01 0.02 0.02 0.03 0.05 0.06 0.07 0.09 0.12 0.14 0.14 0.14 0.12 0.09 0.09 0.09 0.08 0.10 0.12 0.18 0.26 0.26 0.28 0.32 0.28 0.23 0.25 0.27 0.30 0.27 0.18 0.17 0.21 0.22 0.16 0.13 0.10 0.09 0.06 0.04 0.02 0.01
0.02 0.03 0.04 0.05 0.06 0.07 0.08 0.08 0.08 0.10 0.14 0.18 0.20 0.20 0.20 0.21 0.22 0.24 0.29 0.35 0.39 0.39 0.38 0.40 0.40 0.38 0.35 0.33 0.31 0.28 0.24 0.18 0.19 0.21 0.23 0.22 0.16 0.11 0.11 0.08 0.04 0.02 0.01
0.04 0.05 0.05 0.07 0.10 0.12 0.15 0.16 0.17 0.19 0.19 0.20 0.20 0.21 0.21 0.25 0.30 0.31 0.31 0.27 0.27 0.26 0.27 0.30 0.33 0.34 0.36 0.40 0.42 0.40 0.35 0.31 0.31 0.30 0.32 0.27 0.19 0.16 0.12 0.09 0.05 0.04 0.02
0.06 0.09 0.11 0.14 0.16 0.18 0.22 0.25 0.28 0.29 0.29 0.29 0.32 0.33 0.31 0.26 0.21 0.18 0.16 0.15 0.14 0.14 0.14 0.16 0.17 0.16 0.17 0.18 0.20 0.23 0.25 0.26 0.31 0.32 0.31 0.29 0.24 0.22 0.17 0.15 0.12 0.08 0.04

GFSGL_prec_precacc_039.txt.gz
Total_Precipitation_Accumulation
0.29 0.34 0.35 0.43 0.58 0.59 0.46 0.39 0.37 0.19 0.16 0.22 0.21 0.16 0.11 0.06 0.03 0.02 0.01 0.02 0.02 0.02 0.03 0.03 0.02 0.01 0.00 0.00 0.00 0.00 0.00 0.00 0.00 0.00 0.00 0.00 0.00 0.00 0.00 0.00 0.00 0.01 0.02
0.23 0.46 0.69 0.61 0.84 0.96 0.83 0.49 0.45 0.19 0.17 0.07 0.02 0.02 0.02 0.01 0.01 0.01 0.03 0.03 0.04 0.09 0.08 0.04 0.02 0.01 0.00 0.00 0.00 0.00 0.00 0.00 0.00 0.00 0.00 0.00 0.00 0.00 0.00 0.01 0.01 0.01 0.03
0.48 0.59 0.57 0.40 0.68 0.49 0.45 0.31 0.15 0.09 0.05 0.02 0.01 0.02 0.03 0.02 0.02 0.02 0.03 0.08 0.11 0.06 0.05 0.04 0.01 0.00 0.00 0.00 0.00 0.00 0.00 0.01 0.01 0.04 0.01 0.00 0.00 0.00 0.00 0.00 0.01 0.02 0.03
0.28 0.28 0.21 0.19 0.25 0.19 0.12 0.07 0.06 0.03 0.03 0.02 0.01 0.01 0.01 0.01 0.02 0.07 0.10 0.08 0.09 0.08 0.04 0.01 0.00 0.00 0.00 0.00 0.01 0.01 0.02 0.02 0.02 0.02 0.01 0.01 0.00 0.00 0.02 0.03 0.06 0.04 0.03
0.14 0.09 0.07 0.14 0.04 0.04 0.04 0.02 0.00 0.02 0.01 0.00 0.00 0.01 0.02 0.06 0.11 0.12 0.12 0.12 0.04 0.01 0.00 0.00 0.00 0.00 0.00 0.00 0.01 0.01 0.02 0.03 0.03 0.03 0.03 0.02 0.01 0.03 0.05 0.05 0.06 0.04 0.04
0.03 0.02 0.01 0.02 0.01 0.01 0.01 0.00 0.00 0.00 0.00 0.00 0.02 0.05 0.09 0.13 0.13 0.13 0.06 0.01 0.00 0.00 0.00 0.00 0.00 0.00 0.00 0.00 0.00 0.00 0.01 0.03 0.05 0.05 0.04 0.04 0.02 0.04 0.09 0.14 0.12 0.08 0.05
0.01 0.00 0.00 0.00 0.00 0.00 0.00 0.00 0.00 0.00 0.01 0.03 0.07 0.13 0.15 0.12 0.06 0.02 0.01 0.00 0.01 0.00 0.00 0.00 0.00 0.00 0.00 0.00 0.00 0.00 0.01 0.01 0.03 0.05 0.06 0.05 0.06 0.06 0.09 0.13 0.13 0.11 0.07
0.00 0.00 0.00 0.00 0.00 0.01 0.01 0.01 0.02 0.05 0.11 0.15 0.17 0.13 0.06 0.01 0.02 0.04 0.03 0.01 0.01 0.00 0.00 0.00 0.00 0.00 0.00 0.00 0.01 0.02 0.01 0.00 0.00 0.01 0.03 0.03 0.03 0.05 0.08 0.09 0.10 0.08 0.03
0.00 0.00 0.00 0.01 0.01 0.01 0.03 0.09 0.17 0.21 0.18 0.12 0.04 0.01 0.02 0.02 0.04 0.03 0.02 0.00 0.00 0.00 0.00 0.00 0.00 0.00 0.00 0.01 0.01 0.01 0.00 0.00 0.01 0.01 0.01 0.01 0.00 0.00 0.03 0.10 0.10 0.12 0.09
0.00 0.00 0.00 0.01 0.03 0.09 0.18 0.21 0.15 0.07 0.03 0.03 0.04 0.04 0.05 0.02 0.01 0.00 0.00 0.00 0.00 0.00 0.00 0.00 0.00 0.00 0.00 0.00 0.01 0.01 0.02 0.02 0.02 0.02 0.02 0.01 0.01 0.02 0.02 0.06 0.08 0.17 0.15
0.00 0.01 0.03 0.08 0.14 0.16 0.13 0.06 0.03 0.02 0.02 0.01 0.00 0.00 0.00 0.00 0.00 0.00 0.00 0.00 0.00 0.00 0.00 0.00 0.00 0.00 0.00 0.00 0.00 0.01 0.04 0.02 0.03 0.05 0.07 0.08 0.05 0.04 0.04 0.05 0.06 0.09 0.16
0.03 0.07 0.12 0.15 0.12 0.07 0.02 0.00 0.00 0.00 0.00 0.00 0.00 0.00 0.00 0.00 0.00 0.00 0.00 0.00 0.00 0.00 0.00 0.00 0.00 0.00 0.00 0.00 0.00 0.00 0.00 0.00 0.03 0.06 0.08 0.12 0.14 0.09 0.05 0.05 0.05 0.08 0.12
0.06 0.08 0.08 0.04 0.01 0.00 0.00 0.00 0.00 0.00 0.00 0.00 0.00 0.00 0.00 0.01 0.01 0.00 0.00 0.00 0.00 0.00 0.00 0.00 0.00 0.00 0.00 0.00 0.00 0.00 0.00 0.02 0.06 0.10 0.10 0.07 0.07 0.09 0.10 0.13 0.15 0.11 0.08
0.02 0.01 0.00 0.00 0.00 0.00 0.00 0.00 0.00 0.00 0.00 0.00 0.00 0.00 0.01 0.01 0.00 0.00 0.00 0.00 0.00 0.00 0.00 0.00 0.00 0.00 0.01 0.01 0.01 0.02 0.02 0.03 0.07 0.10 0.09 0.08 0.09 0.12 0.19 0.29 0.32 0.27 0.20
0.00 0.00 0.00 0.00 0.00 0.00 0.00 0.00 0.00 0.00 0.00 0.00 0.01 0.01 0.01 0.00 0.00 0.00 0.01 0.01 0.01 0.01 0.02 0.04 0.04 0.05 0.05 0.05 0.05 0.05 0.09 0.12 0.13 0.13 0.15 0.16 0.17 0.16 0.13 0.10 0.15 0.24 0.38
0.00 0.00 0.00 0.00 0.00 0.00 0.00 0.00 0.00 0.00 0.00 0.00 0.00 0.00 0.00 0.00 0.00 0.00 0.00 0.00 0.00 0.01 0.10 0.12 0.08 0.09 0.10 0.08 0.10 0.10 0.14 0.18 0.17 0.17 0.21 0.23 0.27 0.28 0.30 0.33 0.32 0.29 0.29
0.00 0.00 0.00 0.00 0.00 0.01 0.01 0.00 0.00 0.00 0.00 0.00 0.00 0.00 0.00 0.00 0.00 0.00 0.00 0.00 0.02 0.08 0.24 0.17 0.14 0.13 0.12 0.11 0.14 0.16 0.16 0.14 0.18 0.30 0.30 0.27 0.29 0.31 0.27 0.25 0.21 0.22 0.21
0.00 0.00 0.00 0.00 0.01 0.01 0.01 0.01 0.01 0.02 0.03 0.02 0.01 0.00 0.00 0.00 0.00 0.01 0.02 0.06 0.15 0.15 0.16 0.12 0.10 0.08 0.08 0.09 0.10 0.11 0.12 0.15 0.19 0.18 0.20 0.20 0.20 0.21 0.23 0.17 0.14 0.11 0.07
0.00 0.00 0.00 0.01 0.01 0.01 0.01 0.02 0.02 0.02 0.02 0.02 0.01 0.01 0.01 0.02 0.02 0.02 0.04 0.16 0.16 0.11 0.08 0.08 0.06 0.07 0.09 0.10 0.12 0.15 0.16 0.18 0.16 0.17 0.14 0.14 0.15 0.18 0.20 0.15 0.11 0.09 0.07
0.01 0.03 0.04 0.04 0.04 0.03 0.02 0.03 0.03 0.04 0.04 0.04 0.04 0.03 0.03 0.07 0.09 0.06 0.07 0.12 0.12 0.10 0.08 0.08 0.07 0.07 0.09 0.11 0.12 0.13 0.14 0.13 0.13 0.13 0.11 0.11 0.10 0.10 0.11 0.12 0.13 0.12 0.09
0.15 0.11 0.07 0.05 0.04 0.03 0.04 0.05 0.04 0.05 0.06 0.07 0.07 0.05 0.04 0.09 0.13 0.10 0.08 0.10 0.11 0.11 0.11 0.12 0.10 0.12 0.12 0.13 0.15 0.16 0.16 0.14 0.14 0.15 0.14 0.13 0.14 0.17 0.15 0.17 0.16 0.12 0.08
0.09 0.06 0.04 0.03 0.03 0.05 0.05 0.06 0.08 0.08 0.06 0.06 0.06 0.06 0.05 0.09 0.10 0.11 0.12 0.12 0.09 0.08 0.12 0.18 0.20 0.17 0.18 0.20 0.22 0.24 0.20 0.19 0.20 0.23 0.23 0.20 0.20 0.20 0.21 0.22 0.21 0.19 0.12
0.05 0.04 0.03 0.03 0.04 0.05 0.06 0.07 0.09 0.12 0.14 0.14 0.14 0.12 0.09 0.10 0.09 0.08 0.10 0.13 0.19 0.26 0.26 0.29 0.32 0.29 0.23 0.26 0.29 0.31 0.29 0.20 0.20 0.24 0.26 0.20 0.17 0.18 0.20 0.17 0.14 0.15 0.12
0.03 0.04 0.04 0.05 0.06 0.07 0.08 0.08 0.09 0.10 0.14 0.18 0.20 0.21 0.20 0.21 0.22 0.24 0.29 0.35 0.39 0.40 0.38 0.40 0.40 0.38 0.36 0.33 0.32 0.28 0.26 0.21 0.21 0.23 0.27 0.28 0.20 0.17 0.20 0.18 0.14 0.12 0.10
0.04 0.05 0.05 0.07 0.10 0.12 0.15 0.16 0.18 0.19 0.20 0.20 0.20 0.21 0.21 0.25 0.30 0.31 0.31 0.27 0.27 0.27 0.27 0.30 0.34 0.35 0.36 0.40 0.43 0.41 0.37 0.32 0.32 0.32 0.36 0.32 0.25 0.24 0.24 0.21 0.17 0.16 0.14
0.06 0.09 0.11 0.14 0.17 0.18 0.22 0.26 0.28 0.29 0.30 0.29 0.33 0.33 0.31 0.27 0.22 0.18 0.16 0.15 0.15 0.14 0.14 0.17 0.17 0.16 0.17 0.18 0.20 0.25 0.25 0.27 0.32 0.34 0.36 0.34 0.31 0.29 0.27 0.23 0.20 0.21 0.18

GFSGL_prec_precacc_042.txt.gz
Total_Precipitation_Accumulation
0.36 0.39 0.37 0.46 0.61 0.67 0.60 0.56 0.53 0.48 0.45 0.37 0.30 0.25 0.16 0.10 0.05 0.02 0.02 0.04 0.04 0.03 0.03 0.04 0.03 0.02 0.01 0.02 0.02 0.01 0.00 0.00 0.00 0.00 0.00 0.00 0.00 0.00 0.00 0.00 0.00 0.01 0.02
0.31 0.51 0.73 0.66 0.98 1.49 1.50 1.15 1.24 1.11 0.63 0.18 0.10 0.08 0.05 0.04 0.03 0.01 0.03 0.04 0.05 0.09 0.08 0.04 0.02 0.01 0.01 0.01 0.01 0.00 0.00 0.00 0.00 0.00 0.00 0.00 0.00 0.00 0.00 0.01 0.01 0.01 0.03
0.63 0.76 0.76 0.62 0.99 0.94 0.65 0.47 0.39 0.45 0.26 0.04 0.03 0.06 0.05 0.04 0.03 0.02 0.03 0.09 0.12 0.07 0.05 0.04 0.03 0.02 0.01 0.00 0.00 0.00 0.00 0.01 0.01 0.04 0.01 0.00 0.00 0.00 0.00 0.00 0.01 0.02 0.03
0.37 0.47 0.37 0.30 0.34 0.31 0.23 0.17 0.12 0.08 0.10 0.05 0.04 0.04 0.02 0.02 0.02 0.07 0.10 0.08 0.09 0.09 0.04 0.01 0.00 0.00 0.00 0.00 0.01 0.01 0.02 0.02 0.02 0.02 0.01 0.01 0.00 0.00 0.02 0.04 0.06 0.05 0.04
0.15 0.17 0.13 0.21 0.13 0.12 0.07 0.06 0.04 0.05 0.06 0.04 0.03 0.02 0.02 0.06 0.12 0.13 0.13 0.12 0.04 0.01 0.00 0.00 0.00 0.00 0.00 0.00 0.01 0.01 0.02 0.03 0.03 0.03 0.03 0.02 0.01 0.03 0.05 0.05 0.06 0.04 0.04
0.05 0.08 0.06 0.08 0.07 0.06 0.04 0.02 0.02 0.03 0.02 0.01 0.03 0.05 0.10 0.14 0.15 0.13 0.06 0.01 0.00 0.00 0.00 0.00 0.00 0.00 0.00 0.00 0.00 0.00 0.01 0.03 0.05 0.05 0.04 0.04 0.02 0.04 0.09 0.14 0.13 0.09 0.06
0.05 0.04 0.04 0.04 0.05 0.04 0.04 0.03 0.01 0.00 0.01 0.03 0.07 0.13 0.15 0.13 0.06 0.02 0.01 0.00 0.01 0.00 0.00 0.00 0.00 0.00 0.00 0.00 0.00 0.00 0.01 0.01 0.03 0.05 0.06 0.05 0.06 0.06 0.09 0.13 0.13 0.13 0.08
0.02 0.03 0.03 0.03 0.03 0.04 0.02 0.01 0.02 0.05 0.11 0.15 0.17 0.13 0.06 0.01 0.02 0.04 0.03 0.01 0.01 0.00 0.00 0.00 0.00 0.00 0.00 0.00 0.01 0.02 0.01 0.00 0.00 0.01 0.03 0.03 0.03 0.05 0.08 0.10 0.11 0.09 0.03
0.02 0.02 0.02 0.03 0.03 0.02 0.03 0.09 0.17 0.21 0.18 0.12 0.04 0.01 0.02 0.02 0.04 0.03 0.02 0.00 0.00 0.00 0.00 0.00 0.00 0.00 0.00 0.01 0.01 0.01 0.00 0.00 0.01 0.01 0.01 0.01 0.00 0.00 0.03 0.10 0.10 0.14 0.11
0.00 0.00 0.00 0.01 0.03 0.09 0.18 0.21 0.15 0.07 0.03 0.03 0.04 0.04 0.05 0.02 0.01 0.00 0.00 0.00 0.00 0.00 0.00 0.00 0.00 0.00 0.00 0.00 0.01 0.01 0.02 0.02 0.02 0.02 0.02 0.01 0.01 0.02 0.02 0.06 0.08 0.20 0.18
0.00 0.01 0.03 0.08 0.14 0.16 0.13 0.06 0.03 0.02 0.02 0.01 0.00 0.00 0.00 0.00 0.00 0.00 0.00 0.00 0.00 0.00 0.00 0.00 0.00 0.00 0.00 0.00 0.00 0.01 0.04 0.02 0.03 0.05 0.07 0.08 0.05 0.04 0.04 0.05 0.06 0.11 0.20
0.03 0.07 0.12 0.15 0.12 0.07 0.02 0.00 0.00 0.00 0.00 0.00 0.00 0.00 0.00 0.00 0.00 0.00 0.00 0.00 0.00 0.00 0.00 0.00 0.00 0.00 0.00 0.00 0.00 0.00 0.00 0.00 0.03 0.06 0.08 0.12 0.14 0.09 0.05 0.05 0.05 0.09 0.13
0.06 0.08 0.08 0.04 0.01 0.00 0.00 0.00 0.00 0.00 0.00 0.00 0.00 0.00 0.00 0.01 0.01 0.00 0.00 0.00 0.00 0.00 0.00 0.00 0.00 0.00 0.00 0.00 0.00 0.00 0.00 0.02 0.06 0.10 0.10 0.07 0.07 0.09 0.10 0.13 0.15 0.12 0.09
0.02 0.01 0.00 0.00 0.00 0.00 0.00 0.00 0.00 0.00 0.00 0.00 0.00 0.00 0.01 0.01 0.00 0.00 0.00 0.00 0.00 0.00 0.00 0.00 0.00 0.00 0.01 0.01 0.01 0.02 0.02 0.03 0.07 0.10 0.09 0.08 0.09 0.12 0.19 0.30 0.33 0.28 0.22
0.00 0.00 0.00 0.00 0.00 0.00 0.00 0.00 0.00 0.00 0.00 0.00 0.01 0.01 0.01 0.00 0.00 0.00 0.01 0.01 0.01 0.01 0.02 0.04 0.04 0.05 0.05 0.05 0.05 0.05 0.09 0.12 0.13 0.13 0.15 0.16 0.17 0.16 0.13 0.10 0.15 0.25 0.42
0.00 0.00 0.00 0.00 0.00 0.00 0.00 0.00 0.00 0.00 0.00 0.00 0.00 0.00 0.00 0.00 0.00 0.00 0.00 0.00 0.00 0.01 0.10 0.12 0.08 0.09 0.10 0.08 0.10 0.10 0.14 0.18 0.17 0.17 0.21 0.23 0.27 0.29 0.30 0.33 0.32 0.32 0.35
0.00 0.00 0.00 0.00 0.00 0.01 0.01 0.00 0.00 0.00 0.00 0.00 0.00 0.00 0.00 0.00 0.00 0.00 0.00 0.00 0.02 0.08 0.24 0.17 0.14 0.13 0.12 0.11 0.14 0.16 0.16 0.14 0.18 0.30 0.30 0.27 0.29 0.31 0.27 0.26 0.23 0.25 0.24
0.00 0.00 0.00 0.00 0.01 0.01 0.01 0.01 0.01 0.03 0.04 0.03 0.02 0.00 0.00 0.00 0.00 0.01 0.02 0.06 0.15 0.15 0.16 0.12 0.10 0.08 0.08 0.09 0.10 0.11 0.12 0.15 0.19 0.18 0.20 0.20 0.20 0.22 0.23 0.18 0.15 0.13 0.09
0.00 0.00 0.00 0.01 0.01 0.02 0.04 0.05 0.04 0.05 0.04 0.03 0.01 0.01 0.01 0.02 0.02 0.02 0.04 0.16 0.16 0.11 0.08 0.08 0.06 0.07 0.09 0.10 0.12 0.15 0.17 0.18 0.16 0.17 0.14 0.14 0.15 0.18 0.20 0.16 0.12 0.10 0.10
0.04 0.05 0.08 0.11 0.14 0.14 0.11 0.08 0.06 0.06 0.05 0.05 0.04 0.03 0.03 0.07 0.09 0.06 0.07 0.12 0.12 0.10 0.08 0.08 0.07 0.07 0.09 0.11 0.12 0.13 0.14 0.13 0.13 0.13 0.11 0.11 0.10 0.10 0.11 0.13 0.14 0.13 0.11
0.25 0.24 0.22 0.18 0.15 0.12 0.11 0.09 0.08 0.09 0.09 0.08 0.07 0.05 0.04 0.09 0.13 0.10 0.08 0.10 0.11 0.11 0.11 0.12 0.10 0.12 0.12 0.14 0.15 0.16 0.16 0.14 0.14 0.15 0.15 0.14 0.14 0.17 0.16 0.17 0.16 0.13 0.10
0.21 0.17 0.14 0.12 0.11 0.11 0.10 0.09 0.10 0.10 0.07 0.07 0.06 0.06 0.05 0.09 0.10 0.11 0.12 0.12 0.09 0.09 0.12 0.18 0.20 0.17 0.18 0.20 0.22 0.25 0.21 0.19 0.20 0.23 0.23 0.21 0.20 0.20 0.22 0.23 0.23 0.22 0.17
0.12 0.11 0.08 0.07 0.07 0.07 0.08 0.08 0.10 0.12 0.14 0.15 0.15 0.12 0.09 0.10 0.09 0.09 0.10 0.13 0.19 0.26 0.26 0.29 0.32 0.29 0.23 0.26 0.29 0.31 0.30 0.20 0.20 0.25 0.27 0.20 0.17 0.19 0.22 0.19 0.17 0.18 0.15
0.07 0.07 0.07 0.07 0.07 0.08 0.09 0.08 0.09 0.11 0.15 0.19 0.21 0.21 0.20 0.21 0.23 0.24 0.29 0.36 0.40 0.40 0.38 0.40 0.40 0.38 0.36 0.33 0.32 0.28 0.26 0.22 0.22 0.23 0.29 0.29 0.21 0.17 0.21 0.20 0.18 0.16 0.14
0.06 0.06 0.06 0.07 0.10 0.12 0.15 0.16 0.18 0.19 0.20 0.20 0.21 0.22 0.21 0.25 0.30 0.31 0.31 0.27 0.27 0.27 0.27 0.30 0.34 0.35 0.36 0.40 0.43 0.41 0.38 0.32 0.32 0.33 0.37 0.33 0.26 0.25 0.26 0.22 0.20 0.20 0.18
0.06 0.09 0.11 0.14 0.17 0.18 0.22 0.26 0.28 0.29 0.30 0.30 0.33 0.33 0.31 0.27 0.22 0.18 0.16 0.15 0.15 0.14 0.14 0.17 0.17 0.16 0.17 0.18 0.20 0.25 0.25 0.27 0.32 0.34 0.37 0.35 0.31 0.30 0.28 0.25 0.22 0.25 0.23

GFSGL_prec_precacc_045.txt.gz
Total_Precipitation_Accumulation
0.43 0.50 0.43 0.47 0.62 0.69 0.62 0.60 0.58 0.55 0.55 0.57 0.56 0.46 0.31 0.18 0.09 0.03 0.03 0.04 0.05 0.05 0.05 0.07 0.06 0.04 0.03 0.02 0.02 0.01 0.00 0.00 0.00 0.00 0.00 0.00 0.00 0.00 0.00 0.00 0.00 0.01 0.02
0.40 0.65 0.84 0.72 1.03 1.56 1.61 1.25 1.47 1.48 1.11 0.81 0.59 0.30 0.09 0.06 0.03 0.02 0.04 0.05 0.07 0.12 0.12 0.09 0.06 0.04 0.01 0.01 0.01 0.01 0.00 0.00 0.00 0.00 0.00 0.00 0.00 0.00 0.00 0.01 0.01 0.01 0.03
0.64 0.79 0.82 0.68 1.07 1.00 0.70 0.52 0.42 0.50 0.46 0.25 0.13 0.10 0.08 0.06 0.04 0.04 0.05 0.10 0.14 0.10 0.08 0.07 0.04 0.02 0.01 0.01 0.00 0.00 0.00 0.01 0.01 0.04 0.01 0.00 0.00 0.00 0.00 0.00 0.01 0.02 0.03
0.37 0.47 0.38 0.33 0.39 0.35 0.26 0.18 0.17 0.15 0.12 0.07 0.06 0.08 0.06 0.05 0.05 0.09 0.12 0.10 0.10 0.10 0.05 0.01 0.00 0.00 0.00 0.00 0.01 0.01 0.02 0.02 0.02 0.02 0.01 0.01 0.00 0.00 0.02 0.04 0.06 0.05 0.04
0.15 0.17 0.14 0.23 0.17 0.14 0.09 0.06 0.09 0.12 0.16 0.10 0.09 0.07 0.07 0.09 0.15 0.14 0.13 0.13 0.05 0.01 0.00 0.00 0.00 0.01 0.01 0.01 0.01 0.01 0.02 0.03 0.03 0.03 0.03 0.02 0.01 0.03 0.05 0.05 0.06 0.04 0.04
0.05 0.09 0.07 0.10 0.10 0.10 0.06 0.04 0.05 0.08 0.08 0.08 0.10 0.12 0.15 0.17 0.19 0.14 0.06 0.01 0.00 0.00 0.00 0.00 0.00 0.01 0.00 0.00 0.00 0.00 0.01 0.03 0.05 0.05 0.04 0.04 0.02 0.04 0.09 0.14 0.13 0.09 0.07
0.05 0.04 0.05 0.06 0.08 0.06 0.07 0.05 0.06 0.07 0.04 0.06 0.11 0.16 0.17 0.14 0.08 0.03 0.01 0.00 0.01 0.00 0.00 0.00 0.00 0.00 0.00 0.00 0.00 0.00 0.01 0.01 0.03 0.05 0.06 0.05 0.06 0.06 0.09 0.13 0.13 0.13 0.08
0.03 0.04 0.04 0.05 0.05 0.07 0.06 0.05 0.05 0.06 0.11 0.16 0.17 0.14 0.06 0.02 0.04 0.05 0.04 0.01 0.01 0.00 0.00 0.00 0.00 0.00 0.00 0.00 0.01 0.02 0.01 0.00 0.00 0.01 0.03 0.03 0.03 0.05 0.08 0.10 0.11 0.09 0.03
0.02 0.02 0.03 0.05 0.05 0.04 0.04 0.09 0.17 0.21 0.18 0.12 0.04 0.01 0.02 0.02 0.05 0.03 0.02 0.00 0.00 0.00 0.00 0.00 0.00 0.00 0.00 0.01 0.01 0.01 0.00 0.00 0.01 0.01 0.01 0.01 0.00 0.00 0.03 0.10 0.10 0.15 0.11
0.01 0.01 0.02 0.02 0.04 0.09 0.19 0.21 0.15 0.07 0.03 0.03 0.04 0.04 0.05 0.02 0.01 0.00 0.00 0.00 0.00 0.00 0.00 0.00 0.00 0.00 0.00 0.00 0.01 0.01 0.02 0.02 0.02 0.02 0.02 0.01 0.01 0.02 0.02 0.06 0.09 0.22 0.20
0.01 0.01 0.03 0.08 0.14 0.16 0.13 0.06 0.03 0.02 0.02 0.01 0.00 0.00 0.00 0.00 0.00 0.00 0.00 0.00 0.00 0.00 0.00 0.00 0.00 0.00 0.00 0.00 0.00 0.01 0.04 0.02 0.03 0.05 0.07 0.08 0.05 0.04 0.04 0.05 0.06 0.12 0.21
0.03 0.07 0.12 0.15 0.12 0.07 0.02 0.00 0.00 0.00 0.00 0.00 0.00 0.00 0.00 0.00 0.00 0.00 0.00 0.00 0.00 0.00 0.00 0.00 0.00 0.00 0.00 0.00 0.00 0.00 0.00 0.00 0.03 0.06 0.08 0.12 0.14 0.09 0.05 0.05 0.05 0.09 0.13
0.06 0.08 0.08 0.04 0.01 0.00 0.00 0.00 0.00 0.00 0.00 0.00 0.00 0.00 0.00 0.01 0.01 0.00 0.00 0.00 0.00 0.00 0.00 0.00 0.00 0.00 0.00 0.00 0.00 0.00 0.00 0.02 0.06 0.10 0.10 0.07 0.07 0.09 0.10 0.13 0.15 0.12 0.09
0.02 0.01 0.00 0.00 0.00 0.00 0.00 0.00 0.00 0.00 0.00 0.00 0.00 0.00 0.01 0.01 0.00 0.00 0.00 0.00 0.00 0.00 0.00 0.00 0.00 0.00 0.01 0.01 0.01 0.02 0.02 0.03 0.07 0.10 0.09 0.08 0.09 0.12 0.19 0.30 0.33 0.28 0.22
0.00 0.00 0.00 0.00 0.00 0.00 0.00 0.00 0.00 0.00 0.00 0.00 0.01 0.01 0.01 0.00 0.00 0.00 0.01 0.01 0.01 0.01 0.02 0.04 0.04 0.05 0.05 0.05 0.05 0.05 0.09 0.12 0.13 0.13 0.15 0.16 0.17 0.16 0.13 0.10 0.15 0.25 0.42
0.00 0.00 0.00 0.00 0.00 0.00 0.00 0.00 0.00 0.00 0.00 0.00 0.00 0.00 0.00 0.00 0.00 0.00 0.00 0.00 0.00 0.01 0.10 0.12 0.08 0.09 0.10 0.08 0.10 0.10 0.14 0.18 0.17 0.17 0.21 0.23 0.27 0.29 0.30 0.33 0.32 0.32 0.35
0.00 0.00 0.00 0.00 0.00 0.01 0.01 0.00 0.00 0.00 0.00 0.00 0.00 0.00 0.00 0.00 0.00 0.00 0.00 0.00 0.02 0.08 0.24 0.17 0.14 0.13 0.12 0.11 0.14 0.16 0.16 0.14 0.18 0.30 0.30 0.27 0.29 0.31 0.27 0.26 0.23 0.26 0.24
0.00 0.00 0.00 0.00 0.01 0.01 0.01 0.01 0.01 0.03 0.05 0.05 0.04 0.01 0.01 0.01 0.01 0.02 0.02 0.06 0.15 0.15 0.16 0.12 0.10 0.08 0.08 0.09 0.10 0.11 0.12 0.15 0.19 0.18 0.20 0.20 0.20 0.22 0.23 0.18 0.15 0.14 0.10
0.00 0.01 0.02 0.03 0.03 0.04 0.06 0.08 0.09 0.11 0.11 0.09 0.07 0.05 0.05 0.06 0.05 0.05 0.05 0.16 0.16 0.11 0.09 0.09 0.06 0.07 0.09 0.10 0.12 0.15 0.17 0.18 0.16 0.17 0.14 0.14 0.15 0.19 0.20 0.16 0.12 0.10 0.11
0.14 0.14 0.14 0.16 0.20 0.20 0.18 0.15 0.13 0.13 0.12 0.12 0.11 0.09 0.07 0.09 0.10 0.06 0.08 0.12 0.12 0.10 0.08 0.08 0.07 0.07 0.09 0.11 0.12 0.13 0.14 0.13 0.13 0.13 0.11 0.11 0.10 0.10 0.12 0.13 0.14 0.13 0.12
0.30 0.29 0.27 0.25 0.21 0.19 0.17 0.15 0.14 0.15 0.14 0.13 0.12 0.08 0.06 0.10 0.14 0.11 0.09 0.11 0.11 0.11 0.11 0.12 0.10 0.12 0.12 0.14 0.15 0.16 0.16 0.14 0.14 0.15 0.15 0.14 0.14 0.18 0.16 0.18 0.16 0.13 0.11
0.25 0.21 0.18 0.16 0.15 0.16 0.14 0.14 0.14 0.14 0.11 0.10 0.09 0.08 0.07 0.11 0.12 0.12 0.13 0.12 0.09 0.09 0.12 0.18 0.20 0.17 0.18 0.20 0.22 0.25 0.21 0.19 0.20 0.24 0.23 0.21 0.21 0.20 0.23 0.23 0.23 0.23 0.18
0.14 0.13 0.11 0.10 0.10 0.10 0.11 0.11 0.13 0.15 0.17 0.17 0.17 0.14 0.10 0.10 0.09 0.09 0.11 0.13 0.20 0.26 0.26 0.29 0.32 0.29 0.23 0.26 0.29 0.31 0.30 0.21 0.21 0.26 0.27 0.21 0.17 0.19 0.22 0.20 0.18 0.19 0.16
0.09 0.08 0.09 0.09 0.09 0.10 0.11 0.10 0.11 0.12 0.15 0.19 0.21 0.21 0.20 0.21 0.23 0.24 0.29 0.36 0.40 0.40 0.38 0.40 0.40 0.38 0.36 0.33 0.32 0.28 0.26 0.23 0.23 0.24 0.29 0.30 0.22 0.17 0.21 0.20 0.18 0.18 0.16
0.07 0.07 0.07 0.08 0.11 0.13 0.15 0.16 0.18 0.19 0.20 0.20 0.21 0.22 0.21 0.25 0.30 0.31 0.31 0.27 0.27 0.27 0.27 0.30 0.34 0.35 0.36 0.40 0.43 0.41 0.38 0.32 0.32 0.33 0.38 0.34 0.26 0.25 0.26 0.23 0.20 0.22 0.20
0.06 0.09 0.11 0.14 0.17 0.18 0.22 0.26 0.28 0.29 0.30 0.30 0.33 0.34 0.31 0.27 0.22 0.18 0.16 0.15 0.15 0.14 0.14 0.17 0.17 0.16 0.17 0.18 0.20 0.26 0.25 0.27 0.32 0.35 0.37 0.36 0.32 0.30 0.29 0.25 0.23 0.26 0.26

GFSGL_prec_precacc_048.txt.gz
Total_Precipitation_Accumulation
0.43 0.53 0.45 0.47 0.62 0.69 0.63 0.60 0.58 0.55 0.55 0.58 0.60 0.52 0.39 0.30 0.32 0.30 0.17 0.14 0.12 0.08 0.07 0.09 0.08 0.08 0.08 0.07 0.06 0.04 0.02 0.01 0.01 0.00 0.00 0.00 0.00 0.00 0.00 0.00 0.00 0.01 0.02
0.43 0.67 0.90 0.76 1.04 1.56 1.62 1.26 1.48 1.49 1.15 0.90 0.68 0.45 0.30 0.18 0.12 0.10 0.06 0.07 0.11 0.13 0.12 0.10 0.09 0.08 0.08 0.07 0.05 0.03 0.02 0.00 0.00 0.01 0.00 0.00 0.00 0.00 0.00 0.01 0.01 0.01 0.03
0.66 0.81 0.84 0.71 1.10 1.02 0.71 0.53 0.42 0.52 0.49 0.30 0.20 0.15 0.11 0.07 0.05 0.04 0.05 0.11 0.14 0.10 0.10 0.10 0.09 0.08 0.06 0.03 0.02 0.01 0.00 0.01 0.01 0.04 0.01 0.00 0.00 0.00 0.00 0.00 0.01 0.02 0.03
0.37 0.47 0.38 0.34 0.40 0.38 0.31 0.24 0.20 0.18 0.17 0.16 0.14 0.15 0.10 0.05 0.05 0.10 0.12 0.11 0.12 0.12 0.08 0.04 0.03 0.01 0.01 0.01 0.01 0.01 0.02 0.02 0.02 0.02 0.01 0.01 0.00 0.00 0.02 0.04 0.06 0.05 0.04
0.15 0.17 0.14 0.23 0.17 0.15 0.10 0.12 0.15 0.17 0.24 0.19 0.18 0.09 0.10 0.14 0.18 0.17 0.15 0.14 0.07 0.03 0.01 0.01 0.01 0.01 0.02 0.01 0.01 0.01 0.02 0.03 0.03 0.03 0.03 0.02 0.01 0.03 0.05 0.05 0.06 0.04 0.04
0.05 0.09 0.07 0.10 0.10 0.11 0.06 0.06 0.09 0.10 0.11 0.14 0.16 0.16 0.18 0.22 0.26 0.19 0.08 0.02 0.01 0.01 0.01 0.00 0.00 0.02 0.00 0.00 0.00 0.00 0.01 0.03 0.05 0.05 0.04 0.04 0.02 0.04 0.09 0.14 0.13 0.09 0.07
0.05 0.04 0.05 0.06 0.08 0.06 0.09 0.06 0.08 0.11 0.09 0.10 0.16 0.23 0.25 0.21 0.15 0.06 0.04 0.01 0.01 0.01 0.00 0.00 0.00 0.01 0.01 0.00 0.00 0.00 0.01 0.01 0.03 0.05 0.06 0.05 0.06 0.06 0.09 0.13 0.13 0.13 0.08
0.03 0.04 0.04 0.05 0.06 0.07 0.07 0.09 0.10 0.12 0.17 0.21 0.22 0.19 0.11 0.05 0.08 0.07 0.05 0.01 0.01 0.00 0.00 0.01 0.01 0.01 0.01 0.00 0.01 0.02 0.01 0.00 0.00 0.01 0.03 0.03 0.03 0.05 0.08 0.10 0.11 0.09 0.03
0.02 0.02 0.04 0.06 0.06 0.06 0.08 0.13 0.22 0.27 0.24 0.16 0.09 0.05 0.05 0.04 0.08 0.05 0.03 0.00 0.00 0.01 0.01 0.01 0.01 0.01 0.01 0.01 0.01 0.01 0.00 0.00 0.01 0.01 0.01 0.01 0.00 0.00 0.03 0.10 0.10 0.15 0.11
0.01 0.01 0.02 0.03 0.05 0.10 0.20 0.23 0.18 0.11 0.06 0.05 0.05 0.05 0.06 0.03 0.04 0.02 0.01 0.00 0.01 0.01 0.01 0.01 0.01 0.00 0.00 0.00 0.01 0.01 0.02 0.02 0.02 0.02 0.02 0.01 0.01 0.02 0.02 0.06 0.09 0.22 0.20
0.01 0.02 0.04 0.08 0.14 0.16 0.13 0.08 0.05 0.03 0.03 0.02 0.01 0.00 0.00 0.00 0.01 0.01 0.01 0.00 0.00 0.00 0.00 0.00 0.00 0.00 0.00 0.00 0.00 0.01 0.04 0.02 0.03 0.05 0.07 0.08 0.05 0.04 0.04 0.05 0.06 0.12 0.21
0.05 0.08 0.12 0.15 0.12 0.07 0.03 0.02 0.02 0.01 0.00 0.00 0.00 0.00 0.00 0.00 0.00 0.01 0.00 0.00 0.00 0.00 0.00 0.00 0.00 0.00 0.00 0.00 0.00 0.00 0.00 0.00 0.03 0.06 0.08 0.12 0.14 0.09 0.05 0.05 0.05 0.09 0.13
0.08 0.10 0.09 0.04 0.01 0.01 0.00 0.01 0.00 0.00 0.00 0.00 0.00 0.00 0.00 0.01 0.01 0.00 0.00 0.00 0.00 0.00 0.00 0.00 0.00 0.00 0.00 0.00 0.00 0.00 0.00 0.02 0.06 0.10 0.10 0.07 0.07 0.09 0.10 0.13 0.15 0.12 0.09
0.03 0.02 0.00 0.00 0.00 0.00 0.00 0.00 0.00 0.00 0.00 0.00 0.00 0.00 0.01 0.01 0.00 0.00 0.00 0.00 0.00 0.00 0.00 0.00 0.00 0.00 0.01 0.01 0.01 0.02 0.02 0.03 0.07 0.10 0.09 0.08 0.09 0.12 0.19 0.30 0.33 0.28 0.22
0.00 0.00 0.00 0.00 0.00 0.00 0.00 0.00 0.00 0.00 0.00 0.00 0.01 0.01 0.01 0.00 0.00 0.00 0.01 0.01 0.01 0.01 0.02 0.04 0.04 0.05 0.05 0.05 0.05 0.05 0.09 0.12 0.13 0.13 0.15 0.16 0.17 0.16 0.13 0.10 0.15 0.25 0.42
0.00 0.00 0.00 0.00 0.00 0.00 0.00 0.00 0.00 0.00 0.00 0.00 0.00 0.00 0.00 0.00 0.00 0.00 0.00 0.00 0.00 0.01 0.10 0.12 0.08 0.09 0.10 0.08 0.10 0.10 0.14 0.18 0.17 0.17 0.21 0.23 0.27 0.29 0.30 0.33 0.32 0.32 0.36
0.00 0.00 0.00 0.00 0.00 0.01 0.01 0.00 0.01 0.01 0.02 0.02 0.03 0.02 0.01 0.01 0.00 0.00 0.00 0.00 0.02 0.08 0.24 0.17 0.14 0.13 0.12 0.11 0.14 0.16 0.16 0.14 0.18 0.30 0.30 0.27 0.29 0.31 0.28 0.26 0.23 0.26 0.24
0.00 0.00 0.00 0.00 0.01 0.02 0.02 0.03 0.03 0.06 0.09 0.08 0.06 0.02 0.02 0.03 0.03 0.05 0.05 0.10 0.18 0.16 0.17 0.14 0.12 0.09 0.09 0.09 0.10 0.11 0.12 0.15 0.19 0.18 0.20 0.20 0.20 0.22 0.24 0.18 0.16 0.14 0.10
0.06 0.08 0.09 0.10 0.09 0.09 0.11 0.12 0.13 0.16 0.16 0.15 0.14 0.13 0.13 0.13 0.11 0.11 0.11 0.22 0.21 0.16 0.13 0.12 0.10 0.09 0.10 0.11 0.12 0.15 0.17 0.18 0.16 0.17 0.14 0.14 0.15 0.19 0.20 0.16 0.12 0.11 0.11
0.31 0.28 0.24 0.23 0.25 0.26 0.26 0.23 0.21 0.21 0.20 0.19 0.18 0.16 0.13 0.14 0.14 0.11 0.11 0.15 0.16 0.13 0.11 0.10 0.08 0.08 0.09 0.11 0.12 0.13 0.14 0.13 0.13 0.13 0.11 0.11 0.10 0.10 0.12 0.13 0.14 0.14 0.12
0.35 0.34 0.31 0.29 0.26 0.24 0.22 0.19 0.17 0.18 0.17 0.16 0.16 0.12 0.09 0.13 0.16 0.13 0.11 0.12 0.13 0.12 0.12 0.13 0.10 0.12 0.12 0.14 0.15 0.16 0.16 0.14 0.14 0.16 0.15 0.14 0.14 0.18 0.16 0.18 0.17 0.13 0.11
0.29 0.26 0.21 0.18 0.17 0.17 0.15 0.15 0.15 0.15 0.12 0.11 0.11 0.10 0.08 0.11 0.13 0.13 0.14 0.13 0.10 0.09 0.12 0.18 0.20 0.17 0.18 0.20 0.22 0.25 0.21 0.19 0.20 0.24 0.24 0.21 0.21 0.20 0.23 0.23 0.23 0.23 0.18
0.15 0.13 0.11 0.11 0.11 0.11 0.11 0.11 0.13 0.16 0.17 0.18 0.17 0.15 0.10 0.10 0.09 0.09 0.11 0.14 0.20 0.26 0.27 0.29 0.32 0.29 0.23 0.26 0.29 0.31 0.30 0.21 0.21 0.26 0.28 0.21 0.17 0.19 0.22 0.20 0.18 0.19 0.16
0.09 0.09 0.09 0.09 0.10 0.11 0.12 0.10 0.11 0.12 0.15 0.19 0.21 0.21 0.20 0.21 0.23 0.24 0.29 0.36 0.40 0.40 0.38 0.40 0.40 0.38 0.36 0.33 0.32 0.28 0.26 0.23 0.24 0.24 0.29 0.31 0.22 0.18 0.22 0.21 0.19 0.18 0.17
0.07 0.07 0.07 0.08 0.11 0.13 0.16 0.16 0.18 0.19 0.20 0.20 0.21 0.22 0.21 0.26 0.30 0.31 0.31 0.27 0.27 0.27 0.27 0.30 0.34 0.35 0.36 0.40 0.43 0.41 0.38 0.33 0.32 0.33 0.39 0.35 0.27 0.26 0.27 0.24 0.21 0.22 0.21
0.06 0.09 0.11 0.14 0.17 0.18 0.22 0.26 0.28 0.29 0.30 0.30 0.33 0.34 0.32 0.27 0.22 0.18 0.16 0.15 0.15 0.14 0.14 0.17 0.17 0.16 0.17 0.18 0.20 0.26 0.26 0.27 0.32 0.35 0.38 0.36 0.32 0.30 0.29 0.26 0.23 0.27 0.27

GFSGL_prec_precacc_051.txt.gz
Total_Precipitation_Accumulation
0.43 0.53 0.45 0.47 0.62 0.69 0.63 0.60 0.58 0.55 0.55 0.58 0.60 0.52 0.39 0.30 0.33 0.38 0.42 0.47 0.46 0.39 0.34 0.27 0.18 0.16 0.13 0.11 0.09 0.06 0.04 0.02 0.02 0.01 0.00 0.00 0.00 0.00 0.00 0.00 0.00 0.01 0.02
0.43 0.67 0.92 0.77 1.04 1.56 1.62 1.26 1.48 1.49 1.15 0.90 0.68 0.45 0.30 0.19 0.13 0.13 0.19 0.21 0.24 0.27 0.24 0.19 0.15 0.14 0.11 0.09 0.07 0.05 0.03 0.02 0.01 0.02 0.01 0.00 0.00 0.00 0.00 0.01 0.01 0.01 0.03
0.66 0.81 0.84 0.74 1.12 1.03 0.71 0.53 0.42 0.52 0.49 0.30 0.20 0.15 0.11 0.07 0.05 0.05 0.09 0.20 0.27 0.17 0.12 0.12 0.10 0.10 0.08 0.04 0.03 0.02 0.02 0.02 0.02 0.04 0.01 0.00 0.00 0.00 0.00 0.00 0.01 0.02 0.03
0.37 0.47 0.38 0.34 0.40 0.38 0.31 0.24 0.20 0.18 0.17 0.16 0.15 0.16 0.12 0.06 0.05 0.10 0.12 0.11 0.12 0.12 0.08 0.04 0.04 0.03 0.02 0.03 0.04 0.04 0.03 0.03 0.02 0.02 0.01 0.01 0.00 0.00 0.02 0.04 0.06 0.05 0.04
0.15 0.17 0.14 0.23 0.17 0.15 0.10 0.12 0.15 0.18 0.25 0.21 0.21 0.12 0.12 0.16 0.19 0.20 0.16 0.15 0.08 0.04 0.02 0.02 0.03 0.05 0.06 0.03 0.02 0.01 0.02 0.03 0.03 0.03 0.03 0.02 0.01 0.03 0.05 0.05 0.06 0.04 0.04
0.05 0.09 0.07 0.10 0.10 0.11 0.06 0.06 0.09 0.11 0.13 0.18 0.22 0.24 0.25 0.27 0.35 0.30 0.16 0.06 0.03 0.03 0.03 0.02 0.04 0.06 0.02 0.02 0.01 0.01 0.01 0.03 0.05 0.05 0.04 0.04 0.02 0.04 0.09 0.14 0.13 0.09 0.07
0.05 0.04 0.05 0.06 0.08 0.06 0.09 0.06 0.08 0.12 0.10 0.13 0.18 0.28 0.32 0.29 0.29 0.15 0.13 0.06 0.07 0.06 0.03 0.02 0.01 0.01 0.02 0.00 0.01 0.01 0.01 0.01 0.03 0.05 0.06 0.05 0.06 0.06 0.09 0.13 0.13 0.13 0.08
0.03 0.04 0.04 0.05 0.06 0.07 0.07 0.09 0.10 0.12 0.20 0.23 0.25 0.23 0.14 0.10 0.17 0.14 0.10 0.03 0.03 0.02 0.02 0.02 0.01 0.01 0.01 0.01 0.02 0.02 0.01 0.01 0.01 0.01 0.03 0.03 0.03 0.05 0.08 0.10 0.11 0.09 0.03
0.02 0.02 0.04 0.06 0.06 0.06 0.08 0.13 0.22 0.28 0.27 0.22 0.13 0.09 0.08 0.09 0.15 0.08 0.06 0.01 0.01 0.02 0.01 0.01 0.01 0.01 0.03 0.03 0.02 0.01 0.00 0.00 0.01 0.01 0.01 0.01 0.00 0.00 0.03 0.10 0.10 0.15 0.11
0.01 0.01 0.02 0.03 0.05 0.10 0.21 0.24 0.19 0.13 0.09 0.08 0.09 0.08 0.11 0.06 0.09 0.05 0.03 0.00 0.01 0.01 0.01 0.02 0.03 0.02 0.02 0.01 0.01 0.01 0.02 0.02 0.02 0.02 0.02 0.01 0.01 0.02 0.02 0.06 0.09 0.22 0.20
0.01 0.02 0.06 0.10 0.17 0.19 0.14 0.08 0.05 0.04 0.04 0.03 0.03 0.02 0.03 0.03 0.04 0.04 0.02 0.00 0.00 0.00 0.01 0.01 0.01 0.02 0.01 0.00 0.01 0.01 0.04 0.02 0.03 0.05 0.07 0.08 0.05 0.04 0.04 0.05 0.06 0.12 0.21
0.06 0.11 0.17 0.20 0.16 0.09 0.04 0.02 0.02 0.02 0.02 0.03 0.02 0.02 0.02 0.02 0.03 0.02 0.02 0.01 0.01 0.00 0.00 0.00 0.01 0.01 0.00 0.00 0.00 0.00 0.00 0.00 0.03 0.06 0.08 0.12 0.14 0.09 0.05 0.05 0.05 0.09 0.13
0.12 0.15 0.16 0.09 0.03 0.01 0.01 0.01 0.02 0.03 0.03 0.05 0.04 0.03 0.02 0.01 0.01 0.02 0.01 0.01 0.01 0.00 0.00 0.00 0.00 0.00 0.00 0.00 0.00 0.00 0.00 0.02 0.06 0.10 0.10 0.07 0.07 0.09 0.10 0.13 0.15 0.12 0.09
0.05 0.05 0.02 0.00 0.00 0.00 0.01 0.01 0.01 0.02 0.02 0.02 0.01 0.01 0.01 0.01 0.00 0.00 0.01 0.00 0.00 0.00 0.00 0.00 0.00 0.00 0.01 0.01 0.01 0.02 0.02 0.03 0.07 0.10 0.09 0.08 0.09 0.12 0.19 0.30 0.33 0.28 0.22
0.01 0.00 0.00 0.00 0.00 0.00 0.00 0.00 0.01 0.00 0.00 0.00 0.01 0.01 0.01 0.00 0.00 0.00 0.01 0.01 0.01 0.01 0.02 0.04 0.04 0.05 0.05 0.05 0.05 0.05 0.09 0.12 0.13 0.13 0.15 0.16 0.17 0.16 0.13 0.10 0.15 0.25 0.42
0.00 0.00 0.00 0.00 0.00 0.00 0.00 0.00 0.00 0.01 0.01 0.01 0.01 0.02 0.03 0.03 0.02 0.02 0.01 0.01 0.01 0.01 0.10 0.12 0.08 0.09 0.10 0.08 0.10 0.11 0.15 0.19 0.18 0.18 0.21 0.23 0.27 0.29 0.30 0.33 0.32 0.32 0.36
0.00 0.00 0.00 0.00 0.00 0.01 0.01 0.00 0.03 0.07 0.08 0.09 0.09 0.08 0.05 0.04 0.02 0.00 0.00 0.00 0.02 0.09 0.25 0.19 0.16 0.15 0.14 0.13 0.16 0.17 0.17 0.14 0.18 0.30 0.30 0.27 0.29 0.31 0.28 0.26 0.23 0.26 0.24
0.05 0.06 0.03 0.04 0.06 0.07 0.07 0.08 0.08 0.10 0.12 0.13 0.10 0.05 0.05 0.05 0.05 0.07 0.08 0.11 0.20 0.18 0.19 0.16 0.14 0.11 0.10 0.10 0.11 0.12 0.12 0.15 0.19 0.18 0.20 0.20 0.20 0.22 0.24 0.18 0.16 0.14 0.10
0.38 0.37 0.32 0.27 0.21 0.17 0.16 0.16 0.16 0.18 0.19 0.19 0.19 0.18 0.18 0.17 0.15 0.14 0.13 0.24 0.23 0.17 0.14 0.14 0.11 0.11 0.12 0.12 0.13 0.15 0.17 0.18 0.16 0.17 0.14 0.14 0.15 0.19 0.21 0.16 0.12 0.11 0.12
0.50 0.41 0.32 0.29 0.30 0.30 0.29 0.26 0.24 0.24 0.23 0.22 0.21 0.18 0.15 0.15 0.16 0.12 0.13 0.17 0.17 0.15 0.13 0.12 0.10 0.09 0.10 0.11 0.12 0.13 0.14 0.13 0.13 0.13 0.11 0.11 0.10 0.10 0.12 0.14 0.15 0.14 0.12
0.41 0.40 0.37 0.34 0.31 0.29 0.26 0.22 0.20 0.20 0.19 0.18 0.17 0.14 0.10 0.13 0.16 0.14 0.12 0.13 0.13 0.13 0.12 0.13 0.10 0.12 0.12 0.14 0.15 0.16 0.16 0.14 0.14 0.16 0.15 0.14 0.15 0.18 0.16 0.18 0.17 0.14 0.11
0.32 0.29 0.24 0.21 0.19 0.18 0.16 0.16 0.16 0.16 0.13 0.12 0.12 0.11 0.09 0.12 0.14 0.14 0.14 0.13 0.10 0.10 0.12 0.18 0.20 0.17 0.18 0.20 0.22 0.25 0.21 0.19 0.20 0.24 0.24 0.21 0.21 0.21 0.23 0.24 0.23 0.23 0.18
0.16 0.14 0.12 0.11 0.11 0.11 0.12 0.12 0.14 0.16 0.18 0.18 0.18 0.15 0.10 0.10 0.09 0.09 0.11 0.14 0.20 0.26 0.27 0.29 0.32 0.29 0.23 0.26 0.29 0.31 0.30 0.21 0.21 0.27 0.29 0.21 0.18 0.19 0.23 0.21 0.19 0.20 0.16
0.10 0.09 0.09 0.10 0.10 0.11 0.12 0.10 0.11 0.12 0.15 0.19 0.21 0.21 0.20 0.21 0.23 0.24 0.29 0.36 0.40 0.40 0.38 0.40 0.40 0.38 0.36 0.33 0.32 0.28 0.26 0.23 0.24 0.24 0.30 0.31 0.22 0.18 0.22 0.21 0.19 0.19 0.17
0.07 0.07 0.07 0.08 0.11 0.13 0.16 0.16 0.18 0.19 0.20 0.20 0.21 0.22 0.21 0.26 0.30 0.31 0.31 0.27 0.27 0.27 0.27 0.30 0.34 0.35 0.36 0.40 0.43 0.41 0.38 0.33 0.32 0.33 0.39 0.35 0.27 0.26 0.27 0.24 0.21 0.23 0.21
0.06 0.09 0.11 0.14 0.17 0.18 0.22 0.26 0.28 0.29 0.30 0.30 0.33 0.34 0.32 0.27 0.22 0.18 0.16 0.15 0.15 0.14 0.14 0.17 0.17 0.16 0.17 0.18 0.20 0.26 0.26 0.27 0.32 0.35 0.38 0.37 0.33 0.31 0.30 0.26 0.23 0.27 0.28

GFSGL_prec_precacc_054.txt.gz
Total_Precipitation_Accumulation
0.43 0.53 0.45 0.47 0.62 0.69 0.63 0.60 0.58 0.55 0.55 0.58 0.60 0.52 0.39 0.30 0.33 0.38 0.42 0.47 0.46 0.39 0.34 0.31 0.25 0.26 0.27 0.25 0.25 0.21 0.16 0.14 0.12 0.05 0.02 0.01 0.00 0.00 0.01 0.01 0.00 0.01 0.02
0.43 0.67 0.92 0.77 1.04 1.56 1.62 1.26 1.48 1.49 1.15 0.90 0.68 0.45 0.30 0.19 0.13 0.13 0.19 0.21 0.24 0.29 0.29 0.28 0.26 0.31 0.36 0.29 0.19 0.12 0.09 0.07 0.06 0.04 0.02 0.01 0.01 0.01 0.01 0.01 0.01 0.01 0.03
0.66 0.81 0.84 0.74 1.13 1.03 0.71 0.53 0.42 0.52 0.49 0.30 0.20 0.15 0.11 0.07 0.05 0.05 0.09 0.20 0.27 0.20 0.17 0.16 0.13 0.12 0.09 0.07 0.07 0.06 0.06 0.06 0.05 0.06 0.03 0.02 0.01 0.00 0.00 0.00 0.01 0.02 0.03
0.37 0.47 0.38 0.34 0.41 0.40 0.33 0.24 0.20 0.18 0.17 0.16 0.15 0.16 0.12 0.06 0.05 0.10 0.12 0.11 0.13 0.13 0.09 0.05 0.05 0.04 0.04 0.05 0.07 0.07 0.06 0.06 0.05 0.04 0.03 0.01 0.01 0.00 0.02 0.04 0.06 0.05 0.04
0.15 0.17 0.14 0.23 0.17 0.15 0.10 0.12 0.15 0.18 0.25 0.21 0.21 0.12 0.12 0.16 0.19 0.20 0.16 0.15 0.08 0.05 0.03 0.02 0.03 0.06 0.08 0.04 0.02 0.02 0.02 0.03 0.04 0.04 0.03 0.02 0.01 0.03 0.05 0.05 0.06 0.04 0.04
0.05 0.09 0.07 0.10 0.10 0.11 0.06 0.06 0.09 0.11 0.13 0.18 0.22 0.24 0.25 0.28 0.37 0.33 0.18 0.08 0.05 0.04 0.04 0.03 0.04 0.08 0.03 0.05 0.04 0.03 0.02 0.03 0.05 0.05 0.04 0.04 0.02 0.04 0.09 0.14 0.13 0.09 0.07
0.05 0.04 0.05 0.06 0.08 0.06 0.09 0.06 0.08 0.12 0.10 0.13 0.18 0.28 0.33 0.31 0.32 0.20 0.18 0.08 0.09 0.10 0.06 0.05 0.04 0.05 0.09 0.02 0.05 0.04 0.02 0.01 0.03 0.05 0.06 0.05 0.06 0.06 0.09 0.13 0.13 0.13 0.08
0.03 0.04 0.04 0.05 0.06 0.07 0.07 0.09 0.11 0.12 0.20 0.24 0.26 0.24 0.15 0.12 0.21 0.18 0.16 0.05 0.04 0.04 0.04 0.04 0.04 0.04 0.04 0.04 0.02 0.02 0.01 0.01 0.01 0.02 0.03 0.03 0.03 0.05 0.08 0.10 0.11 0.09 0.03
0.02 0.02 0.04 0.06 0.06 0.06 0.08 0.13 0.22 0.28 0.27 0.22 0.13 0.11 0.10 0.13 0.23 0.13 0.08 0.01 0.02 0.03 0.03 0.04 0.05 0.04 0.10 0.09 0.03 0.01 0.00 0.00 0.01 0.01 0.01 0.01 0.00 0.00 0.03 0.10 0.10 0.15 0.11
0.01 0.01 0.02 0.03 0.05 0.10 0.21 0.24 0.19 0.13 0.09 0.08 0.10 0.10 0.17 0.09 0.17 0.09 0.06 0.01 0.02 0.03 0.03 0.05 0.10 0.05 0.06 0.03 0.02 0.01 0.02 0.02 0.02 0.02 0.02 0.01 0.01 0.02 0.02 0.06 0.09 0.22 0.20
0.01 0.02 0.06 0.10 0.17 0.20 0.15 0.08 0.06 0.05 0.04 0.04 0.04 0.03 0.04 0.07 0.09 0.10 0.07 0.01 0.01 0.03 0.04 0.04 0.05 0.08 0.03 0.01 0.01 0.01 0.04 0.02 0.03 0.05 0.07 0.08 0.05 0.04 0.04 0.05 0.06 0.12 0.21
0.06 0.11 0.17 0.21 0.19 0.13 0.08 0.07 0.05 0.03 0.03 0.03 0.03 0.03 0.03 0.05 0.09 0.09 0.07 0.06 0.06 0.01 0.02 0.02 0.04 0.06 0.01 0.00 0.00 0.00 0.00 0.00 0.03 0.06 0.08 0.12 0.14 0.09 0.05 0.05 0.05 0.09 0.13
0.12 0.15 0.17 0.13 0.07 0.05 0.04 0.04 0.03 0.03 0.04 0.06 0.05 0.06 0.07 0.07 0.09 0.11 0.09 0.07 0.05 0.02 0.01 0.02 0.03 0.02 0.00 0.00 0.00 0.00 0.00 0.02 0.06 0.10 0.10 0.07 0.07 0.09 0.10 0.13 0.15 0.12 0.09
0.05 0.09 0.06 0.05 0.06 0.03 0.02 0.02 0.02 0.03 0.04 0.05 0.05 0.05 0.06 0.07 0.08 0.08 0.05 0.02 0.01 0.00 0.01 0.01 0.00 0.01 0.01 0.01 0.01 0.02 0.02 0.03 0.07 0.10 0.09 0.08 0.09 0.12 0.19 0.30 0.33 0.28 0.22
0.05 0.04 0.02 0.02 0.01 0.00 0.00 0.02 0.02 0.02 0.04 0.02 0.03 0.04 0.04 0.04 0.03 0.02 0.02 0.01 0.03 0.04 0.05 0.06 0.05 0.05 0.05 0.05 0.05 0.05 0.09 0.12 0.13 0.13 0.15 0.17 0.17 0.16 0.13 0.10 0.15 0.25 0.42
0.02 0.01 0.02 0.00 0.00 0.01 0.01 0.03 0.05 0.05 0.04 0.02 0.03 0.03 0.05 0.06 0.06 0.07 0.07 0.06 0.05 0.04 0.12 0.14 0.09 0.09 0.11 0.09 0.11 0.11 0.15 0.20 0.18 0.18 0.21 0.23 0.27 0.29 0.30 0.33 0.32 0.32 0.36
0.02 0.01 0.01 0.02 0.02 0.03 0.03 0.02 0.05 0.12 0.13 0.15 0.14 0.12 0.08 0.08 0.06 0.04 0.03 0.02 0.03 0.10 0.27 0.20 0.18 0.17 0.15 0.14 0.17 0.17 0.17 0.15 0.19 0.30 0.30 0.27 0.29 0.31 0.28 0.26 0.23 0.26 0.24
0.22 0.21 0.21 0.23 0.26 0.26 0.25 0.23 0.19 0.19 0.20 0.21 0.17 0.10 0.08 0.07 0.07 0.08 0.09 0.12 0.21 0.18 0.20 0.16 0.14 0.12 0.11 0.11 0.11 0.12 0.13 0.15 0.20 0.19 0.20 0.20 0.21 0.22 0.24 0.19 0.16 0.14 0.11
0.79 0.78 0.71 0.61 0.50 0.37 0.30 0.25 0.22 0.24 0.25 0.25 0.24 0.22 0.21 0.19 0.16 0.15 0.13 0.24 0.24 0.18 0.15 0.14 0.12 0.11 0.12 0.12 0.14 0.16 0.17 0.18 0.17 0.17 0.15 0.14 0.16 0.19 0.21 0.16 0.13 0.11 0.12
0.69 0.60 0.48 0.41 0.41 0.38 0.36 0.32 0.30 0.29 0.27 0.26 0.24 0.21 0.16 0.16 0.16 0.12 0.13 0.17 0.18 0.16 0.13 0.13 0.10 0.09 0.10 0.12 0.13 0.14 0.15 0.13 0.13 0.13 0.11 0.12 0.11 0.11 0.13 0.14 0.15 0.14 0.13
0.49 0.48 0.43 0.38 0.34 0.31 0.28 0.24 0.22 0.21 0.20 0.18 0.18 0.14 0.10 0.14 0.17 0.14 0.12 0.14 0.14 0.13 0.12 0.13 0.11 0.12 0.12 0.14 0.15 0.16 0.16 0.14 0.14 0.16 0.15 0.15 0.15 0.19 0.17 0.19 0.17 0.14 0.11
0.34 0.30 0.25 0.21 0.19 0.18 0.16 0.16 0.16 0.16 0.13 0.13 0.12 0.11 0.09 0.12 0.14 0.14 0.14 0.13 0.10 0.10 0.13 0.19 0.20 0.17 0.18 0.20 0.22 0.25 0.21 0.20 0.21 0.24 0.24 0.22 0.22 0.21 0.24 0.24 0.24 0.24 0.19
0.16 0.14 0.12 0.11 0.11 0.11 0.12 0.12 0.14 0.16 0.18 0.18 0.18 0.15 0.10 0.11 0.10 0.09 0.11 0.14 0.20 0.27 0.27 0.29 0.32 0.29 0.23 0.26 0.29 0.31 0.31 0.21 0.21 0.27 0.29 0.22 0.18 0.20 0.23 0.21 0.19 0.20 0.17
0.10 0.09 0.09 0.10 0.10 0.11 0.12 0.10 0.11 0.12 0.15 0.19 0.21 0.21 0.21 0.22 0.23 0.25 0.29 0.36 0.40 0.40 0.39 0.40 0.40 0.38 0.36 0.33 0.32 0.29 0.27 0.24 0.25 0.25 0.30 0.31 0.23 0.18 0.23 0.22 0.20 0.19 0.18
0.07 0.07 0.07 0.08 0.11 0.13 0.16 0.16 0.18 0.19 0.20 0.20 0.21 0.22 0.22 0.26 0.31 0.32 0.32 0.28 0.27 0.27 0.27 0.30 0.34 0.35 0.36 0.40 0.43 0.41 0.38 0.33 0.32 0.33 0.39 0.35 0.27 0.27 0.28 0.25 0.22 0.23 0.22
0.06 0.09 0.11 0.14 0.17 0.18 0.22 0.26 0.28 0.29 0.30 0.30 0.33 0.34 0.32 0.28 0.22 0.18 0.16 0.15 0.15 0.14 0.14 0.17 0.17 0.16 0.17 0.18 0.20 0.26 0.26 0.27 0.32 0.35 0.38 0.37 0.33 0.31 0.31 0.27 0.24 0.28 0.28

GFSGL_prec_precacc_057.txt.gz
Total_Precipitation_Accumulation
0.43 0.53 0.45 0.47 0.62 0.69 0.63 0.60 0.58 0.55 0.55 0.58 0.60 0.52 0.39 0.30 0.33 0.38 0.42 0.47 0.46 0.39 0.35 0.31 0.25 0.26 0.28 0.26 0.27 0.26 0.24 0.26 0.29 0.16 0.08 0.06 0.08 0.09 0.05 0.02 0.01 0.01 0.02
0.43 0.67 0.92 0.77 1.04 1.56 1.62 1.26 1.48 1.49 1.15 0.90 0.68 0.45 0.30 0.19 0.13 0.13 0.19 0.21 0.24 0.29 0.29 0.30 0.27 0.31 0.37 0.32 0.25 0.18 0.14 0.11 0.12 0.09 0.06 0.05 0.05 0.05 0.02 0.01 0.01 0.01 0.03
0.66 0.81 0.84 0.74 1.13 1.03 0.71 0.53 0.42 0.52 0.49 0.30 0.20 0.15 0.11 0.07 0.05 0.05 0.09 0.20 0.27 0.20 0.18 0.18 0.14 0.13 0.10 0.07 0.07 0.07 0.08 0.09 0.12 0.16 0.10 0.05 0.03 0.01 0.00 0.00 0.01 0.02 0.03
0.37 0.47 0.38 0.34 0.41 0.40 0.33 0.24 0.20 0.18 0.17 0.16 0.15 0.16 0.12 0.06 0.05 0.10 0.12 0.11 0.13 0.13 0.09 0.06 0.07 0.05 0.05 0.06 0.08 0.07 0.07 0.08 0.07 0.09 0.06 0.03 0.02 0.01 0.02 0.04 0.06 0.05 0.04
0.15 0.17 0.14 0.23 0.17 0.15 0.11 0.13 0.15 0.18 0.25 0.21 0.21 0.12 0.12 0.16 0.19 0.20 0.16 0.15 0.08 0.05 0.03 0.03 0.04 0.08 0.09 0.05 0.03 0.02 0.03 0.04 0.05 0.05 0.05 0.03 0.02 0.03 0.06 0.05 0.06 0.04 0.04
0.05 0.09 0.07 0.10 0.10 0.11 0.06 0.06 0.09 0.11 0.13 0.18 0.22 0.24 0.25 0.28 0.37 0.33 0.18 0.08 0.05 0.05 0.04 0.05 0.06 0.11 0.06 0.07 0.05 0.04 0.03 0.04 0.06 0.07 0.07 0.06 0.03 0.04 0.09 0.14 0.13 0.09 0.07
0.05 0.04 0.05 0.06 0.08 0.06 0.09 0.06 0.08 0.12 0.10 0.13 0.18 0.28 0.33 0.31 0.32 0.21 0.19 0.09 0.10 0.11 0.07 0.07 0.06 0.08 0.14 0.04 0.09 0.08 0.06 0.06 0.07 0.07 0.08 0.06 0.06 0.06 0.09 0.13 0.13 0.13 0.08
0.03 0.04 0.04 0.05 0.06 0.07 0.07 0.09 0.11 0.12 0.20 0.24 0.26 0.24 0.16 0.13 0.22 0.20 0.19 0.07 0.06 0.06 0.06 0.06 0.06 0.07 0.11 0.12 0.08 0.08 0.07 0.09 0.10 0.11 0.13 0.07 0.03 0.05 0.08 0.10 0.11 0.09 0.03
0.02 0.02 0.04 0.06 0.06 0.06 0.08 0.13 0.22 0.28 0.27 0.22 0.13 0.11 0.11 0.14 0.26 0.17 0.12 0.04 0.06 0.09 0.06 0.07 0.10 0.07 0.22 0.18 0.11 0.12 0.13 0.11 0.07 0.05 0.03 0.01 0.01 0.01 0.03 0.10 0.10 0.15 0.11
0.01 0.01 0.02 0.03 0.05 0.10 0.21 0.24 0.19 0.13 0.09 0.08 0.10 0.10 0.18 0.10 0.26 0.17 0.11 0.02 0.05 0.06 0.05 0.09 0.17 0.10 0.14 0.08 0.04 0.04 0.05 0.06 0.05 0.04 0.03 0.02 0.01 0.02 0.02 0.07 0.09 0.22 0.20
0.01 0.02 0.06 0.10 0.17 0.20 0.15 0.08 0.06 0.05 0.05 0.04 0.04 0.03 0.04 0.09 0.14 0.15 0.11 0.03 0.02 0.06 0.09 0.10 0.15 0.20 0.12 0.08 0.06 0.05 0.09 0.06 0.05 0.06 0.07 0.08 0.06 0.04 0.04 0.05 0.06 0.12 0.21
0.06 0.11 0.17 0.21 0.19 0.13 0.08 0.07 0.06 0.04 0.04 0.04 0.04 0.04 0.04 0.06 0.12 0.12 0.10 0.10 0.13 0.06 0.10 0.12 0.18 0.21 0.12 0.10 0.07 0.05 0.03 0.02 0.03 0.06 0.08 0.12 0.14 0.09 0.05 0.05 0.05 0.09 0.13
0.12 0.15 0.17 0.13 0.07 0.05 0.05 0.06 0.06 0.06 0.07 0.08 0.07 0.09 0.10 0.09 0.12 0.15 0.13 0.12 0.12 0.10 0.14 0.18 0.20 0.17 0.12 0.08 0.04 0.01 0.01 0.02 0.06 0.10 0.10 0.08 0.07 0.09 0.10 0.13 0.15 0.12 0.09
0.06 0.09 0.06 0.05 0.08 0.05 0.05 0.05 0.06 0.06 0.07 0.07 0.06 0.07 0.09 0.10 0.12 0.13 0.12 0.11 0.12 0.13 0.15 0.14 0.12 0.08 0.05 0.03 0.03 0.03 0.03 0.04 0.07 0.10 0.10 0.09 0.09 0.12 0.19 0.30 0.33 0.28 0.22
0.08 0.07 0.06 0.06 0.06 0.05 0.05 0.08 0.05 0.06 0.08 0.05 0.05 0.07 0.07 0.07 0.10 0.10 0.09 0.08 0.09 0.11 0.12 0.13 0.11 0.09 0.08 0.07 0.06 0.06 0.09 0.12 0.14 0.14 0.16 0.17 0.18 0.16 0.13 0.10 0.15 0.25 0.42
0.11 0.10 0.11 0.09 0.07 0.07 0.05 0.08 0.13 0.13 0.13 0.12 0.13 0.12 0.17 0.18 0.21 0.19 0.16 0.13 0.11 0.09 0.16 0.17 0.12 0.12 0.12 0.10 0.12 0.13 0.16 0.20 0.19 0.18 0.22 0.24 0.27 0.29 0.31 0.33 0.32 0.32 0.36
0.13 0.10 0.12 0.15 0.13 0.13 0.12 0.11 0.16 0.27 0.29 0.32 0.31 0.27 0.21 0.20 0.16 0.13 0.11 0.09 0.08 0.14 0.30 0.24 0.21 0.20 0.17 0.15 0.17 0.18 0.18 0.16 0.19 0.30 0.30 0.27 0.29 0.31 0.28 0.26 0.23 0.26 0.25
0.49 0.51 0.47 0.49 0.52 0.52 0.47 0.47 0.43 0.42 0.41 0.39 0.32 0.21 0.18 0.16 0.16 0.17 0.16 0.17 0.24 0.21 0.22 0.19 0.16 0.13 0.11 0.11 0.12 0.13 0.13 0.15 0.20 0.19 0.20 0.20 0.21 0.23 0.24 0.19 0.16 0.14 0.11
1.17 1.21 1.16 1.09 0.97 0.77 0.58 0.47 0.41 0.39 0.35 0.34 0.31 0.29 0.27 0.24 0.20 0.17 0.16 0.26 0.25 0.18 0.15 0.14 0.12 0.11 0.12 0.12 0.14 0.16 0.17 0.18 0.17 0.17 0.15 0.14 0.16 0.20 0.21 0.16 0.13 0.11 0.12
0.85 0.75 0.61 0.53 0.51 0.49 0.46 0.40 0.37 0.35 0.33 0.31 0.29 0.26 0.20 0.18 0.17 0.13 0.14 0.17 0.18 0.16 0.14 0.13 0.10 0.10 0.11 0.12 0.13 0.14 0.15 0.13 0.13 0.13 0.12 0.12 0.11 0.11 0.13 0.14 0.15 0.15 0.13
0.55 0.53 0.48 0.43 0.39 0.35 0.31 0.27 0.24 0.23 0.22 0.19 0.19 0.15 0.10 0.14 0.17 0.15 0.13 0.14 0.14 0.13 0.13 0.14 0.11 0.12 0.13 0.14 0.15 0.16 0.16 0.15 0.15 0.16 0.16 0.15 0.15 0.19 0.17 0.19 0.18 0.14 0.12
0.35 0.31 0.26 0.22 0.20 0.19 0.17 0.16 0.16 0.16 0.13 0.13 0.12 0.11 0.09 0.12 0.14 0.14 0.14 0.14 0.10 0.10 0.13 0.19 0.21 0.17 0.18 0.20 0.23 0.25 0.21 0.20 0.21 0.24 0.25 0.22 0.22 0.21 0.24 0.24 0.24 0.24 0.19
0.16 0.14 0.12 0.11 0.12 0.12 0.12 0.12 0.14 0.16 0.18 0.19 0.18 0.15 0.10 0.11 0.10 0.09 0.11 0.14 0.20 0.27 0.27 0.29 0.33 0.29 0.23 0.26 0.29 0.31 0.31 0.21 0.22 0.27 0.29 0.22 0.18 0.20 0.23 0.22 0.20 0.21 0.18
0.10 0.09 0.09 0.10 0.10 0.11 0.12 0.10 0.11 0.12 0.15 0.19 0.21 0.21 0.21 0.22 0.23 0.25 0.30 0.36 0.40 0.40 0.39 0.41 0.40 0.38 0.36 0.33 0.32 0.29 0.27 0.24 0.25 0.25 0.30 0.32 0.23 0.19 0.23 0.22 0.20 0.20 0.18
0.07 0.07 0.07 0.08 0.11 0.13 0.16 0.16 0.18 0.19 0.20 0.21 0.21 0.22 0.22 0.26 0.31 0.32 0.32 0.28 0.27 0.27 0.27 0.30 0.34 0.35 0.36 0.40 0.43 0.41 0.38 0.33 0.32 0.33 0.39 0.36 0.28 0.27 0.28 0.25 0.22 0.24 0.23
0.06 0.09 0.11 0.14 0.17 0.18 0.23 0.26 0.29 0.29 0.31 0.30 0.34 0.34 0.32 0.28 0.22 0.18 0.16 0.15 0.15 0.14 0.14 0.17 0.17 0.16 0.17 0.18 0.20 0.26 0.26 0.27 0.32 0.35 0.38 0.37 0.34 0.32 0.31 0.28 0.24 0.29 0.29

GFSGL_prec_precacc_063.txt.gz
Total_Precipitation_Accumulation
0.43 0.53 0.45 0.47 0.62 0.69 0.63 0.60 0.58 0.55 0.55 0.58 0.60 0.52 0.39 0.31 0.34 0.39 0.42 0.47 0.46 0.39 0.35 0.31 0.26 0.28 0.30 0.29 0.30 0.29 0.26 0.26 0.29 0.16 0.08 0.06 0.08 0.09 0.07 0.06 0.04 0.03 0.03
0.43 0.67 0.92 0.77 1.05 1.56 1.62 1.26 1.48 1.49 1.15 0.90 0.68 0.45 0.30 0.19 0.13 0.13 0.19 0.21 0.24 0.29 0.29 0.30 0.27 0.32 0.39 0.34 0.27 0.20 0.16 0.14 0.16 0.11 0.07 0.06 0.05 0.05 0.04 0.03 0.02 0.02 0.03
0.66 0.81 0.84 0.74 1.13 1.03 0.71 0.53 0.42 0.52 0.49 0.30 0.20 0.15 0.11 0.07 0.05 0.05 0.09 0.20 0.27 0.20 0.18 0.18 0.15 0.14 0.12 0.10 0.10 0.10 0.10 0.12 0.15 0.19 0.13 0.07 0.06 0.03 0.03 0.02 0.03 0.04 0.03
0.39 0.47 0.38 0.34 0.41 0.40 0.33 0.24 0.20 0.18 0.17 0.16 0.15 0.16 0.12 0.06 0.05 0.10 0.12 0.11 0.13 0.13 0.09 0.06 0.07 0.07 0.07 0.07 0.10 0.10 0.10 0.11 0.11 0.11 0.10 0.07 0.04 0.03 0.05 0.06 0.08 0.06 0.05
0.22 0.19 0.14 0.23 0.17 0.15 0.11 0.13 0.15 0.18 0.25 0.21 0.21 0.12 0.12 0.16 0.19 0.20 0.16 0.15 0.08 0.05 0.03 0.03 0.04 0.08 0.09 0.06 0.04 0.04 0.05 0.09 0.12 0.12 0.12 0.10 0.08 0.08 0.11 0.12 0.13 0.11 0.13
0.06 0.11 0.11 0.11 0.10 0.11 0.06 0.06 0.09 0.11 0.13 0.18 0.22 0.24 0.25 0.28 0.37 0.33 0.18 0.08 0.05 0.05 0.04 0.05 0.06 0.11 0.06 0.09 0.10 0.12 0.10 0.12 0.16 0.16 0.14 0.14 0.12 0.14 0.21 0.28 0.29 0.28 0.26
0.05 0.05 0.06 0.07 0.09 0.06 0.09 0.07 0.08 0.12 0.10 0.13 0.19 0.28 0.33 0.31 0.33 0.22 0.20 0.10 0.10 0.11 0.08 0.07 0.06 0.09 0.15 0.06 0.15 0.18 0.18 0.22 0.21 0.18 0.19 0.24 0.33 0.39 0.46 0.54 0.48 0.40 0.28
0.03 0.04 0.04 0.05 0.06 0.08 0.09 0.10 0.11 0.12 0.20 0.24 0.26 0.25 0.16 0.14 0.24 0.21 0.20 0.08 0.06 0.06 0.07 0.07 0.07 0.08 0.15 0.17 0.14 0.19 0.22 0.29 0.36 0.39 0.44 0.49 0.45 0.35 0.29 0.24 0.20 0.16 0.08
0.02 0.02 0.04 0.06 0.06 0.06 0.09 0.14 0.22 0.28 0.27 0.22 0.15 0.11 0.12 0.14 0.27 0.18 0.13 0.04 0.07 0.11 0.09 0.11 0.16 0.13 0.41 0.34 0.20 0.23 0.29 0.32 0.43 0.37 0.29 0.24 0.18 0.14 0.14 0.23 0.25 0.29 0.20
0.01 0.01 0.02 0.03 0.05 0.10 0.21 0.24 0.19 0.13 0.09 0.09 0.10 0.10 0.19 0.10 0.28 0.21 0.16 0.05 0.11 0.13 0.13 0.18 0.35 0.20 0.33 0.21 0.13 0.09 0.21 0.29 0.27 0.28 0.27 0.25 0.20 0.17 0.17 0.21 0.22 0.32 0.26
0.01 0.02 0.06 0.10 0.17 0.20 0.15 0.09 0.06 0.06 0.05 0.05 0.05 0.05 0.08 0.14 0.21 0.27 0.23 0.08 0.07 0.13 0.18 0.20 0.29 0.44 0.27 0.29 0.27 0.26 0.46 0.50 0.50 0.44 0.39 0.37 0.31 0.25 0.18 0.14 0.12 0.15 0.23
0.06 0.11 0.17 0.21 0.19 0.13 0.09 0.09 0.09 0.07 0.08 0.08 0.07 0.06 0.06 0.10 0.20 0.21 0.19 0.20 0.26 0.13 0.21 0.24 0.41 0.46 0.29 0.30 0.30 0.35 0.38 0.34 0.31 0.33 0.32 0.30 0.26 0.17 0.10 0.09 0.08 0.12 0.15
0.12 0.15 0.17 0.13 0.07 0.05 0.08 0.11 0.12 0.11 0.12 0.13 0.11 0.12 0.14 0.16 0.20 0.28 0.25 0.28 0.31 0.29 0.41 0.53 0.59 0.51 0.43 0.43 0.42 0.39 0.32 0.29 0.30 0.31 0.28 0.23 0.19 0.16 0.14 0.15 0.16 0.12 0.09
0.06 0.10 0.07 0.06 0.09 0.05 0.09 0.11 0.11 0.11 0.15 0.17 0.19 0.22 0.26 0.28 0.29 0.28 0.27 0.28 0.34 0.39 0.51 0.55 0.52 0.47 0.43 0.40 0.35 0.30 0.25 0.22 0.22 0.24 0.22 0.17 0.15 0.16 0.20 0.31 0.33 0.28 0.22
0.11 0.11 0.11 0.11 0.12 0.11 0.12 0.19 0.17 0.23 0.33 0.34 0.36 0.35 0.36 0.42 0.54 0.60 0.59 0.62 0.65 0.69 0.66 0.68 0.66 0.58 0.53 0.45 0.33 0.25 0.23 0.23 0.22 0.20 0.20 0.20 0.19 0.16 0.13 0.10 0.15 0.25 0.42
0.16 0.18 0.22 0.17 0.17 0.18 0.16 0.24 0.40 0.44 0.43 0.48 0.53 0.52 0.67 0.75 0.85 0.84 0.79 0.76 0.72 0.66 0.64 0.63 0.54 0.44 0.35 0.28 0.27 0.24 0.22 0.24 0.21 0.19 0.22 0.24 0.27 0.29 0.31 0.34 0.32 0.32 0.36
0.30 0.27 0.28 0.30 0.32 0.34 0.34 0.31 0.41 0.58 0.63 0.75 0.80 0.79 0.74 0.78 0.68 0.61 0.56 0.52 0.48 0.44 0.55 0.48 0.42 0.36 0.30 0.23 0.22 0.20 0.19 0.16 0.19 0.30 0.30 0.27 0.30 0.31 0.28 0.26 0.24 0.26 0.25
0.96 0.97 0.88 0.86 0.92 1.04 1.15 1.24 1.26 1.25 1.24 1.28 1.21 1.03 0.94 0.84 0.76 0.69 0.59 0.48 0.51 0.43 0.40 0.32 0.26 0.19 0.15 0.13 0.12 0.13 0.13 0.15 0.20 0.19 0.20 0.21 0.21 0.23 0.24 0.19 0.16 0.15 0.11
1.64 1.77 1.75 1.69 1.60 1.41 1.24 1.12 1.07 1.06 1.04 1.05 1.00 0.89 0.78 0.65 0.53 0.45 0.37 0.44 0.39 0.28 0.20 0.16 0.13 0.11 0.12 0.12 0.14 0.16 0.18 0.18 0.17 0.18 0.15 0.15 0.16 0.20 0.21 0.17 0.13 0.11 0.12
1.07 1.01 0.89 0.84 0.81 0.76 0.72 0.66 0.62 0.58 0.54 0.52 0.48 0.44 0.34 0.26 0.24 0.18 0.17 0.20 0.19 0.16 0.14 0.13 0.10 0.10 0.11 0.12 0.13 0.14 0.15 0.13 0.13 0.13 0.12 0.12 0.11 0.12 0.14 0.15 0.16 0.15 0.13
0.65 0.65 0.60 0.55 0.53 0.49 0.44 0.39 0.34 0.32 0.29 0.26 0.25 0.19 0.12 0.15 0.17 0.15 0.13 0.14 0.14 0.13 0.13 0.14 0.11 0.12 0.13 0.14 0.15 0.16 0.16 0.15 0.15 0.16 0.16 0.15 0.16 0.19 0.17 0.19 0.18 0.15 0.12
0.38 0.34 0.29 0.25 0.23 0.22 0.20 0.19 0.19 0.18 0.15 0.14 0.13 0.11 0.09 0.13 0.14 0.15 0.15 0.14 0.10 0.10 0.13 0.19 0.21 0.17 0.18 0.20 0.23 0.26 0.22 0.20 0.21 0.25 0.25 0.22 0.22 0.22 0.24 0.25 0.24 0.24 0.20
0.16 0.14 0.12 0.12 0.12 0.12 0.12 0.12 0.14 0.17 0.19 0.19 0.18 0.15 0.11 0.11 0.10 0.09 0.12 0.15 0.21 0.27 0.27 0.29 0.33 0.29 0.24 0.26 0.29 0.31 0.31 0.22 0.22 0.27 0.30 0.22 0.19 0.20 0.24 0.22 0.20 0.21 0.18
0.10 0.09 0.09 0.10 0.10 0.11 0.12 0.11 0.11 0.12 0.16 0.20 0.22 0.22 0.21 0.22 0.24 0.25 0.30 0.36 0.40 0.40 0.39 0.41 0.40 0.38 0.36 0.34 0.32 0.29 0.27 0.24 0.25 0.25 0.30 0.32 0.23 0.19 0.23 0.23 0.20 0.20 0.19
0.07 0.07 0.07 0.08 0.11 0.13 0.16 0.16 0.18 0.19 0.20 0.21 0.22 0.23 0.22 0.27 0.31 0.32 0.32 0.28 0.27 0.27 0.28 0.30 0.34 0.35 0.36 0.40 0.43 0.41 0.38 0.33 0.32 0.33 0.39 0.36 0.28 0.27 0.28 0.26 0.23 0.25 0.23
0.06 0.09 0.12 0.14 0.17 0.18 0.23 0.26 0.29 0.30 0.31 0.31 0.34 0.35 0.33 0.28 0.22 0.19 0.16 0.15 0.15 0.14 0.15 0.17 0.17 0.17 0.17 0.18 0.21 0.26 0.26 0.27 0.32 0.35 0.38 0.37 0.34 0.32 0.31 0.28 0.25 0.29 0.29

GFSGL_prec_precacc_066.txt.gz
Total_Precipitation_Accumulation
0.43 0.53 0.45 0.47 0.62 0.69 0.63 0.60 0.58 0.55 0.55 0.58 0.60 0.52 0.39 0.31 0.34 0.39 0.42 0.47 0.46 0.39 0.35 0.31 0.26 0.28 0.31 0.29 0.30 0.29 0.26 0.26 0.29 0.16 0.08 0.06 0.08 0.09 0.07 0.06 0.05 0.03 0.03
0.43 0.67 0.92 0.77 1.05 1.56 1.62 1.26 1.48 1.49 1.15 0.90 0.68 0.45 0.30 0.19 0.13 0.13 0.19 0.21 0.24 0.29 0.29 0.30 0.27 0.32 0.39 0.34 0.27 0.20 0.16 0.14 0.16 0.11 0.07 0.06 0.05 0.05 0.05 0.04 0.02 0.02 0.04
0.68 0.81 0.84 0.74 1.13 1.03 0.71 0.53 0.42 0.52 0.49 0.30 0.20 0.15 0.11 0.07 0.05 0.05 0.09 0.20 0.27 0.20 0.18 0.18 0.15 0.14 0.12 0.10 0.10 0.10 0.10 0.12 0.15 0.19 0.14 0.08 0.06 0.03 0.03 0.03 0.04 0.04 0.04
0.42 0.49 0.38 0.34 0.41 0.40 0.33 0.24 0.20 0.18 0.17 0.16 0.15 0.16 0.12 0.06 0.05 0.10 0.12 0.11 0.13 0.13 0.09 0.06 0.07 0.07 0.07 0.07 0.10 0.10 0.10 0.11 0.11 0.11 0.10 0.07 0.04 0.03 0.05 0.07 0.08 0.07 0.07
0.24 0.22 0.20 0.28 0.21 0.17 0.11 0.13 0.15 0.18 0.25 0.21 0.21 0.12 0.12 0.16 0.19 0.20 0.16 0.15 0.08 0.05 0.03 0.03 0.04 0.08 0.09 0.06 0.04 0.04 0.05 0.09 0.12 0.12 0.12 0.10 0.08 0.09 0.11 0.13 0.15 0.12 0.14
0.07 0.15 0.17 0.13 0.16 0.16 0.13 0.12 0.12 0.11 0.13 0.19 0.22 0.24 0.25 0.28 0.37 0.33 0.18 0.08 0.05 0.05 0.04 0.05 0.06 0.11 0.06 0.09 0.10 0.12 0.10 0.12 0.16 0.17 0.15 0.15 0.12 0.14 0.21 0.29 0.32 0.36 0.37
0.05 0.05 0.06 0.07 0.09 0.09 0.15 0.13 0.12 0.13 0.15 0.14 0.20 0.29 0.33 0.31 0.34 0.23 0.20 0.10 0.10 0.11 0.08 0.07 0.06 0.09 0.15 0.06 0.15 0.18 0.18 0.24 0.23 0.20 0.21 0.25 0.34 0.40 0.47 0.56 0.53 0.47 0.39
0.03 0.04 0.04 0.05 0.06 0.09 0.10 0.10 0.12 0.16 0.23 0.26 0.29 0.27 0.19 0.15 0.25 0.24 0.23 0.09 0.06 0.06 0.07 0.07 0.07 0.08 0.15 0.17 0.14 0.20 0.23 0.30 0.38 0.42 0.47 0.56 0.52 0.44 0.37 0.35 0.30 0.29 0.23
0.02 0.02 0.04 0.06 0.06 0.06 0.09 0.14 0.24 0.30 0.29 0.24 0.17 0.16 0.14 0.15 0.31 0.23 0.20 0.10 0.10 0.12 0.09 0.12 0.17 0.14 0.42 0.38 0.24 0.24 0.31 0.34 0.47 0.43 0.34 0.33 0.31 0.26 0.25 0.32 0.38 0.45 0.45
0.01 0.01 0.02 0.03 0.05 0.10 0.21 0.24 0.20 0.15 0.11 0.12 0.12 0.12 0.22 0.13 0.32 0.25 0.22 0.08 0.13 0.15 0.16 0.20 0.40 0.24 0.36 0.25 0.15 0.10 0.23 0.33 0.31 0.37 0.39 0.41 0.42 0.44 0.47 0.47 0.47 0.54 0.45
0.01 0.02 0.06 0.10 0.17 0.20 0.15 0.09 0.06 0.06 0.06 0.07 0.08 0.08 0.12 0.19 0.25 0.33 0.29 0.11 0.09 0.16 0.24 0.26 0.35 0.57 0.34 0.35 0.34 0.30 0.58 0.63 0.64 0.56 0.56 0.55 0.49 0.42 0.35 0.28 0.21 0.22 0.29
0.06 0.11 0.17 0.21 0.19 0.13 0.09 0.09 0.09 0.07 0.08 0.09 0.09 0.10 0.10 0.12 0.24 0.26 0.24 0.25 0.35 0.21 0.30 0.31 0.49 0.59 0.38 0.40 0.42 0.52 0.59 0.51 0.49 0.55 0.56 0.56 0.52 0.40 0.29 0.22 0.17 0.17 0.19
0.12 0.15 0.17 0.13 0.07 0.05 0.08 0.11 0.12 0.11 0.12 0.15 0.16 0.20 0.22 0.21 0.25 0.36 0.32 0.37 0.46 0.45 0.60 0.73 0.79 0.67 0.57 0.58 0.62 0.62 0.56 0.54 0.57 0.60 0.56 0.49 0.40 0.34 0.26 0.22 0.20 0.14 0.09
0.06 0.10 0.07 0.06 0.09 0.05 0.09 0.11 0.11 0.11 0.16 0.20 0.28 0.34 0.36 0.37 0.36 0.34 0.34 0.36 0.45 0.57 0.77 0.83 0.77 0.71 0.69 0.72 0.73 0.67 0.57 0.53 0.53 0.53 0.48 0.40 0.32 0.28 0.28 0.34 0.34 0.28 0.22
0.11 0.11 0.11 0.11 0.12 0.11 0.14 0.22 0.19 0.28 0.38 0.39 0.44 0.47 0.50 0.60 0.78 0.87 0.87 0.90 0.94 1.03 1.06 1.11 1.11 1.08 1.02 0.96 0.87 0.76 0.69 0.63 0.54 0.46 0.40 0.35 0.28 0.21 0.15 0.10 0.15 0.25 0.42
0.16 0.18 0.22 0.17 0.18 0.18 0.18 0.27 0.46 0.51 0.50 0.56 0.62 0.62 0.86 1.02 1.15 1.12 1.10 1.09 1.07 1.03 1.01 0.99 0.89 0.79 0.69 0.59 0.53 0.47 0.42 0.40 0.33 0.27 0.27 0.25 0.28 0.29 0.31 0.34 0.32 0.32 0.36
0.30 0.27 0.29 0.30 0.32 0.34 0.36 0.35 0.47 0.66 0.72 0.87 0.94 0.95 0.92 1.02 0.92 0.83 0.77 0.71 0.69 0.63 0.74 0.68 0.61 0.54 0.46 0.36 0.34 0.30 0.26 0.19 0.20 0.31 0.31 0.28 0.30 0.31 0.28 0.26 0.24 0.26 0.25
0.97 0.97 0.89 0.86 0.92 1.04 1.16 1.27 1.32 1.34 1.34 1.42 1.38 1.20 1.13 1.06 0.98 0.89 0.76 0.61 0.64 0.56 0.53 0.45 0.38 0.30 0.23 0.19 0.16 0.15 0.15 0.16 0.21 0.20 0.21 0.21 0.21 0.23 0.24 0.19 0.16 0.15 0.11
1.65 1.77 1.76 1.70 1.61 1.42 1.26 1.15 1.12 1.12 1.11 1.14 1.12 1.02 0.95 0.81 0.67 0.58 0.48 0.53 0.49 0.38 0.29 0.24 0.19 0.15 0.15 0.14 0.16 0.17 0.19 0.19 0.17 0.18 0.16 0.15 0.16 0.20 0.21 0.17 0.13 0.11 0.12
1.07 1.01 0.89 0.85 0.83 0.78 0.75 0.69 0.66 0.63 0.59 0.57 0.53 0.50 0.41 0.32 0.30 0.23 0.21 0.23 0.22 0.19 0.15 0.14 0.11 0.10 0.11 0.12 0.13 0.14 0.15 0.13 0.13 0.13 0.12 0.12 0.11 0.12 0.14 0.15 0.16 0.15 0.13
0.66 0.65 0.61 0.56 0.54 0.50 0.46 0.40 0.36 0.33 0.31 0.28 0.28 0.20 0.13 0.15 0.18 0.15 0.13 0.15 0.15 0.14 0.13 0.14 0.11 0.12 0.13 0.14 0.15 0.16 0.16 0.15 0.15 0.16 0.16 0.15 0.16 0.19 0.17 0.19 0.18 0.15 0.12
0.38 0.34 0.29 0.25 0.23 0.22 0.20 0.19 0.19 0.18 0.15 0.14 0.13 0.11 0.09 0.13 0.15 0.15 0.15 0.14 0.10 0.10 0.13 0.19 0.21 0.17 0.18 0.20 0.23 0.26 0.22 0.20 0.21 0.25 0.25 0.22 0.22 0.22 0.24 0.25 0.24 0.24 0.20
0.16 0.14 0.12 0.12 0.12 0.12 0.12 0.13 0.14 0.17 0.19 0.19 0.18 0.15 0.11 0.11 0.10 0.09 0.12 0.15 0.21 0.27 0.27 0.29 0.33 0.29 0.24 0.26 0.29 0.31 0.31 0.22 0.22 0.27 0.30 0.22 0.19 0.20 0.24 0.22 0.20 0.21 0.18
0.10 0.09 0.09 0.10 0.10 0.11 0.12 0.11 0.11 0.12 0.16 0.20 0.22 0.22 0.22 0.23 0.24 0.25 0.30 0.36 0.40 0.41 0.39 0.41 0.40 0.38 0.36 0.34 0.32 0.29 0.27 0.24 0.25 0.25 0.30 0.32 0.23 0.19 0.23 0.23 0.20 0.20 0.19
0.07 0.07 0.07 0.08 0.11 0.13 0.16 0.17 0.18 0.20 0.21 0.21 0.22 0.23 0.23 0.27 0.31 0.32 0.32 0.28 0.27 0.27 0.28 0.30 0.34 0.35 0.36 0.40 0.43 0.41 0.38 0.33 0.32 0.33 0.39 0.36 0.28 0.27 0.28 0.26 0.23 0.25 0.23
0.06 0.09 0.12 0.14 0.17 0.18 0.23 0.26 0.29 0.30 0.31 0.31 0.34 0.35 0.33 0.28 0.22 0.19 0.16 0.15 0.15 0.14 0.15 0.17 0.17 0.17 0.18 0.18 0.21 0.26 0.26 0.27 0.32 0.35 0.38 0.37 0.34 0.32 0.31 0.28 0.25 0.29 0.29

GFSGL_prec_precacc_069.txt.gz
Total_Precipitation_Accumulation
0.43 0.53 0.45 0.47 0.62 0.69 0.63 0.60 0.58 0.55 0.55 0.58 0.60 0.52 0.39 0.31 0.34 0.39 0.42 0.47 0.46 0.39 0.35 0.31 0.26 0.28 0.31 0.29 0.30 0.29 0.27 0.27 0.30 0.16 0.08 0.06 0.08 0.09 0.07 0.06 0.05 0.03 0.03
0.44 0.68 0.92 0.77 1.05 1.56 1.62 1.26 1.48 1.49 1.15 0.90 0.68 0.45 0.30 0.19 0.13 0.13 0.19 0.21 0.24 0.29 0.29 0.30 0.27 0.32 0.39 0.34 0.28 0.21 0.16 0.14 0.17 0.11 0.07 0.06 0.05 0.05 0.05 0.04 0.02 0.02 0.04
0.70 0.83 0.85 0.74 1.13 1.03 0.71 0.53 0.42 0.52 0.49 0.30 0.20 0.15 0.11 0.07 0.05 0.05 0.09 0.20 0.27 0.20 0.18 0.18 0.15 0.14 0.12 0.10 0.10 0.10 0.10 0.12 0.15 0.19 0.14 0.08 0.06 0.03 0.03 0.03 0.04 0.04 0.04
0.44 0.50 0.41 0.36 0.42 0.41 0.33 0.24 0.20 0.18 0.17 0.16 0.15 0.16 0.12 0.06 0.05 0.10 0.12 0.11 0.13 0.13 0.09 0.06 0.07 0.07 0.07 0.07 0.10 0.10 0.10 0.11 0.11 0.11 0.10 0.07 0.04 0.03 0.05 0.07 0.08 0.07 0.07
0.24 0.22 0.21 0.29 0.23 0.19 0.13 0.14 0.16 0.18 0.25 0.21 0.21 0.12 0.12 0.16 0.19 0.20 0.16 0.15 0.08 0.05 0.03 0.03 0.04 0.08 0.09 0.06 0.04 0.04 0.05 0.09 0.12 0.12 0.12 0.10 0.08 0.09 0.11 0.13 0.15 0.13 0.14
0.07 0.15 0.17 0.13 0.16 0.18 0.16 0.19 0.16 0.13 0.16 0.20 0.23 0.24 0.25 0.28 0.37 0.33 0.18 0.08 0.05 0.05 0.04 0.05 0.06 0.11 0.06 0.09 0.10 0.12 0.10 0.12 0.16 0.17 0.15 0.15 0.12 0.14 0.21 0.29 0.32 0.36 0.38
0.05 0.05 0.06 0.07 0.09 0.09 0.16 0.14 0.13 0.16 0.20 0.16 0.23 0.32 0.35 0.33 0.35 0.24 0.22 0.10 0.10 0.11 0.08 0.07 0.06 0.09 0.15 0.06 0.15 0.18 0.18 0.24 0.23 0.20 0.22 0.25 0.35 0.41 0.49 0.58 0.54 0.48 0.40
0.03 0.04 0.04 0.05 0.06 0.09 0.10 0.10 0.13 0.18 0.25 0.28 0.31 0.28 0.21 0.17 0.27 0.31 0.36 0.18 0.10 0.08 0.07 0.07 0.07 0.08 0.15 0.17 0.14 0.20 0.23 0.30 0.38 0.42 0.47 0.56 0.53 0.45 0.40 0.42 0.41 0.41 0.36
0.02 0.02 0.04 0.06 0.06 0.06 0.09 0.14 0.24 0.30 0.30 0.26 0.19 0.18 0.17 0.16 0.35 0.32 0.31 0.18 0.15 0.16 0.14 0.14 0.18 0.14 0.43 0.40 0.25 0.25 0.31 0.34 0.48 0.45 0.36 0.36 0.34 0.31 0.30 0.37 0.45 0.53 0.55
0.01 0.01 0.02 0.03 0.05 0.10 0.21 0.24 0.20 0.15 0.11 0.12 0.13 0.13 0.28 0.16 0.39 0.32 0.27 0.12 0.14 0.16 0.18 0.22 0.43 0.27 0.39 0.29 0.18 0.11 0.24 0.34 0.33 0.40 0.43 0.47 0.47 0.51 0.58 0.54 0.54 0.67 0.64
0.01 0.02 0.06 0.10 0.17 0.20 0.15 0.09 0.06 0.06 0.06 0.07 0.08 0.08 0.14 0.24 0.31 0.42 0.36 0.21 0.15 0.22 0.28 0.30 0.41 0.74 0.45 0.47 0.48 0.38 0.71 0.76 0.79 0.64 0.62 0.62 0.56 0.50 0.47 0.42 0.38 0.40 0.47
0.06 0.11 0.17 0.21 0.19 0.13 0.09 0.09 0.09 0.07 0.08 0.09 0.09 0.11 0.12 0.15 0.31 0.32 0.31 0.34 0.46 0.33 0.48 0.48 0.67 0.76 0.49 0.56 0.65 0.83 0.90 0.73 0.66 0.75 0.79 0.78 0.71 0.59 0.50 0.44 0.38 0.37 0.37
0.12 0.15 0.17 0.13 0.07 0.05 0.08 0.11 0.12 0.11 0.13 0.15 0.17 0.21 0.24 0.23 0.29 0.43 0.38 0.45 0.57 0.58 0.81 1.00 1.01 0.84 0.74 0.79 0.91 0.94 0.92 0.92 0.95 1.00 0.99 0.90 0.78 0.69 0.57 0.48 0.42 0.32 0.24
0.06 0.10 0.07 0.06 0.09 0.05 0.09 0.11 0.11 0.12 0.16 0.21 0.29 0.35 0.37 0.40 0.39 0.38 0.40 0.44 0.57 0.70 0.97 1.09 1.07 1.01 0.96 1.00 1.02 0.98 0.96 1.01 1.04 1.04 0.96 0.85 0.72 0.59 0.54 0.57 0.53 0.42 0.32
0.11 0.11 0.11 0.11 0.12 0.11 0.14 0.23 0.20 0.31 0.40 0.41 0.47 0.50 0.53 0.65 0.89 0.96 0.96 1.03 1.10 1.23 1.28 1.39 1.41 1.38 1.36 1.32 1.21 1.08 1.01 0.95 0.86 0.77 0.67 0.58 0.47 0.36 0.26 0.18 0.20 0.29 0.45
0.16 0.18 0.22 0.17 0.18 0.18 0.18 0.27 0.46 0.52 0.51 0.58 0.65 0.67 0.94 1.13 1.26 1.23 1.23 1.25 1.25 1.23 1.18 1.18 1.08 0.97 0.88 0.77 0.70 0.64 0.58 0.54 0.46 0.37 0.35 0.31 0.32 0.31 0.32 0.34 0.33 0.32 0.36
0.30 0.27 0.29 0.30 0.32 0.34 0.36 0.35 0.47 0.66 0.72 0.88 0.97 0.99 0.98 1.10 1.00 0.93 0.88 0.81 0.80 0.73 0.84 0.79 0.72 0.66 0.58 0.47 0.43 0.38 0.33 0.24 0.24 0.33 0.33 0.29 0.30 0.32 0.28 0.27 0.24 0.26 0.25
0.97 0.97 0.89 0.86 0.92 1.04 1.17 1.27 1.32 1.34 1.35 1.43 1.40 1.23 1.18 1.12 1.05 0.96 0.83 0.67 0.70 0.62 0.58 0.50 0.44 0.36 0.29 0.24 0.20 0.17 0.16 0.17 0.22 0.20 0.21 0.21 0.21 0.23 0.25 0.19 0.16 0.15 0.11
1.65 1.77 1.76 1.70 1.61 1.42 1.26 1.15 1.12 1.12 1.11 1.15 1.13 1.04 0.97 0.84 0.71 0.62 0.53 0.59 0.54 0.43 0.34 0.28 0.21 0.17 0.16 0.15 0.17 0.18 0.19 0.19 0.18 0.18 0.16 0.15 0.16 0.20 0.21 0.17 0.13 0.11 0.12
1.07 1.01 0.89 0.85 0.83 0.78 0.75 0.69 0.66 0.63 0.60 0.57 0.54 0.52 0.42 0.33 0.31 0.25 0.23 0.24 0.23 0.20 0.16 0.15 0.12 0.11 0.12 0.13 0.13 0.14 0.15 0.13 0.13 0.13 0.12 0.12 0.11 0.12 0.14 0.15 0.16 0.15 0.13
0.66 0.65 0.61 0.56 0.54 0.50 0.46 0.40 0.36 0.33 0.31 0.28 0.28 0.20 0.13 0.15 0.18 0.16 0.13 0.15 0.15 0.14 0.13 0.14 0.11 0.12 0.13 0.14 0.15 0.16 0.16 0.15 0.15 0.16 0.16 0.15 0.16 0.19 0.17 0.19 0.18 0.15 0.12
0.38 0.34 0.29 0.25 0.23 0.22 0.20 0.19 0.19 0.18 0.15 0.14 0.13 0.11 0.09 0.13 0.15 0.15 0.15 0.14 0.10 0.10 0.13 0.19 0.21 0.17 0.18 0.20 0.23 0.26 0.22 0.20 0.21 0.25 0.25 0.22 0.22 0.22 0.24 0.25 0.24 0.24 0.20
0.16 0.14 0.12 0.12 0.12 0.12 0.12 0.13 0.14 0.17 0.19 0.19 0.18 0.15 0.11 0.11 0.10 0.09 0.12 0.15 0.21 0.27 0.27 0.29 0.33 0.29 0.24 0.26 0.29 0.31 0.31 0.22 0.22 0.27 0.30 0.22 0.19 0.20 0.24 0.22 0.20 0.21 0.18
0.10 0.09 0.09 0.10 0.10 0.11 0.12 0.11 0.11 0.12 0.16 0.20 0.22 0.22 0.22 0.23 0.24 0.25 0.30 0.36 0.40 0.41 0.39 0.41 0.40 0.38 0.36 0.34 0.32 0.29 0.27 0.24 0.25 0.25 0.30 0.32 0.23 0.19 0.23 0.23 0.20 0.20 0.19
0.07 0.07 0.07 0.08 0.11 0.13 0.16 0.17 0.18 0.20 0.21 0.21 0.22 0.23 0.23 0.27 0.31 0.32 0.32 0.28 0.27 0.27 0.28 0.30 0.34 0.35 0.36 0.40 0.43 0.41 0.38 0.33 0.32 0.33 0.39 0.36 0.28 0.27 0.28 0.26 0.23 0.25 0.23
0.06 0.09 0.12 0.14 0.17 0.18 0.23 0.26 0.29 0.30 0.31 0.31 0.34 0.35 0.33 0.28 0.22 0.19 0.16 0.15 0.15 0.14 0.15 0.17 0.17 0.17 0.18 0.18 0.21 0.26 0.26 0.27 0.32 0.35 0.38 0.37 0.34 0.32 0.31 0.28 0.25 0.29 0.29

GFSGL_prec_precacc_072.txt.gz
Total_Precipitation_Accumulation
0.43 0.53 0.45 0.47 0.62 0.69 0.63 0.60 0.58 0.55 0.55 0.58 0.60 0.52 0.39 0.31 0.34 0.41 0.43 0.47 0.46 0.40 0.36 0.33 0.27 0.29 0.31 0.29 0.30 0.29 0.27 0.29 0.31 0.16 0.08 0.06 0.08 0.09 0.07 0.06 0.05 0.03 0.03
0.45 0.68 0.92 0.77 1.05 1.56 1.62 1.26 1.48 1.49 1.15 0.90 0.68 0.45 0.30 0.19 0.13 0.13 0.19 0.21 0.24 0.29 0.29 0.30 0.27 0.32 0.39 0.34 0.28 0.21 0.16 0.15 0.18 0.12 0.07 0.06 0.05 0.05 0.05 0.04 0.02 0.02 0.04
0.72 0.84 0.86 0.75 1.13 1.03 0.71 0.53 0.42 0.52 0.49 0.30 0.20 0.15 0.11 0.07 0.05 0.05 0.09 0.20 0.27 0.20 0.18 0.18 0.15 0.14 0.12 0.10 0.10 0.10 0.10 0.13 0.16 0.20 0.14 0.08 0.06 0.03 0.03 0.03 0.04 0.04 0.04
0.45 0.50 0.42 0.36 0.43 0.42 0.34 0.24 0.20 0.18 0.17 0.16 0.15 0.16 0.12 0.06 0.05 0.10 0.12 0.11 0.13 0.13 0.09 0.06 0.07 0.07 0.07 0.07 0.10 0.10 0.10 0.11 0.11 0.11 0.10 0.07 0.04 0.03 0.05 0.07 0.08 0.07 0.07
0.24 0.22 0.21 0.29 0.23 0.20 0.14 0.15 0.17 0.18 0.26 0.21 0.21 0.12 0.12 0.16 0.19 0.20 0.16 0.15 0.08 0.05 0.03 0.03 0.04 0.08 0.09 0.06 0.04 0.04 0.05 0.09 0.12 0.12 0.12 0.10 0.08 0.09 0.11 0.13 0.15 0.13 0.14
0.07 0.15 0.17 0.14 0.17 0.19 0.17 0.21 0.17 0.14 0.19 0.21 0.23 0.25 0.26 0.29 0.38 0.33 0.18 0.08 0.05 0.05 0.04 0.05 0.06 0.11 0.06 0.09 0.10 0.12 0.10 0.12 0.16 0.17 0.15 0.15 0.12 0.14 0.21 0.29 0.32 0.36 0.38
0.05 0.05 0.06 0.07 0.09 0.10 0.16 0.15 0.15 0.18 0.22 0.19 0.26 0.34 0.36 0.36 0.42 0.30 0.29 0.13 0.11 0.11 0.08 0.07 0.06 0.09 0.15 0.06 0.15 0.18 0.18 0.24 0.23 0.20 0.22 0.25 0.35 0.41 0.49 0.58 0.54 0.48 0.40
0.03 0.04 0.04 0.05 0.06 0.09 0.10 0.10 0.13 0.18 0.26 0.31 0.33 0.31 0.25 0.22 0.37 0.40 0.47 0.26 0.14 0.10 0.08 0.11 0.11 0.10 0.16 0.18 0.14 0.20 0.23 0.30 0.38 0.42 0.47 0.56 0.54 0.46 0.41 0.42 0.42 0.43 0.38
0.02 0.02 0.04 0.06 0.06 0.06 0.09 0.14 0.24 0.30 0.30 0.26 0.19 0.18 0.19 0.19 0.42 0.36 0.34 0.19 0.16 0.18 0.19 0.20 0.27 0.20 0.47 0.44 0.27 0.28 0.33 0.36 0.50 0.48 0.40 0.42 0.39 0.33 0.32 0.39 0.47 0.63 0.72
0.01 0.01 0.02 0.03 0.05 0.10 0.21 0.24 0.20 0.15 0.11 0.12 0.13 0.13 0.29 0.17 0.42 0.33 0.28 0.13 0.15 0.18 0.23 0.32 0.66 0.35 0.41 0.31 0.21 0.15 0.32 0.46 0.39 0.43 0.48 0.55 0.53 0.58 0.68 0.60 0.59 0.81 0.86
0.01 0.02 0.06 0.10 0.17 0.20 0.15 0.09 0.06 0.06 0.06 0.07 0.08 0.08 0.14 0.25 0.32 0.43 0.37 0.21 0.16 0.26 0.37 0.40 0.50 0.87 0.48 0.50 0.59 0.48 1.02 1.03 0.96 0.76 0.73 0.76 0.74 0.70 0.68 0.62 0.56 0.58 0.67
0.06 0.11 0.17 0.21 0.19 0.13 0.09 0.09 0.09 0.07 0.08 0.09 0.09 0.11 0.12 0.15 0.33 0.33 0.32 0.35 0.48 0.36 0.55 0.57 0.80 0.88 0.54 0.61 0.76 1.05 1.22 1.05 0.98 1.15 1.22 1.27 1.23 1.08 0.93 0.83 0.75 0.71 0.69
0.12 0.15 0.17 0.13 0.07 0.05 0.08 0.11 0.12 0.11 0.13 0.15 0.17 0.21 0.24 0.23 0.30 0.45 0.39 0.46 0.59 0.60 0.85 1.09 1.14 0.96 0.85 0.93 1.09 1.16 1.18 1.21 1.36 1.45 1.44 1.36 1.19 1.07 0.90 0.78 0.68 0.56 0.44
0.06 0.10 0.07 0.06 0.09 0.05 0.09 0.11 0.11 0.12 0.16 0.21 0.29 0.35 0.37 0.40 0.40 0.39 0.41 0.45 0.58 0.72 1.01 1.14 1.14 1.09 1.07 1.14 1.19 1.19 1.19 1.26 1.33 1.37 1.30 1.17 1.00 0.84 0.75 0.75 0.69 0.56 0.43
0.11 0.11 0.11 0.11 0.12 0.12 0.15 0.23 0.21 0.32 0.40 0.41 0.47 0.51 0.54 0.67 0.91 0.97 0.97 1.04 1.12 1.26 1.32 1.43 1.46 1.44 1.42 1.39 1.30 1.21 1.14 1.06 0.96 0.87 0.77 0.67 0.56 0.44 0.33 0.24 0.25 0.32 0.48
0.16 0.18 0.22 0.17 0.18 0.19 0.18 0.28 0.47 0.52 0.52 0.58 0.66 0.67 0.95 1.15 1.27 1.24 1.24 1.26 1.28 1.26 1.21 1.23 1.14 1.04 0.94 0.84 0.78 0.70 0.63 0.59 0.51 0.42 0.38 0.35 0.35 0.34 0.34 0.35 0.33 0.33 0.37
0.30 0.27 0.29 0.30 0.32 0.34 0.36 0.35 0.47 0.66 0.72 0.88 0.97 1.00 0.99 1.11 1.00 0.94 0.89 0.82 0.82 0.75 0.85 0.81 0.75 0.69 0.62 0.51 0.47 0.41 0.35 0.26 0.25 0.34 0.34 0.30 0.31 0.32 0.29 0.27 0.24 0.26 0.25
0.97 0.97 0.89 0.87 0.92 1.05 1.17 1.27 1.32 1.34 1.35 1.43 1.41 1.24 1.19 1.12 1.05 0.96 0.84 0.67 0.70 0.62 0.60 0.52 0.46 0.38 0.30 0.25 0.20 0.18 0.16 0.18 0.22 0.20 0.21 0.21 0.22 0.23 0.25 0.19 0.16 0.15 0.11
1.65 1.77 1.76 1.70 1.61 1.42 1.26 1.15 1.12 1.12 1.11 1.15 1.13 1.04 0.97 0.85 0.71 0.62 0.53 0.59 0.54 0.43 0.34 0.28 0.22 0.17 0.16 0.16 0.17 0.18 0.19 0.20 0.18 0.18 0.16 0.15 0.16 0.20 0.21 0.17 0.13 0.11 0.12
1.07 1.01 0.89 0.85 0.83 0.78 0.75 0.69 0.66 0.63 0.60 0.57 0.54 0.52 0.42 0.33 0.31 0.25 0.23 0.25 0.23 0.20 0.16 0.15 0.12 0.11 0.12 0.13 0.14 0.14 0.15 0.13 0.13 0.13 0.12 0.12 0.11 0.12 0.14 0.15 0.16 0.15 0.13
0.66 0.65 0.61 0.56 0.54 0.50 0.46 0.40 0.36 0.33 0.31 0.28 0.28 0.20 0.13 0.15 0.18 0.16 0.14 0.15 0.15 0.14 0.13 0.14 0.11 0.13 0.13 0.14 0.15 0.16 0.16 0.15 0.15 0.16 0.16 0.15 0.16 0.19 0.17 0.19 0.18 0.15 0.12
0.38 0.34 0.29 0.25 0.23 0.22 0.20 0.19 0.19 0.18 0.15 0.14 0.13 0.11 0.09 0.13 0.15 0.15 0.15 0.14 0.10 0.10 0.13 0.19 0.21 0.17 0.18 0.20 0.23 0.26 0.22 0.20 0.21 0.25 0.25 0.22 0.22 0.22 0.24 0.25 0.24 0.24 0.20
0.16 0.14 0.12 0.12 0.12 0.12 0.12 0.13 0.14 0.17 0.19 0.19 0.18 0.15 0.11 0.11 0.10 0.10 0.12 0.15 0.21 0.27 0.27 0.29 0.33 0.29 0.24 0.26 0.29 0.31 0.31 0.22 0.22 0.27 0.30 0.22 0.19 0.20 0.24 0.22 0.20 0.21 0.18
0.10 0.09 0.09 0.10 0.10 0.11 0.12 0.11 0.12 0.12 0.16 0.20 0.22 0.22 0.22 0.23 0.24 0.25 0.30 0.37 0.40 0.41 0.39 0.41 0.40 0.38 0.36 0.34 0.32 0.29 0.27 0.24 0.25 0.25 0.30 0.32 0.23 0.19 0.23 0.23 0.20 0.20 0.19
0.07 0.07 0.07 0.08 0.11 0.13 0.16 0.17 0.18 0.20 0.21 0.21 0.22 0.23 0.23 0.27 0.31 0.32 0.32 0.28 0.27 0.27 0.28 0.30 0.34 0.35 0.36 0.40 0.43 0.41 0.38 0.33 0.32 0.33 0.39 0.36 0.28 0.27 0.28 0.26 0.23 0.25 0.23
0.06 0.09 0.12 0.14 0.17 0.18 0.23 0.26 0.29 0.30 0.31 0.31 0.34 0.35 0.33 0.28 0.22 0.19 0.16 0.15 0.15 0.14 0.15 0.17 0.17 0.17 0.18 0.19 0.21 0.26 0.26 0.27 0.32 0.35 0.38 0.37 0.34 0.32 0.31 0.28 0.25 0.29 0.29

GFSGL_prec_precacc_075.txt.gz
Total_Precipitation_Accumulation
0.43 0.53 0.45 0.47 0.62 0.69 0.63 0.60 0.58 0.55 0.56 0.59 0.60 0.52 0.39 0.32 0.34 0.43 0.51 0.52 0.48 0.41 0.38 0.35 0.29 0.32 0.36 0.33 0.31 0.30 0.28 0.29 0.32 0.16 0.08 0.06 0.08 0.09 0.07 0.06 0.05 0.03 0.03
0.45 0.68 0.92 0.77 1.05 1.56 1.62 1.26 1.48 1.49 1.15 0.90 0.68 0.45 0.30 0.19 0.13 0.13 0.20 0.26 0.28 0.32 0.31 0.31 0.28 0.34 0.41 0.36 0.29 0.22 0.17 0.15 0.18 0.12 0.07 0.06 0.05 0.05 0.05 0.04 0.02 0.02 0.04
0.75 0.84 0.86 0.75 1.13 1.03 0.71 0.53 0.42 0.52 0.49 0.30 0.20 0.15 0.11 0.07 0.05 0.05 0.09 0.20 0.27 0.20 0.18 0.19 0.15 0.15 0.13 0.11 0.11 0.10 0.10 0.13 0.16 0.20 0.14 0.08 0.06 0.03 0.03 0.03 0.04 0.04 0.04
0.47 0.52 0.44 0.37 0.43 0.42 0.34 0.24 0.20 0.18 0.17 0.16 0.15 0.16 0.12 0.06 0.05 0.10 0.12 0.11 0.13 0.13 0.09 0.06 0.07 0.07 0.07 0.07 0.10 0.10 0.10 0.11 0.11 0.11 0.10 0.07 0.04 0.03 0.05 0.07 0.08 0.07 0.07
0.25 0.24 0.22 0.30 0.24 0.21 0.14 0.15 0.17 0.18 0.26 0.21 0.21 0.12 0.12 0.16 0.19 0.20 0.16 0.15 0.08 0.05 0.03 0.03 0.04 0.08 0.09 0.06 0.04 0.04 0.05 0.09 0.12 0.12 0.13 0.11 0.08 0.09 0.11 0.13 0.15 0.13 0.14
0.07 0.15 0.17 0.15 0.18 0.20 0.19 0.22 0.18 0.15 0.20 0.23 0.25 0.27 0.28 0.31 0.42 0.35 0.20 0.08 0.05 0.05 0.04 0.05 0.06 0.11 0.06 0.09 0.10 0.12 0.10 0.12 0.16 0.17 0.15 0.15 0.12 0.14 0.21 0.29 0.32 0.36 0.38
0.08 0.05 0.06 0.07 0.09 0.10 0.17 0.16 0.16 0.20 0.23 0.22 0.30 0.38 0.42 0.43 0.54 0.33 0.31 0.14 0.11 0.12 0.08 0.07 0.06 0.09 0.15 0.06 0.15 0.18 0.18 0.24 0.23 0.20 0.22 0.25 0.35 0.41 0.50 0.58 0.55 0.48 0.40
0.03 0.04 0.04 0.05 0.06 0.09 0.10 0.10 0.13 0.18 0.26 0.31 0.34 0.32 0.27 0.26 0.41 0.42 0.47 0.26 0.14 0.10 0.09 0.12 0.12 0.12 0.18 0.23 0.16 0.21 0.24 0.31 0.40 0.43 0.50 0.59 0.58 0.50 0.44 0.46 0.46 0.47 0.43
0.02 0.02 0.04 0.06 0.06 0.06 0.09 0.14 0.24 0.30 0.30 0.26 0.19 0.18 0.19 0.19 0.43 0.36 0.34 0.19 0.16 0.18 0.22 0.29 0.38 0.23 0.52 0.49 0.30 0.30 0.36 0.44 0.66 0.55 0.46 0.55 0.53 0.41 0.36 0.42 0.53 0.82 1.00
0.01 0.01 0.02 0.03 0.05 0.10 0.21 0.24 0.20 0.15 0.11 0.12 0.13 0.13 0.29 0.17 0.42 0.33 0.28 0.13 0.15 0.18 0.25 0.38 0.77 0.38 0.43 0.33 0.22 0.16 0.39 0.70 0.56 0.56 0.60 0.67 0.64 0.68 0.79 0.68 0.70 1.11 1.37
0.01 0.02 0.06 0.10 0.17 0.20 0.15 0.09 0.06 0.06 0.06 0.07 0.08 0.08 0.14 0.25 0.32 0.43 0.37 0.21 0.16 0.26 0.37 0.41 0.52 0.92 0.50 0.53 0.62 0.51 1.11 1.19 1.14 0.92 0.88 0.93 0.91 0.89 0.91 0.88 0.83 0.87 1.01
0.06 0.11 0.17 0.21 0.19 0.13 0.09 0.09 0.09 0.07 0.08 0.09 0.09 0.11 0.12 0.15 0.33 0.33 0.32 0.35 0.48 0.36 0.56 0.57 0.82 0.91 0.55 0.63 0.79 1.10 1.30 1.15 1.09 1.29 1.41 1.49 1.46 1.34 1.22 1.09 0.96 0.88 0.84
0.12 0.15 0.17 0.13 0.07 0.05 0.08 0.11 0.12 0.11 0.13 0.15 0.17 0.22 0.24 0.23 0.30 0.45 0.39 0.46 0.59 0.60 0.86 1.10 1.14 0.96 0.85 0.94 1.10 1.18 1.21 1.24 1.41 1.54 1.58 1.52 1.37 1.22 1.03 0.89 0.77 0.62 0.49
0.06 0.10 0.07 0.06 0.09 0.05 0.09 0.11 0.12 0.12 0.16 0.21 0.30 0.35 0.37 0.40 0.40 0.39 0.41 0.45 0.58 0.72 1.01 1.14 1.14 1.09 1.07 1.15 1.20 1.20 1.21 1.30 1.37 1.42 1.37 1.24 1.07 0.90 0.80 0.79 0.72 0.58 0.44
0.11 0.11 0.11 0.11 0.12 0.12 0.16 0.24 0.22 0.33 0.40 0.41 0.48 0.51 0.54 0.68 0.93 0.97 0.97 1.04 1.12 1.26 1.32 1.43 1.46 1.44 1.42 1.40 1.30 1.22 1.15 1.08 0.97 0.90 0.80 0.70 0.59 0.46 0.34 0.24 0.26 0.33 0.48
0.16 0.18 0.22 0.17 0.18 0.19 0.18 0.28 0.47 0.53 0.52 0.59 0.66 0.68 0.96 1.16 1.27 1.24 1.25 1.26 1.28 1.26 1.21 1.23 1.14 1.04 0.95 0.85 0.78 0.71 0.64 0.60 0.52 0.43 0.40 0.36 0.36 0.34 0.34 0.36 0.34 0.33 0.37
0.30 0.27 0.29 0.30 0.32 0.34 0.36 0.35 0.47 0.67 0.73 0.89 0.98 1.00 0.99 1.11 1.01 0.94 0.89 0.82 0.82 0.75 0.85 0.81 0.76 0.70 0.62 0.51 0.47 0.41 0.35 0.26 0.25 0.34 0.34 0.30 0.31 0.32 0.29 0.27 0.24 0.26 0.25
0.97 0.97 0.89 0.87 0.92 1.05 1.17 1.27 1.32 1.34 1.35 1.43 1.41 1.24 1.19 1.13 1.05 0.96 0.84 0.67 0.70 0.62 0.60 0.52 0.46 0.38 0.30 0.25 0.20 0.18 0.16 0.18 0.22 0.20 0.21 0.21 0.22 0.23 0.25 0.19 0.16 0.15 0.11
1.65 1.77 1.76 1.70 1.61 1.42 1.26 1.15 1.12 1.12 1.11 1.15 1.13 1.04 0.97 0.85 0.71 0.62 0.53 0.59 0.54 0.43 0.34 0.28 0.22 0.17 0.16 0.16 0.17 0.18 0.19 0.20 0.18 0.18 0.16 0.15 0.16 0.20 0.21 0.17 0.13 0.11 0.12
1.07 1.01 0.89 0.85 0.83 0.78 0.75 0.69 0.66 0.63 0.60 0.57 0.54 0.52 0.42 0.33 0.31 0.25 0.23 0.25 0.23 0.20 0.16 0.15 0.12 0.11 0.12 0.13 0.14 0.14 0.15 0.13 0.13 0.13 0.12 0.12 0.11 0.12 0.14 0.15 0.16 0.15 0.13
0.66 0.65 0.61 0.56 0.54 0.50 0.46 0.40 0.36 0.33 0.31 0.28 0.28 0.20 0.13 0.15 0.18 0.16 0.14 0.15 0.15 0.14 0.13 0.14 0.11 0.13 0.13 0.14 0.15 0.16 0.16 0.15 0.15 0.16 0.16 0.15 0.16 0.19 0.17 0.19 0.18 0.15 0.12
0.38 0.34 0.29 0.25 0.23 0.22 0.20 0.19 0.19 0.18 0.15 0.14 0.13 0.11 0.09 0.13 0.15 0.15 0.15 0.14 0.10 0.10 0.13 0.19 0.21 0.17 0.18 0.20 0.23 0.26 0.22 0.20 0.21 0.25 0.25 0.22 0.22 0.22 0.24 0.25 0.24 0.24 0.20
0.16 0.14 0.12 0.12 0.12 0.12 0.12 0.13 0.14 0.17 0.19 0.19 0.18 0.15 0.11 0.11 0.10 0.10 0.12 0.15 0.21 0.27 0.27 0.29 0.33 0.29 0.24 0.26 0.29 0.31 0.31 0.22 0.22 0.27 0.30 0.22 0.19 0.20 0.24 0.22 0.20 0.21 0.18
0.10 0.09 0.09 0.10 0.10 0.11 0.12 0.11 0.12 0.12 0.16 0.20 0.22 0.22 0.22 0.23 0.24 0.25 0.30 0.37 0.40 0.41 0.39 0.41 0.40 0.38 0.36 0.34 0.32 0.29 0.27 0.24 0.25 0.25 0.30 0.32 0.23 0.19 0.23 0.23 0.20 0.20 0.19
0.07 0.07 0.07 0.08 0.11 0.13 0.16 0.17 0.18 0.20 0.21 0.21 0.22 0.23 0.23 0.27 0.31 0.32 0.32 0.28 0.27 0.27 0.28 0.30 0.34 0.35 0.36 0.40 0.43 0.41 0.38 0.33 0.32 0.33 0.39 0.36 0.28 0.27 0.28 0.26 0.23 0.25 0.23
0.06 0.09 0.12 0.14 0.17 0.18 0.23 0.26 0.29 0.30 0.31 0.31 0.34 0.35 0.33 0.28 0.22 0.19 0.16 0.15 0.15 0.14 0.15 0.17 0.17 0.17 0.18 0.19 0.21 0.26 0.26 0.27 0.32 0.35 0.38 0.37 0.34 0.32 0.31 0.28 0.25 0.29 0.29

GFSGL_prec_precacc_078.txt.gz
Total_Precipitation_Accumulation
0.43 0.53 0.45 0.47 0.62 0.69 0.63 0.60 0.58 0.56 0.56 0.59 0.60 0.54 0.40 0.34 0.39 0.46 0.54 0.57 0.52 0.42 0.38 0.35 0.29 0.32 0.36 0.33 0.32 0.31 0.29 0.31 0.34 0.17 0.08 0.06 0.08 0.09 0.07 0.06 0.05 0.03 0.03
0.45 0.68 0.92 0.78 1.05 1.57 1.62 1.27 1.48 1.49 1.15 0.91 0.69 0.46 0.31 0.19 0.15 0.16 0.21 0.28 0.31 0.35 0.32 0.31 0.28 0.34 0.43 0.37 0.31 0.26 0.20 0.16 0.21 0.14 0.07 0.06 0.05 0.05 0.05 0.04 0.02 0.02 0.04
0.77 0.85 0.86 0.75 1.13 1.04 0.72 0.53 0.43 0.52 0.49 0.30 0.20 0.15 0.11 0.07 0.05 0.06 0.10 0.20 0.28 0.21 0.20 0.21 0.16 0.15 0.13 0.11 0.11 0.10 0.10 0.13 0.17 0.22 0.14 0.08 0.06 0.04 0.04 0.04 0.04 0.04 0.04
0.49 0.53 0.45 0.37 0.43 0.42 0.34 0.25 0.21 0.18 0.18 0.17 0.15 0.16 0.12 0.06 0.05 0.11 0.13 0.12 0.13 0.14 0.10 0.07 0.09 0.08 0.08 0.08 0.11 0.10 0.11 0.11 0.12 0.12 0.11 0.07 0.05 0.03 0.06 0.08 0.09 0.07 0.07
0.27 0.25 0.23 0.31 0.25 0.21 0.15 0.16 0.17 0.19 0.26 0.22 0.21 0.13 0.13 0.16 0.20 0.20 0.16 0.15 0.08 0.05 0.03 0.03 0.05 0.09 0.10 0.07 0.08 0.07 0.09 0.13 0.16 0.15 0.14 0.11 0.08 0.09 0.12 0.14 0.17 0.14 0.15
0.07 0.15 0.18 0.15 0.18 0.21 0.19 0.22 0.19 0.16 0.21 0.23 0.26 0.27 0.29 0.33 0.45 0.35 0.20 0.08 0.05 0.05 0.05 0.05 0.07 0.12 0.06 0.09 0.10 0.12 0.11 0.14 0.17 0.18 0.16 0.16 0.12 0.14 0.21 0.30 0.32 0.37 0.38
0.08 0.06 0.06 0.07 0.09 0.10 0.17 0.16 0.16 0.20 0.24 0.23 0.31 0.40 0.45 0.45 0.60 0.35 0.33 0.15 0.13 0.15 0.11 0.10 0.09 0.14 0.22 0.07 0.17 0.21 0.20 0.27 0.26 0.24 0.24 0.27 0.38 0.45 0.53 0.59 0.55 0.48 0.40
0.03 0.05 0.05 0.05 0.07 0.09 0.10 0.10 0.13 0.18 0.27 0.31 0.34 0.32 0.27 0.27 0.43 0.42 0.48 0.26 0.15 0.11 0.11 0.14 0.15 0.14 0.23 0.29 0.16 0.22 0.25 0.39 0.53 0.52 0.59 0.69 0.69 0.57 0.48 0.50 0.52 0.55 0.53
0.02 0.03 0.04 0.06 0.06 0.06 0.09 0.14 0.24 0.30 0.30 0.26 0.19 0.18 0.19 0.19 0.43 0.36 0.34 0.19 0.16 0.19 0.23 0.30 0.38 0.23 0.55 0.52 0.30 0.30 0.38 0.56 0.81 0.65 0.52 0.62 0.62 0.48 0.42 0.46 0.60 1.04 1.34
0.02 0.01 0.02 0.03 0.05 0.10 0.21 0.24 0.20 0.15 0.11 0.12 0.13 0.13 0.29 0.17 0.42 0.33 0.28 0.13 0.15 0.18 0.25 0.38 0.77 0.39 0.44 0.33 0.22 0.16 0.39 0.75 0.62 0.64 0.69 0.79 0.78 0.82 0.96 0.82 0.83 1.29 1.64
0.02 0.03 0.07 0.10 0.17 0.20 0.15 0.09 0.06 0.06 0.06 0.07 0.08 0.08 0.14 0.25 0.32 0.43 0.37 0.21 0.16 0.26 0.37 0.41 0.53 0.92 0.50 0.53 0.62 0.51 1.12 1.20 1.18 0.94 0.89 0.95 0.94 0.92 0.96 0.95 0.91 0.95 1.10
0.06 0.11 0.17 0.21 0.19 0.13 0.09 0.09 0.09 0.07 0.08 0.09 0.09 0.11 0.12 0.15 0.33 0.33 0.32 0.35 0.48 0.36 0.56 0.58 0.82 0.91 0.55 0.63 0.79 1.10 1.30 1.16 1.10 1.30 1.41 1.50 1.48 1.37 1.25 1.10 0.97 0.89 0.87
0.12 0.15 0.17 0.13 0.07 0.05 0.08 0.11 0.12 0.11 0.13 0.15 0.18 0.22 0.24 0.23 0.30 0.45 0.39 0.46 0.59 0.60 0.86 1.10 1.14 0.96 0.85 0.94 1.11 1.18 1.21 1.24 1.41 1.54 1.58 1.53 1.39 1.25 1.05 0.91 0.78 0.63 0.49
0.06 0.10 0.07 0.06 0.09 0.05 0.09 0.11 0.12 0.12 0.16 0.21 0.30 0.36 0.38 0.40 0.40 0.39 0.41 0.45 0.58 0.72 1.01 1.14 1.14 1.09 1.07 1.15 1.20 1.20 1.22 1.30 1.38 1.42 1.37 1.25 1.07 0.90 0.80 0.79 0.72 0.58 0.44
0.11 0.11 0.11 0.11 0.12 0.12 0.16 0.24 0.22 0.34 0.41 0.42 0.49 0.52 0.55 0.69 0.94 0.98 0.97 1.04 1.13 1.26 1.32 1.43 1.46 1.45 1.43 1.40 1.31 1.22 1.15 1.08 0.97 0.90 0.80 0.70 0.59 0.46 0.34 0.24 0.26 0.33 0.48
0.16 0.18 0.22 0.17 0.18 0.19 0.19 0.28 0.48 0.54 0.52 0.59 0.67 0.68 0.97 1.17 1.28 1.25 1.25 1.26 1.28 1.26 1.21 1.23 1.14 1.04 0.95 0.85 0.78 0.71 0.64 0.60 0.52 0.43 0.40 0.36 0.36 0.34 0.34 0.36 0.34 0.33 0.37
0.30 0.27 0.29 0.30 0.32 0.34 0.36 0.35 0.47 0.67 0.73 0.89 0.98 1.01 0.99 1.12 1.01 0.94 0.89 0.82 0.82 0.75 0.85 0.82 0.76 0.70 0.62 0.51 0.47 0.41 0.35 0.26 0.25 0.34 0.34 0.30 0.31 0.32 0.29 0.27 0.24 0.26 0.25
0.97 0.97 0.89 0.87 0.93 1.05 1.17 1.27 1.33 1.35 1.35 1.43 1.41 1.24 1.19 1.13 1.05 0.96 0.84 0.67 0.70 0.62 0.60 0.52 0.46 0.38 0.30 0.25 0.20 0.18 0.16 0.18 0.22 0.20 0.21 0.21 0.22 0.23 0.25 0.19 0.16 0.15 0.11
1.65 1.77 1.76 1.70 1.61 1.42 1.26 1.15 1.12 1.12 1.11 1.15 1.13 1.04 0.97 0.85 0.71 0.62 0.53 0.59 0.54 0.43 0.34 0.28 0.22 0.17 0.16 0.16 0.17 0.18 0.19 0.20 0.18 0.18 0.16 0.15 0.16 0.20 0.21 0.17 0.13 0.11 0.12
1.07 1.01 0.89 0.85 0.83 0.78 0.75 0.69 0.66 0.63 0.60 0.57 0.54 0.52 0.42 0.33 0.31 0.25 0.23 0.25 0.23 0.20 0.16 0.15 0.12 0.11 0.12 0.13 0.14 0.14 0.15 0.13 0.13 0.13 0.12 0.12 0.11 0.12 0.14 0.15 0.16 0.15 0.13
0.66 0.65 0.61 0.56 0.54 0.50 0.46 0.40 0.36 0.33 0.31 0.28 0.28 0.20 0.13 0.15 0.18 0.16 0.14 0.15 0.15 0.14 0.13 0.14 0.11 0.13 0.13 0.14 0.15 0.16 0.16 0.15 0.15 0.16 0.16 0.15 0.16 0.19 0.17 0.19 0.18 0.15 0.12
0.38 0.34 0.29 0.25 0.23 0.22 0.20 0.19 0.19 0.18 0.15 0.14 0.13 0.11 0.09 0.13 0.15 0.15 0.15 0.14 0.10 0.10 0.13 0.19 0.21 0.17 0.18 0.20 0.23 0.26 0.22 0.20 0.21 0.25 0.25 0.22 0.22 0.22 0.24 0.25 0.24 0.24 0.20
0.16 0.14 0.12 0.12 0.12 0.12 0.12 0.13 0.14 0.17 0.19 0.19 0.18 0.15 0.11 0.11 0.10 0.10 0.12 0.15 0.21 0.27 0.27 0.29 0.33 0.29 0.24 0.26 0.29 0.31 0.31 0.22 0.22 0.27 0.30 0.22 0.19 0.20 0.24 0.22 0.20 0.21 0.18
0.10 0.09 0.09 0.10 0.10 0.11 0.12 0.11 0.12 0.12 0.16 0.20 0.22 0.22 0.22 0.23 0.24 0.26 0.30 0.37 0.41 0.41 0.39 0.41 0.40 0.38 0.36 0.34 0.32 0.29 0.27 0.24 0.25 0.25 0.30 0.32 0.23 0.19 0.23 0.23 0.20 0.20 0.19
0.07 0.07 0.07 0.08 0.11 0.13 0.16 0.17 0.19 0.20 0.21 0.21 0.22 0.23 0.23 0.27 0.31 0.33 0.32 0.28 0.27 0.27 0.28 0.31 0.34 0.36 0.36 0.40 0.43 0.41 0.38 0.33 0.32 0.33 0.40 0.36 0.28 0.27 0.28 0.26 0.23 0.25 0.24
0.06 0.09 0.12 0.14 0.17 0.19 0.23 0.27 0.29 0.30 0.31 0.31 0.34 0.35 0.33 0.28 0.22 0.19 0.16 0.15 0.15 0.15 0.15 0.17 0.17 0.17 0.18 0.19 0.21 0.26 0.26 0.27 0.32 0.35 0.38 0.38 0.34 0.32 0.32 0.28 0.25 0.29 0.29

GFSGL_prec_precacc_081.txt.gz
Total_Precipitation_Accumulation
0.46 0.53 0.45 0.47 0.63 0.70 0.63 0.60 0.59 0.57 0.58 0.61 0.63 0.55 0.42 0.40 0.46 0.52 0.55 0.58 0.53 0.43 0.38 0.35 0.30 0.32 0.36 0.33 0.33 0.32 0.30 0.33 0.36 0.17 0.08 0.06 0.08 0.09 0.07 0.06 0.05 0.03 0.03
0.49 0.69 0.92 0.78 1.05 1.58 1.63 1.27 1.48 1.49 1.16 0.92 0.71 0.48 0.31 0.20 0.17 0.20 0.28 0.30 0.32 0.37 0.33 0.32 0.28 0.34 0.43 0.37 0.31 0.26 0.20 0.16 0.22 0.15 0.07 0.06 0.05 0.05 0.05 0.04 0.02 0.02 0.04
0.81 0.86 0.87 0.75 1.13 1.04 0.72 0.54 0.43 0.53 0.49 0.30 0.22 0.17 0.12 0.08 0.06 0.06 0.11 0.21 0.29 0.23 0.22 0.21 0.16 0.15 0.13 0.11 0.11 0.10 0.10 0.13 0.17 0.22 0.14 0.08 0.06 0.04 0.04 0.04 0.04 0.04 0.04
0.52 0.54 0.45 0.37 0.43 0.42 0.34 0.26 0.22 0.19 0.18 0.17 0.15 0.16 0.12 0.07 0.06 0.12 0.14 0.14 0.15 0.15 0.12 0.09 0.10 0.09 0.09 0.09 0.12 0.11 0.12 0.13 0.13 0.15 0.12 0.08 0.06 0.03 0.09 0.09 0.09 0.08 0.07
0.31 0.26 0.24 0.31 0.25 0.22 0.16 0.16 0.17 0.19 0.27 0.23 0.22 0.13 0.13 0.16 0.20 0.21 0.18 0.18 0.12 0.09 0.07 0.06 0.10 0.15 0.15 0.13 0.15 0.15 0.20 0.21 0.23 0.24 0.20 0.14 0.11 0.11 0.13 0.15 0.19 0.14 0.16
0.10 0.16 0.18 0.16 0.19 0.22 0.20 0.23 0.19 0.17 0.21 0.24 0.27 0.28 0.29 0.33 0.47 0.36 0.20 0.08 0.06 0.06 0.06 0.06 0.07 0.13 0.07 0.11 0.11 0.13 0.14 0.17 0.20 0.22 0.20 0.18 0.13 0.16 0.22 0.31 0.35 0.39 0.40
0.10 0.08 0.07 0.08 0.10 0.11 0.18 0.17 0.18 0.22 0.25 0.24 0.32 0.41 0.46 0.46 0.62 0.35 0.33 0.15 0.13 0.15 0.12 0.11 0.10 0.16 0.29 0.08 0.20 0.23 0.21 0.32 0.33 0.31 0.29 0.34 0.50 0.57 0.62 0.64 0.57 0.50 0.42
0.05 0.07 0.07 0.06 0.07 0.10 0.12 0.12 0.15 0.20 0.29 0.33 0.36 0.34 0.28 0.28 0.45 0.43 0.49 0.27 0.15 0.11 0.11 0.15 0.15 0.14 0.26 0.32 0.18 0.24 0.30 0.47 0.63 0.61 0.70 0.87 0.87 0.69 0.59 0.65 0.71 0.76 0.75
0.04 0.03 0.04 0.06 0.07 0.07 0.09 0.15 0.24 0.30 0.30 0.26 0.19 0.19 0.19 0.19 0.44 0.37 0.35 0.19 0.16 0.19 0.23 0.30 0.38 0.23 0.56 0.53 0.30 0.30 0.39 0.59 0.90 0.72 0.55 0.66 0.66 0.53 0.47 0.51 0.70 1.18 1.54
0.02 0.02 0.02 0.03 0.06 0.11 0.22 0.24 0.20 0.15 0.11 0.12 0.13 0.13 0.29 0.17 0.42 0.33 0.28 0.13 0.15 0.18 0.25 0.38 0.77 0.39 0.44 0.33 0.22 0.16 0.39 0.75 0.62 0.66 0.72 0.82 0.80 0.86 1.00 0.83 0.83 1.30 1.67
0.02 0.03 0.07 0.11 0.18 0.21 0.16 0.09 0.06 0.06 0.06 0.07 0.08 0.08 0.14 0.25 0.32 0.43 0.37 0.21 0.16 0.26 0.37 0.41 0.53 0.92 0.50 0.53 0.62 0.51 1.12 1.20 1.18 0.94 0.89 0.95 0.94 0.92 0.96 0.95 0.91 0.95 1.10
0.09 0.12 0.18 0.22 0.20 0.14 0.09 0.10 0.10 0.07 0.08 0.09 0.09 0.11 0.12 0.15 0.33 0.33 0.32 0.35 0.48 0.36 0.56 0.58 0.82 0.91 0.55 0.63 0.79 1.10 1.30 1.16 1.10 1.30 1.41 1.50 1.48 1.37 1.25 1.10 0.97 0.89 0.87
0.13 0.17 0.19 0.14 0.08 0.06 0.08 0.11 0.12 0.12 0.13 0.16 0.18 0.22 0.25 0.23 0.30 0.45 0.39 0.46 0.59 0.60 0.86 1.10 1.14 0.96 0.85 0.94 1.11 1.18 1.21 1.25 1.41 1.55 1.59 1.54 1.39 1.25 1.05 0.91 0.78 0.63 0.49
0.06 0.10 0.07 0.06 0.09 0.05 0.09 0.12 0.12 0.12 0.16 0.22 0.30 0.36 0.38 0.41 0.40 0.39 0.41 0.45 0.59 0.72 1.01 1.14 1.14 1.09 1.07 1.15 1.20 1.20 1.22 1.30 1.38 1.43 1.38 1.25 1.07 0.90 0.80 0.79 0.72 0.58 0.44
0.11 0.11 0.11 0.11 0.12 0.12 0.16 0.25 0.23 0.34 0.41 0.42 0.49 0.52 0.55 0.70 0.95 0.98 0.97 1.05 1.13 1.26 1.32 1.43 1.47 1.45 1.43 1.40 1.31 1.22 1.15 1.08 0.97 0.90 0.80 0.70 0.59 0.46 0.34 0.24 0.26 0.33 0.48
0.16 0.18 0.22 0.17 0.18 0.19 0.19 0.29 0.48 0.54 0.53 0.60 0.67 0.69 0.97 1.18 1.28 1.25 1.25 1.26 1.28 1.26 1.21 1.23 1.14 1.04 0.95 0.85 0.78 0.71 0.64 0.60 0.52 0.43 0.40 0.36 0.36 0.34 0.34 0.36 0.34 0.33 0.37
0.30 0.27 0.29 0.30 0.32 0.34 0.36 0.35 0.48 0.67 0.73 0.89 0.98 1.01 1.00 1.12 1.01 0.94 0.89 0.82 0.82 0.75 0.85 0.82 0.76 0.70 0.62 0.51 0.47 0.41 0.35 0.26 0.25 0.34 0.34 0.30 0.31 0.32 0.29 0.27 0.24 0.26 0.25
0.97 0.97 0.89 0.87 0.93 1.05 1.17 1.28 1.33 1.35 1.36 1.44 1.41 1.24 1.19 1.13 1.05 0.96 0.84 0.67 0.70 0.62 0.60 0.52 0.46 0.38 0.30 0.25 0.20 0.18 0.16 0.18 0.22 0.20 0.21 0.21 0.22 0.23 0.25 0.19 0.16 0.15 0.11
1.65 1.77 1.76 1.70 1.61 1.43 1.27 1.16 1.12 1.12 1.11 1.15 1.13 1.04 0.97 0.85 0.71 0.62 0.53 0.59 0.54 0.43 0.34 0.28 0.22 0.17 0.16 0.16 0.17 0.18 0.19 0.20 0.18 0.18 0.16 0.15 0.16 0.20 0.21 0.17 0.13 0.11 0.12
1.07 1.01 0.90 0.85 0.83 0.78 0.75 0.69 0.66 0.63 0.60 0.57 0.54 0.52 0.42 0.33 0.31 0.25 0.23 0.25 0.23 0.20 0.16 0.15 0.12 0.11 0.12 0.13 0.14 0.14 0.15 0.13 0.13 0.13 0.12 0.12 0.11 0.12 0.14 0.15 0.16 0.15 0.13
0.66 0.65 0.61 0.56 0.54 0.50 0.46 0.40 0.36 0.33 0.31 0.28 0.28 0.20 0.13 0.15 0.18 0.16 0.14 0.15 0.15 0.14 0.13 0.14 0.11 0.13 0.13 0.14 0.15 0.16 0.16 0.15 0.15 0.16 0.16 0.15 0.16 0.19 0.17 0.19 0.18 0.15 0.12
0.38 0.34 0.29 0.25 0.23 0.22 0.20 0.19 0.19 0.18 0.15 0.14 0.13 0.11 0.09 0.13 0.15 0.15 0.15 0.14 0.10 0.10 0.13 0.19 0.21 0.17 0.18 0.20 0.23 0.26 0.22 0.20 0.21 0.25 0.25 0.22 0.22 0.22 0.24 0.25 0.24 0.24 0.20
0.16 0.14 0.12 0.12 0.12 0.12 0.12 0.13 0.14 0.17 0.19 0.19 0.18 0.15 0.11 0.11 0.10 0.10 0.12 0.15 0.21 0.28 0.27 0.30 0.33 0.29 0.24 0.26 0.30 0.32 0.31 0.22 0.22 0.27 0.30 0.22 0.19 0.20 0.24 0.22 0.20 0.22 0.18
0.10 0.09 0.09 0.10 0.10 0.11 0.13 0.12 0.12 0.12 0.16 0.21 0.22 0.23 0.22 0.23 0.24 0.26 0.31 0.37 0.41 0.41 0.40 0.41 0.41 0.38 0.36 0.34 0.32 0.29 0.27 0.24 0.25 0.25 0.30 0.32 0.23 0.19 0.23 0.23 0.20 0.20 0.20
0.07 0.07 0.07 0.09 0.12 0.13 0.16 0.17 0.19 0.20 0.21 0.22 0.22 0.23 0.23 0.27 0.32 0.33 0.33 0.28 0.27 0.27 0.28 0.31 0.35 0.36 0.36 0.40 0.43 0.41 0.38 0.33 0.32 0.33 0.40 0.36 0.28 0.27 0.29 0.26 0.23 0.26 0.24
0.06 0.09 0.12 0.14 0.17 0.19 0.23 0.27 0.29 0.30 0.31 0.31 0.34 0.35 0.33 0.28 0.23 0.19 0.17 0.15 0.15 0.15 0.15 0.17 0.18 0.17 0.18 0.19 0.21 0.26 0.26 0.27 0.32 0.35 0.38 0.38 0.34 0.32 0.32 0.29 0.25 0.29 0.30

GFSGL_prec_precacc_084.txt.gz
Total_Precipitation_Accumulation
0.49 0.54 0.46 0.48 0.63 0.70 0.64 0.61 0.59 0.57 0.58 0.62 0.65 0.55 0.44 0.45 0.53 0.60 0.61 0.61 0.56 0.46 0.39 0.36 0.31 0.33 0.37 0.34 0.33 0.33 0.31 0.34 0.37 0.17 0.08 0.06 0.08 0.09 0.07 0.06 0.05 0.03 0.03
0.49 0.71 0.93 0.78 1.06 1.58 1.63 1.28 1.49 1.49 1.16 0.92 0.73 0.49 0.32 0.22 0.22 0.29 0.35 0.38 0.33 0.39 0.37 0.34 0.30 0.37 0.45 0.39 0.32 0.26 0.20 0.17 0.22 0.15 0.07 0.06 0.05 0.05 0.05 0.04 0.02 0.02 0.04
0.85 0.90 0.89 0.77 1.14 1.05 0.73 0.55 0.44 0.53 0.49 0.30 0.22 0.19 0.13 0.08 0.08 0.11 0.16 0.29 0.33 0.23 0.23 0.24 0.17 0.17 0.16 0.13 0.13 0.11 0.10 0.13 0.17 0.22 0.14 0.08 0.06 0.04 0.04 0.04 0.04 0.04 0.04
0.55 0.55 0.46 0.38 0.44 0.43 0.35 0.27 0.22 0.20 0.18 0.17 0.16 0.18 0.14 0.08 0.09 0.15 0.16 0.16 0.21 0.19 0.15 0.15 0.13 0.09 0.09 0.10 0.13 0.12 0.12 0.13 0.14 0.15 0.12 0.08 0.06 0.03 0.09 0.09 0.10 0.08 0.07
0.34 0.31 0.27 0.32 0.26 0.23 0.16 0.16 0.18 0.20 0.27 0.23 0.22 0.14 0.14 0.17 0.21 0.22 0.19 0.22 0.16 0.15 0.13 0.12 0.15 0.20 0.20 0.18 0.18 0.16 0.21 0.23 0.25 0.27 0.23 0.16 0.12 0.15 0.20 0.21 0.27 0.21 0.20
0.11 0.18 0.20 0.17 0.19 0.22 0.20 0.23 0.20 0.17 0.22 0.25 0.28 0.29 0.30 0.34 0.48 0.37 0.21 0.09 0.09 0.10 0.14 0.15 0.10 0.14 0.08 0.13 0.14 0.14 0.15 0.19 0.22 0.25 0.24 0.23 0.16 0.18 0.25 0.34 0.39 0.44 0.44
0.14 0.10 0.10 0.11 0.13 0.12 0.19 0.17 0.18 0.22 0.26 0.24 0.33 0.43 0.47 0.47 0.63 0.36 0.34 0.15 0.13 0.16 0.13 0.11 0.10 0.17 0.30 0.09 0.22 0.27 0.25 0.37 0.37 0.34 0.31 0.38 0.55 0.64 0.71 0.72 0.66 0.61 0.54
0.10 0.11 0.10 0.11 0.14 0.14 0.15 0.17 0.19 0.23 0.31 0.35 0.37 0.35 0.28 0.30 0.47 0.44 0.50 0.27 0.15 0.12 0.12 0.16 0.17 0.16 0.31 0.37 0.20 0.28 0.35 0.51 0.69 0.66 0.75 0.92 0.92 0.73 0.62 0.69 0.75 0.80 0.78
0.18 0.13 0.11 0.10 0.13 0.15 0.15 0.18 0.29 0.38 0.39 0.32 0.24 0.22 0.21 0.22 0.49 0.40 0.37 0.19 0.18 0.22 0.24 0.31 0.39 0.24 0.59 0.54 0.30 0.30 0.39 0.59 0.92 0.73 0.56 0.67 0.67 0.53 0.47 0.52 0.70 1.18 1.54
0.11 0.12 0.10 0.12 0.10 0.13 0.24 0.26 0.21 0.16 0.15 0.17 0.15 0.15 0.30 0.17 0.43 0.33 0.28 0.13 0.15 0.18 0.25 0.38 0.77 0.39 0.44 0.33 0.22 0.16 0.39 0.75 0.62 0.66 0.72 0.82 0.80 0.86 1.00 0.83 0.83 1.30 1.67
0.13 0.12 0.17 0.23 0.28 0.24 0.17 0.10 0.07 0.06 0.07 0.07 0.08 0.08 0.14 0.25 0.32 0.43 0.37 0.21 0.16 0.26 0.37 0.41 0.53 0.92 0.50 0.53 0.62 0.51 1.12 1.20 1.18 0.94 0.89 0.95 0.94 0.93 0.96 0.95 0.91 0.95 1.10
0.19 0.21 0.26 0.26 0.29 0.26 0.13 0.10 0.10 0.08 0.09 0.09 0.09 0.12 0.13 0.15 0.33 0.33 0.32 0.35 0.48 0.36 0.56 0.58 0.83 0.91 0.55 0.63 0.79 1.10 1.31 1.16 1.10 1.30 1.41 1.50 1.48 1.37 1.25 1.10 0.97 0.89 0.87
0.34 0.38 0.35 0.25 0.14 0.09 0.11 0.13 0.14 0.13 0.14 0.16 0.18 0.22 0.25 0.23 0.31 0.45 0.39 0.46 0.59 0.60 0.86 1.10 1.14 0.96 0.85 0.94 1.11 1.18 1.21 1.25 1.41 1.55 1.59 1.54 1.39 1.25 1.05 0.91 0.78 0.63 0.49
0.07 0.10 0.08 0.07 0.11 0.07 0.12 0.14 0.15 0.16 0.20 0.26 0.34 0.39 0.40 0.42 0.41 0.40 0.41 0.45 0.59 0.72 1.01 1.15 1.14 1.09 1.08 1.15 1.20 1.20 1.22 1.30 1.38 1.43 1.38 1.25 1.07 0.90 0.80 0.79 0.72 0.58 0.44
0.11 0.11 0.11 0.11 0.12 0.12 0.17 0.25 0.23 0.35 0.41 0.42 0.50 0.52 0.55 0.70 0.95 0.98 0.97 1.05 1.13 1.27 1.32 1.43 1.47 1.45 1.43 1.40 1.31 1.22 1.15 1.08 0.97 0.90 0.80 0.70 0.59 0.46 0.34 0.24 0.26 0.33 0.48
0.16 0.18 0.22 0.17 0.18 0.19 0.19 0.29 0.48 0.54 0.53 0.60 0.68 0.69 0.98 1.18 1.28 1.25 1.25 1.26 1.28 1.26 1.21 1.23 1.14 1.04 0.95 0.85 0.78 0.71 0.64 0.60 0.52 0.43 0.40 0.36 0.36 0.34 0.34 0.36 0.34 0.33 0.37
0.30 0.28 0.29 0.30 0.32 0.34 0.36 0.35 0.48 0.68 0.73 0.89 0.98 1.01 1.00 1.12 1.01 0.94 0.89 0.82 0.82 0.75 0.85 0.82 0.76 0.70 0.62 0.51 0.47 0.41 0.35 0.26 0.25 0.34 0.34 0.30 0.31 0.32 0.29 0.27 0.24 0.26 0.25
0.97 0.97 0.89 0.87 0.93 1.05 1.18 1.28 1.34 1.36 1.36 1.44 1.41 1.24 1.19 1.13 1.05 0.96 0.84 0.67 0.70 0.62 0.60 0.52 0.46 0.38 0.30 0.25 0.20 0.18 0.16 0.18 0.22 0.20 0.21 0.21 0.22 0.23 0.25 0.19 0.16 0.15 0.11
1.65 1.78 1.76 1.70 1.61 1.43 1.27 1.16 1.12 1.12 1.12 1.15 1.13 1.04 0.97 0.85 0.71 0.62 0.53 0.59 0.54 0.43 0.34 0.28 0.22 0.17 0.16 0.16 0.17 0.18 0.19 0.20 0.18 0.18 0.16 0.15 0.16 0.20 0.21 0.17 0.13 0.11 0.12
1.07 1.01 0.90 0.85 0.83 0.78 0.75 0.69 0.66 0.63 0.60 0.57 0.54 0.52 0.42 0.33 0.31 0.25 0.23 0.25 0.23 0.20 0.16 0.15 0.12 0.11 0.12 0.13 0.14 0.14 0.15 0.13 0.13 0.13 0.12 0.12 0.11 0.12 0.14 0.15 0.16 0.15 0.13
0.66 0.65 0.61 0.56 0.54 0.50 0.46 0.40 0.36 0.33 0.31 0.28 0.28 0.20 0.13 0.15 0.18 0.16 0.14 0.15 0.15 0.14 0.13 0.14 0.11 0.13 0.13 0.14 0.15 0.17 0.16 0.15 0.15 0.16 0.16 0.15 0.16 0.20 0.17 0.20 0.18 0.15 0.12
0.38 0.34 0.29 0.25 0.23 0.22 0.20 0.19 0.19 0.18 0.15 0.14 0.13 0.11 0.09 0.13 0.15 0.15 0.15 0.14 0.11 0.10 0.13 0.19 0.21 0.17 0.18 0.21 0.23 0.26 0.22 0.20 0.21 0.25 0.25 0.22 0.22 0.22 0.24 0.25 0.25 0.25 0.20
0.16 0.14 0.12 0.12 0.12 0.12 0.12 0.13 0.14 0.17 0.19 0.19 0.18 0.15 0.11 0.11 0.10 0.10 0.12 0.16 0.21 0.28 0.27 0.30 0.33 0.29 0.24 0.26 0.30 0.32 0.31 0.22 0.22 0.28 0.30 0.22 0.19 0.20 0.24 0.22 0.20 0.22 0.18
0.10 0.09 0.09 0.10 0.10 0.11 0.13 0.12 0.12 0.12 0.16 0.21 0.23 0.23 0.22 0.23 0.25 0.26 0.31 0.37 0.41 0.41 0.40 0.41 0.41 0.38 0.36 0.34 0.32 0.29 0.27 0.24 0.25 0.25 0.30 0.32 0.23 0.19 0.24 0.23 0.20 0.20 0.20
0.07 0.07 0.07 0.09 0.12 0.14 0.16 0.17 0.19 0.20 0.21 0.22 0.22 0.24 0.23 0.27 0.32 0.33 0.33 0.28 0.27 0.27 0.28 0.31 0.35 0.36 0.37 0.40 0.43 0.42 0.38 0.33 0.32 0.33 0.40 0.36 0.28 0.27 0.29 0.26 0.23 0.26 0.24
0.07 0.09 0.12 0.14 0.18 0.19 0.23 0.27 0.30 0.31 0.31 0.31 0.35 0.35 0.33 0.28 0.23 0.19 0.17 0.15 0.15 0.15 0.15 0.17 0.18 0.17 0.18 0.19 0.22 0.27 0.26 0.27 0.32 0.35 0.38 0.38 0.35 0.32 0.32 0.29 0.25 0.29 0.30

GFSGL_prec_precacc_087.txt.gz
Total_Precipitation_Accumulation
0.51 0.58 0.49 0.50 0.64 0.71 0.65 0.62 0.60 0.58 0.58 0.62 0.65 0.55 0.44 0.48 0.61 0.79 0.85 0.70 0.65 0.53 0.44 0.41 0.33 0.34 0.37 0.34 0.33 0.33 0.31 0.35 0.38 0.17 0.08 0.06 0.08 0.09 0.07 0.06 0.05 0.04 0.03
0.51 0.78 1.04 0.82 1.07 1.59 1.64 1.28 1.49 1.50 1.16 0.93 0.73 0.49 0.32 0.23 0.26 0.40 0.55 0.48 0.39 0.46 0.47 0.42 0.34 0.39 0.46 0.41 0.34 0.27 0.21 0.18 0.24 0.15 0.07 0.06 0.05 0.05 0.05 0.04 0.02 0.02 0.04
0.88 0.98 0.98 0.85 1.15 1.06 0.73 0.55 0.44 0.53 0.49 0.30 0.23 0.19 0.13 0.09 0.10 0.19 0.27 0.36 0.43 0.29 0.34 0.35 0.25 0.21 0.18 0.17 0.17 0.14 0.12 0.14 0.18 0.22 0.14 0.08 0.06 0.04 0.04 0.04 0.04 0.04 0.04
0.61 0.65 0.54 0.45 0.46 0.43 0.35 0.27 0.23 0.20 0.19 0.17 0.16 0.22 0.17 0.08 0.12 0.20 0.23 0.24 0.33 0.32 0.21 0.21 0.20 0.17 0.12 0.11 0.14 0.12 0.12 0.13 0.14 0.15 0.12 0.08 0.06 0.03 0.09 0.09 0.10 0.09 0.09
0.43 0.43 0.38 0.38 0.29 0.24 0.17 0.17 0.18 0.20 0.27 0.23 0.22 0.15 0.18 0.19 0.22 0.25 0.24 0.26 0.21 0.28 0.28 0.22 0.20 0.26 0.24 0.19 0.18 0.16 0.21 0.23 0.26 0.27 0.23 0.17 0.14 0.17 0.23 0.27 0.35 0.29 0.33
0.15 0.23 0.23 0.19 0.21 0.23 0.22 0.25 0.21 0.19 0.23 0.26 0.29 0.30 0.31 0.35 0.50 0.39 0.23 0.10 0.10 0.15 0.19 0.21 0.18 0.19 0.10 0.16 0.17 0.19 0.18 0.20 0.23 0.27 0.26 0.26 0.20 0.22 0.28 0.36 0.40 0.45 0.44
0.20 0.13 0.12 0.12 0.13 0.13 0.21 0.20 0.20 0.23 0.27 0.26 0.35 0.44 0.48 0.48 0.65 0.38 0.36 0.15 0.14 0.17 0.15 0.16 0.16 0.26 0.36 0.09 0.23 0.28 0.26 0.39 0.39 0.36 0.34 0.40 0.58 0.68 0.75 0.76 0.70 0.64 0.57
0.17 0.18 0.13 0.13 0.15 0.16 0.17 0.19 0.21 0.24 0.31 0.35 0.37 0.35 0.30 0.31 0.49 0.46 0.53 0.27 0.16 0.13 0.13 0.16 0.19 0.18 0.33 0.39 0.21 0.31 0.39 0.56 0.75 0.71 0.80 0.97 0.96 0.75 0.64 0.70 0.76 0.80 0.79
0.29 0.24 0.20 0.18 0.17 0.19 0.20 0.23 0.33 0.41 0.42 0.35 0.26 0.23 0.22 0.23 0.51 0.42 0.39 0.20 0.18 0.23 0.26 0.33 0.41 0.26 0.64 0.59 0.32 0.31 0.41 0.61 0.93 0.73 0.56 0.67 0.67 0.53 0.47 0.52 0.70 1.18 1.54
0.30 0.27 0.24 0.27 0.22 0.21 0.33 0.36 0.31 0.24 0.21 0.24 0.26 0.26 0.40 0.22 0.50 0.39 0.31 0.13 0.15 0.19 0.25 0.39 0.78 0.39 0.44 0.33 0.22 0.16 0.39 0.75 0.62 0.66 0.72 0.82 0.80 0.86 1.00 0.83 0.83 1.30 1.67
0.34 0.42 0.45 0.46 0.48 0.45 0.29 0.17 0.14 0.12 0.11 0.11 0.13 0.15 0.21 0.29 0.34 0.45 0.39 0.22 0.16 0.26 0.37 0.41 0.53 0.93 0.50 0.53 0.62 0.51 1.12 1.20 1.19 0.94 0.89 0.95 0.94 0.93 0.96 0.95 0.91 0.95 1.10
0.45 0.46 0.60 0.62 0.63 0.59 0.48 0.40 0.26 0.14 0.11 0.10 0.10 0.13 0.14 0.19 0.36 0.34 0.32 0.35 0.48 0.36 0.57 0.58 0.83 0.91 0.55 0.63 0.79 1.10 1.31 1.16 1.10 1.30 1.41 1.50 1.48 1.37 1.25 1.10 0.97 0.89 0.87
0.57 0.64 0.60 0.54 0.46 0.35 0.34 0.42 0.46 0.40 0.30 0.21 0.20 0.23 0.26 0.25 0.31 0.46 0.39 0.46 0.59 0.60 0.86 1.10 1.14 0.96 0.85 0.94 1.11 1.18 1.21 1.25 1.41 1.55 1.59 1.54 1.39 1.25 1.05 0.91 0.78 0.63 0.49
0.13 0.16 0.16 0.18 0.23 0.19 0.24 0.26 0.25 0.27 0.31 0.36 0.40 0.43 0.44 0.47 0.46 0.44 0.44 0.47 0.60 0.73 1.02 1.15 1.14 1.09 1.08 1.15 1.20 1.20 1.22 1.30 1.38 1.43 1.38 1.25 1.07 0.90 0.80 0.79 0.72 0.58 0.44
0.11 0.11 0.11 0.11 0.13 0.14 0.18 0.26 0.24 0.36 0.42 0.43 0.51 0.53 0.56 0.72 0.96 1.00 0.99 1.06 1.14 1.27 1.32 1.43 1.47 1.45 1.43 1.40 1.31 1.22 1.15 1.08 0.97 0.90 0.80 0.70 0.59 0.46 0.34 0.24 0.26 0.33 0.48
0.17 0.18 0.23 0.17 0.18 0.19 0.19 0.29 0.48 0.54 0.53 0.60 0.68 0.69 0.98 1.18 1.28 1.25 1.25 1.26 1.28 1.26 1.21 1.23 1.14 1.04 0.95 0.85 0.78 0.71 0.64 0.60 0.52 0.43 0.40 0.36 0.36 0.34 0.34 0.36 0.34 0.33 0.37
0.31 0.28 0.29 0.31 0.33 0.35 0.36 0.35 0.48 0.68 0.73 0.89 0.98 1.01 1.00 1.12 1.01 0.94 0.89 0.82 0.82 0.75 0.85 0.82 0.76 0.70 0.62 0.51 0.47 0.41 0.35 0.26 0.25 0.34 0.34 0.30 0.31 0.32 0.29 0.27 0.24 0.26 0.25
0.97 0.97 0.89 0.87 0.93 1.06 1.18 1.29 1.34 1.36 1.36 1.44 1.41 1.24 1.19 1.13 1.05 0.96 0.84 0.67 0.70 0.62 0.60 0.52 0.46 0.38 0.30 0.25 0.20 0.18 0.16 0.18 0.22 0.20 0.21 0.21 0.22 0.23 0.25 0.19 0.16 0.15 0.11
1.66 1.78 1.76 1.70 1.61 1.43 1.27 1.16 1.12 1.12 1.12 1.16 1.14 1.04 0.97 0.85 0.71 0.62 0.53 0.59 0.54 0.43 0.34 0.28 0.22 0.17 0.16 0.16 0.17 0.18 0.19 0.20 0.18 0.18 0.16 0.15 0.16 0.20 0.21 0.17 0.13 0.11 0.12
1.07 1.01 0.90 0.85 0.83 0.78 0.75 0.69 0.66 0.63 0.60 0.57 0.54 0.52 0.42 0.33 0.31 0.25 0.23 0.25 0.23 0.20 0.16 0.15 0.12 0.11 0.12 0.13 0.14 0.14 0.15 0.13 0.13 0.13 0.12 0.12 0.11 0.12 0.14 0.15 0.16 0.15 0.13
0.66 0.65 0.61 0.56 0.54 0.50 0.46 0.40 0.36 0.33 0.31 0.28 0.28 0.20 0.13 0.15 0.18 0.16 0.14 0.15 0.15 0.14 0.14 0.14 0.11 0.13 0.13 0.14 0.15 0.17 0.16 0.15 0.15 0.16 0.16 0.15 0.16 0.20 0.17 0.20 0.18 0.15 0.12
0.38 0.34 0.29 0.25 0.23 0.22 0.20 0.19 0.19 0.18 0.15 0.14 0.13 0.11 0.09 0.13 0.15 0.15 0.15 0.14 0.11 0.10 0.13 0.19 0.21 0.17 0.18 0.21 0.23 0.26 0.22 0.20 0.21 0.25 0.25 0.22 0.22 0.22 0.24 0.25 0.25 0.25 0.20
0.16 0.14 0.12 0.12 0.12 0.12 0.12 0.13 0.14 0.17 0.19 0.19 0.18 0.15 0.11 0.11 0.10 0.10 0.12 0.16 0.22 0.28 0.27 0.30 0.33 0.29 0.24 0.26 0.30 0.32 0.31 0.22 0.22 0.28 0.30 0.22 0.19 0.21 0.24 0.22 0.20 0.22 0.18
0.10 0.09 0.09 0.10 0.10 0.11 0.13 0.12 0.12 0.12 0.16 0.21 0.23 0.23 0.22 0.23 0.25 0.26 0.31 0.37 0.41 0.42 0.40 0.41 0.41 0.38 0.36 0.34 0.32 0.29 0.27 0.24 0.25 0.25 0.30 0.32 0.23 0.19 0.24 0.23 0.20 0.20 0.20
0.07 0.07 0.07 0.09 0.12 0.14 0.16 0.17 0.19 0.20 0.21 0.22 0.22 0.24 0.23 0.27 0.32 0.33 0.33 0.28 0.27 0.27 0.28 0.31 0.35 0.36 0.37 0.40 0.43 0.42 0.38 0.33 0.32 0.33 0.40 0.36 0.28 0.28 0.29 0.26 0.23 0.26 0.24
0.07 0.09 0.12 0.14 0.18 0.19 0.23 0.27 0.30 0.31 0.31 0.31 0.35 0.35 0.33 0.28 0.23 0.19 0.17 0.15 0.15 0.15 0.15 0.18 0.18 0.17 0.18 0.19 0.22 0.27 0.26 0.27 0.32 0.35 0.38 0.38 0.35 0.32 0.32 0.29 0.25 0.29 0.30

GFSGL_prec_precacc_090.txt.gz
Total_Precipitation_Accumulation
0.82 0.72 0.52 0.52 0.66 0.73 0.66 0.62 0.60 0.58 0.58 0.62 0.65 0.55 0.44 0.48 0.66 0.93 1.08 0.87 0.80 0.70 0.59 0.52 0.43 0.41 0.41 0.36 0.34 0.34 0.32 0.35 0.38 0.17 0.09 0.06 0.08 0.09 0.07 0.06 0.06 0.04 0.04
0.79 0.91 1.08 0.85 1.14 1.61 1.65 1.29 1.50 1.50 1.17 0.93 0.73 0.49 0.32 0.23 0.31 0.54 0.75 0.69 0.55 0.63 0.62 0.51 0.44 0.49 0.54 0.45 0.36 0.28 0.21 0.18 0.24 0.15 0.07 0.07 0.06 0.05 0.05 0.04 0.02 0.02 0.04
1.29 1.12 1.01 0.90 1.21 1.07 0.74 0.56 0.46 0.55 0.51 0.31 0.23 0.19 0.13 0.09 0.13 0.35 0.46 0.62 0.58 0.44 0.51 0.48 0.36 0.30 0.27 0.21 0.19 0.16 0.13 0.16 0.19 0.23 0.14 0.09 0.07 0.04 0.05 0.04 0.04 0.04 0.04
0.91 0.82 0.62 0.50 0.49 0.44 0.36 0.28 0.24 0.21 0.19 0.18 0.16 0.22 0.17 0.08 0.14 0.25 0.33 0.40 0.51 0.47 0.34 0.37 0.39 0.30 0.19 0.14 0.15 0.14 0.16 0.18 0.17 0.16 0.12 0.08 0.06 0.03 0.09 0.09 0.10 0.09 0.10
0.60 0.64 0.45 0.41 0.31 0.26 0.18 0.18 0.19 0.21 0.28 0.23 0.22 0.16 0.19 0.19 0.23 0.27 0.27 0.31 0.40 0.52 0.47 0.37 0.30 0.35 0.33 0.28 0.25 0.20 0.23 0.25 0.27 0.27 0.23 0.17 0.14 0.17 0.23 0.27 0.36 0.29 0.34
0.21 0.31 0.31 0.24 0.24 0.24 0.22 0.26 0.22 0.20 0.24 0.27 0.30 0.31 0.33 0.36 0.53 0.41 0.25 0.14 0.15 0.20 0.25 0.25 0.22 0.23 0.12 0.17 0.19 0.20 0.19 0.22 0.25 0.28 0.27 0.26 0.21 0.23 0.28 0.37 0.41 0.46 0.47
0.31 0.21 0.17 0.17 0.18 0.14 0.21 0.22 0.22 0.25 0.29 0.27 0.36 0.46 0.50 0.50 0.68 0.40 0.37 0.17 0.17 0.19 0.16 0.16 0.17 0.27 0.38 0.11 0.25 0.29 0.27 0.40 0.40 0.37 0.34 0.41 0.60 0.70 0.78 0.80 0.75 0.71 0.63
0.27 0.29 0.20 0.15 0.18 0.17 0.17 0.21 0.26 0.27 0.33 0.38 0.40 0.37 0.31 0.33 0.51 0.50 0.57 0.28 0.16 0.13 0.14 0.17 0.19 0.19 0.36 0.44 0.25 0.33 0.40 0.57 0.77 0.75 0.83 1.02 1.00 0.78 0.67 0.73 0.78 0.82 0.80
0.40 0.36 0.38 0.38 0.30 0.25 0.23 0.25 0.35 0.44 0.44 0.38 0.29 0.26 0.23 0.24 0.53 0.45 0.42 0.21 0.19 0.24 0.27 0.34 0.43 0.27 0.67 0.61 0.33 0.32 0.42 0.62 0.95 0.74 0.57 0.67 0.68 0.53 0.47 0.52 0.70 1.18 1.54
0.35 0.40 0.43 0.50 0.50 0.45 0.49 0.46 0.36 0.29 0.25 0.27 0.31 0.30 0.47 0.26 0.55 0.44 0.35 0.16 0.18 0.21 0.27 0.41 0.82 0.41 0.47 0.35 0.23 0.16 0.40 0.75 0.62 0.66 0.72 0.82 0.80 0.86 1.00 0.83 0.83 1.30 1.67
0.43 0.51 0.60 0.67 0.77 0.73 0.49 0.34 0.29 0.24 0.23 0.22 0.23 0.26 0.30 0.39 0.50 0.59 0.51 0.30 0.23 0.32 0.43 0.46 0.57 0.95 0.51 0.54 0.62 0.51 1.12 1.20 1.19 0.94 0.89 0.95 0.94 0.93 0.96 0.95 0.91 0.95 1.10
0.59 0.56 0.71 0.78 0.84 0.87 0.82 0.69 0.47 0.32 0.27 0.23 0.21 0.22 0.23 0.29 0.47 0.48 0.40 0.39 0.51 0.38 0.58 0.59 0.83 0.91 0.55 0.63 0.79 1.10 1.31 1.16 1.10 1.30 1.41 1.50 1.48 1.37 1.25 1.10 0.97 0.89 0.87
0.66 0.74 0.69 0.62 0.58 0.54 0.58 0.70 0.78 0.73 0.57 0.42 0.31 0.30 0.31 0.29 0.35 0.49 0.44 0.51 0.63 0.63 0.88 1.11 1.14 0.96 0.85 0.94 1.11 1.18 1.21 1.25 1.41 1.55 1.59 1.54 1.39 1.25 1.05 0.91 0.78 0.63 0.49
0.15 0.21 0.23 0.27 0.32 0.28 0.34 0.40 0.42 0.47 0.55 0.63 0.68 0.66 0.60 0.55 0.51 0.47 0.47 0.48 0.61 0.75 1.03 1.16 1.14 1.09 1.08 1.16 1.20 1.20 1.22 1.30 1.38 1.43 1.38 1.25 1.07 0.90 0.80 0.79 0.72 0.58 0.44
0.12 0.14 0.14 0.16 0.20 0.21 0.25 0.33 0.32 0.46 0.51 0.52 0.61 0.65 0.70 0.86 1.09 1.09 1.04 1.09 1.15 1.28 1.33 1.44 1.47 1.45 1.43 1.40 1.31 1.22 1.15 1.08 0.97 0.90 0.80 0.70 0.59 0.46 0.34 0.24 0.26 0.33 0.48
0.17 0.18 0.23 0.17 0.18 0.19 0.19 0.29 0.49 0.55 0.53 0.60 0.68 0.70 0.98 1.18 1.28 1.25 1.25 1.26 1.28 1.26 1.21 1.23 1.14 1.04 0.95 0.85 0.78 0.71 0.64 0.60 0.52 0.43 0.40 0.36 0.36 0.34 0.34 0.36 0.34 0.33 0.37
0.31 0.28 0.29 0.31 0.33 0.35 0.36 0.35 0.48 0.68 0.73 0.89 0.98 1.01 1.00 1.12 1.01 0.94 0.89 0.82 0.82 0.75 0.85 0.82 0.76 0.70 0.62 0.51 0.47 0.41 0.35 0.26 0.25 0.34 0.34 0.30 0.31 0.32 0.29 0.27 0.24 0.26 0.25
0.97 0.97 0.89 0.87 0.93 1.06 1.18 1.29 1.34 1.37 1.36 1.44 1.41 1.24 1.19 1.13 1.05 0.96 0.84 0.67 0.70 0.62 0.60 0.52 0.46 0.38 0.30 0.25 0.20 0.18 0.16 0.18 0.22 0.20 0.21 0.21 0.22 0.23 0.25 0.19 0.16 0.15 0.11
1.66 1.78 1.76 1.70 1.61 1.43 1.27 1.16 1.12 1.12 1.12 1.16 1.14 1.04 0.97 0.85 0.71 0.62 0.53 0.59 0.54 0.43 0.34 0.28 0.22 0.17 0.16 0.16 0.17 0.18 0.19 0.20 0.18 0.18 0.16 0.15 0.16 0.20 0.21 0.17 0.13 0.11 0.12
1.07 1.01 0.90 0.85 0.83 0.78 0.75 0.69 0.66 0.63 0.60 0.57 0.54 0.52 0.42 0.33 0.31 0.25 0.23 0.25 0.23 0.20 0.16 0.15 0.12 0.11 0.12 0.13 0.14 0.14 0.15 0.13 0.13 0.13 0.12 0.12 0.11 0.12 0.14 0.15 0.16 0.15 0.13
0.66 0.65 0.61 0.56 0.54 0.50 0.46 0.40 0.36 0.33 0.31 0.28 0.28 0.20 0.13 0.15 0.18 0.16 0.14 0.15 0.15 0.14 0.14 0.14 0.11 0.13 0.13 0.14 0.15 0.17 0.16 0.15 0.15 0.16 0.16 0.15 0.16 0.20 0.17 0.20 0.18 0.15 0.12
0.38 0.34 0.29 0.25 0.23 0.22 0.20 0.19 0.19 0.18 0.15 0.14 0.13 0.11 0.09 0.13 0.15 0.15 0.15 0.14 0.11 0.10 0.13 0.19 0.21 0.17 0.18 0.21 0.23 0.26 0.22 0.20 0.21 0.25 0.25 0.22 0.22 0.22 0.24 0.25 0.25 0.25 0.20
0.16 0.14 0.12 0.12 0.12 0.12 0.12 0.13 0.14 0.17 0.19 0.19 0.18 0.15 0.11 0.11 0.10 0.10 0.12 0.16 0.22 0.28 0.27 0.30 0.33 0.29 0.24 0.26 0.30 0.32 0.31 0.22 0.22 0.28 0.30 0.22 0.19 0.21 0.24 0.22 0.20 0.22 0.18
0.10 0.09 0.09 0.10 0.10 0.11 0.13 0.12 0.12 0.12 0.16 0.21 0.23 0.23 0.22 0.23 0.25 0.26 0.31 0.37 0.41 0.42 0.40 0.41 0.41 0.38 0.36 0.34 0.32 0.29 0.27 0.24 0.25 0.25 0.30 0.32 0.24 0.19 0.24 0.23 0.20 0.20 0.20
0.07 0.07 0.07 0.09 0.12 0.14 0.17 0.17 0.19 0.20 0.22 0.22 0.22 0.24 0.23 0.27 0.32 0.33 0.33 0.28 0.27 0.27 0.28 0.31 0.35 0.36 0.37 0.40 0.43 0.42 0.38 0.33 0.32 0.33 0.40 0.36 0.28 0.28 0.29 0.26 0.23 0.26 0.24
0.07 0.09 0.12 0.14 0.18 0.19 0.24 0.28 0.30 0.31 0.32 0.31 0.35 0.36 0.34 0.29 0.23 0.19 0.17 0.15 0.15 0.15 0.15 0.18 0.18 0.17 0.18 0.19 0.22 0.27 0.26 0.27 0.32 0.35 0.38 0.38 0.35 0.32 0.32 0.29 0.25 0.29 0.30

GFSGL_prec_precacc_093.txt.gz
Total_Precipitation_Accumulation
1.04 0.95 0.78 0.65 0.75 0.77 0.66 0.62 0.60 0.58 0.58 0.62 0.65 0.55 0.44 0.48 0.66 0.96 1.21 1.02 1.04 0.94 0.80 0.76 0.60 0.50 0.47 0.38 0.35 0.36 0.34 0.36 0.39 0.20 0.10 0.07 0.08 0.09 0.07 0.06 0.06 0.04 0.04
1.08 1.18 1.31 0.97 1.20 1.64 1.65 1.29 1.50 1.50 1.17 0.93 0.73 0.49 0.32 0.23 0.31 0.58 0.93 0.97 0.80 0.84 0.83 0.72 0.63 0.61 0.61 0.50 0.39 0.32 0.26 0.20 0.26 0.16 0.08 0.07 0.06 0.05 0.05 0.04 0.02 0.02 0.04
1.66 1.45 1.28 1.02 1.25 1.09 0.75 0.56 0.46 0.55 0.51 0.31 0.23 0.19 0.14 0.09 0.13 0.37 0.57 0.85 0.87 0.65 0.69 0.73 0.57 0.46 0.40 0.34 0.28 0.23 0.17 0.18 0.21 0.24 0.14 0.09 0.07 0.05 0.05 0.04 0.04 0.04 0.04
1.23 1.37 1.03 0.63 0.53 0.46 0.36 0.28 0.24 0.21 0.20 0.18 0.17 0.23 0.17 0.08 0.15 0.30 0.40 0.56 0.74 0.71 0.61 0.64 0.60 0.48 0.33 0.28 0.28 0.23 0.22 0.21 0.18 0.16 0.12 0.10 0.09 0.05 0.11 0.09 0.10 0.09 0.10
0.84 1.31 1.26 0.71 0.36 0.26 0.18 0.18 0.19 0.21 0.28 0.24 0.23 0.16 0.19 0.19 0.24 0.30 0.34 0.43 0.58 0.68 0.63 0.59 0.43 0.47 0.46 0.38 0.36 0.29 0.28 0.30 0.31 0.30 0.25 0.20 0.17 0.21 0.25 0.28 0.36 0.31 0.37
0.43 0.83 1.10 0.89 0.31 0.25 0.23 0.26 0.22 0.20 0.24 0.27 0.30 0.31 0.34 0.37 0.54 0.42 0.28 0.17 0.18 0.27 0.33 0.34 0.34 0.36 0.27 0.32 0.32 0.32 0.29 0.29 0.29 0.29 0.28 0.27 0.21 0.23 0.28 0.37 0.42 0.47 0.49
0.41 0.47 0.42 0.57 0.42 0.21 0.23 0.22 0.22 0.25 0.29 0.27 0.37 0.47 0.51 0.51 0.70 0.44 0.42 0.20 0.20 0.21 0.22 0.25 0.23 0.37 0.51 0.20 0.31 0.33 0.30 0.42 0.42 0.37 0.34 0.42 0.60 0.71 0.78 0.81 0.76 0.73 0.67
0.41 0.45 0.49 0.39 0.42 0.24 0.22 0.22 0.27 0.27 0.34 0.39 0.41 0.39 0.32 0.35 0.54 0.54 0.60 0.29 0.19 0.18 0.17 0.20 0.21 0.22 0.41 0.49 0.27 0.33 0.41 0.58 0.77 0.75 0.83 1.02 1.01 0.80 0.69 0.75 0.81 0.85 0.83
0.44 0.56 0.60 0.55 0.47 0.33 0.30 0.30 0.38 0.45 0.44 0.38 0.30 0.27 0.25 0.27 0.56 0.48 0.46 0.21 0.20 0.24 0.29 0.36 0.44 0.27 0.68 0.63 0.33 0.34 0.45 0.65 0.98 0.77 0.59 0.70 0.70 0.55 0.48 0.52 0.70 1.18 1.54
0.41 0.47 0.56 0.65 0.67 0.74 0.73 0.57 0.43 0.35 0.29 0.29 0.32 0.31 0.48 0.27 0.59 0.49 0.41 0.18 0.20 0.21 0.28 0.45 0.86 0.44 0.51 0.38 0.24 0.16 0.42 0.80 0.67 0.69 0.74 0.83 0.81 0.86 1.00 0.83 0.83 1.30 1.67
0.53 0.57 0.65 0.77 0.92 0.90 0.73 0.60 0.51 0.40 0.34 0.31 0.29 0.29 0.34 0.44 0.55 0.66 0.59 0.37 0.32 0.40 0.47 0.50 0.65 1.04 0.57 0.60 0.67 0.54 1.15 1.22 1.20 0.94 0.89 0.95 0.94 0.93 0.96 0.95 0.91 0.95 1.10
0.67 0.65 0.78 0.83 0.90 0.97 0.97 0.88 0.69 0.56 0.49 0.40 0.34 0.35 0.36 0.46 0.65 0.62 0.53 0.51 0.63 0.46 0.66 0.65 0.89 0.96 0.59 0.65 0.81 1.11 1.31 1.16 1.10 1.30 1.41 1.50 1.48 1.37 1.25 1.10 0.97 0.89 0.87
0.70 0.79 0.76 0.70 0.64 0.58 0.63 0.78 0.88 0.86 0.74 0.59 0.46 0.44 0.45 0.44 0.55 0.72 0.66 0.70 0.78 0.72 0.95 1.16 1.17 0.97 0.86 0.94 1.11 1.18 1.21 1.25 1.41 1.55 1.59 1.54 1.39 1.25 1.05 0.91 0.78 0.63 0.49
0.17 0.25 0.27 0.31 0.36 0.33 0.39 0.44 0.46 0.54 0.65 0.77 0.82 0.81 0.75 0.70 0.65 0.60 0.56 0.56 0.67 0.80 1.09 1.21 1.19 1.12 1.09 1.17 1.21 1.21 1.22 1.30 1.38 1.43 1.38 1.25 1.07 0.90 0.80 0.79 0.72 0.58 0.44
0.14 0.17 0.18 0.20 0.24 0.26 0.31 0.39 0.37 0.52 0.58 0.62 0.74 0.79 0.85 1.01 1.27 1.25 1.19 1.23 1.28 1.40 1.42 1.51 1.53 1.50 1.48 1.44 1.34 1.24 1.16 1.09 0.98 0.90 0.80 0.70 0.59 0.46 0.34 0.24 0.26 0.33 0.48
0.17 0.19 0.24 0.18 0.19 0.21 0.22 0.33 0.52 0.58 0.55 0.62 0.70 0.72 1.02 1.24 1.35 1.30 1.30 1.31 1.32 1.30 1.25 1.26 1.17 1.06 0.96 0.86 0.78 0.71 0.64 0.60 0.52 0.43 0.40 0.36 0.36 0.34 0.34 0.36 0.34 0.33 0.37
0.31 0.28 0.29 0.31 0.33 0.36 0.36 0.35 0.49 0.68 0.74 0.90 0.99 1.01 1.00 1.12 1.01 0.94 0.89 0.82 0.82 0.75 0.85 0.82 0.76 0.70 0.62 0.52 0.47 0.41 0.35 0.26 0.25 0.34 0.34 0.30 0.31 0.32 0.29 0.27 0.24 0.26 0.25
0.97 0.97 0.89 0.87 0.93 1.06 1.18 1.29 1.34 1.37 1.36 1.44 1.42 1.25 1.19 1.13 1.05 0.96 0.84 0.67 0.70 0.62 0.60 0.52 0.46 0.38 0.30 0.25 0.20 0.18 0.16 0.18 0.22 0.20 0.21 0.21 0.22 0.23 0.25 0.19 0.16 0.15 0.11
1.66 1.78 1.76 1.70 1.61 1.43 1.27 1.16 1.12 1.12 1.12 1.16 1.14 1.04 0.97 0.85 0.71 0.62 0.53 0.59 0.54 0.43 0.34 0.28 0.22 0.17 0.16 0.16 0.17 0.18 0.19 0.20 0.18 0.18 0.16 0.15 0.16 0.20 0.21 0.17 0.13 0.11 0.12
1.07 1.01 0.90 0.85 0.83 0.78 0.75 0.69 0.66 0.63 0.60 0.57 0.54 0.52 0.42 0.33 0.31 0.25 0.23 0.25 0.23 0.20 0.16 0.15 0.12 0.11 0.12 0.13 0.14 0.14 0.15 0.13 0.13 0.13 0.12 0.12 0.11 0.12 0.14 0.15 0.16 0.15 0.13
0.66 0.65 0.61 0.56 0.54 0.50 0.46 0.40 0.36 0.33 0.31 0.28 0.28 0.20 0.13 0.15 0.18 0.16 0.14 0.15 0.15 0.14 0.14 0.14 0.11 0.13 0.13 0.14 0.15 0.17 0.16 0.15 0.15 0.16 0.16 0.15 0.16 0.20 0.17 0.20 0.18 0.15 0.12
0.38 0.34 0.29 0.25 0.23 0.22 0.20 0.19 0.19 0.18 0.15 0.14 0.13 0.11 0.09 0.13 0.15 0.15 0.15 0.14 0.11 0.10 0.13 0.19 0.21 0.17 0.18 0.21 0.23 0.26 0.22 0.20 0.21 0.25 0.25 0.22 0.22 0.22 0.24 0.25 0.25 0.25 0.20
0.16 0.14 0.12 0.12 0.12 0.12 0.12 0.13 0.14 0.17 0.19 0.19 0.18 0.15 0.11 0.11 0.10 0.10 0.12 0.16 0.22 0.28 0.27 0.30 0.33 0.29 0.24 0.26 0.30 0.32 0.31 0.22 0.22 0.28 0.30 0.22 0.19 0.21 0.24 0.22 0.20 0.22 0.18
0.10 0.09 0.09 0.10 0.10 0.11 0.13 0.12 0.12 0.12 0.16 0.21 0.23 0.23 0.22 0.23 0.25 0.26 0.31 0.37 0.41 0.42 0.40 0.41 0.41 0.38 0.36 0.34 0.32 0.29 0.27 0.24 0.25 0.25 0.30 0.32 0.24 0.19 0.24 0.23 0.20 0.20 0.20
0.07 0.07 0.07 0.09 0.12 0.14 0.17 0.17 0.19 0.21 0.22 0.22 0.22 0.24 0.23 0.27 0.32 0.33 0.33 0.28 0.27 0.27 0.28 0.31 0.35 0.36 0.37 0.40 0.43 0.42 0.38 0.33 0.32 0.33 0.40 0.36 0.28 0.28 0.29 0.26 0.23 0.26 0.24
0.07 0.09 0.12 0.15 0.18 0.20 0.24 0.28 0.30 0.31 0.32 0.32 0.35 0.36 0.34 0.29 0.23 0.19 0.17 0.15 0.15 0.15 0.15 0.18 0.18 0.17 0.18 0.19 0.22 0.27 0.26 0.27 0.32 0.35 0.38 0.38 0.35 0.32 0.32 0.29 0.25 0.29 0.30

GFSGL_prec_precacc_096.txt.gz
Total_Precipitation_Accumulation
1.13 1.13 0.94 0.76 0.87 0.89 0.81 0.72 0.65 0.59 0.59 0.62 0.65 0.55 0.45 0.49 0.67 0.96 1.21 1.04 1.10 1.10 1.00 0.93 0.73 0.61 0.65 0.55 0.46 0.41 0.37 0.38 0.41 0.26 0.11 0.07 0.09 0.10 0.08 0.06 0.06 0.04 0.05
1.14 1.27 1.41 1.07 1.34 1.75 1.76 1.36 1.53 1.50 1.17 0.93 0.73 0.49 0.32 0.23 0.31 0.58 0.93 0.99 0.86 0.94 1.02 0.97 0.89 0.76 0.76 0.67 0.49 0.39 0.30 0.26 0.27 0.23 0.15 0.09 0.08 0.07 0.06 0.05 0.04 0.03 0.05
1.76 1.56 1.47 1.21 1.41 1.17 0.80 0.58 0.46 0.55 0.51 0.31 0.23 0.19 0.14 0.09 0.13 0.37 0.57 0.91 1.01 0.85 0.83 0.92 0.75 0.65 0.59 0.44 0.33 0.29 0.24 0.26 0.30 0.29 0.19 0.13 0.10 0.07 0.06 0.05 0.04 0.05 0.04
1.34 1.47 1.18 0.99 0.83 0.56 0.38 0.28 0.24 0.21 0.20 0.18 0.17 0.23 0.18 0.08 0.16 0.30 0.40 0.58 0.83 0.92 0.83 0.77 0.81 0.67 0.54 0.41 0.35 0.30 0.30 0.30 0.28 0.24 0.17 0.14 0.12 0.09 0.14 0.11 0.12 0.10 0.10
0.91 1.39 1.47 1.13 0.82 0.65 0.26 0.19 0.20 0.21 0.28 0.24 0.23 0.16 0.19 0.19 0.24 0.31 0.38 0.46 0.63 0.81 0.84 0.83 0.68 0.77 0.73 0.61 0.50 0.38 0.35 0.37 0.39 0.37 0.32 0.26 0.23 0.27 0.31 0.33 0.41 0.33 0.38
0.49 0.93 1.34 1.76 0.97 0.82 0.63 0.28 0.23 0.20 0.24 0.27 0.30 0.31 0.34 0.37 0.55 0.43 0.31 0.22 0.23 0.36 0.48 0.57 0.66 0.66 0.53 0.61 0.55 0.51 0.44 0.41 0.40 0.39 0.36 0.35 0.29 0.30 0.36 0.45 0.49 0.54 0.55
0.49 0.77 0.87 0.96 1.39 0.93 0.74 0.29 0.23 0.25 0.29 0.28 0.37 0.47 0.51 0.51 0.71 0.44 0.44 0.22 0.25 0.23 0.27 0.36 0.43 0.71 0.77 0.39 0.53 0.55 0.52 0.62 0.57 0.49 0.43 0.47 0.64 0.73 0.80 0.83 0.77 0.73 0.67
0.45 0.56 0.69 0.56 0.93 1.07 0.61 0.31 0.29 0.28 0.34 0.39 0.41 0.39 0.32 0.35 0.55 0.56 0.64 0.31 0.26 0.25 0.21 0.23 0.29 0.36 0.61 0.67 0.46 0.56 0.57 0.68 0.86 0.80 0.86 1.06 1.03 0.81 0.70 0.77 0.83 0.89 0.89
0.49 0.64 0.78 0.84 0.86 0.80 0.73 0.50 0.47 0.49 0.45 0.39 0.30 0.27 0.25 0.27 0.57 0.50 0.48 0.22 0.20 0.27 0.32 0.41 0.48 0.31 0.77 0.73 0.42 0.43 0.54 0.71 1.02 0.82 0.62 0.72 0.72 0.57 0.50 0.54 0.73 1.22 1.57
0.45 0.50 0.60 0.80 0.95 1.00 1.01 0.87 0.59 0.44 0.34 0.32 0.33 0.32 0.49 0.27 0.60 0.51 0.43 0.19 0.23 0.23 0.30 0.48 0.94 0.50 0.58 0.41 0.25 0.18 0.46 0.85 0.73 0.77 0.79 0.87 0.83 0.88 1.02 0.83 0.84 1.30 1.67
0.55 0.59 0.66 0.78 0.99 1.03 0.88 0.78 0.66 0.55 0.43 0.36 0.34 0.33 0.36 0.47 0.57 0.68 0.62 0.38 0.35 0.43 0.51 0.54 0.70 1.09 0.61 0.62 0.69 0.56 1.19 1.24 1.23 0.98 0.94 1.00 0.97 0.94 0.97 0.95 0.91 0.95 1.10
0.67 0.66 0.79 0.83 0.91 1.00 1.03 0.96 0.79 0.68 0.62 0.54 0.47 0.46 0.47 0.57 0.77 0.72 0.61 0.58 0.69 0.51 0.74 0.74 0.99 1.06 0.66 0.71 0.84 1.16 1.35 1.18 1.10 1.30 1.42 1.50 1.48 1.37 1.25 1.10 0.97 0.89 0.87
0.70 0.79 0.76 0.70 0.64 0.59 0.64 0.79 0.91 0.92 0.82 0.73 0.63 0.62 0.65 0.63 0.73 0.87 0.79 0.83 0.90 0.82 1.07 1.31 1.33 1.08 0.91 0.97 1.12 1.19 1.21 1.25 1.41 1.55 1.59 1.54 1.39 1.25 1.05 0.91 0.78 0.63 0.49
0.17 0.25 0.28 0.31 0.37 0.33 0.39 0.45 0.48 0.57 0.69 0.81 0.88 0.88 0.85 0.81 0.77 0.74 0.70 0.70 0.80 0.93 1.20 1.29 1.24 1.15 1.11 1.18 1.21 1.21 1.22 1.30 1.38 1.43 1.38 1.25 1.07 0.90 0.80 0.79 0.72 0.58 0.44
0.14 0.17 0.18 0.20 0.24 0.26 0.32 0.41 0.39 0.55 0.61 0.64 0.78 0.84 0.90 1.08 1.36 1.34 1.28 1.31 1.37 1.49 1.52 1.63 1.65 1.61 1.57 1.51 1.39 1.27 1.19 1.10 0.99 0.91 0.81 0.71 0.60 0.46 0.35 0.25 0.26 0.33 0.48
0.17 0.19 0.24 0.18 0.19 0.22 0.22 0.34 0.53 0.60 0.58 0.64 0.74 0.76 1.07 1.29 1.40 1.35 1.35 1.35 1.36 1.34 1.28 1.31 1.23 1.12 1.01 0.91 0.83 0.75 0.67 0.63 0.54 0.45 0.41 0.36 0.36 0.35 0.35 0.36 0.34 0.33 0.37
0.31 0.28 0.29 0.31 0.34 0.36 0.37 0.35 0.49 0.69 0.75 0.91 1.00 1.02 1.01 1.13 1.01 0.94 0.89 0.83 0.82 0.75 0.86 0.83 0.77 0.71 0.63 0.53 0.49 0.42 0.37 0.28 0.27 0.36 0.35 0.31 0.32 0.33 0.29 0.27 0.24 0.26 0.25
0.97 0.97 0.89 0.87 0.93 1.06 1.18 1.29 1.34 1.37 1.36 1.44 1.42 1.25 1.20 1.13 1.05 0.96 0.84 0.67 0.70 0.62 0.60 0.52 0.46 0.38 0.30 0.25 0.20 0.18 0.16 0.18 0.22 0.21 0.21 0.21 0.22 0.23 0.25 0.19 0.16 0.15 0.11
1.66 1.78 1.76 1.70 1.61 1.43 1.27 1.16 1.12 1.12 1.12 1.16 1.14 1.04 0.98 0.85 0.71 0.62 0.53 0.59 0.54 0.43 0.34 0.28 0.22 0.17 0.16 0.16 0.17 0.18 0.19 0.20 0.18 0.18 0.16 0.15 0.16 0.20 0.21 0.17 0.13 0.11 0.12
1.07 1.01 0.90 0.85 0.83 0.78 0.75 0.69 0.66 0.63 0.60 0.57 0.54 0.52 0.42 0.33 0.31 0.25 0.23 0.25 0.23 0.20 0.16 0.15 0.12 0.11 0.12 0.13 0.14 0.14 0.15 0.13 0.13 0.13 0.12 0.12 0.11 0.12 0.14 0.15 0.16 0.15 0.13
0.66 0.65 0.61 0.56 0.54 0.50 0.46 0.40 0.36 0.33 0.31 0.28 0.28 0.20 0.13 0.15 0.18 0.16 0.14 0.15 0.15 0.14 0.14 0.14 0.11 0.13 0.13 0.14 0.15 0.17 0.16 0.15 0.15 0.16 0.16 0.15 0.16 0.20 0.17 0.20 0.18 0.15 0.12
0.38 0.34 0.29 0.25 0.23 0.22 0.20 0.19 0.19 0.18 0.15 0.14 0.13 0.11 0.09 0.13 0.15 0.15 0.15 0.14 0.11 0.10 0.13 0.19 0.21 0.17 0.18 0.21 0.23 0.26 0.22 0.20 0.21 0.25 0.25 0.22 0.22 0.22 0.24 0.25 0.25 0.25 0.20
0.16 0.14 0.12 0.12 0.12 0.12 0.12 0.13 0.14 0.17 0.19 0.19 0.18 0.15 0.11 0.11 0.10 0.10 0.12 0.16 0.22 0.28 0.27 0.30 0.33 0.29 0.24 0.26 0.30 0.32 0.31 0.22 0.22 0.28 0.30 0.22 0.19 0.21 0.24 0.22 0.20 0.22 0.18
0.10 0.09 0.09 0.10 0.10 0.11 0.13 0.12 0.12 0.12 0.16 0.21 0.23 0.23 0.22 0.23 0.25 0.26 0.31 0.37 0.41 0.42 0.40 0.41 0.41 0.38 0.36 0.34 0.32 0.29 0.27 0.24 0.25 0.25 0.30 0.32 0.24 0.19 0.24 0.23 0.20 0.20 0.20
0.07 0.07 0.07 0.09 0.12 0.14 0.17 0.17 0.20 0.21 0.22 0.22 0.22 0.24 0.23 0.27 0.32 0.33 0.33 0.28 0.27 0.27 0.28 0.31 0.35 0.36 0.37 0.40 0.43 0.42 0.38 0.33 0.32 0.33 0.40 0.36 0.28 0.28 0.29 0.26 0.23 0.26 0.24
0.07 0.09 0.12 0.15 0.18 0.20 0.25 0.29 0.31 0.31 0.32 0.32 0.35 0.36 0.34 0.29 0.23 0.19 0.17 0.15 0.15 0.15 0.15 0.18 0.18 0.17 0.18 0.19 0.22 0.27 0.26 0.27 0.32 0.35 0.38 0.38 0.35 0.32 0.32 0.29 0.25 0.29 0.30

GFSGL_prec_precacc_099.txt.gz
Total_Precipitation_Accumulation
1.26 1.28 1.07 0.89 0.92 0.92 0.85 0.76 0.82 0.74 0.75 0.65 0.67 0.56 0.45 0.49 0.68 0.98 1.23 1.05 1.11 1.11 1.02 0.96 0.76 0.65 0.69 0.58 0.51 0.48 0.43 0.43 0.46 0.30 0.12 0.07 0.09 0.10 0.08 0.06 0.06 0.04 0.05
1.22 1.37 1.45 1.17 1.47 1.79 1.79 1.40 1.56 1.56 1.20 0.94 0.73 0.50 0.33 0.24 0.32 0.58 0.94 0.99 0.87 0.94 1.03 1.04 0.99 0.84 0.80 0.72 0.61 0.50 0.36 0.30 0.30 0.25 0.16 0.09 0.08 0.07 0.07 0.06 0.05 0.03 0.05
1.85 1.67 1.52 1.26 1.48 1.25 0.85 0.64 0.50 0.56 0.52 0.32 0.24 0.19 0.14 0.09 0.13 0.37 0.57 0.91 1.01 0.85 0.86 0.97 0.85 0.77 0.65 0.50 0.43 0.41 0.35 0.32 0.32 0.32 0.24 0.14 0.10 0.07 0.07 0.06 0.07 0.06 0.05
1.39 1.53 1.24 1.07 0.97 0.70 0.51 0.36 0.28 0.23 0.20 0.18 0.17 0.23 0.18 0.08 0.16 0.31 0.41 0.58 0.83 0.92 0.86 0.87 0.92 0.78 0.62 0.49 0.45 0.41 0.41 0.39 0.32 0.31 0.23 0.17 0.14 0.11 0.16 0.15 0.14 0.12 0.12
1.04 1.49 1.51 1.18 0.92 0.87 0.67 0.45 0.24 0.22 0.28 0.24 0.23 0.16 0.19 0.19 0.24 0.31 0.38 0.47 0.63 0.81 0.85 0.87 0.77 0.89 0.87 0.73 0.61 0.53 0.51 0.47 0.46 0.44 0.39 0.31 0.27 0.31 0.37 0.42 0.50 0.39 0.44
0.64 1.01 1.37 1.81 1.15 1.12 1.20 1.18 0.60 0.24 0.26 0.27 0.30 0.32 0.34 0.37 0.55 0.43 0.31 0.22 0.25 0.38 0.50 0.63 0.82 0.87 0.79 0.87 0.83 0.76 0.67 0.54 0.47 0.45 0.44 0.43 0.34 0.35 0.45 0.60 0.63 0.65 0.65
0.53 0.81 0.92 1.08 1.50 1.09 1.24 1.22 1.18 0.47 0.31 0.30 0.38 0.47 0.51 0.51 0.71 0.45 0.45 0.22 0.25 0.25 0.28 0.40 0.53 0.96 1.12 0.67 0.86 0.91 0.85 0.88 0.72 0.62 0.54 0.58 0.71 0.80 0.90 0.96 0.88 0.83 0.75
0.46 0.62 0.75 0.62 1.06 1.36 1.04 0.98 0.93 0.55 0.38 0.41 0.42 0.39 0.32 0.35 0.56 0.57 0.65 0.31 0.26 0.26 0.23 0.26 0.34 0.47 0.94 1.05 0.77 0.88 0.90 0.99 1.13 0.99 1.02 1.18 1.15 0.91 0.77 0.84 0.90 0.94 0.93
0.53 0.67 0.81 0.90 0.95 1.06 1.29 1.09 1.03 0.80 0.51 0.40 0.31 0.27 0.25 0.27 0.58 0.52 0.49 0.22 0.21 0.29 0.37 0.45 0.52 0.33 0.83 0.90 0.58 0.58 0.70 0.92 1.22 1.00 0.77 0.84 0.83 0.67 0.58 0.60 0.77 1.26 1.63
0.48 0.54 0.65 0.84 1.02 1.23 1.43 1.43 1.19 0.90 0.51 0.39 0.36 0.33 0.50 0.27 0.61 0.53 0.44 0.19 0.24 0.25 0.31 0.51 0.97 0.53 0.63 0.48 0.33 0.28 0.56 0.96 0.85 0.87 0.88 0.93 0.89 0.94 1.07 0.87 0.90 1.37 1.75
0.57 0.61 0.67 0.79 1.00 1.13 1.11 1.08 1.12 1.03 0.79 0.53 0.46 0.41 0.42 0.52 0.60 0.71 0.63 0.39 0.35 0.44 0.52 0.56 0.72 1.13 0.64 0.67 0.73 0.58 1.24 1.29 1.30 1.03 1.00 1.06 1.02 0.97 1.00 0.97 0.93 0.97 1.12
0.67 0.66 0.79 0.83 0.91 1.01 1.04 1.02 0.92 0.87 0.93 0.84 0.64 0.62 0.59 0.67 0.86 0.78 0.65 0.62 0.72 0.53 0.77 0.76 1.05 1.12 0.71 0.76 0.89 1.22 1.40 1.20 1.11 1.31 1.43 1.52 1.50 1.39 1.28 1.13 0.99 0.90 0.87
0.70 0.79 0.77 0.70 0.64 0.59 0.64 0.79 0.91 0.93 0.84 0.78 0.72 0.71 0.74 0.74 0.85 0.97 0.89 0.91 0.97 0.87 1.13 1.39 1.42 1.14 0.96 1.04 1.20 1.24 1.22 1.25 1.42 1.55 1.59 1.55 1.40 1.25 1.05 0.91 0.78 0.63 0.49
0.17 0.25 0.28 0.31 0.37 0.33 0.39 0.45 0.48 0.57 0.69 0.82 0.89 0.90 0.89 0.86 0.83 0.80 0.76 0.76 0.87 0.99 1.28 1.38 1.32 1.23 1.17 1.24 1.26 1.24 1.24 1.31 1.39 1.44 1.39 1.27 1.08 0.91 0.81 0.80 0.72 0.58 0.44
0.14 0.17 0.18 0.20 0.25 0.27 0.32 0.42 0.40 0.57 0.61 0.65 0.78 0.84 0.91 1.09 1.40 1.37 1.30 1.34 1.40 1.53 1.57 1.68 1.72 1.68 1.64 1.58 1.46 1.35 1.25 1.15 1.04 0.96 0.85 0.75 0.63 0.48 0.36 0.26 0.27 0.34 0.49
0.17 0.19 0.24 0.18 0.19 0.22 0.22 0.34 0.54 0.62 0.59 0.64 0.74 0.76 1.08 1.30 1.41 1.36 1.35 1.36 1.37 1.35 1.29 1.33 1.25 1.15 1.05 0.94 0.86 0.78 0.71 0.66 0.57 0.47 0.43 0.38 0.37 0.36 0.36 0.36 0.34 0.33 0.37
0.31 0.28 0.29 0.31 0.34 0.36 0.37 0.35 0.49 0.70 0.75 0.92 1.00 1.03 1.01 1.13 1.01 0.94 0.89 0.83 0.82 0.75 0.86 0.83 0.77 0.72 0.64 0.54 0.50 0.44 0.39 0.30 0.29 0.38 0.37 0.32 0.33 0.34 0.30 0.28 0.24 0.26 0.25
0.97 0.97 0.89 0.87 0.93 1.06 1.18 1.29 1.34 1.37 1.36 1.45 1.43 1.25 1.20 1.13 1.05 0.96 0.84 0.67 0.70 0.62 0.60 0.52 0.46 0.38 0.30 0.25 0.20 0.18 0.16 0.18 0.22 0.21 0.21 0.22 0.22 0.23 0.25 0.19 0.16 0.15 0.11
1.66 1.78 1.76 1.70 1.61 1.43 1.27 1.16 1.12 1.12 1.12 1.16 1.14 1.04 0.98 0.85 0.71 0.62 0.53 0.59 0.54 0.43 0.34 0.28 0.22 0.17 0.16 0.16 0.17 0.18 0.19 0.20 0.18 0.18 0.16 0.15 0.16 0.20 0.21 0.17 0.13 0.11 0.12
1.07 1.01 0.90 0.85 0.83 0.78 0.75 0.69 0.66 0.63 0.60 0.57 0.54 0.52 0.42 0.33 0.31 0.25 0.23 0.25 0.23 0.20 0.16 0.15 0.12 0.11 0.12 0.13 0.14 0.14 0.15 0.13 0.13 0.13 0.12 0.12 0.11 0.12 0.14 0.15 0.16 0.15 0.13
0.66 0.65 0.61 0.56 0.54 0.50 0.46 0.40 0.36 0.33 0.31 0.28 0.28 0.20 0.13 0.15 0.18 0.16 0.14 0.15 0.15 0.14 0.14 0.14 0.11 0.13 0.13 0.14 0.15 0.17 0.16 0.15 0.15 0.16 0.16 0.15 0.16 0.20 0.17 0.20 0.18 0.15 0.12
0.38 0.34 0.29 0.25 0.23 0.22 0.20 0.19 0.19 0.18 0.15 0.14 0.13 0.11 0.09 0.13 0.15 0.15 0.15 0.14 0.11 0.10 0.13 0.19 0.21 0.17 0.18 0.21 0.23 0.26 0.22 0.20 0.21 0.25 0.25 0.22 0.22 0.22 0.24 0.25 0.25 0.25 0.20
0.16 0.14 0.12 0.12 0.12 0.12 0.12 0.13 0.14 0.17 0.19 0.19 0.18 0.15 0.11 0.11 0.10 0.10 0.12 0.16 0.22 0.28 0.27 0.30 0.33 0.29 0.24 0.26 0.30 0.32 0.31 0.22 0.22 0.28 0.30 0.22 0.19 0.21 0.24 0.22 0.20 0.22 0.18
0.10 0.09 0.09 0.10 0.10 0.11 0.13 0.12 0.12 0.12 0.16 0.21 0.23 0.23 0.22 0.23 0.25 0.26 0.31 0.37 0.41 0.42 0.40 0.41 0.41 0.38 0.36 0.34 0.32 0.29 0.27 0.24 0.25 0.25 0.30 0.32 0.24 0.19 0.24 0.23 0.20 0.20 0.20
0.07 0.07 0.07 0.09 0.12 0.14 0.17 0.18 0.20 0.21 0.22 0.22 0.22 0.24 0.23 0.27 0.32 0.33 0.33 0.28 0.27 0.27 0.28 0.31 0.35 0.36 0.37 0.40 0.43 0.42 0.38 0.33 0.32 0.33 0.40 0.36 0.28 0.28 0.29 0.26 0.23 0.26 0.24
0.07 0.09 0.12 0.15 0.18 0.20 0.25 0.29 0.31 0.32 0.33 0.32 0.36 0.36 0.34 0.29 0.23 0.19 0.17 0.15 0.15 0.15 0.15 0.18 0.18 0.17 0.18 0.19 0.22 0.27 0.26 0.27 0.32 0.35 0.38 0.38 0.35 0.32 0.32 0.29 0.25 0.29 0.30

GFSGL_prec_precacc_102.txt.gz
Total_Precipitation_Accumulation
1.36 1.41 1.15 0.95 0.98 0.96 0.90 0.81 0.86 0.76 0.79 0.73 0.76 0.66 0.60 0.66 0.80 1.05 1.24 1.05 1.12 1.13 1.04 0.97 0.76 0.65 0.69 0.60 0.53 0.50 0.44 0.45 0.51 0.37 0.19 0.15 0.15 0.13 0.09 0.07 0.06 0.05 0.05
1.31 1.55 1.65 1.34 1.63 1.94 1.89 1.50 1.66 1.62 1.25 0.99 0.78 0.58 0.40 0.29 0.35 0.61 0.95 1.00 0.88 0.95 1.04 1.05 1.00 0.84 0.81 0.74 0.63 0.54 0.40 0.33 0.33 0.30 0.24 0.16 0.12 0.10 0.11 0.10 0.07 0.04 0.05
1.92 1.80 1.62 1.33 1.66 1.47 1.08 0.80 0.64 0.60 0.52 0.32 0.25 0.21 0.18 0.12 0.15 0.38 0.58 0.92 1.01 0.86 0.87 0.98 0.86 0.78 0.67 0.55 0.48 0.46 0.40 0.36 0.36 0.34 0.28 0.18 0.13 0.10 0.12 0.09 0.07 0.06 0.05
1.48 1.58 1.42 1.25 1.15 0.85 0.68 0.50 0.36 0.28 0.21 0.19 0.18 0.24 0.19 0.09 0.16 0.31 0.41 0.58 0.83 0.93 0.87 0.87 0.92 0.81 0.64 0.52 0.49 0.46 0.47 0.47 0.41 0.37 0.27 0.20 0.17 0.14 0.18 0.15 0.15 0.12 0.13
1.35 1.66 1.56 1.33 1.09 1.03 0.78 0.57 0.36 0.26 0.30 0.25 0.23 0.16 0.20 0.19 0.24 0.31 0.38 0.47 0.63 0.81 0.85 0.87 0.78 0.91 0.91 0.84 0.71 0.59 0.57 0.56 0.57 0.54 0.46 0.36 0.30 0.33 0.40 0.43 0.50 0.39 0.45
0.67 1.11 1.50 1.88 1.18 1.15 1.28 1.28 0.85 0.38 0.32 0.30 0.31 0.32 0.35 0.37 0.56 0.44 0.31 0.22 0.25 0.38 0.50 0.63 0.83 0.89 0.82 0.94 0.97 0.90 0.79 0.69 0.59 0.53 0.48 0.46 0.37 0.37 0.47 0.61 0.64 0.68 0.69
0.53 0.92 1.06 1.24 1.60 1.19 1.39 1.50 1.62 1.22 0.77 0.46 0.40 0.48 0.52 0.52 0.72 0.46 0.46 0.22 0.25 0.25 0.28 0.40 0.53 0.99 1.19 0.77 0.99 1.03 1.02 1.11 0.94 0.79 0.64 0.64 0.77 0.86 0.96 1.02 0.95 0.89 0.81
0.47 0.63 0.78 0.68 1.11 1.41 1.07 1.09 1.18 1.22 1.13 0.83 0.53 0.42 0.33 0.36 0.56 0.57 0.66 0.32 0.26 0.26 0.23 0.26 0.34 0.47 0.98 1.14 0.90 1.04 1.13 1.25 1.46 1.23 1.18 1.35 1.28 1.05 0.90 0.92 0.98 1.04 1.04
0.55 0.71 0.85 0.95 0.98 1.09 1.35 1.22 1.29 1.21 1.07 0.79 0.46 0.31 0.26 0.28 0.59 0.52 0.50 0.22 0.21 0.29 0.37 0.46 0.53 0.33 0.83 0.94 0.68 0.74 0.91 1.17 1.50 1.30 1.05 1.09 1.08 0.93 0.81 0.78 0.91 1.35 1.70
0.49 0.58 0.70 0.88 1.06 1.27 1.56 1.67 1.53 1.34 1.06 0.85 0.58 0.37 0.52 0.28 0.61 0.53 0.46 0.20 0.24 0.25 0.31 0.52 1.01 0.56 0.66 0.50 0.37 0.35 0.62 1.04 0.95 1.02 1.06 1.15 1.07 1.10 1.24 0.99 1.00 1.47 1.83
0.58 0.61 0.67 0.80 1.02 1.17 1.19 1.30 1.46 1.53 1.38 1.03 0.82 0.61 0.51 0.57 0.62 0.72 0.66 0.40 0.36 0.44 0.53 0.56 0.73 1.15 0.65 0.69 0.77 0.63 1.32 1.39 1.39 1.10 1.08 1.16 1.13 1.09 1.10 1.09 1.00 1.03 1.19
0.67 0.66 0.79 0.83 0.92 1.01 1.05 1.06 1.02 1.07 1.29 1.36 1.10 0.95 0.84 0.85 0.99 0.89 0.73 0.68 0.76 0.54 0.78 0.77 1.07 1.13 0.73 0.78 0.92 1.28 1.45 1.23 1.14 1.35 1.47 1.56 1.55 1.45 1.36 1.23 1.09 0.98 0.92
0.70 0.79 0.77 0.70 0.65 0.59 0.64 0.80 0.92 0.94 0.88 0.86 0.90 0.96 0.98 0.95 1.04 1.14 1.02 1.03 1.08 0.95 1.21 1.46 1.47 1.16 0.97 1.06 1.24 1.27 1.24 1.25 1.42 1.56 1.61 1.56 1.42 1.29 1.10 0.97 0.85 0.72 0.57
0.17 0.25 0.28 0.32 0.37 0.34 0.39 0.45 0.48 0.58 0.69 0.83 0.91 0.93 0.94 0.92 0.90 0.88 0.84 0.85 0.97 1.09 1.38 1.45 1.37 1.26 1.20 1.27 1.30 1.30 1.30 1.37 1.43 1.48 1.43 1.30 1.11 0.95 0.85 0.84 0.77 0.64 0.50
0.14 0.17 0.18 0.20 0.25 0.27 0.33 0.42 0.41 0.58 0.62 0.65 0.79 0.85 0.92 1.11 1.43 1.40 1.33 1.37 1.44 1.58 1.63 1.74 1.76 1.72 1.68 1.63 1.50 1.39 1.30 1.20 1.10 1.02 0.90 0.78 0.65 0.51 0.39 0.28 0.28 0.35 0.50
0.17 0.19 0.24 0.18 0.19 0.22 0.22 0.34 0.55 0.62 0.59 0.65 0.74 0.77 1.09 1.31 1.41 1.36 1.36 1.37 1.38 1.36 1.30 1.34 1.27 1.18 1.08 0.96 0.88 0.81 0.73 0.68 0.59 0.49 0.45 0.40 0.39 0.38 0.37 0.37 0.35 0.34 0.37
0.31 0.28 0.29 0.31 0.34 0.36 0.37 0.36 0.50 0.70 0.75 0.93 1.01 1.03 1.01 1.13 1.01 0.94 0.89 0.83 0.82 0.75 0.86 0.83 0.78 0.72 0.64 0.54 0.50 0.44 0.39 0.30 0.29 0.38 0.37 0.33 0.34 0.34 0.30 0.28 0.25 0.26 0.25
0.97 0.97 0.89 0.87 0.93 1.06 1.18 1.29 1.35 1.37 1.37 1.45 1.43 1.25 1.20 1.13 1.05 0.96 0.84 0.67 0.70 0.62 0.60 0.52 0.46 0.38 0.30 0.25 0.20 0.18 0.16 0.18 0.22 0.21 0.21 0.22 0.22 0.23 0.25 0.20 0.16 0.15 0.11
1.66 1.78 1.77 1.71 1.61 1.43 1.27 1.16 1.12 1.12 1.12 1.16 1.14 1.04 0.98 0.85 0.71 0.62 0.53 0.59 0.54 0.43 0.34 0.28 0.22 0.17 0.16 0.16 0.17 0.18 0.19 0.20 0.18 0.18 0.16 0.15 0.16 0.20 0.21 0.17 0.13 0.11 0.12
1.07 1.01 0.90 0.85 0.83 0.78 0.75 0.69 0.66 0.63 0.60 0.57 0.54 0.52 0.42 0.33 0.31 0.25 0.23 0.25 0.23 0.20 0.16 0.15 0.12 0.11 0.12 0.13 0.14 0.14 0.15 0.13 0.13 0.13 0.12 0.12 0.11 0.12 0.14 0.15 0.16 0.15 0.13
0.66 0.65 0.61 0.56 0.54 0.50 0.46 0.40 0.36 0.33 0.31 0.28 0.28 0.20 0.13 0.15 0.18 0.16 0.14 0.15 0.15 0.14 0.14 0.14 0.11 0.13 0.13 0.14 0.15 0.17 0.16 0.15 0.15 0.16 0.16 0.15 0.16 0.20 0.17 0.20 0.18 0.15 0.12
0.38 0.34 0.29 0.26 0.23 0.22 0.20 0.19 0.20 0.18 0.15 0.14 0.13 0.11 0.09 0.13 0.15 0.15 0.15 0.15 0.11 0.10 0.13 0.20 0.21 0.17 0.18 0.21 0.23 0.26 0.22 0.20 0.21 0.25 0.25 0.22 0.22 0.22 0.24 0.25 0.25 0.25 0.20
0.16 0.14 0.12 0.12 0.12 0.12 0.12 0.13 0.15 0.18 0.19 0.19 0.18 0.15 0.11 0.11 0.10 0.10 0.13 0.16 0.22 0.28 0.27 0.30 0.33 0.29 0.24 0.26 0.30 0.32 0.31 0.22 0.22 0.28 0.30 0.22 0.19 0.21 0.24 0.22 0.20 0.22 0.18
0.10 0.09 0.09 0.10 0.10 0.12 0.14 0.13 0.13 0.13 0.16 0.21 0.23 0.23 0.22 0.23 0.25 0.26 0.31 0.37 0.41 0.42 0.40 0.41 0.41 0.38 0.36 0.34 0.32 0.29 0.27 0.24 0.25 0.25 0.30 0.32 0.24 0.19 0.24 0.23 0.20 0.20 0.20
0.07 0.08 0.07 0.09 0.13 0.15 0.18 0.19 0.21 0.22 0.23 0.23 0.23 0.24 0.24 0.28 0.32 0.34 0.33 0.28 0.27 0.28 0.29 0.31 0.35 0.36 0.37 0.40 0.43 0.42 0.38 0.33 0.32 0.33 0.40 0.36 0.28 0.28 0.29 0.26 0.23 0.26 0.24
0.07 0.09 0.12 0.15 0.19 0.21 0.25 0.30 0.32 0.33 0.34 0.33 0.37 0.37 0.35 0.30 0.24 0.20 0.17 0.15 0.15 0.15 0.16 0.18 0.18 0.17 0.18 0.19 0.22 0.27 0.26 0.27 0.32 0.35 0.38 0.38 0.35 0.32 0.32 0.29 0.25 0.29 0.30

GFSGL_prec_precacc_105.txt.gz
Total_Precipitation_Accumulation
1.37 1.42 1.19 0.99 1.09 1.08 1.03 0.94 0.93 0.81 0.85 0.80 0.81 0.70 0.61 0.71 1.04 1.37 1.49 1.25 1.19 1.14 1.04 0.98 0.78 0.67 0.72 0.61 0.55 0.52 0.47 0.48 0.53 0.38 0.19 0.15 0.16 0.17 0.14 0.11 0.08 0.06 0.05
1.31 1.55 1.67 1.39 1.70 2.03 1.99 1.62 1.72 1.67 1.35 1.09 0.79 0.59 0.41 0.35 0.51 1.15 1.51 1.41 1.00 0.97 1.05 1.06 1.01 0.87 0.84 0.75 0.64 0.56 0.43 0.36 0.36 0.32 0.24 0.18 0.14 0.12 0.16 0.19 0.18 0.13 0.06
1.93 1.81 1.65 1.38 1.75 1.57 1.19 0.93 0.77 0.68 0.58 0.40 0.28 0.23 0.18 0.14 0.18 0.45 0.88 1.20 1.12 0.90 0.88 0.99 0.87 0.80 0.69 0.56 0.49 0.46 0.41 0.39 0.47 0.45 0.32 0.19 0.15 0.14 0.23 0.31 0.22 0.12 0.05
1.70 1.73 1.51 1.36 1.27 1.02 0.85 0.74 0.61 0.51 0.28 0.25 0.22 0.25 0.19 0.11 0.20 0.34 0.44 0.63 0.87 0.95 0.90 0.91 0.95 0.83 0.66 0.54 0.50 0.48 0.50 0.52 0.45 0.40 0.32 0.26 0.21 0.18 0.27 0.22 0.17 0.15 0.15
1.45 1.91 1.79 1.49 1.36 1.41 1.41 1.15 0.62 0.59 0.47 0.32 0.28 0.17 0.20 0.19 0.25 0.32 0.39 0.48 0.64 0.83 0.87 0.89 0.78 0.91 0.91 0.85 0.72 0.62 0.62 0.62 0.64 0.62 0.55 0.46 0.40 0.41 0.44 0.46 0.53 0.42 0.49
0.70 1.14 1.59 1.96 1.26 1.28 1.51 1.64 1.10 0.65 0.59 0.37 0.36 0.35 0.35 0.37 0.57 0.45 0.32 0.23 0.26 0.39 0.51 0.64 0.83 0.89 0.82 0.95 1.00 0.98 0.87 0.77 0.71 0.63 0.56 0.52 0.44 0.42 0.50 0.63 0.68 0.71 0.73
0.56 0.94 1.09 1.37 1.77 1.30 1.45 1.60 1.81 1.38 1.04 0.81 0.55 0.52 0.54 0.52 0.73 0.46 0.47 0.22 0.26 0.26 0.28 0.40 0.53 0.99 1.19 0.78 1.03 1.10 1.16 1.31 1.10 0.93 0.77 0.71 0.83 0.92 1.01 1.06 0.97 0.91 0.82
0.50 0.67 0.81 0.75 1.25 1.55 1.18 1.13 1.23 1.41 1.49 1.34 0.85 0.56 0.38 0.37 0.59 0.58 0.67 0.32 0.27 0.27 0.23 0.26 0.34 0.47 0.98 1.14 0.93 1.15 1.27 1.42 1.66 1.43 1.40 1.56 1.43 1.18 1.00 0.99 1.05 1.13 1.17
0.57 0.74 0.89 0.97 1.00 1.10 1.37 1.23 1.32 1.26 1.25 1.25 1.07 0.73 0.49 0.38 0.68 0.58 0.52 0.22 0.22 0.29 0.37 0.47 0.54 0.33 0.84 0.94 0.68 0.77 1.02 1.38 1.77 1.57 1.29 1.29 1.31 1.20 1.04 0.96 1.12 1.52 1.88
0.51 0.62 0.73 0.90 1.08 1.28 1.59 1.73 1.64 1.50 1.21 1.06 0.99 0.85 0.90 0.49 0.75 0.59 0.47 0.20 0.25 0.26 0.33 0.53 1.03 0.58 0.67 0.51 0.37 0.35 0.66 1.14 1.13 1.22 1.23 1.33 1.27 1.33 1.49 1.20 1.20 1.65 1.98
0.58 0.61 0.68 0.80 1.03 1.18 1.22 1.37 1.60 1.76 1.71 1.39 1.24 1.08 0.89 0.89 0.80 0.80 0.70 0.41 0.37 0.45 0.54 0.59 0.74 1.16 0.67 0.72 0.79 0.65 1.37 1.42 1.44 1.17 1.16 1.26 1.24 1.21 1.27 1.26 1.17 1.17 1.32
0.68 0.66 0.79 0.84 0.92 1.02 1.05 1.08 1.07 1.19 1.48 1.68 1.51 1.42 1.35 1.28 1.31 1.11 0.88 0.77 0.83 0.59 0.82 0.78 1.09 1.15 0.74 0.80 0.94 1.33 1.51 1.26 1.15 1.39 1.54 1.63 1.62 1.54 1.48 1.37 1.24 1.14 1.06
0.70 0.79 0.77 0.71 0.65 0.60 0.64 0.80 0.92 0.96 0.93 0.97 1.08 1.22 1.33 1.35 1.42 1.49 1.34 1.26 1.24 1.07 1.33 1.57 1.53 1.18 0.99 1.07 1.26 1.29 1.25 1.27 1.44 1.58 1.65 1.64 1.52 1.39 1.18 1.04 0.93 0.82 0.69
0.17 0.25 0.28 0.32 0.37 0.34 0.39 0.46 0.48 0.58 0.70 0.84 0.94 0.99 1.02 1.01 1.02 1.01 1.00 1.04 1.15 1.25 1.54 1.61 1.51 1.38 1.29 1.35 1.34 1.33 1.33 1.40 1.46 1.52 1.49 1.38 1.18 1.01 0.91 0.90 0.83 0.71 0.60
0.14 0.17 0.18 0.20 0.25 0.27 0.33 0.43 0.41 0.59 0.62 0.66 0.80 0.86 0.93 1.13 1.48 1.45 1.38 1.42 1.50 1.65 1.70 1.82 1.85 1.81 1.76 1.71 1.59 1.47 1.37 1.26 1.15 1.08 0.96 0.85 0.71 0.56 0.44 0.32 0.32 0.39 0.55
0.17 0.19 0.24 0.18 0.19 0.22 0.22 0.34 0.55 0.63 0.59 0.65 0.74 0.77 1.09 1.31 1.41 1.36 1.36 1.38 1.40 1.38 1.32 1.37 1.30 1.21 1.12 1.01 0.93 0.85 0.77 0.72 0.62 0.52 0.47 0.42 0.41 0.40 0.40 0.40 0.37 0.35 0.39
0.31 0.28 0.29 0.31 0.34 0.36 0.37 0.36 0.50 0.70 0.75 0.93 1.01 1.03 1.01 1.13 1.01 0.94 0.89 0.83 0.82 0.75 0.86 0.84 0.78 0.73 0.65 0.55 0.50 0.45 0.40 0.31 0.29 0.38 0.37 0.33 0.34 0.34 0.30 0.28 0.25 0.26 0.25
0.97 0.98 0.90 0.88 0.94 1.06 1.19 1.29 1.35 1.37 1.37 1.45 1.43 1.25 1.20 1.13 1.05 0.96 0.84 0.67 0.70 0.62 0.60 0.52 0.46 0.38 0.30 0.25 0.20 0.18 0.16 0.18 0.22 0.21 0.21 0.22 0.22 0.23 0.25 0.20 0.16 0.15 0.11
1.66 1.78 1.77 1.71 1.61 1.43 1.27 1.16 1.12 1.13 1.12 1.16 1.14 1.04 0.98 0.85 0.71 0.62 0.53 0.59 0.54 0.43 0.34 0.28 0.22 0.17 0.16 0.16 0.17 0.18 0.19 0.20 0.18 0.18 0.16 0.15 0.16 0.20 0.21 0.17 0.13 0.11 0.12
1.07 1.01 0.90 0.85 0.83 0.78 0.75 0.69 0.66 0.63 0.60 0.57 0.54 0.52 0.42 0.33 0.31 0.25 0.23 0.25 0.23 0.20 0.16 0.15 0.12 0.11 0.12 0.13 0.14 0.14 0.15 0.13 0.13 0.13 0.12 0.12 0.11 0.12 0.14 0.15 0.16 0.15 0.13
0.66 0.65 0.61 0.56 0.54 0.50 0.46 0.40 0.36 0.33 0.31 0.28 0.28 0.20 0.13 0.15 0.18 0.16 0.14 0.16 0.15 0.15 0.14 0.14 0.11 0.13 0.13 0.14 0.15 0.17 0.16 0.15 0.15 0.16 0.16 0.15 0.16 0.20 0.17 0.20 0.18 0.15 0.12
0.38 0.34 0.29 0.26 0.23 0.22 0.20 0.19 0.20 0.19 0.15 0.14 0.14 0.12 0.09 0.13 0.15 0.15 0.15 0.15 0.11 0.11 0.13 0.20 0.21 0.17 0.18 0.21 0.23 0.26 0.22 0.20 0.21 0.25 0.25 0.22 0.22 0.22 0.24 0.25 0.25 0.25 0.20
0.16 0.14 0.12 0.12 0.12 0.12 0.13 0.13 0.15 0.18 0.20 0.20 0.19 0.16 0.11 0.12 0.11 0.10 0.13 0.16 0.22 0.29 0.28 0.30 0.34 0.30 0.24 0.27 0.30 0.32 0.31 0.22 0.22 0.28 0.30 0.22 0.19 0.21 0.24 0.22 0.20 0.22 0.18
0.10 0.09 0.09 0.10 0.11 0.12 0.14 0.13 0.13 0.13 0.17 0.22 0.24 0.24 0.23 0.24 0.26 0.27 0.31 0.38 0.42 0.42 0.40 0.41 0.41 0.38 0.36 0.34 0.33 0.29 0.27 0.24 0.25 0.25 0.30 0.32 0.24 0.19 0.24 0.23 0.20 0.20 0.20
0.08 0.08 0.08 0.10 0.13 0.15 0.18 0.19 0.22 0.23 0.24 0.24 0.25 0.25 0.25 0.29 0.33 0.35 0.34 0.29 0.28 0.28 0.29 0.31 0.35 0.36 0.37 0.40 0.43 0.42 0.38 0.33 0.32 0.33 0.40 0.36 0.28 0.28 0.29 0.26 0.23 0.26 0.24
0.07 0.09 0.13 0.15 0.19 0.21 0.26 0.30 0.33 0.33 0.34 0.34 0.38 0.38 0.36 0.31 0.25 0.21 0.18 0.16 0.16 0.16 0.16 0.18 0.18 0.17 0.18 0.19 0.22 0.27 0.26 0.27 0.32 0.35 0.38 0.38 0.35 0.32 0.32 0.29 0.25 0.29 0.30

GFSGL_prec_precacc_108.txt.gz
Total_Precipitation_Accumulation
1.37 1.42 1.19 1.00 1.13 1.13 1.09 1.07 1.09 0.98 1.00 0.94 0.94 0.77 0.65 0.74 1.12 1.43 1.50 1.37 1.40 1.34 1.21 1.12 0.88 0.73 0.74 0.62 0.55 0.52 0.47 0.49 0.55 0.40 0.20 0.16 0.18 0.20 0.15 0.11 0.08 0.06 0.06
1.31 1.55 1.67 1.40 1.70 2.06 2.10 1.79 1.91 1.85 1.61 1.42 1.04 0.68 0.50 0.39 0.58 1.21 1.53 1.44 1.19 1.31 1.46 1.31 1.14 0.95 0.87 0.77 0.65 0.56 0.43 0.36 0.37 0.33 0.25 0.18 0.15 0.13 0.17 0.19 0.20 0.17 0.08
1.93 1.81 1.65 1.39 1.75 1.58 1.21 0.99 0.86 0.81 0.78 0.77 0.71 0.60 0.44 0.23 0.20 0.48 0.92 1.34 1.21 0.98 1.19 1.45 1.02 0.85 0.70 0.57 0.51 0.47 0.42 0.40 0.49 0.49 0.34 0.21 0.16 0.14 0.24 0.37 0.31 0.17 0.08
1.70 1.73 1.52 1.37 1.28 1.03 0.87 0.78 0.65 0.57 0.35 0.36 0.49 0.58 0.53 0.28 0.24 0.35 0.44 0.71 1.13 1.03 0.94 0.94 0.98 0.85 0.67 0.55 0.51 0.49 0.51 0.54 0.48 0.49 0.42 0.31 0.24 0.22 0.39 0.32 0.26 0.20 0.19
1.45 1.91 1.81 1.56 1.42 1.52 1.53 1.41 0.88 0.76 0.65 0.51 0.43 0.34 0.44 0.34 0.33 0.37 0.41 0.52 0.76 1.01 0.93 0.91 0.79 0.92 0.93 0.86 0.73 0.62 0.63 0.64 0.68 0.66 0.61 0.53 0.46 0.50 0.56 0.51 0.56 0.48 0.60
0.70 1.15 1.59 1.97 1.28 1.34 1.60 1.81 1.35 0.93 0.99 0.69 0.76 0.55 0.50 0.46 0.66 0.54 0.38 0.27 0.30 0.45 0.69 0.71 0.84 0.91 0.83 0.96 1.01 0.98 0.89 0.79 0.73 0.67 0.62 0.58 0.48 0.46 0.53 0.66 0.70 0.76 0.83
0.57 0.95 1.10 1.38 1.79 1.38 1.55 1.66 1.90 1.57 1.24 1.19 0.89 0.79 0.68 0.63 0.88 0.60 0.52 0.25 0.28 0.27 0.31 0.43 0.53 0.99 1.20 0.78 1.04 1.11 1.17 1.35 1.18 1.01 0.85 0.77 0.90 0.98 1.05 1.09 1.01 0.94 0.86
0.51 0.69 0.84 0.78 1.29 1.63 1.31 1.24 1.29 1.45 1.54 1.42 1.05 0.85 0.60 0.49 0.70 0.68 0.78 0.35 0.29 0.29 0.24 0.27 0.34 0.47 0.98 1.14 0.93 1.15 1.27 1.45 1.74 1.59 1.54 1.67 1.60 1.37 1.08 1.09 1.21 1.29 1.31
0.59 0.77 0.95 1.05 1.07 1.16 1.42 1.28 1.37 1.27 1.26 1.34 1.18 0.85 0.71 0.61 0.84 0.71 0.62 0.25 0.22 0.30 0.38 0.47 0.55 0.33 0.85 0.95 0.68 0.77 1.02 1.40 1.86 1.73 1.45 1.43 1.50 1.53 1.21 1.11 1.32 1.67 2.05
0.52 0.65 0.78 0.95 1.13 1.35 1.65 1.77 1.67 1.53 1.28 1.15 1.15 1.09 1.25 0.88 1.14 0.90 0.72 0.31 0.28 0.27 0.33 0.54 1.04 0.58 0.68 0.51 0.37 0.35 0.66 1.14 1.15 1.30 1.40 1.55 1.52 1.62 1.76 1.43 1.42 1.87 2.16
0.58 0.61 0.68 0.80 1.03 1.19 1.23 1.39 1.63 1.81 1.77 1.48 1.36 1.26 1.16 1.27 1.32 1.34 1.08 0.64 0.51 0.51 0.56 0.59 0.76 1.18 0.69 0.73 0.80 0.66 1.39 1.42 1.46 1.20 1.24 1.43 1.44 1.43 1.51 1.49 1.39 1.37 1.49
0.68 0.66 0.79 0.84 0.92 1.02 1.05 1.08 1.08 1.21 1.52 1.75 1.62 1.60 1.60 1.63 1.77 1.60 1.34 1.14 1.05 0.72 0.90 0.81 1.14 1.20 0.78 0.83 0.98 1.38 1.55 1.28 1.15 1.40 1.54 1.66 1.69 1.64 1.58 1.49 1.37 1.27 1.23
0.70 0.80 0.77 0.71 0.65 0.60 0.64 0.80 0.92 0.96 0.94 1.00 1.13 1.32 1.48 1.56 1.71 1.83 1.70 1.62 1.55 1.33 1.55 1.75 1.65 1.24 1.03 1.12 1.31 1.33 1.28 1.28 1.45 1.59 1.68 1.69 1.57 1.46 1.28 1.14 1.03 0.93 0.81
0.17 0.25 0.28 0.32 0.37 0.34 0.39 0.46 0.48 0.58 0.70 0.84 0.94 1.00 1.07 1.10 1.14 1.18 1.19 1.24 1.38 1.49 1.77 1.83 1.72 1.56 1.45 1.50 1.47 1.42 1.40 1.45 1.51 1.56 1.54 1.43 1.24 1.07 0.99 1.03 0.98 0.86 0.72
0.14 0.17 0.18 0.20 0.25 0.27 0.33 0.43 0.41 0.59 0.62 0.66 0.81 0.86 0.93 1.14 1.50 1.49 1.44 1.50 1.59 1.75 1.82 1.94 1.95 1.90 1.86 1.83 1.71 1.60 1.50 1.38 1.25 1.17 1.05 0.94 0.79 0.63 0.51 0.39 0.40 0.48 0.67
0.17 0.19 0.24 0.18 0.19 0.22 0.22 0.35 0.55 0.63 0.59 0.65 0.74 0.77 1.09 1.31 1.41 1.36 1.36 1.39 1.41 1.41 1.35 1.42 1.36 1.27 1.17 1.06 0.99 0.93 0.85 0.80 0.72 0.62 0.56 0.50 0.48 0.46 0.45 0.45 0.42 0.40 0.45
0.31 0.28 0.29 0.31 0.34 0.36 0.37 0.36 0.50 0.71 0.75 0.93 1.01 1.03 1.01 1.13 1.01 0.94 0.89 0.83 0.82 0.75 0.87 0.84 0.80 0.75 0.67 0.58 0.53 0.47 0.43 0.34 0.33 0.43 0.42 0.39 0.39 0.40 0.35 0.32 0.28 0.29 0.28
0.97 0.98 0.90 0.88 0.94 1.06 1.19 1.29 1.35 1.37 1.37 1.45 1.43 1.25 1.20 1.13 1.05 0.96 0.84 0.67 0.70 0.62 0.60 0.52 0.46 0.38 0.30 0.25 0.21 0.19 0.18 0.19 0.23 0.22 0.22 0.22 0.22 0.24 0.25 0.20 0.16 0.15 0.12
1.66 1.78 1.77 1.71 1.62 1.43 1.27 1.16 1.12 1.13 1.12 1.16 1.14 1.04 0.98 0.85 0.71 0.62 0.53 0.59 0.54 0.43 0.34 0.28 0.22 0.17 0.16 0.16 0.17 0.18 0.19 0.20 0.18 0.18 0.16 0.15 0.16 0.20 0.21 0.17 0.13 0.11 0.12
1.08 1.01 0.90 0.86 0.83 0.78 0.75 0.69 0.66 0.63 0.60 0.58 0.54 0.52 0.42 0.33 0.31 0.25 0.23 0.25 0.24 0.20 0.16 0.15 0.12 0.11 0.12 0.13 0.14 0.15 0.15 0.13 0.13 0.13 0.12 0.13 0.12 0.12 0.14 0.15 0.16 0.15 0.13
0.66 0.65 0.61 0.56 0.54 0.50 0.46 0.40 0.36 0.33 0.31 0.29 0.29 0.20 0.13 0.16 0.19 0.16 0.14 0.16 0.15 0.15 0.14 0.15 0.12 0.13 0.13 0.14 0.15 0.17 0.16 0.15 0.15 0.16 0.16 0.15 0.16 0.20 0.17 0.20 0.18 0.15 0.12
0.38 0.34 0.29 0.26 0.23 0.22 0.20 0.19 0.20 0.19 0.16 0.15 0.14 0.12 0.10 0.13 0.15 0.15 0.15 0.15 0.12 0.11 0.13 0.20 0.21 0.18 0.18 0.21 0.23 0.26 0.22 0.20 0.22 0.25 0.25 0.22 0.22 0.22 0.24 0.25 0.25 0.25 0.20
0.16 0.14 0.12 0.12 0.12 0.12 0.13 0.14 0.16 0.19 0.20 0.21 0.20 0.16 0.12 0.12 0.11 0.11 0.14 0.17 0.23 0.29 0.28 0.30 0.34 0.30 0.24 0.27 0.30 0.32 0.31 0.22 0.22 0.28 0.30 0.22 0.19 0.21 0.24 0.22 0.20 0.22 0.18
0.10 0.10 0.09 0.10 0.11 0.12 0.14 0.14 0.14 0.14 0.17 0.23 0.26 0.26 0.25 0.25 0.27 0.28 0.32 0.38 0.42 0.43 0.40 0.42 0.41 0.38 0.36 0.35 0.33 0.29 0.27 0.24 0.25 0.25 0.30 0.32 0.24 0.19 0.24 0.23 0.20 0.20 0.20
0.08 0.08 0.08 0.10 0.14 0.15 0.19 0.19 0.22 0.24 0.25 0.25 0.26 0.26 0.26 0.30 0.35 0.36 0.36 0.29 0.28 0.29 0.29 0.31 0.35 0.36 0.37 0.40 0.43 0.42 0.38 0.33 0.32 0.33 0.40 0.36 0.28 0.28 0.29 0.26 0.23 0.26 0.24
0.07 0.10 0.13 0.16 0.20 0.22 0.26 0.31 0.33 0.34 0.35 0.35 0.38 0.39 0.37 0.32 0.26 0.23 0.20 0.17 0.16 0.16 0.16 0.19 0.18 0.17 0.18 0.20 0.22 0.27 0.26 0.27 0.32 0.35 0.38 0.38 0.35 0.32 0.32 0.29 0.25 0.29 0.30

GFSGL_prec_precacc_111.txt.gz
Total_Precipitation_Accumulation
1.37 1.42 1.19 1.00 1.13 1.13 1.09 1.09 1.12 1.03 1.05 1.00 1.02 1.02 0.82 0.95 1.27 1.53 1.55 1.39 1.46 1.51 1.41 1.30 1.02 0.86 0.91 0.76 0.67 0.64 0.51 0.50 0.56 0.40 0.20 0.16 0.18 0.21 0.19 0.16 0.11 0.07 0.06
1.31 1.55 1.67 1.40 1.70 2.06 2.10 1.79 1.92 1.87 1.64 1.50 1.18 0.99 0.75 0.58 0.71 1.33 1.61 1.47 1.26 1.53 1.76 1.58 1.39 1.19 1.06 0.93 0.74 0.61 0.47 0.38 0.38 0.33 0.25 0.19 0.15 0.13 0.18 0.21 0.22 0.20 0.09
1.93 1.81 1.65 1.39 1.75 1.58 1.21 0.99 0.86 0.82 0.79 0.83 0.83 0.82 0.82 0.55 0.44 0.60 0.99 1.40 1.32 1.24 1.38 1.61 1.37 1.11 0.87 0.69 0.60 0.53 0.45 0.41 0.50 0.50 0.35 0.21 0.16 0.15 0.24 0.38 0.33 0.18 0.10
1.70 1.73 1.52 1.37 1.28 1.03 0.87 0.78 0.65 0.57 0.36 0.43 0.63 0.78 0.99 0.91 0.82 0.57 0.58 0.81 1.21 1.18 1.03 0.99 1.09 1.00 0.82 0.71 0.61 0.54 0.55 0.57 0.49 0.51 0.43 0.31 0.25 0.23 0.41 0.34 0.28 0.25 0.23
1.45 1.91 1.81 1.56 1.42 1.52 1.53 1.41 0.88 0.76 0.65 0.52 0.47 0.43 0.75 1.07 0.67 0.58 0.51 0.58 0.83 1.07 0.95 0.94 0.83 0.99 1.03 0.96 0.81 0.66 0.65 0.66 0.70 0.67 0.62 0.54 0.49 0.55 0.63 0.58 0.62 0.53 0.66
0.70 1.16 1.59 1.97 1.28 1.34 1.60 1.81 1.36 0.94 1.02 0.78 0.85 0.68 0.60 0.82 1.09 0.73 0.63 0.38 0.42 0.47 0.69 0.75 0.91 0.95 0.88 1.01 1.05 1.02 0.93 0.82 0.76 0.69 0.63 0.60 0.50 0.48 0.56 0.71 0.74 0.84 0.91
0.58 0.96 1.11 1.38 1.80 1.39 1.56 1.67 1.92 1.58 1.25 1.23 0.98 0.95 0.89 0.83 1.32 0.84 0.82 0.40 0.36 0.32 0.33 0.53 0.58 1.03 1.25 0.80 1.07 1.12 1.19 1.37 1.20 1.03 0.86 0.78 0.92 1.00 1.06 1.10 1.02 0.98 0.91
0.52 0.70 0.85 0.79 1.30 1.65 1.32 1.26 1.33 1.49 1.59 1.48 1.15 0.94 0.71 0.70 0.91 1.16 1.12 0.53 0.36 0.35 0.30 0.31 0.39 0.50 1.01 1.18 0.94 1.16 1.27 1.46 1.75 1.60 1.55 1.70 1.64 1.43 1.13 1.16 1.33 1.43 1.45
0.60 0.80 0.98 1.09 1.11 1.20 1.47 1.32 1.41 1.32 1.30 1.39 1.22 0.87 0.76 0.72 1.08 0.99 0.96 0.50 0.39 0.36 0.41 0.51 0.60 0.38 0.90 0.97 0.69 0.77 1.02 1.40 1.86 1.74 1.48 1.48 1.59 1.73 1.34 1.19 1.44 1.81 2.23
0.52 0.66 0.80 0.97 1.16 1.39 1.71 1.84 1.73 1.59 1.35 1.18 1.17 1.14 1.34 1.01 1.34 1.18 1.11 0.61 0.42 0.40 0.42 0.57 1.10 0.62 0.72 0.52 0.38 0.35 0.66 1.14 1.15 1.30 1.40 1.56 1.57 1.75 1.86 1.45 1.47 1.98 2.27
0.58 0.61 0.68 0.80 1.03 1.20 1.24 1.40 1.66 1.85 1.80 1.50 1.38 1.30 1.23 1.39 1.52 1.66 1.43 0.98 0.83 0.72 0.69 0.68 0.81 1.25 0.72 0.75 0.81 0.67 1.40 1.43 1.47 1.20 1.25 1.44 1.48 1.48 1.59 1.61 1.54 1.55 1.66
0.68 0.66 0.79 0.84 0.92 1.02 1.05 1.08 1.08 1.21 1.52 1.76 1.63 1.62 1.64 1.71 1.90 1.81 1.68 1.61 1.56 1.15 1.27 1.05 1.28 1.26 0.81 0.85 0.99 1.42 1.58 1.29 1.16 1.40 1.55 1.67 1.70 1.67 1.64 1.55 1.48 1.40 1.41
0.70 0.80 0.77 0.71 0.65 0.60 0.64 0.80 0.92 0.96 0.94 1.00 1.13 1.32 1.50 1.59 1.76 1.93 1.86 1.85 1.84 1.66 1.93 2.13 1.95 1.41 1.13 1.18 1.36 1.37 1.30 1.29 1.46 1.60 1.68 1.70 1.59 1.48 1.32 1.21 1.09 0.98 0.91
0.17 0.25 0.28 0.32 0.37 0.34 0.39 0.46 0.48 0.58 0.70 0.84 0.94 1.01 1.07 1.10 1.15 1.21 1.25 1.34 1.51 1.65 1.95 2.02 1.92 1.75 1.65 1.70 1.61 1.51 1.44 1.49 1.55 1.61 1.57 1.46 1.27 1.11 1.03 1.08 1.06 0.94 0.79
0.14 0.17 0.18 0.20 0.25 0.27 0.33 0.43 0.41 0.59 0.62 0.66 0.81 0.87 0.93 1.14 1.50 1.49 1.45 1.52 1.62 1.81 1.90 2.03 2.06 2.04 2.01 1.99 1.88 1.77 1.65 1.51 1.35 1.26 1.13 1.02 0.86 0.68 0.58 0.47 0.47 0.55 0.75
0.17 0.19 0.24 0.18 0.19 0.22 0.22 0.35 0.55 0.63 0.59 0.65 0.74 0.77 1.09 1.31 1.41 1.36 1.36 1.39 1.41 1.41 1.36 1.43 1.39 1.31 1.24 1.16 1.09 1.04 0.95 0.90 0.82 0.70 0.64 0.57 0.57 0.55 0.53 0.53 0.50 0.49 0.53
0.31 0.28 0.29 0.31 0.34 0.36 0.37 0.36 0.50 0.71 0.75 0.93 1.01 1.03 1.02 1.14 1.01 0.94 0.89 0.83 0.82 0.75 0.87 0.84 0.80 0.75 0.68 0.59 0.57 0.52 0.49 0.41 0.40 0.49 0.48 0.44 0.45 0.45 0.40 0.38 0.34 0.35 0.34
0.97 0.98 0.90 0.88 0.94 1.06 1.19 1.29 1.35 1.37 1.37 1.45 1.43 1.25 1.20 1.13 1.05 0.96 0.84 0.67 0.70 0.62 0.60 0.52 0.46 0.38 0.30 0.25 0.21 0.19 0.19 0.21 0.26 0.26 0.26 0.26 0.26 0.27 0.29 0.24 0.20 0.19 0.15
1.66 1.78 1.77 1.71 1.62 1.43 1.27 1.16 1.12 1.13 1.12 1.16 1.14 1.04 0.98 0.85 0.71 0.62 0.53 0.59 0.55 0.44 0.34 0.29 0.22 0.17 0.16 0.16 0.17 0.18 0.19 0.20 0.18 0.18 0.16 0.15 0.17 0.21 0.22 0.17 0.14 0.13 0.14
1.08 1.01 0.90 0.86 0.83 0.78 0.75 0.69 0.66 0.63 0.60 0.58 0.54 0.52 0.42 0.33 0.31 0.25 0.23 0.25 0.24 0.20 0.17 0.16 0.13 0.11 0.12 0.13 0.14 0.15 0.15 0.13 0.13 0.13 0.12 0.13 0.12 0.12 0.14 0.15 0.16 0.15 0.14
0.66 0.65 0.61 0.56 0.54 0.50 0.46 0.40 0.36 0.33 0.31 0.29 0.29 0.20 0.13 0.16 0.19 0.16 0.14 0.16 0.15 0.15 0.15 0.16 0.12 0.13 0.13 0.14 0.15 0.17 0.16 0.15 0.15 0.16 0.16 0.15 0.16 0.20 0.17 0.20 0.18 0.15 0.12
0.38 0.34 0.29 0.26 0.23 0.22 0.20 0.19 0.20 0.19 0.16 0.15 0.14 0.12 0.10 0.13 0.15 0.15 0.15 0.15 0.12 0.11 0.13 0.21 0.22 0.18 0.18 0.21 0.23 0.26 0.22 0.21 0.22 0.25 0.25 0.22 0.22 0.22 0.24 0.25 0.25 0.25 0.20
0.16 0.14 0.12 0.12 0.12 0.12 0.13 0.14 0.16 0.19 0.20 0.21 0.20 0.17 0.12 0.13 0.12 0.11 0.14 0.17 0.23 0.29 0.28 0.30 0.34 0.30 0.24 0.27 0.30 0.32 0.31 0.22 0.22 0.28 0.30 0.22 0.19 0.21 0.24 0.22 0.20 0.22 0.18
0.10 0.10 0.09 0.10 0.11 0.12 0.14 0.14 0.14 0.14 0.17 0.23 0.26 0.26 0.25 0.26 0.27 0.29 0.33 0.38 0.42 0.43 0.40 0.42 0.41 0.38 0.36 0.35 0.33 0.29 0.27 0.24 0.25 0.25 0.30 0.32 0.24 0.19 0.24 0.23 0.20 0.20 0.20
0.08 0.08 0.08 0.10 0.14 0.15 0.19 0.20 0.22 0.24 0.25 0.25 0.26 0.26 0.26 0.30 0.35 0.37 0.38 0.30 0.28 0.29 0.29 0.31 0.35 0.36 0.37 0.40 0.43 0.42 0.38 0.33 0.32 0.33 0.40 0.36 0.28 0.28 0.29 0.26 0.23 0.26 0.24
0.07 0.10 0.13 0.16 0.20 0.22 0.27 0.31 0.34 0.34 0.36 0.35 0.38 0.39 0.37 0.32 0.26 0.23 0.21 0.18 0.16 0.16 0.16 0.19 0.18 0.17 0.18 0.20 0.22 0.27 0.26 0.27 0.32 0.35 0.38 0.38 0.35 0.32 0.32 0.29 0.25 0.29 0.30

GFSGL_prec_precacc_114.txt.gz
Total_Precipitation_Accumulation
1.37 1.42 1.19 1.00 1.13 1.13 1.09 1.09 1.13 1.04 1.06 1.01 1.03 1.03 0.83 0.97 1.31 1.59 1.64 1.56 1.63 1.61 1.70 1.43 1.06 0.92 0.94 0.83 0.78 0.73 0.62 0.58 0.58 0.40 0.20 0.16 0.18 0.21 0.19 0.17 0.12 0.09 0.08
1.31 1.55 1.67 1.40 1.70 2.06 2.10 1.79 1.92 1.87 1.64 1.50 1.19 1.00 0.79 0.66 0.82 1.41 1.72 1.59 1.38 1.60 1.86 1.77 1.45 1.25 1.13 1.02 0.85 0.69 0.54 0.48 0.45 0.36 0.26 0.19 0.15 0.14 0.19 0.22 0.23 0.21 0.13
1.93 1.81 1.65 1.39 1.75 1.58 1.21 0.99 0.86 0.82 0.79 0.83 0.83 0.82 0.83 0.60 0.52 0.71 1.15 1.63 1.50 1.32 1.49 1.76 1.50 1.24 1.08 1.02 0.91 0.69 0.53 0.47 0.56 0.53 0.36 0.22 0.16 0.15 0.25 0.38 0.33 0.18 0.10
1.70 1.73 1.52 1.37 1.28 1.03 0.87 0.78 0.65 0.57 0.36 0.43 0.63 0.78 0.99 0.92 0.94 0.91 0.97 1.03 1.41 1.35 1.21 1.19 1.35 1.24 0.91 0.79 0.78 0.81 0.81 0.71 0.54 0.54 0.44 0.32 0.25 0.23 0.41 0.34 0.29 0.25 0.23
1.45 1.91 1.81 1.56 1.43 1.52 1.53 1.41 0.88 0.76 0.65 0.52 0.47 0.44 0.78 1.14 0.82 0.76 0.71 1.00 1.19 1.37 1.17 1.10 1.00 1.23 1.15 1.03 0.96 0.78 0.75 0.76 0.75 0.71 0.65 0.56 0.49 0.55 0.64 0.59 0.63 0.54 0.67
0.70 1.16 1.60 1.97 1.29 1.34 1.61 1.81 1.36 0.94 1.02 0.78 0.85 0.68 0.61 0.85 1.25 0.91 0.76 0.58 0.77 0.85 0.87 0.84 1.00 0.97 0.89 1.06 1.15 1.19 1.08 0.94 0.81 0.71 0.65 0.61 0.50 0.48 0.57 0.71 0.75 0.87 0.96
0.58 0.97 1.11 1.39 1.81 1.40 1.56 1.68 1.93 1.59 1.25 1.24 0.99 0.96 0.89 0.84 1.38 0.95 0.99 0.88 0.78 0.58 0.51 0.61 0.61 1.05 1.30 0.84 1.14 1.23 1.32 1.44 1.23 1.05 0.87 0.78 0.92 1.00 1.07 1.10 1.02 0.99 0.93
0.53 0.71 0.86 0.81 1.32 1.67 1.34 1.28 1.36 1.51 1.60 1.50 1.18 0.97 0.74 0.75 0.96 1.23 1.34 0.97 0.86 0.66 0.52 0.40 0.44 0.53 1.07 1.31 1.12 1.24 1.31 1.49 1.76 1.60 1.55 1.70 1.64 1.43 1.14 1.18 1.38 1.49 1.50
0.61 0.80 0.99 1.10 1.13 1.22 1.48 1.35 1.44 1.34 1.33 1.44 1.27 0.92 0.80 0.78 1.18 1.09 1.11 0.76 0.95 0.88 0.72 0.73 0.72 0.47 1.00 1.10 0.81 0.90 1.04 1.41 1.87 1.75 1.49 1.48 1.59 1.75 1.41 1.26 1.52 1.88 2.35
0.53 0.66 0.80 0.97 1.16 1.39 1.71 1.85 1.74 1.60 1.38 1.21 1.20 1.17 1.36 1.05 1.41 1.28 1.23 0.80 0.70 0.81 0.74 0.79 1.27 0.78 0.86 0.66 0.46 0.44 0.73 1.16 1.15 1.30 1.40 1.56 1.57 1.76 1.89 1.47 1.48 2.03 2.37
0.58 0.61 0.68 0.80 1.03 1.20 1.24 1.40 1.66 1.85 1.80 1.50 1.38 1.31 1.24 1.41 1.56 1.73 1.55 1.20 1.14 0.97 0.97 0.99 1.03 1.38 0.88 0.93 0.96 0.78 1.46 1.45 1.48 1.20 1.25 1.44 1.48 1.49 1.60 1.63 1.56 1.59 1.71
0.68 0.66 0.79 0.84 0.92 1.02 1.05 1.08 1.08 1.21 1.52 1.76 1.63 1.62 1.64 1.71 1.90 1.82 1.72 1.67 1.67 1.33 1.52 1.30 1.54 1.50 1.00 1.00 1.12 1.53 1.63 1.32 1.16 1.40 1.55 1.67 1.71 1.67 1.64 1.56 1.49 1.43 1.47
0.70 0.80 0.77 0.71 0.65 0.60 0.64 0.80 0.92 0.96 0.94 1.00 1.13 1.32 1.50 1.59 1.76 1.93 1.86 1.86 1.88 1.73 2.06 2.35 2.23 1.71 1.41 1.41 1.53 1.49 1.37 1.31 1.46 1.61 1.69 1.71 1.59 1.49 1.32 1.21 1.09 1.00 0.93
0.17 0.25 0.28 0.32 0.37 0.34 0.39 0.46 0.48 0.58 0.70 0.85 0.95 1.01 1.07 1.10 1.15 1.21 1.25 1.34 1.52 1.66 1.98 2.07 2.00 1.88 1.84 1.93 1.86 1.73 1.61 1.60 1.60 1.64 1.60 1.48 1.29 1.13 1.05 1.09 1.07 0.95 0.81
0.14 0.17 0.18 0.20 0.25 0.27 0.33 0.44 0.42 0.59 0.62 0.66 0.82 0.87 0.94 1.15 1.51 1.49 1.45 1.52 1.62 1.81 1.90 2.04 2.06 2.05 2.03 2.03 1.96 1.89 1.81 1.67 1.49 1.37 1.20 1.08 0.91 0.73 0.62 0.51 0.51 0.58 0.78
0.17 0.19 0.24 0.18 0.19 0.22 0.22 0.35 0.56 0.63 0.59 0.65 0.75 0.78 1.09 1.32 1.41 1.37 1.36 1.39 1.41 1.41 1.36 1.43 1.39 1.31 1.24 1.16 1.11 1.07 1.01 1.00 0.94 0.83 0.76 0.68 0.65 0.63 0.61 0.61 0.57 0.54 0.60
0.31 0.28 0.29 0.31 0.34 0.36 0.37 0.36 0.50 0.71 0.75 0.93 1.01 1.03 1.02 1.14 1.01 0.94 0.89 0.83 0.82 0.75 0.87 0.84 0.80 0.75 0.68 0.60 0.57 0.52 0.50 0.44 0.44 0.55 0.57 0.54 0.53 0.52 0.47 0.46 0.42 0.41 0.40
0.97 0.98 0.90 0.88 0.94 1.06 1.19 1.29 1.35 1.37 1.37 1.45 1.43 1.25 1.20 1.13 1.05 0.96 0.84 0.67 0.70 0.62 0.60 0.52 0.47 0.38 0.31 0.25 0.21 0.20 0.19 0.21 0.26 0.26 0.28 0.29 0.30 0.32 0.34 0.29 0.25 0.24 0.21
1.66 1.78 1.77 1.71 1.62 1.43 1.27 1.16 1.12 1.13 1.12 1.16 1.14 1.04 0.98 0.85 0.71 0.62 0.53 0.59 0.55 0.44 0.35 0.29 0.22 0.18 0.16 0.16 0.17 0.18 0.19 0.20 0.18 0.18 0.16 0.16 0.17 0.21 0.24 0.20 0.18 0.17 0.19
1.08 1.01 0.90 0.86 0.83 0.78 0.75 0.69 0.66 0.63 0.60 0.58 0.54 0.52 0.42 0.33 0.31 0.25 0.23 0.25 0.24 0.20 0.17 0.16 0.13 0.11 0.12 0.13 0.14 0.15 0.15 0.13 0.14 0.14 0.12 0.13 0.12 0.12 0.14 0.15 0.17 0.17 0.16
0.66 0.65 0.61 0.56 0.54 0.50 0.46 0.40 0.36 0.33 0.32 0.29 0.30 0.21 0.13 0.16 0.19 0.16 0.14 0.16 0.15 0.15 0.15 0.16 0.12 0.13 0.13 0.15 0.15 0.17 0.17 0.15 0.15 0.16 0.16 0.15 0.16 0.20 0.17 0.20 0.18 0.15 0.12
0.38 0.34 0.29 0.26 0.23 0.22 0.20 0.19 0.20 0.19 0.16 0.15 0.14 0.13 0.10 0.14 0.15 0.15 0.15 0.15 0.12 0.11 0.13 0.21 0.22 0.18 0.19 0.21 0.23 0.26 0.22 0.21 0.22 0.25 0.25 0.22 0.22 0.22 0.24 0.25 0.25 0.25 0.20
0.16 0.14 0.12 0.12 0.12 0.12 0.13 0.14 0.16 0.19 0.20 0.21 0.20 0.17 0.12 0.13 0.12 0.11 0.14 0.17 0.23 0.29 0.28 0.30 0.34 0.30 0.24 0.27 0.30 0.32 0.31 0.22 0.22 0.29 0.30 0.23 0.19 0.21 0.24 0.22 0.20 0.22 0.18
0.10 0.10 0.09 0.10 0.11 0.12 0.14 0.14 0.14 0.14 0.17 0.23 0.26 0.26 0.25 0.26 0.27 0.29 0.33 0.38 0.42 0.43 0.40 0.42 0.41 0.38 0.36 0.35 0.33 0.29 0.27 0.24 0.25 0.26 0.31 0.32 0.24 0.19 0.24 0.23 0.20 0.20 0.20
0.08 0.08 0.08 0.10 0.14 0.15 0.19 0.20 0.22 0.24 0.25 0.26 0.26 0.27 0.26 0.30 0.35 0.37 0.38 0.31 0.28 0.29 0.29 0.31 0.35 0.36 0.37 0.40 0.43 0.42 0.38 0.33 0.32 0.33 0.40 0.36 0.28 0.28 0.29 0.26 0.23 0.26 0.24
0.08 0.10 0.13 0.16 0.20 0.22 0.27 0.31 0.34 0.34 0.36 0.36 0.39 0.40 0.39 0.32 0.27 0.23 0.21 0.18 0.16 0.16 0.16 0.19 0.18 0.17 0.18 0.20 0.22 0.27 0.26 0.27 0.32 0.35 0.38 0.38 0.35 0.32 0.32 0.29 0.25 0.29 0.30

GFSGL_prec_precacc_117.txt.gz
Total_Precipitation_Accumulation
1.37 1.42 1.19 1.00 1.13 1.13 1.09 1.09 1.13 1.04 1.06 1.01 1.03 1.03 0.83 0.98 1.32 1.60 1.64 1.56 1.63 1.64 1.71 1.47 1.08 0.97 0.98 0.95 0.97 0.90 0.74 0.68 0.64 0.43 0.20 0.16 0.18 0.21 0.20 0.17 0.12 0.09 0.08
1.31 1.55 1.67 1.40 1.70 2.06 2.10 1.79 1.92 1.87 1.64 1.50 1.19 1.00 0.79 0.66 0.83 1.42 1.74 1.61 1.39 1.61 1.90 1.86 1.49 1.30 1.24 1.13 1.01 0.87 0.65 0.60 0.65 0.48 0.28 0.20 0.16 0.14 0.19 0.22 0.24 0.21 0.13
1.93 1.81 1.65 1.39 1.75 1.58 1.21 0.99 0.86 0.82 0.79 0.83 0.83 0.82 0.83 0.60 0.52 0.71 1.17 1.68 1.54 1.34 1.51 1.79 1.54 1.30 1.13 1.08 0.98 0.78 0.64 0.56 0.62 0.61 0.42 0.27 0.18 0.15 0.25 0.38 0.33 0.18 0.10
1.70 1.73 1.52 1.37 1.28 1.03 0.87 0.78 0.65 0.57 0.36 0.43 0.63 0.78 0.99 0.92 0.94 0.91 0.97 1.06 1.46 1.41 1.28 1.24 1.38 1.30 0.96 0.84 0.83 0.87 0.89 0.79 0.59 0.59 0.49 0.36 0.27 0.24 0.43 0.34 0.29 0.25 0.23
1.45 1.91 1.81 1.56 1.43 1.52 1.53 1.41 0.88 0.76 0.65 0.52 0.47 0.44 0.78 1.14 0.83 0.77 0.72 1.00 1.20 1.40 1.41 1.42 1.16 1.37 1.33 1.13 1.01 0.80 0.80 0.88 0.92 0.80 0.72 0.61 0.52 0.57 0.66 0.60 0.64 0.54 0.67
0.70 1.16 1.60 1.97 1.29 1.34 1.61 1.81 1.36 0.94 1.02 0.78 0.85 0.68 0.61 0.86 1.27 0.92 0.78 0.61 0.81 1.02 1.08 1.08 1.47 1.68 1.22 1.21 1.22 1.21 1.10 0.96 0.87 0.87 0.79 0.68 0.54 0.49 0.58 0.72 0.76 0.87 0.97
0.58 0.97 1.11 1.39 1.81 1.40 1.57 1.68 1.93 1.59 1.26 1.24 0.99 0.97 0.91 0.86 1.41 0.97 1.06 0.95 0.84 0.68 0.80 0.92 0.88 1.56 1.85 1.13 1.17 1.26 1.43 1.65 1.43 1.19 0.96 0.90 1.00 1.01 1.07 1.10 1.03 0.99 0.93
0.53 0.71 0.86 0.81 1.32 1.68 1.34 1.28 1.36 1.52 1.61 1.51 1.20 1.00 0.77 0.80 1.02 1.30 1.41 1.05 0.94 0.73 0.63 0.70 0.79 0.83 1.33 1.39 1.15 1.32 1.39 1.68 2.06 1.87 1.76 1.77 1.69 1.44 1.14 1.18 1.38 1.50 1.50
0.61 0.80 0.99 1.10 1.13 1.22 1.48 1.35 1.44 1.34 1.33 1.44 1.28 0.94 0.85 0.87 1.30 1.23 1.24 0.87 1.03 0.97 0.86 0.94 0.93 0.71 1.17 1.28 0.89 1.15 1.32 1.59 2.09 1.89 1.55 1.54 1.62 1.78 1.43 1.27 1.52 1.89 2.37
0.53 0.66 0.80 0.97 1.16 1.39 1.71 1.85 1.74 1.60 1.38 1.21 1.20 1.17 1.38 1.08 1.48 1.36 1.33 0.92 0.83 0.97 0.96 1.07 1.66 1.10 1.13 0.88 0.58 0.56 1.09 1.50 1.32 1.50 1.55 1.58 1.58 1.76 1.92 1.49 1.49 2.04 2.39
0.59 0.61 0.68 0.80 1.03 1.20 1.24 1.40 1.66 1.85 1.80 1.50 1.38 1.31 1.24 1.41 1.56 1.74 1.56 1.24 1.23 1.09 1.14 1.23 1.35 1.75 1.24 1.25 1.18 0.95 1.70 1.76 1.79 1.36 1.35 1.47 1.48 1.49 1.60 1.63 1.56 1.60 1.72
0.68 0.66 0.79 0.84 0.92 1.02 1.05 1.08 1.08 1.21 1.52 1.76 1.63 1.62 1.64 1.71 1.90 1.82 1.72 1.68 1.68 1.35 1.58 1.43 1.76 1.77 1.28 1.30 1.44 1.80 1.83 1.52 1.36 1.61 1.66 1.71 1.71 1.67 1.64 1.56 1.49 1.44 1.48
0.70 0.80 0.77 0.71 0.65 0.60 0.64 0.80 0.92 0.96 0.94 1.00 1.13 1.32 1.50 1.59 1.76 1.93 1.86 1.86 1.88 1.73 2.07 2.37 2.26 1.76 1.51 1.61 1.80 1.77 1.62 1.54 1.67 1.78 1.80 1.75 1.61 1.50 1.33 1.21 1.10 1.01 0.94
0.17 0.25 0.28 0.32 0.37 0.34 0.40 0.46 0.48 0.58 0.70 0.85 0.95 1.01 1.07 1.10 1.15 1.21 1.25 1.34 1.52 1.66 1.98 2.07 2.00 1.89 1.85 1.95 1.93 1.85 1.79 1.84 1.87 1.88 1.77 1.58 1.33 1.14 1.06 1.11 1.08 0.97 0.83
0.14 0.17 0.18 0.20 0.25 0.27 0.34 0.44 0.42 0.59 0.62 0.67 0.83 0.88 0.94 1.15 1.51 1.49 1.45 1.52 1.62 1.81 1.90 2.04 2.06 2.05 2.03 2.03 1.96 1.92 1.87 1.76 1.61 1.54 1.41 1.27 1.06 0.81 0.65 0.54 0.54 0.61 0.80
0.17 0.19 0.24 0.18 0.19 0.22 0.22 0.35 0.56 0.63 0.59 0.65 0.75 0.78 1.09 1.32 1.41 1.37 1.36 1.39 1.41 1.41 1.36 1.43 1.39 1.32 1.25 1.17 1.11 1.08 1.02 1.01 0.97 0.88 0.83 0.77 0.77 0.76 0.74 0.70 0.64 0.61 0.65
0.31 0.28 0.29 0.31 0.34 0.36 0.37 0.36 0.50 0.71 0.75 0.93 1.01 1.03 1.02 1.14 1.01 0.94 0.89 0.83 0.82 0.75 0.87 0.84 0.80 0.76 0.69 0.60 0.57 0.53 0.51 0.45 0.44 0.56 0.58 0.56 0.57 0.59 0.56 0.56 0.54 0.53 0.50
0.97 0.98 0.90 0.88 0.94 1.06 1.19 1.29 1.35 1.38 1.37 1.45 1.43 1.25 1.20 1.13 1.05 0.96 0.84 0.67 0.70 0.62 0.60 0.53 0.47 0.38 0.31 0.25 0.22 0.20 0.19 0.22 0.26 0.26 0.28 0.30 0.31 0.35 0.38 0.35 0.33 0.34 0.31
1.66 1.78 1.77 1.71 1.62 1.43 1.27 1.16 1.12 1.13 1.12 1.16 1.14 1.04 0.98 0.85 0.71 0.62 0.53 0.59 0.55 0.44 0.35 0.29 0.22 0.18 0.16 0.16 0.18 0.19 0.20 0.20 0.18 0.19 0.16 0.16 0.17 0.22 0.26 0.24 0.22 0.23 0.25
1.08 1.01 0.90 0.86 0.83 0.78 0.75 0.69 0.66 0.63 0.60 0.58 0.54 0.53 0.42 0.33 0.31 0.25 0.23 0.25 0.24 0.20 0.17 0.16 0.13 0.11 0.12 0.13 0.15 0.15 0.15 0.13 0.14 0.14 0.12 0.13 0.12 0.12 0.14 0.16 0.19 0.20 0.19
0.66 0.65 0.61 0.56 0.54 0.50 0.46 0.40 0.36 0.33 0.32 0.29 0.30 0.21 0.13 0.16 0.19 0.16 0.14 0.16 0.15 0.15 0.15 0.16 0.12 0.13 0.13 0.15 0.15 0.17 0.17 0.15 0.15 0.17 0.16 0.15 0.16 0.20 0.17 0.20 0.18 0.15 0.12
0.38 0.34 0.29 0.26 0.23 0.22 0.20 0.19 0.20 0.19 0.16 0.15 0.14 0.13 0.10 0.14 0.15 0.15 0.15 0.15 0.12 0.11 0.13 0.21 0.22 0.18 0.19 0.21 0.23 0.26 0.22 0.21 0.22 0.25 0.25 0.22 0.22 0.22 0.24 0.25 0.25 0.25 0.20
0.16 0.14 0.12 0.12 0.12 0.12 0.13 0.14 0.16 0.19 0.20 0.21 0.20 0.17 0.12 0.13 0.12 0.11 0.14 0.17 0.23 0.29 0.28 0.30 0.34 0.30 0.24 0.27 0.30 0.32 0.31 0.22 0.23 0.29 0.31 0.23 0.19 0.21 0.24 0.22 0.20 0.22 0.18
0.10 0.10 0.09 0.10 0.11 0.12 0.14 0.14 0.14 0.14 0.17 0.23 0.26 0.26 0.25 0.26 0.28 0.29 0.33 0.38 0.42 0.43 0.40 0.42 0.41 0.38 0.36 0.35 0.33 0.29 0.27 0.24 0.25 0.26 0.31 0.33 0.24 0.19 0.24 0.23 0.20 0.20 0.20
0.08 0.08 0.08 0.10 0.14 0.15 0.19 0.20 0.22 0.24 0.25 0.26 0.26 0.27 0.27 0.31 0.35 0.37 0.38 0.31 0.28 0.29 0.29 0.31 0.35 0.36 0.37 0.40 0.43 0.42 0.38 0.33 0.32 0.33 0.40 0.36 0.29 0.28 0.29 0.26 0.23 0.26 0.24
0.08 0.10 0.13 0.16 0.20 0.22 0.27 0.31 0.34 0.34 0.36 0.36 0.39 0.40 0.39 0.33 0.27 0.23 0.21 0.20 0.17 0.16 0.16 0.19 0.18 0.18 0.18 0.20 0.22 0.27 0.26 0.27 0.32 0.35 0.38 0.38 0.35 0.33 0.32 0.29 0.25 0.29 0.30

GFSGL_prec_precacc_120.txt.gz
Total_Precipitation_Accumulation
1.37 1.42 1.19 1.00 1.13 1.13 1.09 1.09 1.13 1.04 1.06 1.01 1.03 1.03 0.83 0.98 1.32 1.60 1.65 1.56 1.64 1.66 1.73 1.49 1.10 0.99 1.00 0.98 0.98 0.92 0.79 0.76 0.68 0.46 0.23 0.19 0.22 0.23 0.21 0.18 0.12 0.09 0.09
1.31 1.55 1.67 1.40 1.70 2.06 2.10 1.79 1.92 1.87 1.64 1.50 1.19 1.00 0.79 0.66 0.83 1.42 1.74 1.61 1.39 1.62 1.91 1.88 1.50 1.32 1.25 1.17 1.07 0.93 0.74 0.70 0.76 0.59 0.44 0.32 0.23 0.17 0.20 0.23 0.24 0.22 0.13
1.93 1.82 1.65 1.39 1.76 1.58 1.21 0.99 0.86 0.82 0.79 0.83 0.83 0.82 0.83 0.60 0.52 0.71 1.17 1.68 1.55 1.36 1.54 1.83 1.57 1.34 1.16 1.10 1.02 0.82 0.69 0.65 0.72 0.75 0.59 0.43 0.31 0.22 0.28 0.39 0.34 0.19 0.11
1.70 1.73 1.52 1.37 1.28 1.03 0.88 0.78 0.65 0.57 0.36 0.43 0.63 0.78 0.99 0.92 0.94 0.91 0.97 1.06 1.46 1.42 1.31 1.30 1.47 1.40 1.01 0.86 0.85 0.88 0.91 0.84 0.66 0.66 0.58 0.50 0.39 0.31 0.47 0.36 0.29 0.25 0.24
1.46 1.91 1.81 1.56 1.43 1.52 1.54 1.41 0.88 0.76 0.65 0.52 0.47 0.45 0.78 1.14 0.83 0.77 0.72 1.00 1.20 1.40 1.41 1.43 1.19 1.42 1.38 1.18 1.04 0.82 0.82 0.93 0.97 0.83 0.75 0.64 0.61 0.65 0.72 0.63 0.64 0.54 0.67
0.70 1.16 1.60 1.97 1.29 1.34 1.61 1.81 1.36 0.94 1.02 0.78 0.85 0.68 0.61 0.86 1.28 0.93 0.79 0.61 0.81 1.03 1.08 1.08 1.48 1.68 1.22 1.23 1.30 1.28 1.15 1.02 0.93 0.90 0.80 0.69 0.55 0.51 0.62 0.75 0.77 0.88 0.98
0.58 0.97 1.11 1.39 1.81 1.40 1.57 1.68 1.93 1.59 1.26 1.24 1.00 0.97 0.91 0.87 1.41 0.97 1.07 0.96 0.85 0.71 0.84 0.95 0.89 1.57 1.89 1.33 1.44 1.52 1.65 1.82 1.51 1.24 0.98 0.90 1.01 1.05 1.10 1.13 1.04 1.00 0.93
0.53 0.71 0.86 0.81 1.32 1.68 1.34 1.28 1.36 1.52 1.61 1.51 1.20 1.00 0.77 0.80 1.03 1.30 1.43 1.08 0.98 0.80 0.72 0.79 0.89 0.97 1.62 1.69 1.37 1.53 1.60 1.87 2.25 2.00 1.80 1.79 1.74 1.53 1.22 1.25 1.41 1.52 1.51
0.61 0.80 0.99 1.10 1.13 1.22 1.48 1.35 1.44 1.34 1.33 1.44 1.29 0.94 0.85 0.87 1.30 1.24 1.25 0.92 1.10 1.06 0.94 1.02 1.02 0.84 1.43 1.66 1.29 1.41 1.47 1.68 2.22 2.10 1.85 1.85 1.88 1.99 1.57 1.36 1.62 1.98 2.42
0.53 0.66 0.80 0.97 1.16 1.39 1.71 1.85 1.74 1.60 1.38 1.21 1.20 1.17 1.38 1.08 1.48 1.36 1.34 0.94 0.86 1.02 1.01 1.14 1.77 1.28 1.32 1.10 0.91 0.88 1.28 1.63 1.52 1.72 1.75 1.83 1.86 2.09 2.25 1.67 1.57 2.09 2.40
0.59 0.61 0.68 0.80 1.03 1.20 1.24 1.40 1.66 1.85 1.80 1.50 1.38 1.31 1.24 1.42 1.57 1.74 1.56 1.24 1.24 1.10 1.16 1.26 1.45 1.90 1.45 1.52 1.50 1.26 1.99 1.98 2.00 1.62 1.70 1.83 1.75 1.64 1.74 1.80 1.72 1.70 1.75
0.68 0.66 0.79 0.84 0.92 1.02 1.05 1.08 1.08 1.21 1.52 1.76 1.63 1.62 1.64 1.71 1.90 1.82 1.72 1.68 1.68 1.36 1.59 1.45 1.79 1.81 1.36 1.46 1.66 2.10 2.15 1.77 1.58 1.84 1.99 2.09 2.07 1.95 1.77 1.66 1.54 1.48 1.51
0.70 0.80 0.77 0.71 0.65 0.60 0.64 0.80 0.92 0.96 0.94 1.00 1.13 1.32 1.50 1.59 1.76 1.93 1.86 1.86 1.88 1.73 2.07 2.37 2.26 1.77 1.52 1.64 1.87 1.88 1.79 1.71 1.87 2.03 2.12 2.11 1.95 1.79 1.51 1.28 1.15 1.03 0.95
0.17 0.25 0.28 0.32 0.37 0.34 0.40 0.46 0.48 0.58 0.70 0.85 0.95 1.01 1.07 1.10 1.15 1.21 1.25 1.34 1.52 1.66 1.98 2.07 2.00 1.89 1.85 1.96 1.94 1.87 1.84 1.94 2.00 2.06 2.03 1.89 1.66 1.44 1.30 1.26 1.15 1.02 0.86
0.14 0.17 0.18 0.20 0.25 0.27 0.34 0.44 0.42 0.59 0.62 0.67 0.83 0.88 0.94 1.16 1.51 1.49 1.45 1.52 1.62 1.81 1.90 2.04 2.06 2.05 2.03 2.04 1.96 1.92 1.88 1.78 1.65 1.60 1.49 1.40 1.25 1.05 0.90 0.74 0.69 0.69 0.85
0.17 0.19 0.24 0.18 0.19 0.22 0.22 0.35 0.56 0.63 0.59 0.65 0.75 0.78 1.09 1.32 1.41 1.37 1.36 1.39 1.41 1.41 1.36 1.43 1.39 1.32 1.25 1.17 1.12 1.08 1.02 1.02 0.98 0.90 0.86 0.80 0.82 0.86 0.89 0.90 0.85 0.79 0.77
0.31 0.28 0.29 0.31 0.34 0.36 0.37 0.36 0.50 0.71 0.75 0.93 1.01 1.03 1.02 1.14 1.01 0.94 0.89 0.83 0.82 0.75 0.87 0.85 0.80 0.76 0.69 0.60 0.58 0.53 0.51 0.45 0.45 0.56 0.59 0.58 0.60 0.62 0.61 0.63 0.63 0.66 0.66
0.97 0.98 0.90 0.88 0.94 1.06 1.19 1.29 1.35 1.38 1.37 1.45 1.43 1.25 1.20 1.13 1.05 0.96 0.84 0.67 0.70 0.62 0.60 0.53 0.47 0.39 0.31 0.26 0.22 0.20 0.20 0.22 0.27 0.26 0.28 0.30 0.31 0.36 0.41 0.38 0.37 0.39 0.38
1.66 1.78 1.77 1.71 1.62 1.43 1.27 1.16 1.12 1.13 1.12 1.16 1.14 1.04 0.98 0.85 0.71 0.62 0.53 0.59 0.55 0.44 0.35 0.29 0.22 0.18 0.17 0.16 0.18 0.19 0.20 0.20 0.18 0.19 0.16 0.16 0.17 0.22 0.27 0.25 0.24 0.26 0.28
1.08 1.01 0.90 0.86 0.83 0.78 0.75 0.69 0.66 0.63 0.60 0.58 0.55 0.53 0.42 0.33 0.31 0.25 0.23 0.25 0.24 0.20 0.17 0.16 0.13 0.11 0.12 0.13 0.15 0.15 0.15 0.13 0.14 0.14 0.12 0.13 0.12 0.12 0.14 0.16 0.19 0.20 0.22
0.66 0.65 0.61 0.56 0.54 0.50 0.46 0.40 0.36 0.33 0.32 0.29 0.30 0.21 0.13 0.16 0.19 0.16 0.14 0.16 0.15 0.15 0.15 0.16 0.12 0.13 0.13 0.15 0.15 0.17 0.17 0.15 0.15 0.17 0.16 0.16 0.16 0.20 0.17 0.20 0.18 0.15 0.13
0.38 0.34 0.29 0.26 0.23 0.22 0.20 0.19 0.20 0.19 0.16 0.15 0.14 0.13 0.10 0.14 0.15 0.15 0.15 0.15 0.12 0.11 0.13 0.21 0.22 0.18 0.19 0.21 0.23 0.26 0.22 0.21 0.22 0.26 0.25 0.23 0.22 0.22 0.24 0.25 0.25 0.25 0.20
0.16 0.14 0.12 0.12 0.12 0.12 0.13 0.14 0.16 0.19 0.20 0.21 0.20 0.18 0.13 0.13 0.12 0.11 0.14 0.17 0.23 0.29 0.28 0.30 0.34 0.30 0.24 0.27 0.30 0.32 0.31 0.22 0.23 0.29 0.31 0.23 0.19 0.21 0.24 0.22 0.20 0.22 0.18
0.10 0.10 0.09 0.10 0.11 0.12 0.14 0.14 0.14 0.14 0.17 0.23 0.26 0.26 0.25 0.26 0.28 0.29 0.33 0.38 0.42 0.43 0.41 0.42 0.41 0.38 0.36 0.35 0.33 0.29 0.27 0.24 0.25 0.26 0.31 0.33 0.25 0.20 0.24 0.23 0.20 0.20 0.20
0.08 0.08 0.08 0.10 0.14 0.15 0.19 0.20 0.22 0.24 0.25 0.26 0.26 0.27 0.27 0.31 0.35 0.37 0.38 0.31 0.29 0.29 0.30 0.32 0.35 0.37 0.37 0.40 0.44 0.42 0.38 0.33 0.32 0.33 0.40 0.36 0.29 0.28 0.29 0.26 0.23 0.26 0.24
0.08 0.10 0.13 0.16 0.20 0.22 0.27 0.31 0.34 0.34 0.36 0.36 0.39 0.41 0.39 0.33 0.27 0.23 0.21 0.20 0.17 0.16 0.16 0.19 0.19 0.18 0.18 0.20 0.22 0.27 0.26 0.27 0.32 0.35 0.38 0.38 0.35 0.33 0.32 0.29 0.25 0.29 0.30

GFSGL_prec_precacc_126.txt.gz
Total_Precipitation_Accumulation
1.37 1.42 1.19 1.00 1.13 1.14 1.10 1.09 1.13 1.04 1.06 1.01 1.03 1.03 0.84 0.98 1.32 1.60 1.65 1.56 1.64 1.66 1.74 1.50 1.11 1.02 1.04 1.02 1.04 0.99 0.87 0.84 0.73 0.49 0.26 0.22 0.24 0.26 0.24 0.20 0.13 0.09 0.09
1.32 1.55 1.67 1.40 1.71 2.06 2.10 1.79 1.93 1.87 1.64 1.50 1.19 1.00 0.79 0.66 0.83 1.42 1.74 1.61 1.39 1.63 1.92 1.89 1.53 1.34 1.28 1.20 1.12 0.98 0.79 0.74 0.81 0.64 0.47 0.35 0.27 0.22 0.26 0.29 0.27 0.22 0.14
1.93 1.82 1.65 1.39 1.76 1.58 1.21 0.99 0.86 0.82 0.79 0.83 0.83 0.82 0.84 0.61 0.53 0.72 1.17 1.69 1.55 1.36 1.56 1.85 1.60 1.38 1.19 1.14 1.06 0.86 0.73 0.70 0.79 0.83 0.65 0.48 0.42 0.35 0.38 0.46 0.39 0.20 0.12
1.70 1.73 1.52 1.37 1.28 1.03 0.88 0.78 0.65 0.57 0.36 0.43 0.63 0.78 0.99 0.93 0.95 0.92 0.97 1.06 1.46 1.43 1.32 1.32 1.50 1.43 1.05 0.90 0.89 0.93 0.98 0.90 0.72 0.73 0.65 0.56 0.44 0.42 0.69 0.55 0.36 0.27 0.24
1.46 1.91 1.81 1.56 1.43 1.52 1.54 1.41 0.88 0.76 0.66 0.52 0.48 0.45 0.79 1.15 0.84 0.77 0.72 1.01 1.20 1.40 1.41 1.43 1.20 1.47 1.44 1.22 1.09 0.88 0.90 1.02 1.06 0.92 0.86 0.79 0.73 0.73 0.80 0.76 0.78 0.63 0.72
0.70 1.16 1.60 1.97 1.29 1.34 1.61 1.81 1.36 0.94 1.02 0.78 0.85 0.68 0.62 0.86 1.28 0.93 0.79 0.61 0.82 1.03 1.09 1.08 1.48 1.70 1.24 1.26 1.35 1.38 1.30 1.17 1.07 1.06 0.95 0.84 0.66 0.64 0.71 0.83 0.88 1.00 1.10
0.58 0.97 1.11 1.39 1.81 1.40 1.57 1.68 1.93 1.59 1.26 1.24 1.00 0.98 0.91 0.87 1.41 0.97 1.07 0.96 0.85 0.71 0.84 0.95 0.90 1.58 1.91 1.33 1.46 1.54 1.70 1.89 1.59 1.36 1.20 1.21 1.27 1.31 1.34 1.29 1.17 1.07 1.01
0.53 0.71 0.86 0.81 1.32 1.68 1.34 1.28 1.36 1.52 1.61 1.52 1.20 1.00 0.77 0.81 1.03 1.30 1.43 1.08 0.98 0.80 0.73 0.81 0.90 0.99 1.65 1.71 1.38 1.56 1.69 1.98 2.39 2.18 2.00 2.01 1.98 1.76 1.39 1.40 1.55 1.63 1.59
0.61 0.80 0.99 1.10 1.13 1.22 1.48 1.35 1.44 1.34 1.33 1.44 1.29 0.95 0.85 0.87 1.30 1.24 1.25 0.92 1.10 1.06 0.94 1.03 1.02 0.86 1.47 1.71 1.35 1.50 1.60 1.87 2.46 2.36 2.17 2.23 2.21 2.27 1.84 1.64 1.94 2.24 2.58
0.53 0.66 0.80 0.97 1.16 1.39 1.71 1.85 1.74 1.60 1.38 1.21 1.20 1.18 1.38 1.09 1.48 1.36 1.34 0.94 0.86 1.02 1.01 1.15 1.77 1.29 1.34 1.14 1.00 1.00 1.46 1.89 1.78 1.97 1.99 2.06 2.14 2.44 2.67 2.13 2.06 2.45 2.64
0.59 0.61 0.68 0.80 1.03 1.20 1.24 1.40 1.66 1.85 1.80 1.50 1.38 1.31 1.24 1.42 1.57 1.74 1.56 1.24 1.24 1.11 1.16 1.27 1.46 1.91 1.47 1.55 1.57 1.40 2.24 2.29 2.27 1.87 1.95 2.08 2.02 1.94 2.10 2.24 2.24 2.20 2.20
0.68 0.66 0.79 0.84 0.92 1.02 1.05 1.08 1.08 1.21 1.52 1.76 1.63 1.62 1.64 1.71 1.90 1.82 1.72 1.68 1.68 1.36 1.60 1.45 1.80 1.81 1.36 1.47 1.69 2.16 2.23 1.89 1.75 2.04 2.20 2.31 2.35 2.31 2.21 2.08 1.96 1.92 1.95
0.70 0.80 0.77 0.71 0.65 0.60 0.64 0.80 0.92 0.96 0.94 1.00 1.13 1.32 1.50 1.59 1.76 1.93 1.86 1.86 1.88 1.73 2.07 2.37 2.26 1.77 1.52 1.64 1.87 1.89 1.81 1.77 1.96 2.14 2.26 2.31 2.23 2.16 1.95 1.72 1.58 1.44 1.32
0.17 0.25 0.28 0.32 0.37 0.34 0.40 0.46 0.48 0.58 0.70 0.85 0.95 1.02 1.07 1.10 1.15 1.21 1.25 1.34 1.52 1.66 1.98 2.07 2.00 1.89 1.85 1.96 1.94 1.87 1.84 1.95 2.05 2.13 2.12 2.01 1.81 1.64 1.56 1.62 1.53 1.40 1.26
0.14 0.17 0.18 0.20 0.25 0.27 0.34 0.44 0.42 0.59 0.62 0.67 0.84 0.88 0.94 1.16 1.52 1.49 1.45 1.52 1.62 1.81 1.90 2.04 2.06 2.05 2.03 2.04 1.96 1.92 1.88 1.78 1.66 1.62 1.52 1.44 1.31 1.13 1.04 0.97 1.00 1.03 1.18
0.17 0.19 0.24 0.18 0.19 0.22 0.22 0.35 0.56 0.63 0.59 0.65 0.75 0.78 1.10 1.32 1.41 1.37 1.36 1.39 1.41 1.41 1.36 1.43 1.39 1.32 1.25 1.17 1.12 1.08 1.02 1.02 0.99 0.90 0.86 0.81 0.84 0.89 0.94 0.98 1.00 1.04 1.10
0.31 0.28 0.29 0.31 0.34 0.36 0.37 0.36 0.50 0.71 0.75 0.93 1.01 1.03 1.02 1.14 1.01 0.94 0.89 0.83 0.82 0.75 0.87 0.85 0.80 0.76 0.69 0.60 0.58 0.53 0.51 0.45 0.45 0.56 0.59 0.58 0.60 0.63 0.62 0.65 0.69 0.76 0.82
0.97 0.98 0.90 0.88 0.94 1.06 1.19 1.29 1.35 1.38 1.37 1.45 1.43 1.25 1.20 1.13 1.05 0.96 0.84 0.67 0.70 0.62 0.60 0.53 0.47 0.39 0.31 0.26 0.22 0.20 0.20 0.22 0.27 0.26 0.28 0.30 0.32 0.37 0.41 0.39 0.39 0.43 0.45
1.66 1.78 1.77 1.71 1.62 1.43 1.27 1.16 1.12 1.13 1.12 1.17 1.14 1.04 0.98 0.85 0.71 0.62 0.53 0.59 0.55 0.44 0.35 0.29 0.22 0.18 0.17 0.16 0.18 0.19 0.20 0.20 0.18 0.19 0.17 0.16 0.18 0.23 0.27 0.25 0.25 0.27 0.31
1.08 1.01 0.90 0.86 0.83 0.78 0.75 0.69 0.66 0.63 0.60 0.58 0.55 0.53 0.42 0.33 0.31 0.25 0.23 0.25 0.24 0.21 0.17 0.16 0.13 0.11 0.12 0.13 0.15 0.15 0.15 0.13 0.14 0.14 0.13 0.13 0.13 0.13 0.15 0.16 0.19 0.21 0.22
0.66 0.65 0.61 0.56 0.54 0.50 0.46 0.40 0.36 0.33 0.32 0.29 0.30 0.21 0.13 0.16 0.19 0.16 0.14 0.16 0.16 0.15 0.15 0.16 0.13 0.14 0.13 0.15 0.16 0.17 0.17 0.15 0.15 0.17 0.16 0.16 0.16 0.21 0.18 0.20 0.18 0.15 0.13
0.38 0.34 0.29 0.26 0.23 0.22 0.20 0.19 0.20 0.19 0.16 0.15 0.14 0.13 0.10 0.14 0.16 0.16 0.15 0.16 0.13 0.12 0.14 0.22 0.23 0.18 0.19 0.22 0.24 0.27 0.23 0.21 0.22 0.26 0.26 0.23 0.23 0.23 0.25 0.25 0.25 0.25 0.20
0.16 0.14 0.12 0.12 0.12 0.12 0.13 0.14 0.16 0.19 0.20 0.21 0.20 0.18 0.13 0.13 0.13 0.12 0.14 0.17 0.23 0.30 0.29 0.31 0.35 0.30 0.25 0.28 0.31 0.33 0.33 0.23 0.23 0.30 0.31 0.24 0.20 0.22 0.25 0.23 0.21 0.22 0.19
0.10 0.10 0.09 0.10 0.11 0.12 0.14 0.14 0.14 0.14 0.17 0.23 0.26 0.26 0.25 0.26 0.28 0.30 0.33 0.38 0.42 0.43 0.41 0.42 0.42 0.38 0.36 0.35 0.34 0.30 0.28 0.25 0.26 0.26 0.32 0.34 0.25 0.20 0.24 0.24 0.21 0.21 0.20
0.08 0.08 0.08 0.10 0.14 0.15 0.19 0.20 0.22 0.24 0.25 0.26 0.26 0.27 0.27 0.31 0.35 0.37 0.38 0.31 0.29 0.29 0.30 0.32 0.35 0.37 0.37 0.41 0.44 0.42 0.39 0.34 0.33 0.34 0.40 0.37 0.29 0.29 0.29 0.27 0.24 0.26 0.24
0.08 0.10 0.13 0.16 0.20 0.22 0.27 0.31 0.34 0.34 0.36 0.36 0.39 0.41 0.39 0.33 0.27 0.23 0.21 0.20 0.17 0.16 0.16 0.19 0.19 0.18 0.18 0.20 0.22 0.27 0.26 0.28 0.33 0.35 0.39 0.38 0.35 0.33 0.32 0.29 0.26 0.30 0.30

GFSGL_prec_precacc_129.txt.gz
Total_Precipitation_Accumulation
1.37 1.42 1.19 1.00 1.13 1.14 1.10 1.09 1.13 1.04 1.06 1.01 1.03 1.03 0.84 0.98 1.32 1.60 1.65 1.56 1.64 1.67 1.74 1.50 1.12 1.02 1.04 1.02 1.05 1.01 0.90 0.89 0.77 0.50 0.27 0.23 0.24 0.27 0.25 0.22 0.16 0.11 0.12
1.32 1.55 1.67 1.40 1.71 2.06 2.10 1.80 1.93 1.88 1.64 1.50 1.19 1.00 0.80 0.66 0.83 1.43 1.74 1.61 1.39 1.63 1.92 1.89 1.53 1.34 1.28 1.21 1.13 1.00 0.81 0.76 0.84 0.66 0.48 0.36 0.27 0.23 0.28 0.32 0.30 0.25 0.16
1.93 1.82 1.65 1.39 1.76 1.58 1.21 0.99 0.86 0.82 0.79 0.83 0.83 0.82 0.84 0.61 0.53 0.72 1.17 1.69 1.55 1.37 1.56 1.85 1.60 1.38 1.20 1.15 1.07 0.88 0.75 0.72 0.82 0.86 0.66 0.49 0.43 0.35 0.39 0.48 0.41 0.23 0.14
1.70 1.73 1.52 1.37 1.28 1.03 0.88 0.78 0.65 0.57 0.36 0.43 0.63 0.78 0.99 0.93 0.95 0.92 0.97 1.06 1.46 1.43 1.32 1.32 1.50 1.44 1.06 0.90 0.89 0.93 0.98 0.91 0.73 0.75 0.69 0.61 0.49 0.46 0.72 0.60 0.40 0.30 0.27
1.46 1.91 1.81 1.56 1.43 1.52 1.54 1.41 0.88 0.76 0.66 0.52 0.48 0.45 0.79 1.15 0.84 0.77 0.72 1.01 1.20 1.40 1.41 1.43 1.20 1.48 1.44 1.23 1.10 0.88 0.90 1.02 1.06 0.93 0.87 0.80 0.75 0.79 0.86 0.80 0.82 0.68 0.77
0.70 1.16 1.60 1.97 1.29 1.34 1.61 1.81 1.36 0.94 1.02 0.78 0.85 0.68 0.62 0.86 1.28 0.93 0.79 0.61 0.82 1.03 1.09 1.08 1.48 1.70 1.24 1.26 1.35 1.38 1.30 1.17 1.07 1.07 0.96 0.86 0.69 0.67 0.74 0.88 0.91 1.04 1.13
0.58 0.97 1.11 1.39 1.81 1.40 1.57 1.68 1.93 1.59 1.26 1.24 1.00 0.98 0.91 0.87 1.41 0.97 1.07 0.96 0.85 0.71 0.85 0.95 0.90 1.58 1.91 1.33 1.46 1.55 1.71 1.89 1.60 1.36 1.21 1.22 1.28 1.32 1.37 1.33 1.23 1.19 1.10
0.53 0.71 0.86 0.81 1.32 1.68 1.34 1.28 1.36 1.52 1.62 1.52 1.20 1.00 0.77 0.81 1.03 1.30 1.43 1.08 0.99 0.80 0.73 0.81 0.90 0.99 1.65 1.71 1.38 1.56 1.69 1.99 2.40 2.20 2.02 2.03 2.00 1.77 1.40 1.41 1.59 1.74 1.74
0.61 0.80 0.99 1.10 1.13 1.22 1.48 1.35 1.45 1.34 1.33 1.45 1.29 0.95 0.85 0.87 1.30 1.24 1.25 0.92 1.10 1.06 0.94 1.03 1.02 0.86 1.47 1.71 1.35 1.50 1.60 1.87 2.46 2.37 2.18 2.24 2.22 2.28 1.85 1.64 1.94 2.25 2.65
0.53 0.66 0.80 0.97 1.16 1.39 1.71 1.85 1.75 1.60 1.38 1.22 1.20 1.18 1.38 1.09 1.48 1.36 1.34 0.94 0.86 1.02 1.01 1.15 1.77 1.29 1.34 1.14 1.00 1.01 1.47 1.89 1.78 1.97 1.99 2.06 2.15 2.45 2.68 2.16 2.11 2.50 2.74
0.59 0.61 0.68 0.80 1.03 1.20 1.24 1.40 1.66 1.85 1.80 1.50 1.38 1.31 1.24 1.42 1.57 1.74 1.56 1.24 1.24 1.11 1.16 1.27 1.46 1.91 1.47 1.55 1.57 1.40 2.24 2.29 2.27 1.87 1.95 2.08 2.02 1.94 2.12 2.29 2.33 2.35 2.38
0.68 0.66 0.79 0.84 0.92 1.02 1.06 1.08 1.08 1.21 1.52 1.76 1.63 1.62 1.64 1.71 1.90 1.82 1.72 1.68 1.68 1.36 1.60 1.45 1.80 1.81 1.36 1.47 1.69 2.16 2.23 1.89 1.75 2.04 2.20 2.32 2.35 2.32 2.24 2.14 2.06 2.08 2.16
0.70 0.80 0.77 0.71 0.65 0.60 0.64 0.80 0.92 0.96 0.94 1.00 1.13 1.32 1.50 1.59 1.76 1.93 1.86 1.86 1.88 1.73 2.07 2.37 2.26 1.77 1.52 1.64 1.87 1.89 1.81 1.77 1.96 2.14 2.26 2.31 2.23 2.17 1.96 1.76 1.64 1.54 1.46
0.17 0.25 0.28 0.32 0.37 0.34 0.40 0.46 0.48 0.58 0.70 0.85 0.95 1.02 1.07 1.10 1.15 1.21 1.25 1.34 1.52 1.66 1.98 2.07 2.00 1.89 1.85 1.96 1.94 1.87 1.84 1.96 2.05 2.14 2.13 2.02 1.81 1.64 1.57 1.63 1.55 1.44 1.32
0.14 0.17 0.18 0.20 0.25 0.27 0.34 0.44 0.42 0.59 0.62 0.67 0.84 0.88 0.94 1.16 1.52 1.49 1.45 1.52 1.62 1.81 1.90 2.04 2.06 2.05 2.03 2.04 1.96 1.92 1.88 1.78 1.66 1.62 1.52 1.44 1.31 1.13 1.04 0.97 1.00 1.04 1.21
0.17 0.19 0.24 0.18 0.19 0.22 0.22 0.35 0.56 0.63 0.59 0.65 0.75 0.78 1.10 1.32 1.41 1.37 1.36 1.39 1.41 1.41 1.36 1.43 1.39 1.32 1.25 1.17 1.12 1.08 1.02 1.02 0.99 0.90 0.87 0.82 0.84 0.89 0.94 0.98 1.00 1.04 1.10
0.31 0.28 0.29 0.31 0.34 0.36 0.37 0.36 0.50 0.71 0.76 0.93 1.01 1.03 1.02 1.14 1.01 0.94 0.89 0.83 0.82 0.75 0.87 0.85 0.80 0.76 0.69 0.60 0.58 0.53 0.51 0.45 0.45 0.56 0.59 0.58 0.61 0.63 0.62 0.66 0.69 0.76 0.83
0.97 0.98 0.90 0.88 0.94 1.06 1.19 1.30 1.35 1.38 1.38 1.46 1.43 1.25 1.20 1.13 1.05 0.96 0.84 0.67 0.70 0.62 0.60 0.53 0.47 0.39 0.31 0.26 0.22 0.20 0.20 0.22 0.27 0.26 0.29 0.31 0.33 0.37 0.42 0.39 0.40 0.44 0.45
1.66 1.78 1.77 1.71 1.62 1.43 1.27 1.16 1.13 1.13 1.12 1.17 1.14 1.04 0.98 0.85 0.71 0.62 0.53 0.59 0.55 0.44 0.35 0.29 0.22 0.18 0.17 0.16 0.18 0.19 0.20 0.21 0.19 0.19 0.17 0.17 0.19 0.23 0.28 0.25 0.25 0.27 0.31
1.08 1.01 0.90 0.86 0.83 0.78 0.75 0.69 0.66 0.63 0.60 0.58 0.55 0.53 0.42 0.33 0.31 0.26 0.23 0.26 0.24 0.21 0.17 0.16 0.13 0.11 0.12 0.13 0.15 0.15 0.16 0.14 0.14 0.14 0.13 0.14 0.13 0.13 0.15 0.17 0.20 0.21 0.23
0.66 0.65 0.61 0.56 0.54 0.50 0.46 0.40 0.36 0.33 0.32 0.29 0.30 0.21 0.13 0.16 0.19 0.16 0.14 0.16 0.16 0.15 0.16 0.16 0.13 0.14 0.14 0.15 0.16 0.17 0.17 0.16 0.16 0.17 0.17 0.16 0.17 0.22 0.18 0.20 0.19 0.15 0.13
0.38 0.34 0.29 0.26 0.23 0.22 0.20 0.19 0.20 0.19 0.16 0.15 0.14 0.13 0.10 0.14 0.16 0.16 0.15 0.16 0.13 0.12 0.14 0.22 0.23 0.19 0.20 0.23 0.25 0.28 0.23 0.21 0.23 0.27 0.26 0.23 0.23 0.23 0.25 0.26 0.25 0.25 0.20
0.16 0.14 0.12 0.12 0.12 0.12 0.13 0.14 0.16 0.19 0.20 0.21 0.20 0.18 0.13 0.14 0.13 0.12 0.15 0.18 0.23 0.30 0.29 0.31 0.35 0.30 0.25 0.28 0.31 0.34 0.33 0.24 0.24 0.31 0.32 0.24 0.20 0.23 0.26 0.24 0.21 0.23 0.19
0.10 0.10 0.09 0.10 0.11 0.12 0.14 0.14 0.14 0.14 0.17 0.23 0.26 0.27 0.25 0.27 0.28 0.30 0.34 0.39 0.42 0.43 0.41 0.42 0.42 0.38 0.36 0.35 0.34 0.31 0.28 0.25 0.26 0.27 0.33 0.35 0.26 0.20 0.25 0.24 0.21 0.21 0.20
0.08 0.08 0.08 0.10 0.14 0.15 0.19 0.20 0.22 0.24 0.25 0.26 0.27 0.28 0.27 0.31 0.35 0.37 0.38 0.31 0.29 0.29 0.30 0.32 0.35 0.37 0.37 0.41 0.44 0.42 0.39 0.34 0.33 0.34 0.41 0.37 0.30 0.29 0.30 0.27 0.24 0.27 0.25
0.08 0.10 0.13 0.16 0.20 0.22 0.27 0.31 0.34 0.34 0.36 0.36 0.40 0.41 0.39 0.33 0.27 0.23 0.21 0.20 0.17 0.16 0.16 0.19 0.19 0.18 0.18 0.20 0.22 0.27 0.26 0.28 0.33 0.36 0.39 0.39 0.36 0.33 0.33 0.30 0.26 0.31 0.31

GFSGL_prec_precacc_132.txt.gz
Total_Precipitation_Accumulation
1.37 1.42 1.19 1.00 1.13 1.14 1.10 1.10 1.13 1.04 1.06 1.02 1.03 1.03 0.84 0.98 1.32 1.60 1.65 1.56 1.64 1.67 1.74 1.50 1.13 1.03 1.04 1.03 1.05 1.02 0.91 0.91 0.78 0.51 0.28 0.23 0.25 0.28 0.26 0.24 0.18 0.13 0.15
1.32 1.55 1.67 1.40 1.71 2.06 2.10 1.80 1.93 1.88 1.64 1.50 1.19 1.00 0.80 0.67 0.83 1.43 1.74 1.61 1.40 1.63 1.93 1.90 1.55 1.36 1.30 1.22 1.14 1.01 0.82 0.78 0.85 0.67 0.48 0.36 0.28 0.24 0.29 0.33 0.31 0.25 0.18
1.93 1.82 1.65 1.39 1.76 1.58 1.21 0.99 0.86 0.82 0.79 0.83 0.83 0.82 0.84 0.61 0.53 0.72 1.17 1.69 1.56 1.37 1.56 1.86 1.61 1.38 1.21 1.15 1.08 0.89 0.76 0.73 0.84 0.87 0.67 0.49 0.43 0.36 0.39 0.49 0.43 0.25 0.15
1.70 1.73 1.52 1.37 1.28 1.03 0.88 0.78 0.65 0.57 0.36 0.43 0.63 0.78 0.99 0.93 0.95 0.92 0.97 1.06 1.46 1.43 1.32 1.32 1.50 1.44 1.06 0.90 0.89 0.93 0.98 0.91 0.74 0.76 0.70 0.61 0.49 0.46 0.73 0.61 0.40 0.31 0.28
1.46 1.91 1.81 1.56 1.43 1.52 1.54 1.41 0.88 0.76 0.66 0.52 0.48 0.45 0.79 1.15 0.84 0.77 0.72 1.01 1.20 1.40 1.41 1.43 1.20 1.48 1.44 1.23 1.10 0.89 0.91 1.02 1.07 0.93 0.87 0.81 0.76 0.80 0.87 0.80 0.82 0.69 0.77
0.70 1.16 1.60 1.97 1.29 1.34 1.61 1.81 1.36 0.94 1.02 0.78 0.85 0.68 0.62 0.86 1.28 0.93 0.79 0.61 0.82 1.03 1.09 1.08 1.48 1.70 1.24 1.26 1.35 1.38 1.31 1.18 1.08 1.07 0.97 0.86 0.70 0.69 0.76 0.89 0.92 1.05 1.14
0.58 0.97 1.11 1.39 1.81 1.40 1.57 1.68 1.93 1.59 1.26 1.24 1.00 0.98 0.91 0.87 1.41 0.97 1.07 0.96 0.85 0.71 0.85 0.96 0.90 1.58 1.91 1.33 1.46 1.55 1.71 1.90 1.61 1.38 1.22 1.24 1.29 1.33 1.38 1.34 1.24 1.20 1.10
0.53 0.71 0.86 0.81 1.32 1.68 1.34 1.29 1.36 1.52 1.62 1.52 1.21 1.00 0.77 0.81 1.03 1.30 1.43 1.08 0.99 0.80 0.73 0.81 0.90 0.99 1.65 1.71 1.38 1.56 1.69 1.99 2.40 2.20 2.03 2.04 2.02 1.79 1.41 1.41 1.59 1.74 1.74
0.61 0.80 0.99 1.10 1.13 1.22 1.48 1.35 1.45 1.35 1.33 1.45 1.29 0.95 0.85 0.87 1.30 1.24 1.25 0.92 1.10 1.06 0.94 1.03 1.02 0.86 1.47 1.71 1.35 1.50 1.60 1.87 2.46 2.37 2.19 2.24 2.22 2.28 1.85 1.65 1.95 2.26 2.65
0.53 0.66 0.80 0.97 1.16 1.39 1.71 1.85 1.75 1.60 1.38 1.22 1.20 1.18 1.38 1.09 1.48 1.36 1.34 0.94 0.86 1.02 1.01 1.15 1.77 1.29 1.34 1.14 1.00 1.01 1.47 1.89 1.78 1.97 1.99 2.06 2.15 2.45 2.68 2.16 2.13 2.52 2.75
0.59 0.61 0.68 0.80 1.03 1.20 1.24 1.40 1.66 1.85 1.80 1.51 1.39 1.31 1.24 1.42 1.57 1.74 1.56 1.24 1.25 1.11 1.16 1.27 1.46 1.91 1.47 1.55 1.57 1.40 2.24 2.29 2.27 1.87 1.95 2.08 2.02 1.94 2.12 2.29 2.34 2.39 2.42
0.68 0.66 0.79 0.84 0.92 1.02 1.06 1.08 1.08 1.22 1.52 1.76 1.63 1.62 1.65 1.71 1.90 1.82 1.72 1.68 1.68 1.36 1.60 1.45 1.80 1.81 1.36 1.47 1.69 2.16 2.23 1.89 1.75 2.04 2.20 2.32 2.35 2.32 2.24 2.14 2.06 2.09 2.18
0.70 0.80 0.77 0.71 0.65 0.60 0.64 0.80 0.93 0.97 0.94 1.00 1.13 1.33 1.50 1.59 1.76 1.93 1.86 1.86 1.88 1.74 2.07 2.37 2.26 1.77 1.52 1.64 1.87 1.89 1.81 1.77 1.96 2.14 2.26 2.32 2.23 2.17 1.96 1.76 1.64 1.54 1.46
0.17 0.25 0.28 0.32 0.37 0.34 0.40 0.46 0.48 0.58 0.70 0.85 0.95 1.02 1.08 1.10 1.15 1.21 1.25 1.34 1.52 1.66 1.98 2.07 2.00 1.89 1.85 1.96 1.94 1.87 1.85 1.96 2.05 2.14 2.13 2.02 1.81 1.64 1.57 1.63 1.55 1.44 1.32
0.14 0.17 0.18 0.20 0.25 0.27 0.34 0.44 0.42 0.59 0.62 0.67 0.84 0.89 0.94 1.16 1.52 1.49 1.45 1.52 1.62 1.81 1.90 2.04 2.07 2.05 2.03 2.04 1.97 1.92 1.88 1.79 1.66 1.62 1.53 1.44 1.31 1.13 1.04 0.97 1.00 1.04 1.21
0.17 0.19 0.24 0.18 0.19 0.22 0.22 0.35 0.56 0.63 0.59 0.65 0.75 0.78 1.10 1.32 1.41 1.37 1.36 1.39 1.41 1.41 1.36 1.43 1.39 1.32 1.25 1.17 1.12 1.08 1.02 1.02 0.99 0.90 0.87 0.82 0.84 0.89 0.94 0.98 1.00 1.04 1.10
0.31 0.28 0.29 0.31 0.34 0.36 0.37 0.36 0.51 0.71 0.76 0.93 1.01 1.03 1.02 1.14 1.01 0.94 0.89 0.83 0.82 0.75 0.87 0.85 0.80 0.76 0.69 0.60 0.58 0.53 0.51 0.45 0.45 0.56 0.59 0.59 0.61 0.64 0.62 0.66 0.69 0.77 0.83
0.97 0.98 0.90 0.88 0.94 1.06 1.19 1.30 1.35 1.39 1.39 1.48 1.44 1.25 1.20 1.14 1.06 0.96 0.84 0.67 0.70 0.62 0.60 0.53 0.47 0.39 0.31 0.26 0.22 0.21 0.20 0.22 0.27 0.27 0.29 0.31 0.33 0.38 0.42 0.39 0.40 0.44 0.45
1.66 1.78 1.77 1.72 1.62 1.43 1.27 1.16 1.13 1.13 1.12 1.17 1.14 1.04 0.98 0.85 0.71 0.62 0.53 0.59 0.55 0.44 0.35 0.29 0.22 0.18 0.17 0.16 0.18 0.19 0.20 0.21 0.19 0.20 0.17 0.17 0.19 0.24 0.28 0.25 0.25 0.27 0.31
1.08 1.01 0.90 0.86 0.83 0.78 0.75 0.69 0.66 0.63 0.60 0.58 0.55 0.53 0.42 0.33 0.31 0.26 0.23 0.26 0.24 0.21 0.17 0.16 0.13 0.12 0.13 0.14 0.15 0.15 0.16 0.14 0.14 0.14 0.13 0.14 0.14 0.14 0.16 0.17 0.20 0.21 0.23
0.66 0.65 0.61 0.56 0.54 0.50 0.46 0.40 0.36 0.33 0.32 0.29 0.30 0.21 0.13 0.16 0.19 0.16 0.14 0.16 0.16 0.16 0.16 0.16 0.13 0.14 0.14 0.15 0.16 0.18 0.17 0.16 0.16 0.17 0.17 0.16 0.17 0.22 0.19 0.21 0.19 0.15 0.14
0.38 0.34 0.29 0.26 0.23 0.22 0.20 0.19 0.20 0.19 0.16 0.15 0.14 0.13 0.10 0.14 0.16 0.16 0.15 0.16 0.13 0.12 0.15 0.22 0.23 0.19 0.20 0.23 0.25 0.28 0.24 0.22 0.23 0.27 0.27 0.24 0.23 0.24 0.26 0.26 0.26 0.26 0.21
0.16 0.14 0.12 0.12 0.12 0.12 0.13 0.14 0.16 0.19 0.20 0.21 0.20 0.18 0.13 0.14 0.13 0.12 0.15 0.18 0.24 0.30 0.29 0.31 0.35 0.31 0.25 0.28 0.32 0.34 0.34 0.24 0.24 0.31 0.33 0.25 0.21 0.23 0.26 0.24 0.22 0.23 0.19
0.10 0.10 0.09 0.10 0.11 0.12 0.14 0.14 0.14 0.14 0.17 0.23 0.26 0.27 0.26 0.27 0.28 0.30 0.34 0.39 0.42 0.44 0.41 0.42 0.42 0.39 0.36 0.35 0.34 0.31 0.28 0.25 0.26 0.27 0.33 0.35 0.26 0.21 0.26 0.25 0.22 0.22 0.21
0.08 0.08 0.08 0.10 0.14 0.15 0.19 0.20 0.22 0.24 0.25 0.26 0.27 0.28 0.27 0.31 0.35 0.37 0.38 0.31 0.29 0.29 0.30 0.32 0.36 0.37 0.37 0.41 0.44 0.42 0.39 0.34 0.34 0.34 0.41 0.38 0.30 0.30 0.31 0.28 0.24 0.27 0.25
0.08 0.10 0.13 0.16 0.20 0.22 0.27 0.31 0.34 0.34 0.36 0.36 0.40 0.41 0.39 0.33 0.27 0.24 0.21 0.20 0.17 0.16 0.16 0.19 0.19 0.18 0.18 0.20 0.22 0.27 0.26 0.28 0.33 0.36 0.40 0.40 0.37 0.35 0.34 0.30 0.26 0.31 0.31

GFSGL_prec_precacc_138.txt.gz
Total_Precipitation_Accumulation
1.37 1.42 1.19 1.00 1.13 1.14 1.10 1.10 1.13 1.04 1.06 1.02 1.03 1.03 0.84 0.98 1.32 1.61 1.66 1.58 1.67 1.71 1.76 1.53 1.14 1.03 1.05 1.03 1.06 1.03 0.93 0.93 0.79 0.51 0.28 0.23 0.25 0.28 0.26 0.24 0.18 0.13 0.16
1.32 1.55 1.67 1.40 1.71 2.06 2.10 1.80 1.93 1.88 1.64 1.50 1.19 1.00 0.80 0.67 0.83 1.43 1.75 1.61 1.40 1.64 1.93 1.90 1.55 1.36 1.31 1.23 1.15 1.02 0.84 0.80 0.87 0.67 0.48 0.36 0.28 0.24 0.29 0.33 0.31 0.26 0.19
1.93 1.82 1.65 1.39 1.76 1.58 1.21 0.99 0.86 0.82 0.79 0.83 0.83 0.82 0.84 0.61 0.53 0.72 1.17 1.69 1.56 1.37 1.56 1.86 1.61 1.39 1.21 1.16 1.09 0.89 0.77 0.74 0.85 0.88 0.67 0.49 0.43 0.36 0.39 0.49 0.43 0.25 0.15
1.70 1.73 1.52 1.37 1.28 1.03 0.88 0.78 0.65 0.57 0.36 0.43 0.63 0.78 0.99 0.93 0.95 0.92 0.97 1.06 1.46 1.43 1.32 1.32 1.50 1.44 1.07 0.91 0.90 0.94 0.99 0.92 0.74 0.76 0.71 0.62 0.49 0.46 0.73 0.61 0.40 0.31 0.28
1.46 1.91 1.81 1.56 1.43 1.52 1.54 1.41 0.88 0.76 0.66 0.52 0.48 0.45 0.79 1.15 0.84 0.77 0.72 1.01 1.20 1.40 1.41 1.43 1.20 1.48 1.45 1.23 1.11 0.90 0.92 1.03 1.07 0.93 0.87 0.81 0.76 0.80 0.87 0.81 0.82 0.69 0.77
0.70 1.16 1.60 1.97 1.29 1.34 1.61 1.81 1.36 0.94 1.02 0.78 0.85 0.68 0.62 0.86 1.28 0.93 0.79 0.61 0.82 1.03 1.09 1.08 1.48 1.70 1.24 1.26 1.36 1.39 1.33 1.20 1.09 1.08 0.98 0.87 0.71 0.70 0.76 0.90 0.92 1.05 1.14
0.58 0.97 1.11 1.39 1.81 1.40 1.57 1.68 1.93 1.59 1.26 1.24 1.00 0.98 0.91 0.87 1.41 0.98 1.07 0.96 0.85 0.71 0.85 0.96 0.90 1.58 1.91 1.33 1.46 1.55 1.71 1.90 1.62 1.40 1.24 1.27 1.32 1.37 1.40 1.35 1.25 1.20 1.10
0.53 0.71 0.86 0.81 1.32 1.68 1.34 1.29 1.36 1.52 1.62 1.52 1.21 1.00 0.77 0.81 1.03 1.30 1.43 1.08 0.99 0.80 0.73 0.81 0.90 0.99 1.65 1.71 1.38 1.56 1.69 1.99 2.40 2.20 2.04 2.05 2.04 1.80 1.42 1.43 1.59 1.75 1.74
0.61 0.80 0.99 1.10 1.13 1.22 1.48 1.35 1.45 1.35 1.33 1.45 1.29 0.95 0.85 0.87 1.30 1.24 1.25 0.92 1.10 1.06 0.94 1.03 1.02 0.86 1.47 1.71 1.35 1.50 1.60 1.87 2.46 2.37 2.19 2.24 2.22 2.29 1.86 1.65 1.96 2.26 2.65
0.53 0.66 0.80 0.97 1.16 1.39 1.71 1.85 1.75 1.60 1.38 1.22 1.20 1.18 1.38 1.09 1.48 1.36 1.34 0.94 0.86 1.02 1.01 1.15 1.77 1.29 1.34 1.14 1.00 1.01 1.47 1.89 1.78 1.97 1.99 2.06 2.15 2.45 2.68 2.17 2.14 2.54 2.76
0.59 0.61 0.68 0.80 1.03 1.20 1.24 1.40 1.67 1.85 1.80 1.51 1.39 1.31 1.24 1.42 1.57 1.74 1.56 1.24 1.25 1.11 1.16 1.27 1.46 1.91 1.47 1.55 1.57 1.40 2.24 2.29 2.27 1.87 1.95 2.08 2.02 1.94 2.12 2.29 2.34 2.39 2.44
0.68 0.66 0.79 0.84 0.92 1.02 1.06 1.09 1.09 1.22 1.53 1.76 1.63 1.62 1.65 1.71 1.90 1.82 1.72 1.68 1.68 1.36 1.60 1.45 1.80 1.81 1.36 1.47 1.69 2.16 2.23 1.89 1.75 2.04 2.20 2.32 2.35 2.32 2.24 2.14 2.06 2.09 2.18
0.70 0.80 0.77 0.71 0.65 0.60 0.64 0.80 0.93 0.97 0.94 1.00 1.13 1.33 1.50 1.59 1.76 1.93 1.86 1.86 1.88 1.74 2.07 2.37 2.26 1.77 1.52 1.64 1.87 1.89 1.81 1.77 1.96 2.14 2.26 2.32 2.23 2.17 1.96 1.76 1.64 1.54 1.46
0.17 0.25 0.28 0.32 0.37 0.34 0.40 0.46 0.48 0.58 0.70 0.85 0.95 1.02 1.08 1.10 1.15 1.21 1.25 1.34 1.52 1.66 1.98 2.07 2.00 1.89 1.85 1.96 1.94 1.87 1.85 1.96 2.05 2.14 2.13 2.02 1.81 1.64 1.57 1.63 1.55 1.44 1.32
0.14 0.17 0.18 0.20 0.25 0.27 0.34 0.44 0.42 0.59 0.62 0.67 0.84 0.89 0.94 1.16 1.52 1.49 1.45 1.52 1.62 1.81 1.90 2.04 2.07 2.05 2.03 2.04 1.97 1.92 1.88 1.79 1.66 1.62 1.53 1.44 1.31 1.13 1.04 0.97 1.00 1.04 1.21
0.17 0.19 0.24 0.18 0.19 0.22 0.22 0.35 0.56 0.63 0.59 0.65 0.75 0.78 1.10 1.32 1.41 1.37 1.36 1.39 1.41 1.41 1.36 1.43 1.39 1.32 1.25 1.17 1.12 1.08 1.02 1.02 0.99 0.90 0.87 0.82 0.84 0.89 0.94 0.98 1.00 1.04 1.10
0.31 0.28 0.29 0.31 0.34 0.36 0.37 0.36 0.51 0.71 0.76 0.93 1.01 1.03 1.02 1.14 1.02 0.94 0.89 0.83 0.82 0.75 0.87 0.85 0.80 0.76 0.69 0.60 0.58 0.53 0.51 0.45 0.45 0.56 0.59 0.59 0.61 0.64 0.63 0.66 0.70 0.77 0.83
0.97 0.98 0.90 0.88 0.94 1.06 1.19 1.30 1.35 1.39 1.39 1.48 1.44 1.25 1.20 1.14 1.06 0.96 0.84 0.67 0.70 0.62 0.60 0.53 0.47 0.39 0.31 0.26 0.22 0.21 0.20 0.22 0.27 0.27 0.29 0.31 0.33 0.38 0.42 0.40 0.40 0.44 0.45
1.66 1.78 1.77 1.72 1.62 1.43 1.27 1.16 1.13 1.13 1.13 1.18 1.14 1.04 0.98 0.85 0.71 0.62 0.53 0.59 0.55 0.44 0.35 0.29 0.22 0.18 0.17 0.16 0.18 0.19 0.21 0.21 0.19 0.20 0.17 0.17 0.19 0.24 0.28 0.26 0.26 0.27 0.31
1.08 1.01 0.90 0.86 0.83 0.78 0.75 0.69 0.66 0.63 0.60 0.58 0.55 0.53 0.42 0.33 0.31 0.26 0.23 0.26 0.24 0.21 0.17 0.16 0.13 0.12 0.13 0.14 0.15 0.15 0.16 0.14 0.14 0.14 0.13 0.14 0.14 0.14 0.16 0.18 0.21 0.22 0.23
0.66 0.65 0.61 0.56 0.54 0.50 0.46 0.40 0.36 0.33 0.32 0.29 0.30 0.21 0.13 0.16 0.19 0.16 0.14 0.16 0.16 0.16 0.16 0.16 0.13 0.14 0.14 0.15 0.16 0.18 0.18 0.16 0.16 0.17 0.17 0.16 0.17 0.22 0.19 0.21 0.20 0.16 0.14
0.38 0.34 0.29 0.26 0.23 0.22 0.20 0.19 0.20 0.19 0.16 0.15 0.14 0.13 0.10 0.14 0.16 0.16 0.15 0.16 0.13 0.12 0.15 0.22 0.23 0.19 0.20 0.23 0.25 0.29 0.24 0.22 0.23 0.27 0.27 0.24 0.23 0.24 0.26 0.27 0.26 0.26 0.21
0.16 0.14 0.12 0.12 0.12 0.12 0.13 0.14 0.16 0.19 0.20 0.21 0.20 0.18 0.13 0.14 0.13 0.12 0.15 0.18 0.24 0.30 0.29 0.31 0.35 0.31 0.25 0.28 0.32 0.34 0.34 0.24 0.25 0.31 0.33 0.25 0.21 0.23 0.26 0.25 0.23 0.23 0.19
0.10 0.10 0.09 0.10 0.11 0.12 0.14 0.14 0.14 0.14 0.17 0.23 0.26 0.27 0.26 0.27 0.28 0.30 0.34 0.39 0.42 0.44 0.41 0.42 0.42 0.39 0.36 0.35 0.34 0.31 0.28 0.25 0.26 0.27 0.33 0.36 0.26 0.21 0.27 0.26 0.22 0.22 0.21
0.08 0.08 0.08 0.10 0.14 0.15 0.19 0.20 0.22 0.24 0.25 0.26 0.27 0.28 0.27 0.31 0.35 0.37 0.38 0.31 0.29 0.29 0.30 0.32 0.36 0.37 0.37 0.41 0.44 0.42 0.39 0.34 0.34 0.34 0.41 0.38 0.31 0.31 0.32 0.29 0.25 0.27 0.25
0.08 0.10 0.13 0.16 0.20 0.22 0.27 0.31 0.34 0.34 0.36 0.36 0.40 0.41 0.39 0.33 0.27 0.24 0.21 0.20 0.17 0.16 0.16 0.19 0.19 0.18 0.18 0.20 0.22 0.27 0.26 0.28 0.33 0.36 0.40 0.40 0.38 0.36 0.35 0.31 0.26 0.31 0.31

GFSGL_prec_precacc_141.txt.gz
Total_Precipitation_Accumulation
1.37 1.42 1.19 1.00 1.13 1.14 1.10 1.10 1.13 1.04 1.06 1.02 1.03 1.03 0.84 0.98 1.32 1.61 1.66 1.58 1.67 1.71 1.77 1.55 1.18 1.08 1.10 1.08 1.09 1.04 0.94 0.94 0.80 0.51 0.28 0.23 0.25 0.28 0.26 0.24 0.18 0.13 0.16
1.32 1.55 1.67 1.40 1.71 2.06 2.10 1.80 1.93 1.88 1.64 1.50 1.19 1.00 0.80 0.67 0.83 1.43 1.75 1.61 1.40 1.64 1.93 1.91 1.56 1.38 1.34 1.27 1.19 1.04 0.86 0.81 0.88 0.68 0.48 0.36 0.28 0.24 0.29 0.33 0.31 0.26 0.19
1.93 1.82 1.65 1.39 1.76 1.58 1.21 0.99 0.86 0.82 0.79 0.83 0.83 0.82 0.84 0.61 0.53 0.72 1.17 1.69 1.56 1.37 1.56 1.86 1.61 1.39 1.21 1.16 1.09 0.90 0.77 0.74 0.85 0.89 0.67 0.49 0.43 0.36 0.39 0.49 0.43 0.25 0.15
1.70 1.73 1.52 1.37 1.28 1.03 0.88 0.78 0.65 0.57 0.36 0.43 0.63 0.78 0.99 0.93 0.95 0.92 0.97 1.06 1.46 1.43 1.32 1.32 1.50 1.44 1.07 0.91 0.90 0.94 0.99 0.92 0.74 0.76 0.71 0.62 0.49 0.46 0.73 0.61 0.40 0.31 0.28
1.46 1.91 1.81 1.56 1.43 1.52 1.54 1.41 0.88 0.76 0.66 0.52 0.48 0.45 0.79 1.15 0.84 0.77 0.72 1.01 1.20 1.40 1.41 1.43 1.20 1.48 1.45 1.24 1.11 0.91 0.92 1.03 1.07 0.93 0.87 0.81 0.76 0.80 0.88 0.81 0.82 0.69 0.77
0.70 1.16 1.60 1.97 1.29 1.34 1.61 1.81 1.36 0.94 1.02 0.78 0.85 0.68 0.62 0.87 1.28 0.93 0.79 0.61 0.82 1.03 1.09 1.08 1.48 1.70 1.24 1.26 1.36 1.39 1.33 1.21 1.09 1.09 0.98 0.87 0.71 0.70 0.76 0.90 0.92 1.05 1.14
0.58 0.97 1.11 1.39 1.81 1.40 1.57 1.68 1.93 1.59 1.26 1.24 1.00 0.98 0.91 0.87 1.41 0.98 1.07 0.96 0.85 0.71 0.85 0.96 0.90 1.58 1.91 1.33 1.46 1.55 1.71 1.90 1.62 1.41 1.24 1.28 1.33 1.38 1.40 1.35 1.25 1.20 1.10
0.53 0.71 0.86 0.81 1.32 1.68 1.34 1.29 1.36 1.52 1.62 1.52 1.21 1.00 0.77 0.81 1.03 1.30 1.43 1.08 0.99 0.80 0.73 0.81 0.90 0.99 1.65 1.71 1.38 1.56 1.69 1.99 2.40 2.20 2.04 2.06 2.04 1.80 1.42 1.43 1.59 1.75 1.74
0.61 0.80 0.99 1.10 1.13 1.22 1.48 1.35 1.45 1.35 1.33 1.45 1.29 0.95 0.85 0.87 1.30 1.24 1.25 0.92 1.10 1.06 0.94 1.03 1.02 0.86 1.47 1.71 1.35 1.50 1.60 1.87 2.46 2.37 2.19 2.24 2.22 2.29 1.86 1.65 1.96 2.26 2.65
0.53 0.66 0.80 0.97 1.16 1.39 1.71 1.85 1.75 1.60 1.38 1.22 1.20 1.18 1.38 1.09 1.48 1.36 1.34 0.94 0.86 1.02 1.01 1.15 1.77 1.29 1.34 1.14 1.00 1.01 1.47 1.89 1.78 1.97 1.99 2.06 2.15 2.45 2.68 2.17 2.14 2.54 2.77
0.59 0.61 0.68 0.80 1.03 1.20 1.24 1.41 1.67 1.85 1.80 1.51 1.39 1.31 1.24 1.42 1.57 1.74 1.56 1.24 1.25 1.11 1.16 1.27 1.46 1.91 1.47 1.55 1.57 1.40 2.24 2.29 2.27 1.87 1.95 2.08 2.02 1.94 2.12 2.29 2.34 2.39 2.44
0.68 0.66 0.79 0.84 0.92 1.02 1.06 1.09 1.09 1.22 1.53 1.76 1.63 1.62 1.65 1.71 1.90 1.82 1.72 1.68 1.68 1.36 1.60 1.45 1.80 1.81 1.36 1.47 1.69 2.16 2.23 1.89 1.75 2.04 2.20 2.32 2.35 2.32 2.24 2.14 2.06 2.09 2.18
0.70 0.80 0.77 0.71 0.65 0.60 0.64 0.81 0.94 0.97 0.94 1.00 1.13 1.33 1.50 1.59 1.76 1.93 1.86 1.86 1.88 1.74 2.07 2.37 2.26 1.77 1.52 1.64 1.87 1.89 1.81 1.77 1.96 2.14 2.26 2.32 2.23 2.17 1.96 1.76 1.64 1.54 1.46
0.17 0.25 0.28 0.32 0.37 0.34 0.40 0.46 0.48 0.58 0.70 0.85 0.95 1.02 1.08 1.10 1.15 1.21 1.25 1.34 1.52 1.66 1.98 2.07 2.00 1.89 1.85 1.96 1.94 1.87 1.85 1.96 2.05 2.14 2.13 2.02 1.81 1.64 1.57 1.63 1.55 1.44 1.32
0.14 0.17 0.18 0.20 0.25 0.27 0.34 0.44 0.42 0.59 0.62 0.67 0.84 0.89 0.94 1.16 1.52 1.49 1.45 1.52 1.62 1.81 1.90 2.04 2.07 2.05 2.03 2.04 1.97 1.92 1.88 1.79 1.66 1.62 1.53 1.44 1.31 1.13 1.04 0.97 1.00 1.04 1.21
0.17 0.19 0.24 0.18 0.19 0.22 0.22 0.35 0.56 0.63 0.59 0.65 0.75 0.78 1.10 1.32 1.41 1.37 1.36 1.39 1.41 1.41 1.36 1.43 1.39 1.32 1.25 1.17 1.12 1.08 1.02 1.02 0.99 0.90 0.87 0.82 0.84 0.89 0.94 0.98 1.00 1.04 1.10
0.31 0.28 0.29 0.31 0.34 0.36 0.37 0.36 0.51 0.71 0.76 0.93 1.01 1.03 1.02 1.14 1.02 0.94 0.89 0.83 0.82 0.75 0.87 0.85 0.80 0.76 0.69 0.60 0.58 0.53 0.51 0.45 0.45 0.56 0.59 0.59 0.61 0.64 0.63 0.66 0.70 0.77 0.83
0.97 0.98 0.90 0.88 0.94 1.06 1.19 1.30 1.35 1.39 1.40 1.48 1.44 1.25 1.20 1.14 1.06 0.96 0.84 0.67 0.70 0.62 0.60 0.53 0.47 0.39 0.31 0.26 0.22 0.21 0.20 0.22 0.27 0.27 0.29 0.31 0.33 0.38 0.42 0.40 0.40 0.44 0.45
1.66 1.78 1.77 1.72 1.62 1.43 1.27 1.16 1.13 1.13 1.13 1.18 1.14 1.04 0.98 0.85 0.71 0.62 0.53 0.59 0.55 0.44 0.35 0.29 0.22 0.18 0.17 0.16 0.18 0.19 0.21 0.21 0.19 0.20 0.17 0.17 0.19 0.24 0.28 0.26 0.26 0.27 0.31
1.08 1.01 0.90 0.86 0.83 0.78 0.75 0.69 0.66 0.64 0.60 0.58 0.55 0.53 0.42 0.33 0.31 0.26 0.23 0.26 0.24 0.21 0.17 0.16 0.13 0.12 0.13 0.14 0.15 0.15 0.16 0.14 0.14 0.14 0.13 0.14 0.14 0.14 0.16 0.18 0.21 0.22 0.23
0.66 0.65 0.61 0.56 0.54 0.50 0.46 0.40 0.36 0.33 0.32 0.29 0.30 0.21 0.13 0.16 0.19 0.16 0.14 0.16 0.16 0.16 0.16 0.16 0.13 0.14 0.14 0.15 0.16 0.18 0.18 0.16 0.16 0.17 0.17 0.16 0.17 0.22 0.19 0.21 0.20 0.16 0.14
0.38 0.34 0.29 0.26 0.23 0.22 0.20 0.19 0.20 0.19 0.16 0.15 0.14 0.13 0.10 0.14 0.16 0.16 0.15 0.16 0.13 0.12 0.15 0.22 0.23 0.19 0.20 0.23 0.25 0.29 0.24 0.22 0.23 0.27 0.27 0.24 0.23 0.24 0.26 0.27 0.26 0.26 0.21
0.16 0.14 0.12 0.12 0.12 0.12 0.13 0.14 0.16 0.19 0.20 0.21 0.20 0.18 0.13 0.14 0.13 0.12 0.15 0.18 0.24 0.30 0.29 0.31 0.35 0.31 0.25 0.28 0.32 0.34 0.34 0.24 0.25 0.31 0.33 0.25 0.21 0.23 0.26 0.25 0.23 0.24 0.20
0.10 0.10 0.09 0.10 0.11 0.12 0.14 0.14 0.14 0.14 0.17 0.23 0.26 0.27 0.26 0.27 0.28 0.30 0.34 0.39 0.42 0.44 0.41 0.42 0.42 0.39 0.36 0.35 0.34 0.31 0.28 0.25 0.26 0.27 0.33 0.36 0.26 0.21 0.27 0.26 0.23 0.22 0.21
0.08 0.08 0.08 0.10 0.14 0.15 0.19 0.20 0.22 0.24 0.25 0.26 0.27 0.28 0.27 0.31 0.35 0.37 0.38 0.31 0.29 0.29 0.30 0.32 0.36 0.37 0.37 0.41 0.44 0.42 0.39 0.34 0.34 0.34 0.41 0.38 0.31 0.31 0.32 0.30 0.25 0.27 0.25
0.08 0.10 0.13 0.16 0.20 0.22 0.27 0.31 0.34 0.34 0.36 0.36 0.40 0.41 0.39 0.33 0.27 0.24 0.21 0.20 0.17 0.16 0.16 0.19 0.19 0.18 0.18 0.20 0.22 0.27 0.26 0.28 0.33 0.36 0.40 0.40 0.38 0.36 0.35 0.31 0.26 0.31 0.31

GFSGL_prec_precacc_144.txt.gz
Total_Precipitation_Accumulation
1.37 1.42 1.19 1.00 1.13 1.14 1.10 1.10 1.13 1.04 1.06 1.02 1.03 1.03 0.84 0.98 1.32 1.61 1.66 1.58 1.67 1.71 1.77 1.55 1.18 1.08 1.11 1.09 1.13 1.10 0.99 0.99 0.84 0.53 0.28 0.23 0.25 0.28 0.26 0.24 0.18 0.13 0.16
1.32 1.55 1.67 1.40 1.71 2.06 2.10 1.80 1.93 1.88 1.64 1.50 1.19 1.00 0.80 0.67 0.83 1.43 1.75 1.61 1.40 1.64 1.93 1.91 1.56 1.38 1.34 1.28 1.23 1.12 0.94 0.88 0.94 0.71 0.49 0.36 0.28 0.24 0.29 0.33 0.31 0.26 0.19
1.93 1.82 1.65 1.39 1.76 1.58 1.21 0.99 0.86 0.82 0.79 0.83 0.83 0.82 0.84 0.61 0.53 0.72 1.17 1.69 1.56 1.37 1.56 1.86 1.61 1.39 1.21 1.16 1.09 0.90 0.77 0.74 0.86 0.89 0.68 0.49 0.43 0.36 0.39 0.49 0.43 0.25 0.15
1.70 1.73 1.52 1.37 1.28 1.03 0.88 0.78 0.65 0.57 0.36 0.43 0.63 0.78 0.99 0.93 0.95 0.92 0.97 1.06 1.46 1.43 1.32 1.32 1.50 1.44 1.07 0.92 0.90 0.94 0.99 0.92 0.74 0.76 0.71 0.62 0.49 0.46 0.73 0.61 0.40 0.31 0.28
1.46 1.91 1.81 1.56 1.43 1.52 1.54 1.41 0.88 0.76 0.66 0.52 0.48 0.45 0.79 1.15 0.84 0.77 0.72 1.01 1.20 1.40 1.41 1.43 1.20 1.48 1.45 1.24 1.11 0.91 0.92 1.03 1.07 0.93 0.87 0.81 0.76 0.80 0.88 0.81 0.82 0.69 0.77
0.71 1.16 1.60 1.97 1.29 1.34 1.61 1.81 1.36 0.94 1.02 0.78 0.85 0.68 0.62 0.87 1.28 0.93 0.79 0.61 0.82 1.03 1.09 1.08 1.48 1.70 1.24 1.26 1.36 1.39 1.33 1.21 1.09 1.09 0.98 0.88 0.72 0.70 0.76 0.90 0.93 1.05 1.14
0.60 0.97 1.11 1.39 1.81 1.40 1.57 1.68 1.93 1.59 1.26 1.24 1.00 0.98 0.91 0.87 1.41 0.98 1.07 0.96 0.85 0.71 0.85 0.96 0.90 1.58 1.91 1.33 1.46 1.55 1.71 1.90 1.63 1.41 1.24 1.29 1.34 1.38 1.40 1.35 1.25 1.20 1.11
0.56 0.71 0.86 0.81 1.32 1.68 1.34 1.29 1.36 1.52 1.62 1.52 1.21 1.00 0.77 0.81 1.03 1.30 1.43 1.08 0.99 0.80 0.73 0.81 0.90 0.99 1.65 1.71 1.38 1.56 1.69 1.99 2.40 2.21 2.04 2.06 2.05 1.80 1.42 1.43 1.59 1.75 1.74
0.63 0.81 0.99 1.10 1.13 1.22 1.48 1.35 1.45 1.35 1.33 1.45 1.29 0.95 0.85 0.87 1.30 1.24 1.25 0.92 1.10 1.06 0.95 1.03 1.02 0.86 1.47 1.71 1.35 1.50 1.60 1.87 2.46 2.37 2.19 2.24 2.22 2.29 1.86 1.65 1.96 2.26 2.65
0.55 0.66 0.80 0.97 1.16 1.39 1.71 1.85 1.75 1.60 1.38 1.22 1.20 1.18 1.38 1.09 1.48 1.36 1.34 0.94 0.86 1.02 1.01 1.15 1.77 1.29 1.35 1.14 1.00 1.01 1.47 1.89 1.78 1.97 1.99 2.06 2.15 2.45 2.68 2.17 2.14 2.54 2.77
0.59 0.61 0.68 0.80 1.03 1.20 1.24 1.41 1.67 1.85 1.80 1.51 1.39 1.31 1.24 1.42 1.57 1.74 1.56 1.24 1.25 1.11 1.16 1.27 1.46 1.91 1.47 1.55 1.57 1.40 2.24 2.29 2.27 1.87 1.95 2.08 2.02 1.94 2.12 2.29 2.34 2.39 2.44
0.68 0.66 0.79 0.84 0.92 1.02 1.06 1.09 1.09 1.22 1.53 1.76 1.63 1.62 1.65 1.71 1.90 1.83 1.72 1.68 1.68 1.36 1.60 1.45 1.80 1.81 1.36 1.47 1.69 2.16 2.23 1.89 1.75 2.04 2.20 2.32 2.35 2.32 2.24 2.14 2.06 2.09 2.18
0.70 0.80 0.77 0.71 0.65 0.60 0.65 0.81 0.94 0.97 0.94 1.00 1.13 1.33 1.50 1.59 1.76 1.93 1.86 1.86 1.88 1.74 2.07 2.37 2.26 1.77 1.52 1.64 1.87 1.89 1.81 1.77 1.96 2.14 2.26 2.32 2.23 2.17 1.96 1.76 1.64 1.54 1.46
0.17 0.25 0.28 0.32 0.38 0.35 0.40 0.46 0.48 0.58 0.70 0.85 0.95 1.02 1.08 1.10 1.15 1.21 1.25 1.34 1.52 1.66 1.98 2.07 2.00 1.89 1.85 1.96 1.94 1.87 1.85 1.96 2.05 2.14 2.13 2.02 1.81 1.64 1.57 1.63 1.55 1.44 1.32
0.14 0.17 0.18 0.20 0.25 0.28 0.34 0.45 0.42 0.59 0.62 0.67 0.84 0.89 0.94 1.16 1.52 1.49 1.45 1.52 1.62 1.81 1.90 2.04 2.07 2.05 2.03 2.04 1.97 1.92 1.88 1.79 1.66 1.62 1.53 1.44 1.31 1.13 1.04 0.97 1.00 1.04 1.21
0.17 0.19 0.24 0.18 0.19 0.22 0.23 0.36 0.56 0.63 0.59 0.65 0.75 0.78 1.10 1.32 1.42 1.37 1.36 1.39 1.41 1.41 1.36 1.43 1.39 1.32 1.25 1.17 1.12 1.08 1.02 1.02 0.99 0.90 0.87 0.82 0.84 0.89 0.94 0.98 1.00 1.04 1.10
0.31 0.28 0.29 0.31 0.34 0.36 0.37 0.36 0.51 0.72 0.76 0.93 1.01 1.03 1.02 1.15 1.02 0.94 0.89 0.83 0.82 0.75 0.87 0.85 0.80 0.76 0.69 0.60 0.58 0.53 0.51 0.45 0.45 0.56 0.59 0.59 0.61 0.64 0.63 0.66 0.70 0.77 0.83
0.98 0.98 0.90 0.88 0.94 1.06 1.19 1.30 1.35 1.39 1.40 1.48 1.44 1.25 1.21 1.14 1.06 0.96 0.84 0.67 0.70 0.62 0.60 0.53 0.47 0.39 0.31 0.26 0.22 0.21 0.20 0.22 0.27 0.27 0.29 0.31 0.33 0.38 0.42 0.40 0.40 0.45 0.45
1.67 1.78 1.77 1.72 1.62 1.43 1.27 1.16 1.13 1.13 1.13 1.18 1.14 1.04 0.99 0.85 0.71 0.62 0.53 0.59 0.55 0.44 0.35 0.29 0.22 0.18 0.17 0.16 0.18 0.19 0.21 0.21 0.19 0.20 0.17 0.17 0.19 0.24 0.28 0.26 0.26 0.27 0.31
1.08 1.01 0.90 0.86 0.83 0.78 0.75 0.69 0.66 0.64 0.60 0.58 0.55 0.53 0.43 0.33 0.31 0.26 0.23 0.26 0.24 0.21 0.17 0.16 0.13 0.12 0.13 0.14 0.15 0.15 0.16 0.14 0.14 0.14 0.13 0.14 0.14 0.14 0.16 0.18 0.21 0.22 0.23
0.67 0.65 0.61 0.56 0.54 0.50 0.46 0.40 0.36 0.33 0.32 0.29 0.30 0.21 0.13 0.16 0.19 0.16 0.14 0.16 0.16 0.16 0.16 0.16 0.13 0.14 0.14 0.15 0.16 0.18 0.18 0.16 0.16 0.17 0.17 0.16 0.17 0.22 0.19 0.21 0.20 0.16 0.14
0.39 0.34 0.29 0.26 0.23 0.22 0.20 0.19 0.20 0.19 0.16 0.15 0.14 0.13 0.10 0.14 0.16 0.16 0.15 0.16 0.13 0.12 0.15 0.22 0.23 0.19 0.20 0.23 0.25 0.29 0.24 0.22 0.23 0.27 0.27 0.24 0.23 0.24 0.26 0.27 0.26 0.26 0.21
0.16 0.14 0.12 0.12 0.12 0.12 0.13 0.14 0.16 0.19 0.20 0.21 0.20 0.18 0.13 0.14 0.13 0.12 0.15 0.18 0.24 0.30 0.29 0.31 0.35 0.31 0.25 0.28 0.32 0.34 0.34 0.24 0.25 0.31 0.33 0.25 0.21 0.23 0.27 0.25 0.23 0.24 0.20
0.10 0.10 0.09 0.10 0.11 0.12 0.14 0.14 0.14 0.14 0.17 0.23 0.26 0.27 0.26 0.27 0.28 0.30 0.34 0.39 0.42 0.44 0.41 0.42 0.42 0.39 0.36 0.35 0.34 0.31 0.28 0.25 0.26 0.27 0.33 0.36 0.27 0.21 0.27 0.26 0.23 0.22 0.21
0.08 0.08 0.08 0.10 0.14 0.15 0.19 0.20 0.22 0.24 0.25 0.26 0.27 0.28 0.27 0.31 0.35 0.37 0.38 0.31 0.29 0.29 0.30 0.32 0.36 0.37 0.37 0.41 0.44 0.42 0.39 0.34 0.34 0.34 0.42 0.38 0.31 0.31 0.32 0.30 0.25 0.27 0.25
0.08 0.10 0.13 0.16 0.20 0.22 0.27 0.31 0.34 0.34 0.36 0.36 0.40 0.41 0.39 0.33 0.27 0.24 0.21 0.20 0.17 0.16 0.16 0.19 0.19 0.18 0.18 0.20 0.22 0.27 0.26 0.28 0.33 0.36 0.40 0.40 0.38 0.36 0.35 0.31 0.27 0.31 0.31

GFSGL_prec_precacc_147.txt.gz
Total_Precipitation_Accumulation
1.37 1.42 1.19 1.00 1.13 1.14 1.10 1.10 1.13 1.04 1.06 1.02 1.03 1.03 0.84 0.98 1.32 1.61 1.66 1.58 1.67 1.71 1.77 1.55 1.18 1.08 1.11 1.09 1.13 1.11 1.02 1.02 0.88 0.57 0.33 0.26 0.26 0.28 0.26 0.24 0.19 0.14 0.17
1.32 1.55 1.67 1.40 1.71 2.06 2.10 1.80 1.93 1.88 1.64 1.50 1.19 1.00 0.80 0.67 0.83 1.43 1.75 1.61 1.40 1.64 1.93 1.91 1.56 1.38 1.34 1.28 1.23 1.12 0.94 0.90 0.99 0.77 0.54 0.39 0.30 0.24 0.29 0.33 0.31 0.26 0.19
1.93 1.82 1.65 1.39 1.76 1.58 1.21 0.99 0.86 0.82 0.79 0.83 0.83 0.82 0.84 0.61 0.53 0.72 1.17 1.69 1.56 1.37 1.56 1.86 1.61 1.39 1.21 1.16 1.09 0.90 0.77 0.75 0.86 0.89 0.69 0.50 0.43 0.36 0.40 0.49 0.43 0.25 0.15
1.70 1.73 1.52 1.37 1.28 1.03 0.88 0.78 0.65 0.57 0.36 0.43 0.63 0.78 0.99 0.93 0.95 0.92 0.97 1.06 1.46 1.43 1.32 1.32 1.50 1.44 1.07 0.92 0.90 0.94 0.99 0.92 0.74 0.76 0.71 0.62 0.49 0.46 0.73 0.61 0.40 0.31 0.28
1.46 1.91 1.81 1.56 1.43 1.52 1.54 1.41 0.88 0.76 0.66 0.52 0.48 0.45 0.79 1.15 0.84 0.77 0.72 1.01 1.20 1.40 1.41 1.43 1.20 1.48 1.45 1.24 1.11 0.91 0.92 1.03 1.07 0.93 0.87 0.81 0.76 0.80 0.88 0.81 0.82 0.69 0.77
0.71 1.16 1.60 1.97 1.29 1.34 1.61 1.81 1.36 0.94 1.02 0.78 0.85 0.68 0.62 0.87 1.28 0.93 0.79 0.61 0.82 1.03 1.09 1.08 1.48 1.70 1.24 1.26 1.36 1.39 1.33 1.21 1.10 1.09 0.98 0.88 0.72 0.70 0.76 0.90 0.93 1.05 1.14
0.60 0.97 1.12 1.39 1.81 1.40 1.57 1.68 1.93 1.59 1.26 1.24 1.00 0.98 0.91 0.87 1.41 0.98 1.07 0.96 0.85 0.71 0.85 0.96 0.90 1.58 1.91 1.33 1.46 1.55 1.71 1.90 1.63 1.41 1.24 1.29 1.34 1.38 1.40 1.35 1.25 1.20 1.11
0.63 0.78 0.90 0.81 1.32 1.68 1.34 1.29 1.36 1.52 1.62 1.52 1.21 1.00 0.77 0.81 1.03 1.30 1.43 1.08 0.99 0.80 0.73 0.81 0.90 0.99 1.65 1.71 1.38 1.56 1.69 1.99 2.40 2.21 2.04 2.06 2.05 1.80 1.42 1.43 1.59 1.75 1.75
0.75 0.89 1.02 1.10 1.13 1.22 1.48 1.35 1.45 1.35 1.33 1.45 1.29 0.95 0.85 0.87 1.30 1.24 1.25 0.92 1.10 1.06 0.95 1.03 1.02 0.86 1.47 1.71 1.35 1.50 1.60 1.87 2.46 2.37 2.19 2.24 2.22 2.29 1.86 1.65 1.96 2.26 2.65
0.67 0.71 0.82 0.97 1.16 1.39 1.71 1.85 1.75 1.60 1.38 1.22 1.20 1.18 1.38 1.09 1.48 1.36 1.34 0.94 0.86 1.02 1.01 1.15 1.77 1.29 1.35 1.14 1.00 1.01 1.47 1.89 1.78 1.97 1.99 2.06 2.15 2.45 2.68 2.17 2.14 2.54 2.77
0.69 0.64 0.68 0.80 1.03 1.20 1.24 1.41 1.67 1.85 1.80 1.51 1.39 1.31 1.24 1.42 1.57 1.74 1.56 1.24 1.25 1.11 1.16 1.27 1.46 1.91 1.47 1.55 1.57 1.40 2.24 2.29 2.27 1.87 1.95 2.08 2.02 1.94 2.12 2.29 2.34 2.39 2.44
0.72 0.67 0.79 0.84 0.92 1.02 1.06 1.09 1.09 1.22 1.53 1.76 1.63 1.62 1.65 1.71 1.91 1.83 1.72 1.68 1.68 1.36 1.60 1.45 1.80 1.81 1.36 1.47 1.69 2.16 2.23 1.89 1.75 2.04 2.20 2.32 2.35 2.32 2.24 2.14 2.06 2.09 2.18
0.74 0.80 0.77 0.71 0.65 0.60 0.65 0.81 0.94 0.97 0.94 1.00 1.13 1.33 1.50 1.60 1.77 1.94 1.87 1.86 1.88 1.74 2.07 2.37 2.26 1.77 1.52 1.64 1.87 1.89 1.81 1.77 1.96 2.14 2.26 2.32 2.23 2.17 1.96 1.76 1.64 1.54 1.46
0.18 0.25 0.28 0.32 0.38 0.35 0.40 0.46 0.48 0.58 0.70 0.85 0.95 1.02 1.08 1.10 1.15 1.21 1.25 1.34 1.52 1.66 1.98 2.07 2.00 1.89 1.85 1.96 1.94 1.87 1.85 1.96 2.05 2.14 2.13 2.02 1.81 1.64 1.57 1.63 1.55 1.44 1.32
0.18 0.17 0.18 0.20 0.25 0.28 0.34 0.45 0.42 0.59 0.62 0.67 0.84 0.89 0.94 1.16 1.52 1.49 1.45 1.52 1.62 1.81 1.90 2.04 2.07 2.05 2.03 2.04 1.97 1.92 1.88 1.79 1.66 1.62 1.53 1.44 1.31 1.13 1.04 0.97 1.00 1.04 1.21
0.18 0.19 0.24 0.18 0.20 0.22 0.23 0.37 0.57 0.63 0.59 0.65 0.75 0.78 1.10 1.32 1.42 1.37 1.36 1.39 1.41 1.41 1.36 1.43 1.39 1.32 1.25 1.17 1.12 1.08 1.02 1.02 0.99 0.90 0.87 0.82 0.84 0.89 0.94 0.98 1.00 1.04 1.10
0.31 0.28 0.29 0.31 0.34 0.36 0.37 0.36 0.52 0.72 0.76 0.93 1.01 1.03 1.02 1.15 1.03 0.95 0.89 0.83 0.82 0.75 0.87 0.85 0.80 0.76 0.69 0.60 0.58 0.53 0.51 0.45 0.45 0.56 0.59 0.59 0.61 0.64 0.63 0.66 0.70 0.77 0.83
0.98 0.98 0.91 0.88 0.94 1.07 1.19 1.30 1.35 1.39 1.40 1.48 1.44 1.26 1.21 1.14 1.06 0.96 0.84 0.67 0.70 0.62 0.60 0.53 0.47 0.39 0.31 0.26 0.22 0.21 0.20 0.22 0.27 0.27 0.29 0.31 0.33 0.38 0.42 0.40 0.40 0.45 0.45
1.70 1.81 1.79 1.72 1.62 1.43 1.27 1.16 1.13 1.13 1.13 1.18 1.14 1.05 1.00 0.85 0.71 0.62 0.53 0.59 0.55 0.44 0.35 0.29 0.22 0.18 0.17 0.16 0.18 0.19 0.21 0.21 0.19 0.20 0.17 0.17 0.19 0.24 0.28 0.26 0.26 0.27 0.31
1.10 1.02 0.90 0.86 0.83 0.78 0.75 0.69 0.66 0.64 0.60 0.58 0.55 0.54 0.43 0.33 0.31 0.26 0.23 0.26 0.24 0.21 0.17 0.16 0.13 0.12 0.13 0.14 0.15 0.15 0.16 0.14 0.14 0.14 0.13 0.14 0.14 0.14 0.16 0.18 0.21 0.22 0.23
0.68 0.66 0.61 0.56 0.54 0.50 0.46 0.40 0.36 0.33 0.32 0.29 0.30 0.21 0.13 0.16 0.19 0.16 0.14 0.16 0.16 0.16 0.16 0.16 0.13 0.14 0.14 0.15 0.16 0.18 0.18 0.16 0.16 0.17 0.17 0.16 0.17 0.22 0.19 0.21 0.20 0.16 0.14
0.40 0.34 0.29 0.26 0.23 0.22 0.20 0.19 0.20 0.19 0.16 0.15 0.14 0.13 0.10 0.14 0.16 0.16 0.15 0.16 0.13 0.12 0.15 0.22 0.23 0.19 0.20 0.23 0.25 0.29 0.24 0.22 0.23 0.27 0.27 0.24 0.23 0.24 0.26 0.27 0.26 0.26 0.21
0.17 0.15 0.12 0.12 0.12 0.12 0.13 0.14 0.16 0.19 0.20 0.21 0.20 0.18 0.13 0.14 0.13 0.12 0.15 0.18 0.24 0.30 0.29 0.31 0.35 0.31 0.25 0.28 0.32 0.34 0.34 0.24 0.25 0.31 0.33 0.25 0.21 0.23 0.27 0.25 0.23 0.24 0.20
0.11 0.10 0.09 0.10 0.11 0.12 0.14 0.14 0.14 0.14 0.17 0.23 0.26 0.27 0.26 0.27 0.28 0.30 0.34 0.39 0.42 0.44 0.41 0.42 0.42 0.39 0.36 0.35 0.34 0.31 0.28 0.25 0.26 0.27 0.33 0.36 0.27 0.21 0.27 0.26 0.23 0.22 0.21
0.09 0.08 0.08 0.10 0.14 0.15 0.19 0.20 0.22 0.24 0.25 0.26 0.27 0.28 0.27 0.31 0.35 0.37 0.38 0.31 0.29 0.29 0.30 0.32 0.36 0.37 0.37 0.41 0.44 0.42 0.39 0.34 0.34 0.34 0.42 0.38 0.31 0.31 0.32 0.30 0.25 0.27 0.25
0.08 0.10 0.13 0.16 0.20 0.22 0.27 0.31 0.34 0.34 0.36 0.36 0.40 0.41 0.39 0.33 0.27 0.24 0.21 0.20 0.17 0.16 0.16 0.19 0.19 0.18 0.18 0.20 0.22 0.27 0.26 0.28 0.33 0.36 0.40 0.40 0.38 0.36 0.35 0.31 0.27 0.31 0.31